<?xml version="1.0" encoding="UTF-8" standalone="no" ?>
<gpx xmlns="http://www.topografix.com/GPX/1/1" xmlns:xsi="http://www.w3.org/2001/XMLSchema-instance" xsi:schemaLocation="http://www.topografix.com/GPX/1/1 http://www.topografix.com/GPX/1/1/gpx.xsd" version="1.1" creator="VisuGPX - https://www.visugpx.com">
  <metadata>
    <name>Croix rampaux</name>
  </metadata>
  <trk>
    <name><![CDATA[2023 06 14 Croix rampaux]]></name>
    <trkseg>
      <trkpt lat="45.8332" lon="4.70963">
        <ele>358.323</ele>
        <time>2023-06-14T16:56:18.000Z</time>
      </trkpt>
      <trkpt lat="45.83318" lon="4.70971">
        <ele>333.79306</ele>
        <time>2023-06-14T16:56:19.688Z</time>
      </trkpt>
      <trkpt lat="45.83314" lon="4.70977">
        <ele>325.84055</ele>
        <time>2023-06-14T16:56:22.000Z</time>
      </trkpt>
      <trkpt lat="45.83312" lon="4.70981">
        <ele>321.7196</ele>
        <time>2023-06-14T16:56:23.000Z</time>
      </trkpt>
      <trkpt lat="45.83311" lon="4.70986">
        <ele>319.09335</ele>
        <time>2023-06-14T16:56:24.000Z</time>
      </trkpt>
      <trkpt lat="45.8331" lon="4.70991">
        <ele>317.3457</ele>
        <time>2023-06-14T16:56:25.000Z</time>
      </trkpt>
      <trkpt lat="45.83311" lon="4.70996">
        <ele>316.095</ele>
        <time>2023-06-14T16:56:26.000Z</time>
      </trkpt>
      <trkpt lat="45.83314" lon="4.71">
        <ele>315.15491</ele>
        <time>2023-06-14T16:56:27.000Z</time>
      </trkpt>
      <trkpt lat="45.83317" lon="4.71002">
        <ele>314.50037</ele>
        <time>2023-06-14T16:56:28.000Z</time>
      </trkpt>
      <trkpt lat="45.8332" lon="4.71002">
        <ele>313.91684</ele>
        <time>2023-06-14T16:56:29.000Z</time>
      </trkpt>
      <trkpt lat="45.83322" lon="4.71003">
        <ele>313.51944</ele>
        <time>2023-06-14T16:56:30.000Z</time>
      </trkpt>
      <trkpt lat="45.83325" lon="4.71003">
        <ele>313.20004</ele>
        <time>2023-06-14T16:56:31.000Z</time>
      </trkpt>
      <trkpt lat="45.83328" lon="4.71003">
        <ele>313.00488</ele>
        <time>2023-06-14T16:56:32.000Z</time>
      </trkpt>
      <trkpt lat="45.83332" lon="4.71003">
        <ele>312.80582</ele>
        <time>2023-06-14T16:56:33.000Z</time>
      </trkpt>
      <trkpt lat="45.83335" lon="4.71001">
        <ele>312.64224</ele>
        <time>2023-06-14T16:56:34.000Z</time>
      </trkpt>
      <trkpt lat="45.83339" lon="4.71">
        <ele>312.49628</ele>
        <time>2023-06-14T16:56:35.000Z</time>
      </trkpt>
      <trkpt lat="45.83342" lon="4.71">
        <ele>312.41904</ele>
        <time>2023-06-14T16:56:36.000Z</time>
      </trkpt>
      <trkpt lat="45.83346" lon="4.70999">
        <ele>312.36292</ele>
        <time>2023-06-14T16:56:37.000Z</time>
      </trkpt>
      <trkpt lat="45.8335" lon="4.70999">
        <ele>312.31</ele>
        <time>2023-06-14T16:56:38.000Z</time>
      </trkpt>
      <trkpt lat="45.83354" lon="4.70998">
        <ele>312.25201</ele>
        <time>2023-06-14T16:56:39.000Z</time>
      </trkpt>
      <trkpt lat="45.83358" lon="4.70998">
        <ele>309.91852</ele>
        <time>2023-06-14T16:56:40.000Z</time>
      </trkpt>
      <trkpt lat="45.83362" lon="4.70997">
        <ele>310.00351</ele>
        <time>2023-06-14T16:56:41.000Z</time>
      </trkpt>
      <trkpt lat="45.83366" lon="4.70996">
        <ele>310.04974</ele>
        <time>2023-06-14T16:56:42.000Z</time>
      </trkpt>
      <trkpt lat="45.83369" lon="4.70996">
        <ele>310.10641</ele>
        <time>2023-06-14T16:56:43.000Z</time>
      </trkpt>
      <trkpt lat="45.83373" lon="4.70995">
        <ele>310.20453</ele>
        <time>2023-06-14T16:56:44.000Z</time>
      </trkpt>
      <trkpt lat="45.83377" lon="4.70994">
        <ele>310.28699</ele>
        <time>2023-06-14T16:56:45.000Z</time>
      </trkpt>
      <trkpt lat="45.83381" lon="4.70994">
        <ele>310.35837</ele>
        <time>2023-06-14T16:56:46.000Z</time>
      </trkpt>
      <trkpt lat="45.83385" lon="4.70993">
        <ele>310.41812</ele>
        <time>2023-06-14T16:56:47.000Z</time>
      </trkpt>
      <trkpt lat="45.83389" lon="4.70993">
        <ele>310.45377</ele>
        <time>2023-06-14T16:56:48.000Z</time>
      </trkpt>
      <trkpt lat="45.83393" lon="4.70992">
        <ele>310.51779</ele>
        <time>2023-06-14T16:56:49.000Z</time>
      </trkpt>
      <trkpt lat="45.83396" lon="4.70991">
        <ele>310.55164</ele>
        <time>2023-06-14T16:56:50.000Z</time>
      </trkpt>
      <trkpt lat="45.834" lon="4.7099">
        <ele>310.59384</ele>
        <time>2023-06-14T16:56:51.000Z</time>
      </trkpt>
      <trkpt lat="45.83404" lon="4.70988">
        <ele>310.5658</ele>
        <time>2023-06-14T16:56:52.000Z</time>
      </trkpt>
      <trkpt lat="45.83408" lon="4.70987">
        <ele>310.55756</ele>
        <time>2023-06-14T16:56:53.000Z</time>
      </trkpt>
      <trkpt lat="45.83412" lon="4.70986">
        <ele>310.52948</ele>
        <time>2023-06-14T16:56:54.000Z</time>
      </trkpt>
      <trkpt lat="45.83417" lon="4.70986">
        <ele>310.49579</ele>
        <time>2023-06-14T16:56:55.000Z</time>
      </trkpt>
      <trkpt lat="45.83422" lon="4.70987">
        <ele>310.42612</ele>
        <time>2023-06-14T16:56:56.000Z</time>
      </trkpt>
      <trkpt lat="45.83427" lon="4.70986">
        <ele>310.35779</ele>
        <time>2023-06-14T16:56:57.000Z</time>
      </trkpt>
      <trkpt lat="45.83433" lon="4.70987">
        <ele>310.2695</ele>
        <time>2023-06-14T16:56:58.000Z</time>
      </trkpt>
      <trkpt lat="45.83439" lon="4.70987">
        <ele>310.20892</ele>
        <time>2023-06-14T16:56:59.000Z</time>
      </trkpt>
      <trkpt lat="45.83445" lon="4.70988">
        <ele>310.12357</ele>
        <time>2023-06-14T16:57:00.000Z</time>
      </trkpt>
      <trkpt lat="45.83451" lon="4.70987">
        <ele>310.05988</ele>
        <time>2023-06-14T16:57:01.000Z</time>
      </trkpt>
      <trkpt lat="45.83458" lon="4.70987">
        <ele>309.98615</ele>
        <time>2023-06-14T16:57:02.000Z</time>
      </trkpt>
      <trkpt lat="45.83465" lon="4.70987">
        <ele>309.93253</ele>
        <time>2023-06-14T16:57:03.000Z</time>
      </trkpt>
      <trkpt lat="45.83472" lon="4.70987">
        <ele>309.86743</ele>
        <time>2023-06-14T16:57:04.000Z</time>
      </trkpt>
      <trkpt lat="45.83479" lon="4.70987">
        <ele>309.79736</ele>
        <time>2023-06-14T16:57:05.000Z</time>
      </trkpt>
      <trkpt lat="45.83486" lon="4.70988">
        <ele>309.72034</ele>
        <time>2023-06-14T16:57:06.000Z</time>
      </trkpt>
      <trkpt lat="45.83493" lon="4.70989">
        <ele>309.65829</ele>
        <time>2023-06-14T16:57:07.000Z</time>
      </trkpt>
      <trkpt lat="45.83499" lon="4.70989">
        <ele>309.56851</ele>
        <time>2023-06-14T16:57:08.000Z</time>
      </trkpt>
      <trkpt lat="45.83506" lon="4.70992">
        <ele>309.48132</ele>
        <time>2023-06-14T16:57:09.000Z</time>
      </trkpt>
      <trkpt lat="45.83513" lon="4.70994">
        <ele>309.37219</ele>
        <time>2023-06-14T16:57:10.000Z</time>
      </trkpt>
      <trkpt lat="45.8352" lon="4.70999">
        <ele>309.22345</ele>
        <time>2023-06-14T16:57:11.000Z</time>
      </trkpt>
      <trkpt lat="45.83526" lon="4.71005">
        <ele>309.09225</ele>
        <time>2023-06-14T16:57:12.000Z</time>
      </trkpt>
      <trkpt lat="45.83531" lon="4.71009">
        <ele>308.948</ele>
        <time>2023-06-14T16:57:13.000Z</time>
      </trkpt>
      <trkpt lat="45.83537" lon="4.71014">
        <ele>308.81195</ele>
        <time>2023-06-14T16:57:14.000Z</time>
      </trkpt>
      <trkpt lat="45.83543" lon="4.71019">
        <ele>308.59601</ele>
        <time>2023-06-14T16:57:15.000Z</time>
      </trkpt>
      <trkpt lat="45.83549" lon="4.71023">
        <ele>308.34467</ele>
        <time>2023-06-14T16:57:16.000Z</time>
      </trkpt>
      <trkpt lat="45.83555" lon="4.71028">
        <ele>308.06528</ele>
        <time>2023-06-14T16:57:17.000Z</time>
      </trkpt>
      <trkpt lat="45.8356" lon="4.71032">
        <ele>307.7865</ele>
        <time>2023-06-14T16:57:18.000Z</time>
      </trkpt>
      <trkpt lat="45.83566" lon="4.71036">
        <ele>307.4902</ele>
        <time>2023-06-14T16:57:19.000Z</time>
      </trkpt>
      <trkpt lat="45.83572" lon="4.7104">
        <ele>307.2811</ele>
        <time>2023-06-14T16:57:20.000Z</time>
      </trkpt>
      <trkpt lat="45.83578" lon="4.71044">
        <ele>307.06683</ele>
        <time>2023-06-14T16:57:21.000Z</time>
      </trkpt>
      <trkpt lat="45.83584" lon="4.71047">
        <ele>306.86456</ele>
        <time>2023-06-14T16:57:22.000Z</time>
      </trkpt>
      <trkpt lat="45.8359" lon="4.71052">
        <ele>306.66815</ele>
        <time>2023-06-14T16:57:23.000Z</time>
      </trkpt>
      <trkpt lat="45.83596" lon="4.71055">
        <ele>306.47101</ele>
        <time>2023-06-14T16:57:24.000Z</time>
      </trkpt>
      <trkpt lat="45.83602" lon="4.7106">
        <ele>306.27032</ele>
        <time>2023-06-14T16:57:25.000Z</time>
      </trkpt>
      <trkpt lat="45.83608" lon="4.71064">
        <ele>306.09048</ele>
        <time>2023-06-14T16:57:26.000Z</time>
      </trkpt>
      <trkpt lat="45.83614" lon="4.71069">
        <ele>305.9111</ele>
        <time>2023-06-14T16:57:27.000Z</time>
      </trkpt>
      <trkpt lat="45.8362" lon="4.71075">
        <ele>305.73804</ele>
        <time>2023-06-14T16:57:28.000Z</time>
      </trkpt>
      <trkpt lat="45.83626" lon="4.7108">
        <ele>305.48224</ele>
        <time>2023-06-14T16:57:29.000Z</time>
      </trkpt>
      <trkpt lat="45.83632" lon="4.71086">
        <ele>305.24728</ele>
        <time>2023-06-14T16:57:30.000Z</time>
      </trkpt>
      <trkpt lat="45.83638" lon="4.71091">
        <ele>305.02759</ele>
        <time>2023-06-14T16:57:31.000Z</time>
      </trkpt>
      <trkpt lat="45.83645" lon="4.71099">
        <ele>304.78839</ele>
        <time>2023-06-14T16:57:32.000Z</time>
      </trkpt>
      <trkpt lat="45.83651" lon="4.71104">
        <ele>304.54822</ele>
        <time>2023-06-14T16:57:33.000Z</time>
      </trkpt>
      <trkpt lat="45.83657" lon="4.71111">
        <ele>304.29181</ele>
        <time>2023-06-14T16:57:34.000Z</time>
      </trkpt>
      <trkpt lat="45.83664" lon="4.71116">
        <ele>304.08844</ele>
        <time>2023-06-14T16:57:35.000Z</time>
      </trkpt>
      <trkpt lat="45.83671" lon="4.71122">
        <ele>303.94696</ele>
        <time>2023-06-14T16:57:36.000Z</time>
      </trkpt>
      <trkpt lat="45.83677" lon="4.71128">
        <ele>303.83853</ele>
        <time>2023-06-14T16:57:37.000Z</time>
      </trkpt>
      <trkpt lat="45.83684" lon="4.71134">
        <ele>303.74069</ele>
        <time>2023-06-14T16:57:38.000Z</time>
      </trkpt>
      <trkpt lat="45.8369" lon="4.7114">
        <ele>303.48969</ele>
        <time>2023-06-14T16:57:39.000Z</time>
      </trkpt>
      <trkpt lat="45.83695" lon="4.71144">
        <ele>303.16721</ele>
        <time>2023-06-14T16:57:40.000Z</time>
      </trkpt>
      <trkpt lat="45.83699" lon="4.7115">
        <ele>302.86411</ele>
        <time>2023-06-14T16:57:41.000Z</time>
      </trkpt>
      <trkpt lat="45.83698" lon="4.71156">
        <ele>302.55496</ele>
        <time>2023-06-14T16:57:42.000Z</time>
      </trkpt>
      <trkpt lat="45.83697" lon="4.71162">
        <ele>302.22876</ele>
        <time>2023-06-14T16:57:43.000Z</time>
      </trkpt>
      <trkpt lat="45.83695" lon="4.71169">
        <ele>301.92206</ele>
        <time>2023-06-14T16:57:44.000Z</time>
      </trkpt>
      <trkpt lat="45.83692" lon="4.71177">
        <ele>301.6236</ele>
        <time>2023-06-14T16:57:45.000Z</time>
      </trkpt>
      <trkpt lat="45.8369" lon="4.71184">
        <ele>301.32208</ele>
        <time>2023-06-14T16:57:46.000Z</time>
      </trkpt>
      <trkpt lat="45.83688" lon="4.71191">
        <ele>300.99615</ele>
        <time>2023-06-14T16:57:47.000Z</time>
      </trkpt>
      <trkpt lat="45.83685" lon="4.71198">
        <ele>300.68671</ele>
        <time>2023-06-14T16:57:48.000Z</time>
      </trkpt>
      <trkpt lat="45.83684" lon="4.71204">
        <ele>300.45953</ele>
        <time>2023-06-14T16:57:49.000Z</time>
      </trkpt>
      <trkpt lat="45.83683" lon="4.71212">
        <ele>300.20026</ele>
        <time>2023-06-14T16:57:50.000Z</time>
      </trkpt>
      <trkpt lat="45.83681" lon="4.7122">
        <ele>299.93942</ele>
        <time>2023-06-14T16:57:51.000Z</time>
      </trkpt>
      <trkpt lat="45.83678" lon="4.71227">
        <ele>299.73459</ele>
        <time>2023-06-14T16:57:52.000Z</time>
      </trkpt>
      <trkpt lat="45.83676" lon="4.71235">
        <ele>299.59067</ele>
        <time>2023-06-14T16:57:53.000Z</time>
      </trkpt>
      <trkpt lat="45.83674" lon="4.71243">
        <ele>299.33444</ele>
        <time>2023-06-14T16:57:54.000Z</time>
      </trkpt>
      <trkpt lat="45.83674" lon="4.71252">
        <ele>299.11591</ele>
        <time>2023-06-14T16:57:55.000Z</time>
      </trkpt>
      <trkpt lat="45.83672" lon="4.7126">
        <ele>298.84259</ele>
        <time>2023-06-14T16:57:56.000Z</time>
      </trkpt>
      <trkpt lat="45.8367" lon="4.71267">
        <ele>298.54465</ele>
        <time>2023-06-14T16:57:57.000Z</time>
      </trkpt>
      <trkpt lat="45.83668" lon="4.71275">
        <ele>298.37418</ele>
        <time>2023-06-14T16:57:58.000Z</time>
      </trkpt>
      <trkpt lat="45.83666" lon="4.71283">
        <ele>298.22012</ele>
        <time>2023-06-14T16:57:59.000Z</time>
      </trkpt>
      <trkpt lat="45.83665" lon="4.7129">
        <ele>298.04886</ele>
        <time>2023-06-14T16:58:00.000Z</time>
      </trkpt>
      <trkpt lat="45.83663" lon="4.71297">
        <ele>297.94699</ele>
        <time>2023-06-14T16:58:01.000Z</time>
      </trkpt>
      <trkpt lat="45.83661" lon="4.71305">
        <ele>297.79755</ele>
        <time>2023-06-14T16:58:02.000Z</time>
      </trkpt>
      <trkpt lat="45.83658" lon="4.71313">
        <ele>297.68613</ele>
        <time>2023-06-14T16:58:03.000Z</time>
      </trkpt>
      <trkpt lat="45.83657" lon="4.71321">
        <ele>297.58231</ele>
        <time>2023-06-14T16:58:04.000Z</time>
      </trkpt>
      <trkpt lat="45.83655" lon="4.71328">
        <ele>297.49988</ele>
        <time>2023-06-14T16:58:05.000Z</time>
      </trkpt>
      <trkpt lat="45.83653" lon="4.71336">
        <ele>297.38409</ele>
        <time>2023-06-14T16:58:06.000Z</time>
      </trkpt>
      <trkpt lat="45.83651" lon="4.71344">
        <ele>297.30743</ele>
        <time>2023-06-14T16:58:07.000Z</time>
      </trkpt>
      <trkpt lat="45.8365" lon="4.71353">
        <ele>297.22449</ele>
        <time>2023-06-14T16:58:08.000Z</time>
      </trkpt>
      <trkpt lat="45.83648" lon="4.7136">
        <ele>297.11252</ele>
        <time>2023-06-14T16:58:09.000Z</time>
      </trkpt>
      <trkpt lat="45.83647" lon="4.71368">
        <ele>297.04819</ele>
        <time>2023-06-14T16:58:10.000Z</time>
      </trkpt>
      <trkpt lat="45.83645" lon="4.71376">
        <ele>297.01862</ele>
        <time>2023-06-14T16:58:11.000Z</time>
      </trkpt>
      <trkpt lat="45.83643" lon="4.71384">
        <ele>296.93466</ele>
        <time>2023-06-14T16:58:12.000Z</time>
      </trkpt>
      <trkpt lat="45.83641" lon="4.71393">
        <ele>296.78088</ele>
        <time>2023-06-14T16:58:13.000Z</time>
      </trkpt>
      <trkpt lat="45.83639" lon="4.714">
        <ele>296.7547</ele>
        <time>2023-06-14T16:58:14.000Z</time>
      </trkpt>
      <trkpt lat="45.83637" lon="4.71408">
        <ele>296.80057</ele>
        <time>2023-06-14T16:58:15.000Z</time>
      </trkpt>
      <trkpt lat="45.83636" lon="4.71416">
        <ele>296.92099</ele>
        <time>2023-06-14T16:58:16.000Z</time>
      </trkpt>
      <trkpt lat="45.83635" lon="4.71424">
        <ele>297.06027</ele>
        <time>2023-06-14T16:58:17.000Z</time>
      </trkpt>
      <trkpt lat="45.83633" lon="4.71432">
        <ele>297.06696</ele>
        <time>2023-06-14T16:58:18.000Z</time>
      </trkpt>
      <trkpt lat="45.83632" lon="4.7144">
        <ele>297.0528</ele>
        <time>2023-06-14T16:58:19.000Z</time>
      </trkpt>
      <trkpt lat="45.8363" lon="4.71449">
        <ele>297.10724</ele>
        <time>2023-06-14T16:58:20.000Z</time>
      </trkpt>
      <trkpt lat="45.83627" lon="4.71457">
        <ele>297.12021</ele>
        <time>2023-06-14T16:58:21.000Z</time>
      </trkpt>
      <trkpt lat="45.83623" lon="4.71464">
        <ele>297.16513</ele>
        <time>2023-06-14T16:58:22.000Z</time>
      </trkpt>
      <trkpt lat="45.8362" lon="4.7147">
        <ele>297.13849</ele>
        <time>2023-06-14T16:58:23.000Z</time>
      </trkpt>
      <trkpt lat="45.83616" lon="4.71476">
        <ele>297.06989</ele>
        <time>2023-06-14T16:58:24.000Z</time>
      </trkpt>
      <trkpt lat="45.83612" lon="4.71482">
        <ele>297.06451</ele>
        <time>2023-06-14T16:58:25.000Z</time>
      </trkpt>
      <trkpt lat="45.83607" lon="4.71486">
        <ele>297.18265</ele>
        <time>2023-06-14T16:58:26.000Z</time>
      </trkpt>
      <trkpt lat="45.83608" lon="4.71494">
        <ele>297.32446</ele>
        <time>2023-06-14T16:58:27.000Z</time>
      </trkpt>
      <trkpt lat="45.83609" lon="4.71501">
        <ele>297.46609</ele>
        <time>2023-06-14T16:58:28.000Z</time>
      </trkpt>
      <trkpt lat="45.83611" lon="4.71508">
        <ele>297.63922</ele>
        <time>2023-06-14T16:58:29.000Z</time>
      </trkpt>
      <trkpt lat="45.83614" lon="4.71515">
        <ele>297.8815</ele>
        <time>2023-06-14T16:58:30.000Z</time>
      </trkpt>
      <trkpt lat="45.83616" lon="4.71522">
        <ele>298.15137</ele>
        <time>2023-06-14T16:58:31.000Z</time>
      </trkpt>
      <trkpt lat="45.8362" lon="4.71529">
        <ele>298.21503</ele>
        <time>2023-06-14T16:58:32.000Z</time>
      </trkpt>
      <trkpt lat="45.83621" lon="4.71537">
        <ele>298.27515</ele>
        <time>2023-06-14T16:58:33.000Z</time>
      </trkpt>
      <trkpt lat="45.83621" lon="4.71546">
        <ele>298.30493</ele>
        <time>2023-06-14T16:58:34.000Z</time>
      </trkpt>
      <trkpt lat="45.83621" lon="4.71555">
        <ele>298.27472</ele>
        <time>2023-06-14T16:58:35.000Z</time>
      </trkpt>
      <trkpt lat="45.83619" lon="4.71563">
        <ele>298.18011</ele>
        <time>2023-06-14T16:58:36.000Z</time>
      </trkpt>
      <trkpt lat="45.83619" lon="4.71571">
        <ele>298.09186</ele>
        <time>2023-06-14T16:58:37.000Z</time>
      </trkpt>
      <trkpt lat="45.83619" lon="4.71578">
        <ele>297.9632</ele>
        <time>2023-06-14T16:58:38.000Z</time>
      </trkpt>
      <trkpt lat="45.83619" lon="4.71583">
        <ele>298.08481</ele>
        <time>2023-06-14T16:58:39.000Z</time>
      </trkpt>
      <trkpt lat="45.83619" lon="4.7159">
        <ele>298.1488</ele>
        <time>2023-06-14T16:58:40.000Z</time>
      </trkpt>
      <trkpt lat="45.8362" lon="4.71598">
        <ele>298.27155</ele>
        <time>2023-06-14T16:58:41.000Z</time>
      </trkpt>
      <trkpt lat="45.83623" lon="4.71606">
        <ele>298.42657</ele>
        <time>2023-06-14T16:58:42.000Z</time>
      </trkpt>
      <trkpt lat="45.83624" lon="4.71614">
        <ele>298.56693</ele>
        <time>2023-06-14T16:58:43.000Z</time>
      </trkpt>
      <trkpt lat="45.83625" lon="4.71622">
        <ele>298.41278</ele>
        <time>2023-06-14T16:58:44.000Z</time>
      </trkpt>
      <trkpt lat="45.83629" lon="4.71631">
        <ele>298.25116</ele>
        <time>2023-06-14T16:58:45.000Z</time>
      </trkpt>
      <trkpt lat="45.83632" lon="4.71638">
        <ele>297.96649</ele>
        <time>2023-06-14T16:58:46.000Z</time>
      </trkpt>
      <trkpt lat="45.83638" lon="4.71643">
        <ele>297.57623</ele>
        <time>2023-06-14T16:58:47.000Z</time>
      </trkpt>
      <trkpt lat="45.83644" lon="4.71651">
        <ele>297.17392</ele>
        <time>2023-06-14T16:58:48.000Z</time>
      </trkpt>
      <trkpt lat="45.83651" lon="4.71653">
        <ele>296.98297</ele>
        <time>2023-06-14T16:58:49.000Z</time>
      </trkpt>
      <trkpt lat="45.83659" lon="4.71655">
        <ele>296.79764</ele>
        <time>2023-06-14T16:58:50.000Z</time>
      </trkpt>
      <trkpt lat="45.83667" lon="4.71655">
        <ele>296.61133</ele>
        <time>2023-06-14T16:58:51.000Z</time>
      </trkpt>
      <trkpt lat="45.83673" lon="4.71652">
        <ele>296.32922</ele>
        <time>2023-06-14T16:58:52.000Z</time>
      </trkpt>
      <trkpt lat="45.8368" lon="4.71647">
        <ele>296.21576</ele>
        <time>2023-06-14T16:58:53.000Z</time>
      </trkpt>
      <trkpt lat="45.83685" lon="4.71644">
        <ele>296.13113</ele>
        <time>2023-06-14T16:58:54.000Z</time>
      </trkpt>
      <trkpt lat="45.8369" lon="4.71642">
        <ele>296.02078</ele>
        <time>2023-06-14T16:58:55.000Z</time>
      </trkpt>
      <trkpt lat="45.83696" lon="4.71646">
        <ele>295.88989</ele>
        <time>2023-06-14T16:58:56.000Z</time>
      </trkpt>
      <trkpt lat="45.837" lon="4.71652">
        <ele>295.77872</ele>
        <time>2023-06-14T16:58:57.000Z</time>
      </trkpt>
      <trkpt lat="45.83704" lon="4.7166">
        <ele>295.72955</ele>
        <time>2023-06-14T16:58:58.000Z</time>
      </trkpt>
      <trkpt lat="45.83708" lon="4.71668">
        <ele>295.47186</ele>
        <time>2023-06-14T16:58:59.000Z</time>
      </trkpt>
      <trkpt lat="45.83711" lon="4.71676">
        <ele>294.67569</ele>
        <time>2023-06-14T16:59:00.000Z</time>
      </trkpt>
      <trkpt lat="45.83715" lon="4.71684">
        <ele>293.76105</ele>
        <time>2023-06-14T16:59:01.000Z</time>
      </trkpt>
      <trkpt lat="45.83719" lon="4.71691">
        <ele>292.83023</ele>
        <time>2023-06-14T16:59:02.000Z</time>
      </trkpt>
      <trkpt lat="45.83724" lon="4.71693">
        <ele>291.98581</ele>
        <time>2023-06-14T16:59:03.000Z</time>
      </trkpt>
      <trkpt lat="45.83729" lon="4.71692">
        <ele>291.33234</ele>
        <time>2023-06-14T16:59:04.000Z</time>
      </trkpt>
      <trkpt lat="45.83734" lon="4.71694">
        <ele>290.68546</ele>
        <time>2023-06-14T16:59:05.000Z</time>
      </trkpt>
      <trkpt lat="45.83738" lon="4.71695">
        <ele>290.0524</ele>
        <time>2023-06-14T16:59:06.000Z</time>
      </trkpt>
      <trkpt lat="45.83743" lon="4.71696">
        <ele>289.47662</ele>
        <time>2023-06-14T16:59:07.000Z</time>
      </trkpt>
      <trkpt lat="45.83747" lon="4.71696">
        <ele>288.89893</ele>
        <time>2023-06-14T16:59:08.000Z</time>
      </trkpt>
      <trkpt lat="45.83751" lon="4.71695">
        <ele>288.12457</ele>
        <time>2023-06-14T16:59:09.000Z</time>
      </trkpt>
      <trkpt lat="45.83754" lon="4.71694">
        <ele>287.27344</ele>
        <time>2023-06-14T16:59:10.000Z</time>
      </trkpt>
      <trkpt lat="45.83758" lon="4.71694">
        <ele>286.3548</ele>
        <time>2023-06-14T16:59:11.000Z</time>
      </trkpt>
      <trkpt lat="45.83762" lon="4.71696">
        <ele>285.71674</ele>
        <time>2023-06-14T16:59:12.000Z</time>
      </trkpt>
      <trkpt lat="45.83767" lon="4.71696">
        <ele>284.95667</ele>
        <time>2023-06-14T16:59:13.000Z</time>
      </trkpt>
      <trkpt lat="45.83771" lon="4.71698">
        <ele>284.16666</ele>
        <time>2023-06-14T16:59:14.000Z</time>
      </trkpt>
      <trkpt lat="45.83776" lon="4.71699">
        <ele>283.3772</ele>
        <time>2023-06-14T16:59:15.000Z</time>
      </trkpt>
      <trkpt lat="45.8378" lon="4.71701">
        <ele>282.58429</ele>
        <time>2023-06-14T16:59:16.000Z</time>
      </trkpt>
      <trkpt lat="45.83784" lon="4.71703">
        <ele>281.71008</ele>
        <time>2023-06-14T16:59:17.000Z</time>
      </trkpt>
      <trkpt lat="45.83789" lon="4.71704">
        <ele>280.83771</ele>
        <time>2023-06-14T16:59:18.000Z</time>
      </trkpt>
      <trkpt lat="45.83792" lon="4.71705">
        <ele>280.08115</ele>
        <time>2023-06-14T16:59:19.000Z</time>
      </trkpt>
      <trkpt lat="45.83796" lon="4.71707">
        <ele>279.85251</ele>
        <time>2023-06-14T16:59:20.000Z</time>
      </trkpt>
      <trkpt lat="45.838" lon="4.71708">
        <ele>279.62531</ele>
        <time>2023-06-14T16:59:21.000Z</time>
      </trkpt>
      <trkpt lat="45.83804" lon="4.71709">
        <ele>279.37314</ele>
        <time>2023-06-14T16:59:22.000Z</time>
      </trkpt>
      <trkpt lat="45.83808" lon="4.7171">
        <ele>279.15079</ele>
        <time>2023-06-14T16:59:23.000Z</time>
      </trkpt>
      <trkpt lat="45.83811" lon="4.71711">
        <ele>279.03314</ele>
        <time>2023-06-14T16:59:24.000Z</time>
      </trkpt>
      <trkpt lat="45.83815" lon="4.71712">
        <ele>278.88629</ele>
        <time>2023-06-14T16:59:25.000Z</time>
      </trkpt>
      <trkpt lat="45.83818" lon="4.71714">
        <ele>278.73941</ele>
        <time>2023-06-14T16:59:26.000Z</time>
      </trkpt>
      <trkpt lat="45.83822" lon="4.71715">
        <ele>278.65533</ele>
        <time>2023-06-14T16:59:27.000Z</time>
      </trkpt>
      <trkpt lat="45.83827" lon="4.71714">
        <ele>278.6427</ele>
        <time>2023-06-14T16:59:28.000Z</time>
      </trkpt>
      <trkpt lat="45.83831" lon="4.71716">
        <ele>278.66574</ele>
        <time>2023-06-14T16:59:29.000Z</time>
      </trkpt>
      <trkpt lat="45.83834" lon="4.71717">
        <ele>278.60913</ele>
        <time>2023-06-14T16:59:30.000Z</time>
      </trkpt>
      <trkpt lat="45.83838" lon="4.71718">
        <ele>278.58633</ele>
        <time>2023-06-14T16:59:31.000Z</time>
      </trkpt>
      <trkpt lat="45.83842" lon="4.71719">
        <ele>278.56451</ele>
        <time>2023-06-14T16:59:32.000Z</time>
      </trkpt>
      <trkpt lat="45.83846" lon="4.7172">
        <ele>278.52753</ele>
        <time>2023-06-14T16:59:33.000Z</time>
      </trkpt>
      <trkpt lat="45.8385" lon="4.71721">
        <ele>278.49023</ele>
        <time>2023-06-14T16:59:34.000Z</time>
      </trkpt>
      <trkpt lat="45.83854" lon="4.71722">
        <ele>278.45627</ele>
        <time>2023-06-14T16:59:35.000Z</time>
      </trkpt>
      <trkpt lat="45.83859" lon="4.71723">
        <ele>278.98273</ele>
        <time>2023-06-14T16:59:36.000Z</time>
      </trkpt>
      <trkpt lat="45.83863" lon="4.71725">
        <ele>279.53995</ele>
        <time>2023-06-14T16:59:37.000Z</time>
      </trkpt>
      <trkpt lat="45.83866" lon="4.71728">
        <ele>280.12604</ele>
        <time>2023-06-14T16:59:38.000Z</time>
      </trkpt>
      <trkpt lat="45.8387" lon="4.71729">
        <ele>280.50827</ele>
        <time>2023-06-14T16:59:39.000Z</time>
      </trkpt>
      <trkpt lat="45.83874" lon="4.7173">
        <ele>281.07339</ele>
        <time>2023-06-14T16:59:40.000Z</time>
      </trkpt>
      <trkpt lat="45.83878" lon="4.71732">
        <ele>281.35437</ele>
        <time>2023-06-14T16:59:41.000Z</time>
      </trkpt>
      <trkpt lat="45.83882" lon="4.71733">
        <ele>281.46127</ele>
        <time>2023-06-14T16:59:42.000Z</time>
      </trkpt>
      <trkpt lat="45.83885" lon="4.71735">
        <ele>281.48178</ele>
        <time>2023-06-14T16:59:43.000Z</time>
      </trkpt>
      <trkpt lat="45.83888" lon="4.71737">
        <ele>281.56183</ele>
        <time>2023-06-14T16:59:44.000Z</time>
      </trkpt>
      <trkpt lat="45.83891" lon="4.71739">
        <ele>281.64655</ele>
        <time>2023-06-14T16:59:45.000Z</time>
      </trkpt>
      <trkpt lat="45.83895" lon="4.71741">
        <ele>281.6376</ele>
        <time>2023-06-14T16:59:46.000Z</time>
      </trkpt>
      <trkpt lat="45.83898" lon="4.71743">
        <ele>281.61313</ele>
        <time>2023-06-14T16:59:47.000Z</time>
      </trkpt>
      <trkpt lat="45.83902" lon="4.71745">
        <ele>281.56854</ele>
        <time>2023-06-14T16:59:48.000Z</time>
      </trkpt>
      <trkpt lat="45.83906" lon="4.71747">
        <ele>281.89093</ele>
        <time>2023-06-14T16:59:49.000Z</time>
      </trkpt>
      <trkpt lat="45.83909" lon="4.71748">
        <ele>282.27283</ele>
        <time>2023-06-14T16:59:50.000Z</time>
      </trkpt>
      <trkpt lat="45.83913" lon="4.7175">
        <ele>282.69684</ele>
        <time>2023-06-14T16:59:51.000Z</time>
      </trkpt>
      <trkpt lat="45.83917" lon="4.71751">
        <ele>283.19839</ele>
        <time>2023-06-14T16:59:52.000Z</time>
      </trkpt>
      <trkpt lat="45.83921" lon="4.71753">
        <ele>283.67468</ele>
        <time>2023-06-14T16:59:53.000Z</time>
      </trkpt>
      <trkpt lat="45.83925" lon="4.71754">
        <ele>284.21912</ele>
        <time>2023-06-14T16:59:54.000Z</time>
      </trkpt>
      <trkpt lat="45.8393" lon="4.71757">
        <ele>284.18817</ele>
        <time>2023-06-14T16:59:55.000Z</time>
      </trkpt>
      <trkpt lat="45.83934" lon="4.7176">
        <ele>283.6329</ele>
        <time>2023-06-14T16:59:56.000Z</time>
      </trkpt>
      <trkpt lat="45.83937" lon="4.71763">
        <ele>283.5047</ele>
        <time>2023-06-14T16:59:57.000Z</time>
      </trkpt>
      <trkpt lat="45.8394" lon="4.71767">
        <ele>283.32126</ele>
        <time>2023-06-14T16:59:58.000Z</time>
      </trkpt>
      <trkpt lat="45.83943" lon="4.71771">
        <ele>283.48343</ele>
        <time>2023-06-14T16:59:59.000Z</time>
      </trkpt>
      <trkpt lat="45.83945" lon="4.71775">
        <ele>283.49982</ele>
        <time>2023-06-14T17:00:00.000Z</time>
      </trkpt>
      <trkpt lat="45.83945" lon="4.71779">
        <ele>283.84698</ele>
        <time>2023-06-14T17:00:01.000Z</time>
      </trkpt>
      <trkpt lat="45.83947" lon="4.71783">
        <ele>284.60724</ele>
        <time>2023-06-14T17:00:02.000Z</time>
      </trkpt>
      <trkpt lat="45.83948" lon="4.71788">
        <ele>285.41873</ele>
        <time>2023-06-14T17:00:03.000Z</time>
      </trkpt>
      <trkpt lat="45.8395" lon="4.71793">
        <ele>285.86853</ele>
        <time>2023-06-14T17:00:04.000Z</time>
      </trkpt>
      <trkpt lat="45.83951" lon="4.71798">
        <ele>286.37973</ele>
        <time>2023-06-14T17:00:05.000Z</time>
      </trkpt>
      <trkpt lat="45.83951" lon="4.71802">
        <ele>287.01834</ele>
        <time>2023-06-14T17:00:06.000Z</time>
      </trkpt>
      <trkpt lat="45.83954" lon="4.71807">
        <ele>287.59845</ele>
        <time>2023-06-14T17:00:07.000Z</time>
      </trkpt>
      <trkpt lat="45.83957" lon="4.71812">
        <ele>288.09122</ele>
        <time>2023-06-14T17:00:08.000Z</time>
      </trkpt>
      <trkpt lat="45.8396" lon="4.71818">
        <ele>288.2146</ele>
        <time>2023-06-14T17:00:09.000Z</time>
      </trkpt>
      <trkpt lat="45.83963" lon="4.71823">
        <ele>288.33258</ele>
        <time>2023-06-14T17:00:10.000Z</time>
      </trkpt>
      <trkpt lat="45.83967" lon="4.71829">
        <ele>288.50238</ele>
        <time>2023-06-14T17:00:12.000Z</time>
      </trkpt>
      <trkpt lat="45.83971" lon="4.71834">
        <ele>288.62469</ele>
        <time>2023-06-14T17:00:13.000Z</time>
      </trkpt>
      <trkpt lat="45.83973" lon="4.71838">
        <ele>288.71429</ele>
        <time>2023-06-14T17:00:14.000Z</time>
      </trkpt>
      <trkpt lat="45.83977" lon="4.71843">
        <ele>288.75757</ele>
        <time>2023-06-14T17:00:15.000Z</time>
      </trkpt>
      <trkpt lat="45.83979" lon="4.71848">
        <ele>289.38492</ele>
        <time>2023-06-14T17:00:16.000Z</time>
      </trkpt>
      <trkpt lat="45.83983" lon="4.71854">
        <ele>290.07208</ele>
        <time>2023-06-14T17:00:17.000Z</time>
      </trkpt>
      <trkpt lat="45.83986" lon="4.71858">
        <ele>290.27002</ele>
        <time>2023-06-14T17:00:18.000Z</time>
      </trkpt>
      <trkpt lat="45.83989" lon="4.7186">
        <ele>290.44</ele>
        <time>2023-06-14T17:00:19.000Z</time>
      </trkpt>
      <trkpt lat="45.83992" lon="4.71864">
        <ele>290.48413</ele>
        <time>2023-06-14T17:00:20.000Z</time>
      </trkpt>
      <trkpt lat="45.83995" lon="4.71868">
        <ele>290.48645</ele>
        <time>2023-06-14T17:00:21.000Z</time>
      </trkpt>
      <trkpt lat="45.83998" lon="4.71871">
        <ele>290.51666</ele>
        <time>2023-06-14T17:00:22.000Z</time>
      </trkpt>
      <trkpt lat="45.84001" lon="4.71876">
        <ele>290.51797</ele>
        <time>2023-06-14T17:00:23.000Z</time>
      </trkpt>
      <trkpt lat="45.84003" lon="4.71881">
        <ele>290.64911</ele>
        <time>2023-06-14T17:00:24.000Z</time>
      </trkpt>
      <trkpt lat="45.84005" lon="4.71887">
        <ele>291.11862</ele>
        <time>2023-06-14T17:00:25.000Z</time>
      </trkpt>
      <trkpt lat="45.84006" lon="4.71897">
        <ele>291.07672</ele>
        <time>2023-06-14T17:00:26.000Z</time>
      </trkpt>
      <trkpt lat="45.84007" lon="4.71905">
        <ele>291.0108</ele>
        <time>2023-06-14T17:00:27.000Z</time>
      </trkpt>
      <trkpt lat="45.84006" lon="4.71912">
        <ele>290.90482</ele>
        <time>2023-06-14T17:00:28.000Z</time>
      </trkpt>
      <trkpt lat="45.84007" lon="4.71921">
        <ele>290.77649</ele>
        <time>2023-06-14T17:00:29.000Z</time>
      </trkpt>
      <trkpt lat="45.84007" lon="4.71929">
        <ele>290.67679</ele>
        <time>2023-06-14T17:00:30.000Z</time>
      </trkpt>
      <trkpt lat="45.84008" lon="4.71939">
        <ele>290.56094</ele>
        <time>2023-06-14T17:00:31.000Z</time>
      </trkpt>
      <trkpt lat="45.84008" lon="4.71949">
        <ele>290.40848</ele>
        <time>2023-06-14T17:00:32.000Z</time>
      </trkpt>
      <trkpt lat="45.84007" lon="4.71959">
        <ele>290.26315</ele>
        <time>2023-06-14T17:00:33.000Z</time>
      </trkpt>
      <trkpt lat="45.84008" lon="4.71969">
        <ele>289.83893</ele>
        <time>2023-06-14T17:00:34.000Z</time>
      </trkpt>
      <trkpt lat="45.84009" lon="4.71981">
        <ele>289.47678</ele>
        <time>2023-06-14T17:00:35.000Z</time>
      </trkpt>
      <trkpt lat="45.84011" lon="4.71991">
        <ele>289.0946</ele>
        <time>2023-06-14T17:00:36.000Z</time>
      </trkpt>
      <trkpt lat="45.84012" lon="4.72002">
        <ele>288.62787</ele>
        <time>2023-06-14T17:00:37.000Z</time>
      </trkpt>
      <trkpt lat="45.84013" lon="4.72013">
        <ele>288.24167</ele>
        <time>2023-06-14T17:00:38.000Z</time>
      </trkpt>
      <trkpt lat="45.84013" lon="4.72025">
        <ele>287.88742</ele>
        <time>2023-06-14T17:00:39.000Z</time>
      </trkpt>
      <trkpt lat="45.84013" lon="4.72034">
        <ele>287.51038</ele>
        <time>2023-06-14T17:00:40.000Z</time>
      </trkpt>
      <trkpt lat="45.84013" lon="4.72045">
        <ele>287.12018</ele>
        <time>2023-06-14T17:00:41.000Z</time>
      </trkpt>
      <trkpt lat="45.84015" lon="4.72056">
        <ele>286.6792</ele>
        <time>2023-06-14T17:00:42.000Z</time>
      </trkpt>
      <trkpt lat="45.84016" lon="4.72067">
        <ele>286.06439</ele>
        <time>2023-06-14T17:00:43.000Z</time>
      </trkpt>
      <trkpt lat="45.84016" lon="4.72076">
        <ele>285.32892</ele>
        <time>2023-06-14T17:00:44.000Z</time>
      </trkpt>
      <trkpt lat="45.84017" lon="4.72086">
        <ele>284.59384</ele>
        <time>2023-06-14T17:00:45.000Z</time>
      </trkpt>
      <trkpt lat="45.84017" lon="4.72096">
        <ele>284.25534</ele>
        <time>2023-06-14T17:00:46.000Z</time>
      </trkpt>
      <trkpt lat="45.84019" lon="4.72105">
        <ele>283.944</ele>
        <time>2023-06-14T17:00:47.000Z</time>
      </trkpt>
      <trkpt lat="45.8402" lon="4.72113">
        <ele>283.67755</ele>
        <time>2023-06-14T17:00:48.000Z</time>
      </trkpt>
      <trkpt lat="45.8402" lon="4.72122">
        <ele>283.47089</ele>
        <time>2023-06-14T17:00:49.000Z</time>
      </trkpt>
      <trkpt lat="45.8402" lon="4.7213">
        <ele>282.82095</ele>
        <time>2023-06-14T17:00:50.000Z</time>
      </trkpt>
      <trkpt lat="45.8402" lon="4.72138">
        <ele>282.21677</ele>
        <time>2023-06-14T17:00:51.000Z</time>
      </trkpt>
      <trkpt lat="45.84021" lon="4.72145">
        <ele>281.54068</ele>
        <time>2023-06-14T17:00:52.000Z</time>
      </trkpt>
      <trkpt lat="45.84019" lon="4.72151">
        <ele>280.85117</ele>
        <time>2023-06-14T17:00:53.000Z</time>
      </trkpt>
      <trkpt lat="45.84017" lon="4.72156">
        <ele>280.49496</ele>
        <time>2023-06-14T17:00:54.000Z</time>
      </trkpt>
      <trkpt lat="45.84014" lon="4.72161">
        <ele>280.12604</ele>
        <time>2023-06-14T17:00:55.000Z</time>
      </trkpt>
      <trkpt lat="45.84009" lon="4.72164">
        <ele>279.80438</ele>
        <time>2023-06-14T17:00:56.000Z</time>
      </trkpt>
      <trkpt lat="45.84004" lon="4.72166">
        <ele>279.38431</ele>
        <time>2023-06-14T17:00:57.000Z</time>
      </trkpt>
      <trkpt lat="45.84" lon="4.72167">
        <ele>278.98431</ele>
        <time>2023-06-14T17:00:58.000Z</time>
      </trkpt>
      <trkpt lat="45.83995" lon="4.72167">
        <ele>278.5954</ele>
        <time>2023-06-14T17:00:59.000Z</time>
      </trkpt>
      <trkpt lat="45.83991" lon="4.72166">
        <ele>278.58051</ele>
        <time>2023-06-14T17:01:00.000Z</time>
      </trkpt>
      <trkpt lat="45.83985" lon="4.72165">
        <ele>278.59613</ele>
        <time>2023-06-14T17:01:01.000Z</time>
      </trkpt>
      <trkpt lat="45.83981" lon="4.72164">
        <ele>278.66168</ele>
        <time>2023-06-14T17:01:02.000Z</time>
      </trkpt>
      <trkpt lat="45.83976" lon="4.72163">
        <ele>278.75232</ele>
        <time>2023-06-14T17:01:03.000Z</time>
      </trkpt>
      <trkpt lat="45.83972" lon="4.7216">
        <ele>279.00629</ele>
        <time>2023-06-14T17:01:04.000Z</time>
      </trkpt>
      <trkpt lat="45.83966" lon="4.7216">
        <ele>279.31186</ele>
        <time>2023-06-14T17:01:05.000Z</time>
      </trkpt>
      <trkpt lat="45.83961" lon="4.72159">
        <ele>279.71509</ele>
        <time>2023-06-14T17:01:06.000Z</time>
      </trkpt>
      <trkpt lat="45.83957" lon="4.72158">
        <ele>279.64288</ele>
        <time>2023-06-14T17:01:07.000Z</time>
      </trkpt>
      <trkpt lat="45.83952" lon="4.72157">
        <ele>279.60004</ele>
        <time>2023-06-14T17:01:08.000Z</time>
      </trkpt>
      <trkpt lat="45.83948" lon="4.72157">
        <ele>279.54083</ele>
        <time>2023-06-14T17:01:09.000Z</time>
      </trkpt>
      <trkpt lat="45.83944" lon="4.72157">
        <ele>279.80981</ele>
        <time>2023-06-14T17:01:10.000Z</time>
      </trkpt>
      <trkpt lat="45.83942" lon="4.72159">
        <ele>280.0722</ele>
        <time>2023-06-14T17:01:11.000Z</time>
      </trkpt>
      <trkpt lat="45.83941" lon="4.72162">
        <ele>280.31857</ele>
        <time>2023-06-14T17:01:12.000Z</time>
      </trkpt>
      <trkpt lat="45.8394" lon="4.72165">
        <ele>280.60352</ele>
        <time>2023-06-14T17:01:13.000Z</time>
      </trkpt>
      <trkpt lat="45.83941" lon="4.72169">
        <ele>280.93393</ele>
        <time>2023-06-14T17:01:14.000Z</time>
      </trkpt>
      <trkpt lat="45.83943" lon="4.72172">
        <ele>281.27408</ele>
        <time>2023-06-14T17:01:15.000Z</time>
      </trkpt>
      <trkpt lat="45.83945" lon="4.72176">
        <ele>281.6214</ele>
        <time>2023-06-14T17:01:16.000Z</time>
      </trkpt>
      <trkpt lat="45.83948" lon="4.72181">
        <ele>282.08218</ele>
        <time>2023-06-14T17:01:17.000Z</time>
      </trkpt>
      <trkpt lat="45.83951" lon="4.72186">
        <ele>282.50861</ele>
        <time>2023-06-14T17:01:18.000Z</time>
      </trkpt>
      <trkpt lat="45.83953" lon="4.72191">
        <ele>282.90118</ele>
        <time>2023-06-14T17:01:19.000Z</time>
      </trkpt>
      <trkpt lat="45.83956" lon="4.72195">
        <ele>282.86536</ele>
        <time>2023-06-14T17:01:20.000Z</time>
      </trkpt>
      <trkpt lat="45.83958" lon="4.722">
        <ele>282.81061</ele>
        <time>2023-06-14T17:01:21.000Z</time>
      </trkpt>
      <trkpt lat="45.83961" lon="4.72205">
        <ele>282.71216</ele>
        <time>2023-06-14T17:01:22.000Z</time>
      </trkpt>
      <trkpt lat="45.83963" lon="4.7221">
        <ele>282.599</ele>
        <time>2023-06-14T17:01:23.000Z</time>
      </trkpt>
      <trkpt lat="45.83965" lon="4.72215">
        <ele>282.30673</ele>
        <time>2023-06-14T17:01:24.000Z</time>
      </trkpt>
      <trkpt lat="45.83968" lon="4.7222">
        <ele>281.95306</ele>
        <time>2023-06-14T17:01:25.000Z</time>
      </trkpt>
      <trkpt lat="45.8397" lon="4.72225">
        <ele>281.52396</ele>
        <time>2023-06-14T17:01:26.000Z</time>
      </trkpt>
      <trkpt lat="45.83972" lon="4.7223">
        <ele>281.5372</ele>
        <time>2023-06-14T17:01:27.000Z</time>
      </trkpt>
      <trkpt lat="45.83975" lon="4.72235">
        <ele>281.51813</ele>
        <time>2023-06-14T17:01:28.000Z</time>
      </trkpt>
      <trkpt lat="45.83977" lon="4.7224">
        <ele>281.513</ele>
        <time>2023-06-14T17:01:29.000Z</time>
      </trkpt>
      <trkpt lat="45.83979" lon="4.72245">
        <ele>281.54861</ele>
        <time>2023-06-14T17:01:30.000Z</time>
      </trkpt>
      <trkpt lat="45.83981" lon="4.7225">
        <ele>281.57028</ele>
        <time>2023-06-14T17:01:31.000Z</time>
      </trkpt>
      <trkpt lat="45.83984" lon="4.72255">
        <ele>281.6192</ele>
        <time>2023-06-14T17:01:32.000Z</time>
      </trkpt>
      <trkpt lat="45.83987" lon="4.72261">
        <ele>281.62527</ele>
        <time>2023-06-14T17:01:33.000Z</time>
      </trkpt>
      <trkpt lat="45.8399" lon="4.72266">
        <ele>281.59772</ele>
        <time>2023-06-14T17:01:34.000Z</time>
      </trkpt>
      <trkpt lat="45.83993" lon="4.72272">
        <ele>281.51172</ele>
        <time>2023-06-14T17:01:35.000Z</time>
      </trkpt>
      <trkpt lat="45.83996" lon="4.72277">
        <ele>281.40225</ele>
        <time>2023-06-14T17:01:36.000Z</time>
      </trkpt>
      <trkpt lat="45.83998" lon="4.72283">
        <ele>281.29874</ele>
        <time>2023-06-14T17:01:37.000Z</time>
      </trkpt>
      <trkpt lat="45.84002" lon="4.72288">
        <ele>281.21002</ele>
        <time>2023-06-14T17:01:38.000Z</time>
      </trkpt>
      <trkpt lat="45.84006" lon="4.72293">
        <ele>281.13339</ele>
        <time>2023-06-14T17:01:39.000Z</time>
      </trkpt>
      <trkpt lat="45.84009" lon="4.72299">
        <ele>281.11157</ele>
        <time>2023-06-14T17:01:40.000Z</time>
      </trkpt>
      <trkpt lat="45.8401" lon="4.72305">
        <ele>281.06021</ele>
        <time>2023-06-14T17:01:41.000Z</time>
      </trkpt>
      <trkpt lat="45.84009" lon="4.72313">
        <ele>280.97696</ele>
        <time>2023-06-14T17:01:42.000Z</time>
      </trkpt>
      <trkpt lat="45.84005" lon="4.7232">
        <ele>280.87222</ele>
        <time>2023-06-14T17:01:43.000Z</time>
      </trkpt>
      <trkpt lat="45.84001" lon="4.72325">
        <ele>280.75323</ele>
        <time>2023-06-14T17:01:44.000Z</time>
      </trkpt>
      <trkpt lat="45.83997" lon="4.7233">
        <ele>280.62485</ele>
        <time>2023-06-14T17:01:45.000Z</time>
      </trkpt>
      <trkpt lat="45.83992" lon="4.72333">
        <ele>280.5864</ele>
        <time>2023-06-14T17:01:46.000Z</time>
      </trkpt>
      <trkpt lat="45.83989" lon="4.72337">
        <ele>280.60934</ele>
        <time>2023-06-14T17:01:47.000Z</time>
      </trkpt>
      <trkpt lat="45.83984" lon="4.72341">
        <ele>280.70782</ele>
        <time>2023-06-14T17:01:48.000Z</time>
      </trkpt>
      <trkpt lat="45.8398" lon="4.72345">
        <ele>280.84674</ele>
        <time>2023-06-14T17:01:49.000Z</time>
      </trkpt>
      <trkpt lat="45.83974" lon="4.72353">
        <ele>281.14545</ele>
        <time>2023-06-14T17:01:50.000Z</time>
      </trkpt>
      <trkpt lat="45.83968" lon="4.72358">
        <ele>281.44672</ele>
        <time>2023-06-14T17:01:51.000Z</time>
      </trkpt>
      <trkpt lat="45.83962" lon="4.72364">
        <ele>281.91516</ele>
        <time>2023-06-14T17:01:52.000Z</time>
      </trkpt>
      <trkpt lat="45.83956" lon="4.72369">
        <ele>282.46417</ele>
        <time>2023-06-14T17:01:53.000Z</time>
      </trkpt>
      <trkpt lat="45.8395" lon="4.72374">
        <ele>282.90466</ele>
        <time>2023-06-14T17:01:54.000Z</time>
      </trkpt>
      <trkpt lat="45.83942" lon="4.72378">
        <ele>283.32681</ele>
        <time>2023-06-14T17:01:55.000Z</time>
      </trkpt>
      <trkpt lat="45.83935" lon="4.72382">
        <ele>283.67352</ele>
        <time>2023-06-14T17:01:56.000Z</time>
      </trkpt>
      <trkpt lat="45.83927" lon="4.72386">
        <ele>283.98331</ele>
        <time>2023-06-14T17:01:57.000Z</time>
      </trkpt>
      <trkpt lat="45.83918" lon="4.7239">
        <ele>284.13681</ele>
        <time>2023-06-14T17:01:58.000Z</time>
      </trkpt>
      <trkpt lat="45.83911" lon="4.72394">
        <ele>284.39844</ele>
        <time>2023-06-14T17:01:59.000Z</time>
      </trkpt>
      <trkpt lat="45.83902" lon="4.72399">
        <ele>284.62128</ele>
        <time>2023-06-14T17:02:00.000Z</time>
      </trkpt>
      <trkpt lat="45.83894" lon="4.72403">
        <ele>284.91278</ele>
        <time>2023-06-14T17:02:01.000Z</time>
      </trkpt>
      <trkpt lat="45.83885" lon="4.72408">
        <ele>285.20694</ele>
        <time>2023-06-14T17:02:02.000Z</time>
      </trkpt>
      <trkpt lat="45.83877" lon="4.72412">
        <ele>285.5957</ele>
        <time>2023-06-14T17:02:03.000Z</time>
      </trkpt>
      <trkpt lat="45.8387" lon="4.72416">
        <ele>286.08737</ele>
        <time>2023-06-14T17:02:04.000Z</time>
      </trkpt>
      <trkpt lat="45.83863" lon="4.72419">
        <ele>286.66428</ele>
        <time>2023-06-14T17:02:05.000Z</time>
      </trkpt>
      <trkpt lat="45.83855" lon="4.72424">
        <ele>286.64737</ele>
        <time>2023-06-14T17:02:06.000Z</time>
      </trkpt>
      <trkpt lat="45.8385" lon="4.7243">
        <ele>286.65735</ele>
        <time>2023-06-14T17:02:07.000Z</time>
      </trkpt>
      <trkpt lat="45.83845" lon="4.72439">
        <ele>286.4906</ele>
        <time>2023-06-14T17:02:08.000Z</time>
      </trkpt>
      <trkpt lat="45.83841" lon="4.72447">
        <ele>286.27466</ele>
        <time>2023-06-14T17:02:09.000Z</time>
      </trkpt>
      <trkpt lat="45.83838" lon="4.72458">
        <ele>285.94824</ele>
        <time>2023-06-14T17:02:10.000Z</time>
      </trkpt>
      <trkpt lat="45.83838" lon="4.72468">
        <ele>285.72516</ele>
        <time>2023-06-14T17:02:11.000Z</time>
      </trkpt>
      <trkpt lat="45.83839" lon="4.72477">
        <ele>285.23184</ele>
        <time>2023-06-14T17:02:12.000Z</time>
      </trkpt>
      <trkpt lat="45.83839" lon="4.72486">
        <ele>284.73077</ele>
        <time>2023-06-14T17:02:13.000Z</time>
      </trkpt>
      <trkpt lat="45.8384" lon="4.72493">
        <ele>284.30258</ele>
        <time>2023-06-14T17:02:14.000Z</time>
      </trkpt>
      <trkpt lat="45.83842" lon="4.725">
        <ele>283.88</ele>
        <time>2023-06-14T17:02:15.000Z</time>
      </trkpt>
      <trkpt lat="45.83843" lon="4.72509">
        <ele>283.90131</ele>
        <time>2023-06-14T17:02:16.000Z</time>
      </trkpt>
      <trkpt lat="45.83841" lon="4.72518">
        <ele>282.98898</ele>
        <time>2023-06-14T17:02:17.000Z</time>
      </trkpt>
      <trkpt lat="45.83841" lon="4.72526">
        <ele>282.2496</ele>
        <time>2023-06-14T17:02:18.000Z</time>
      </trkpt>
      <trkpt lat="45.83839" lon="4.72533">
        <ele>281.34195</ele>
        <time>2023-06-14T17:02:19.000Z</time>
      </trkpt>
      <trkpt lat="45.83839" lon="4.7254">
        <ele>280.56891</ele>
        <time>2023-06-14T17:02:20.000Z</time>
      </trkpt>
      <trkpt lat="45.83837" lon="4.72547">
        <ele>279.42267</ele>
        <time>2023-06-14T17:02:21.000Z</time>
      </trkpt>
      <trkpt lat="45.83836" lon="4.72554">
        <ele>278.37604</ele>
        <time>2023-06-14T17:02:22.000Z</time>
      </trkpt>
      <trkpt lat="45.83835" lon="4.7256">
        <ele>277.29227</ele>
        <time>2023-06-14T17:02:23.000Z</time>
      </trkpt>
      <trkpt lat="45.83835" lon="4.72563">
        <ele>276.2081</ele>
        <time>2023-06-14T17:02:24.000Z</time>
      </trkpt>
      <trkpt lat="45.83833" lon="4.72569">
        <ele>275.07364</ele>
        <time>2023-06-14T17:02:25.000Z</time>
      </trkpt>
      <trkpt lat="45.83832" lon="4.72573">
        <ele>274.47552</ele>
        <time>2023-06-14T17:02:26.000Z</time>
      </trkpt>
      <trkpt lat="45.83831" lon="4.72577">
        <ele>273.83331</ele>
        <time>2023-06-14T17:02:27.000Z</time>
      </trkpt>
      <trkpt lat="45.83832" lon="4.72581">
        <ele>273.39713</ele>
        <time>2023-06-14T17:02:28.000Z</time>
      </trkpt>
      <trkpt lat="45.83831" lon="4.72584">
        <ele>273.14917</ele>
        <time>2023-06-14T17:02:29.000Z</time>
      </trkpt>
      <trkpt lat="45.8383" lon="4.72586">
        <ele>273.04279</ele>
        <time>2023-06-14T17:02:30.000Z</time>
      </trkpt>
      <trkpt lat="45.83823" lon="4.72598">
        <ele>272.49197</ele>
        <time>2023-06-14T17:02:31.000Z</time>
      </trkpt>
      <trkpt lat="45.83819" lon="4.72602">
        <ele>272.00256</ele>
        <time>2023-06-14T17:02:32.000Z</time>
      </trkpt>
      <trkpt lat="45.83814" lon="4.72606">
        <ele>271.53464</ele>
        <time>2023-06-14T17:02:33.000Z</time>
      </trkpt>
      <trkpt lat="45.83811" lon="4.72609">
        <ele>271.0712</ele>
        <time>2023-06-14T17:02:34.000Z</time>
      </trkpt>
      <trkpt lat="45.83807" lon="4.72612">
        <ele>270.61761</ele>
        <time>2023-06-14T17:02:35.000Z</time>
      </trkpt>
      <trkpt lat="45.83803" lon="4.72612">
        <ele>269.7583</ele>
        <time>2023-06-14T17:02:36.000Z</time>
      </trkpt>
      <trkpt lat="45.83799" lon="4.72614">
        <ele>270.01163</ele>
        <time>2023-06-14T17:02:37.000Z</time>
      </trkpt>
      <trkpt lat="45.83793" lon="4.72615">
        <ele>270.36017</ele>
        <time>2023-06-14T17:02:38.000Z</time>
      </trkpt>
      <trkpt lat="45.8379" lon="4.72618">
        <ele>270.5354</ele>
        <time>2023-06-14T17:02:39.000Z</time>
      </trkpt>
      <trkpt lat="45.83785" lon="4.72619">
        <ele>270.59824</ele>
        <time>2023-06-14T17:02:40.000Z</time>
      </trkpt>
      <trkpt lat="45.8378" lon="4.72622">
        <ele>271.00763</ele>
        <time>2023-06-14T17:02:41.000Z</time>
      </trkpt>
      <trkpt lat="45.83776" lon="4.72623">
        <ele>271.29114</ele>
        <time>2023-06-14T17:02:42.000Z</time>
      </trkpt>
      <trkpt lat="45.83772" lon="4.72626">
        <ele>271.5278</ele>
        <time>2023-06-14T17:02:43.000Z</time>
      </trkpt>
      <trkpt lat="45.83768" lon="4.72627">
        <ele>271.73361</ele>
        <time>2023-06-14T17:02:44.000Z</time>
      </trkpt>
      <trkpt lat="45.83763" lon="4.72629">
        <ele>271.93622</ele>
        <time>2023-06-14T17:02:45.000Z</time>
      </trkpt>
      <trkpt lat="45.83759" lon="4.72631">
        <ele>272.0972</ele>
        <time>2023-06-14T17:02:46.000Z</time>
      </trkpt>
      <trkpt lat="45.83754" lon="4.72631">
        <ele>272.18454</ele>
        <time>2023-06-14T17:02:47.000Z</time>
      </trkpt>
      <trkpt lat="45.8375" lon="4.72634">
        <ele>272.18909</ele>
        <time>2023-06-14T17:02:48.000Z</time>
      </trkpt>
      <trkpt lat="45.83746" lon="4.72632">
        <ele>272.04639</ele>
        <time>2023-06-14T17:02:49.000Z</time>
      </trkpt>
      <trkpt lat="45.83738" lon="4.72634">
        <ele>271.61975</ele>
        <time>2023-06-14T17:02:50.000Z</time>
      </trkpt>
      <trkpt lat="45.83735" lon="4.72636">
        <ele>271.51047</ele>
        <time>2023-06-14T17:02:51.000Z</time>
      </trkpt>
      <trkpt lat="45.83732" lon="4.72638">
        <ele>271.44418</ele>
        <time>2023-06-14T17:02:52.000Z</time>
      </trkpt>
      <trkpt lat="45.83728" lon="4.72638">
        <ele>271.27423</ele>
        <time>2023-06-14T17:02:53.000Z</time>
      </trkpt>
      <trkpt lat="45.83724" lon="4.72641">
        <ele>271.17545</ele>
        <time>2023-06-14T17:02:54.000Z</time>
      </trkpt>
      <trkpt lat="45.8372" lon="4.72643">
        <ele>271.11993</ele>
        <time>2023-06-14T17:02:55.000Z</time>
      </trkpt>
      <trkpt lat="45.83717" lon="4.72645">
        <ele>271.1123</ele>
        <time>2023-06-14T17:02:56.000Z</time>
      </trkpt>
      <trkpt lat="45.83713" lon="4.72646">
        <ele>270.93762</ele>
        <time>2023-06-14T17:02:57.000Z</time>
      </trkpt>
      <trkpt lat="45.8371" lon="4.72647">
        <ele>270.63586</ele>
        <time>2023-06-14T17:02:58.000Z</time>
      </trkpt>
      <trkpt lat="45.83706" lon="4.72648">
        <ele>270.64096</ele>
        <time>2023-06-14T17:02:59.000Z</time>
      </trkpt>
      <trkpt lat="45.83702" lon="4.7265">
        <ele>270.68747</ele>
        <time>2023-06-14T17:03:00.000Z</time>
      </trkpt>
      <trkpt lat="45.83698" lon="4.72652">
        <ele>270.77661</ele>
        <time>2023-06-14T17:03:01.000Z</time>
      </trkpt>
      <trkpt lat="45.83693" lon="4.72653">
        <ele>271.02151</ele>
        <time>2023-06-14T17:03:02.000Z</time>
      </trkpt>
      <trkpt lat="45.83688" lon="4.72655">
        <ele>271.27863</ele>
        <time>2023-06-14T17:03:03.000Z</time>
      </trkpt>
      <trkpt lat="45.83684" lon="4.72656">
        <ele>271.27951</ele>
        <time>2023-06-14T17:03:04.000Z</time>
      </trkpt>
      <trkpt lat="45.83679" lon="4.72658">
        <ele>271.29187</ele>
        <time>2023-06-14T17:03:05.000Z</time>
      </trkpt>
      <trkpt lat="45.83675" lon="4.7266">
        <ele>271.25421</ele>
        <time>2023-06-14T17:03:06.000Z</time>
      </trkpt>
      <trkpt lat="45.8367" lon="4.72662">
        <ele>271.2319</ele>
        <time>2023-06-14T17:03:07.000Z</time>
      </trkpt>
      <trkpt lat="45.83666" lon="4.72664">
        <ele>271.30963</ele>
        <time>2023-06-14T17:03:08.000Z</time>
      </trkpt>
      <trkpt lat="45.83662" lon="4.72665">
        <ele>271.69852</ele>
        <time>2023-06-14T17:03:09.000Z</time>
      </trkpt>
      <trkpt lat="45.83657" lon="4.72667">
        <ele>272.21234</ele>
        <time>2023-06-14T17:03:10.000Z</time>
      </trkpt>
      <trkpt lat="45.83652" lon="4.7267">
        <ele>272.80804</ele>
        <time>2023-06-14T17:03:11.000Z</time>
      </trkpt>
      <trkpt lat="45.83646" lon="4.72673">
        <ele>273.37946</ele>
        <time>2023-06-14T17:03:12.000Z</time>
      </trkpt>
      <trkpt lat="45.83641" lon="4.72676">
        <ele>273.62769</ele>
        <time>2023-06-14T17:03:13.000Z</time>
      </trkpt>
      <trkpt lat="45.83636" lon="4.72678">
        <ele>273.78152</ele>
        <time>2023-06-14T17:03:14.000Z</time>
      </trkpt>
      <trkpt lat="45.83632" lon="4.7268">
        <ele>273.93375</ele>
        <time>2023-06-14T17:03:15.000Z</time>
      </trkpt>
      <trkpt lat="45.83629" lon="4.72681">
        <ele>274.16388</ele>
        <time>2023-06-14T17:03:16.000Z</time>
      </trkpt>
      <trkpt lat="45.83625" lon="4.72684">
        <ele>273.9278</ele>
        <time>2023-06-14T17:03:17.000Z</time>
      </trkpt>
      <trkpt lat="45.83622" lon="4.72686">
        <ele>273.7287</ele>
        <time>2023-06-14T17:03:18.000Z</time>
      </trkpt>
      <trkpt lat="45.83619" lon="4.72689">
        <ele>273.58066</ele>
        <time>2023-06-14T17:03:19.000Z</time>
      </trkpt>
      <trkpt lat="45.83616" lon="4.72692">
        <ele>273.41754</ele>
        <time>2023-06-14T17:03:20.000Z</time>
      </trkpt>
      <trkpt lat="45.83614" lon="4.72696">
        <ele>273.25977</ele>
        <time>2023-06-14T17:03:21.000Z</time>
      </trkpt>
      <trkpt lat="45.83612" lon="4.72699">
        <ele>272.87384</ele>
        <time>2023-06-14T17:03:22.000Z</time>
      </trkpt>
      <trkpt lat="45.83609" lon="4.72701">
        <ele>272.53134</ele>
        <time>2023-06-14T17:03:23.000Z</time>
      </trkpt>
      <trkpt lat="45.83607" lon="4.72703">
        <ele>272.41022</ele>
        <time>2023-06-14T17:03:24.000Z</time>
      </trkpt>
      <trkpt lat="45.83614" lon="4.72698">
        <ele>272.30807</ele>
        <time>2023-06-14T17:03:25.000Z</time>
      </trkpt>
      <trkpt lat="45.83611" lon="4.727">
        <ele>273.4725</ele>
        <time>2023-06-14T17:03:27.000Z</time>
      </trkpt>
      <trkpt lat="45.83605" lon="4.72704">
        <ele>274.57642</ele>
        <time>2023-06-14T17:03:28.000Z</time>
      </trkpt>
      <trkpt lat="45.83601" lon="4.72707">
        <ele>274.96466</ele>
        <time>2023-06-14T17:03:29.000Z</time>
      </trkpt>
      <trkpt lat="45.836" lon="4.72709">
        <ele>274.72864</ele>
        <time>2023-06-14T17:03:30.000Z</time>
      </trkpt>
      <trkpt lat="45.83596" lon="4.72712">
        <ele>274.45444</ele>
        <time>2023-06-14T17:03:31.000Z</time>
      </trkpt>
      <trkpt lat="45.83593" lon="4.72714">
        <ele>274.93985</ele>
        <time>2023-06-14T17:03:32.000Z</time>
      </trkpt>
      <trkpt lat="45.8359" lon="4.72716">
        <ele>275.4671</ele>
        <time>2023-06-14T17:03:33.000Z</time>
      </trkpt>
      <trkpt lat="45.83587" lon="4.72718">
        <ele>276.31439</ele>
        <time>2023-06-14T17:03:34.000Z</time>
      </trkpt>
      <trkpt lat="45.83585" lon="4.72719">
        <ele>277.14069</ele>
        <time>2023-06-14T17:03:35.000Z</time>
      </trkpt>
      <trkpt lat="45.8358" lon="4.72722">
        <ele>277.96405</ele>
        <time>2023-06-14T17:03:36.000Z</time>
      </trkpt>
      <trkpt lat="45.83576" lon="4.72724">
        <ele>277.54056</ele>
        <time>2023-06-14T17:03:37.000Z</time>
      </trkpt>
      <trkpt lat="45.83574" lon="4.72726">
        <ele>277.53625</ele>
        <time>2023-06-14T17:03:38.000Z</time>
      </trkpt>
      <trkpt lat="45.83571" lon="4.72726">
        <ele>279.00421</ele>
        <time>2023-06-14T17:03:39.000Z</time>
      </trkpt>
      <trkpt lat="45.83568" lon="4.72727">
        <ele>280.44559</ele>
        <time>2023-06-14T17:03:40.000Z</time>
      </trkpt>
      <trkpt lat="45.83564" lon="4.72729">
        <ele>281.39056</ele>
        <time>2023-06-14T17:03:41.000Z</time>
      </trkpt>
      <trkpt lat="45.83559" lon="4.72732">
        <ele>282.41107</ele>
        <time>2023-06-14T17:03:42.000Z</time>
      </trkpt>
      <trkpt lat="45.83553" lon="4.72735">
        <ele>283.59552</ele>
        <time>2023-06-14T17:03:43.000Z</time>
      </trkpt>
      <trkpt lat="45.83549" lon="4.72737">
        <ele>284.7323</ele>
        <time>2023-06-14T17:03:44.000Z</time>
      </trkpt>
      <trkpt lat="45.83545" lon="4.7274">
        <ele>285.82498</ele>
        <time>2023-06-14T17:03:45.000Z</time>
      </trkpt>
      <trkpt lat="45.83541" lon="4.72741">
        <ele>286.81177</ele>
        <time>2023-06-14T17:03:46.000Z</time>
      </trkpt>
      <trkpt lat="45.83537" lon="4.72743">
        <ele>286.55899</ele>
        <time>2023-06-14T17:03:47.000Z</time>
      </trkpt>
      <trkpt lat="45.83533" lon="4.72744">
        <ele>286.27112</ele>
        <time>2023-06-14T17:03:48.000Z</time>
      </trkpt>
      <trkpt lat="45.8353" lon="4.72744">
        <ele>286.60251</ele>
        <time>2023-06-14T17:03:49.000Z</time>
      </trkpt>
      <trkpt lat="45.83527" lon="4.72745">
        <ele>287.23636</ele>
        <time>2023-06-14T17:03:50.000Z</time>
      </trkpt>
      <trkpt lat="45.83521" lon="4.72749">
        <ele>287.90549</ele>
        <time>2023-06-14T17:03:51.000Z</time>
      </trkpt>
      <trkpt lat="45.83518" lon="4.7275">
        <ele>287.71298</ele>
        <time>2023-06-14T17:03:52.000Z</time>
      </trkpt>
      <trkpt lat="45.83514" lon="4.72751">
        <ele>287.448</ele>
        <time>2023-06-14T17:03:53.000Z</time>
      </trkpt>
      <trkpt lat="45.8351" lon="4.72753">
        <ele>287.27338</ele>
        <time>2023-06-14T17:03:54.000Z</time>
      </trkpt>
      <trkpt lat="45.83505" lon="4.72754">
        <ele>287.16168</ele>
        <time>2023-06-14T17:03:55.000Z</time>
      </trkpt>
      <trkpt lat="45.83501" lon="4.72756">
        <ele>286.90106</ele>
        <time>2023-06-14T17:03:56.000Z</time>
      </trkpt>
      <trkpt lat="45.83497" lon="4.72758">
        <ele>287.96414</ele>
        <time>2023-06-14T17:03:57.000Z</time>
      </trkpt>
      <trkpt lat="45.83494" lon="4.72759">
        <ele>289.07144</ele>
        <time>2023-06-14T17:03:58.000Z</time>
      </trkpt>
      <trkpt lat="45.83491" lon="4.72761">
        <ele>288.76263</ele>
        <time>2023-06-14T17:03:59.000Z</time>
      </trkpt>
      <trkpt lat="45.83488" lon="4.7276">
        <ele>288.35883</ele>
        <time>2023-06-14T17:04:00.000Z</time>
      </trkpt>
      <trkpt lat="45.83485" lon="4.7276">
        <ele>288.43707</ele>
        <time>2023-06-14T17:04:01.000Z</time>
      </trkpt>
      <trkpt lat="45.83482" lon="4.7276">
        <ele>288.42111</ele>
        <time>2023-06-14T17:04:02.000Z</time>
      </trkpt>
      <trkpt lat="45.83479" lon="4.72761">
        <ele>288.33301</ele>
        <time>2023-06-14T17:04:03.000Z</time>
      </trkpt>
      <trkpt lat="45.83476" lon="4.72761">
        <ele>288.27454</ele>
        <time>2023-06-14T17:04:04.000Z</time>
      </trkpt>
      <trkpt lat="45.8347" lon="4.72764">
        <ele>288.35272</ele>
        <time>2023-06-14T17:04:05.000Z</time>
      </trkpt>
      <trkpt lat="45.83466" lon="4.72765">
        <ele>288.39264</ele>
        <time>2023-06-14T17:04:06.000Z</time>
      </trkpt>
      <trkpt lat="45.83461" lon="4.72768">
        <ele>288.50769</ele>
        <time>2023-06-14T17:04:07.000Z</time>
      </trkpt>
      <trkpt lat="45.83456" lon="4.7277">
        <ele>288.68097</ele>
        <time>2023-06-14T17:04:08.000Z</time>
      </trkpt>
      <trkpt lat="45.8345" lon="4.72774">
        <ele>288.78888</ele>
        <time>2023-06-14T17:04:09.000Z</time>
      </trkpt>
      <trkpt lat="45.83444" lon="4.72776">
        <ele>288.95074</ele>
        <time>2023-06-14T17:04:10.000Z</time>
      </trkpt>
      <trkpt lat="45.83439" lon="4.72779">
        <ele>289.07092</ele>
        <time>2023-06-14T17:04:11.000Z</time>
      </trkpt>
      <trkpt lat="45.83436" lon="4.72783">
        <ele>289.22696</ele>
        <time>2023-06-14T17:04:12.000Z</time>
      </trkpt>
      <trkpt lat="45.83434" lon="4.72788">
        <ele>289.37994</ele>
        <time>2023-06-14T17:04:13.000Z</time>
      </trkpt>
      <trkpt lat="45.83433" lon="4.72794">
        <ele>289.51822</ele>
        <time>2023-06-14T17:04:14.000Z</time>
      </trkpt>
      <trkpt lat="45.83434" lon="4.72799">
        <ele>289.77747</ele>
        <time>2023-06-14T17:04:15.000Z</time>
      </trkpt>
      <trkpt lat="45.83433" lon="4.72807">
        <ele>289.78137</ele>
        <time>2023-06-14T17:04:16.000Z</time>
      </trkpt>
      <trkpt lat="45.83433" lon="4.72812">
        <ele>289.694</ele>
        <time>2023-06-14T17:04:17.000Z</time>
      </trkpt>
      <trkpt lat="45.83432" lon="4.72819">
        <ele>289.68161</ele>
        <time>2023-06-14T17:04:18.000Z</time>
      </trkpt>
      <trkpt lat="45.83431" lon="4.72826">
        <ele>289.73383</ele>
        <time>2023-06-14T17:04:19.000Z</time>
      </trkpt>
      <trkpt lat="45.83431" lon="4.72829">
        <ele>289.89932</ele>
        <time>2023-06-14T17:04:20.000Z</time>
      </trkpt>
      <trkpt lat="45.83431" lon="4.72834">
        <ele>290.1423</ele>
        <time>2023-06-14T17:04:21.000Z</time>
      </trkpt>
      <trkpt lat="45.83433" lon="4.72841">
        <ele>290.47177</ele>
        <time>2023-06-14T17:04:22.000Z</time>
      </trkpt>
      <trkpt lat="45.83435" lon="4.72848">
        <ele>290.82373</ele>
        <time>2023-06-14T17:04:23.000Z</time>
      </trkpt>
      <trkpt lat="45.83435" lon="4.72854">
        <ele>291.21725</ele>
        <time>2023-06-14T17:04:24.000Z</time>
      </trkpt>
      <trkpt lat="45.83435" lon="4.72859">
        <ele>291.49176</ele>
        <time>2023-06-14T17:04:25.000Z</time>
      </trkpt>
      <trkpt lat="45.83438" lon="4.72866">
        <ele>291.80408</ele>
        <time>2023-06-14T17:04:26.000Z</time>
      </trkpt>
      <trkpt lat="45.83438" lon="4.72873">
        <ele>292.08356</ele>
        <time>2023-06-14T17:04:27.000Z</time>
      </trkpt>
      <trkpt lat="45.83439" lon="4.72879">
        <ele>292.53973</ele>
        <time>2023-06-14T17:04:28.000Z</time>
      </trkpt>
      <trkpt lat="45.83439" lon="4.72884">
        <ele>292.69427</ele>
        <time>2023-06-14T17:04:29.000Z</time>
      </trkpt>
      <trkpt lat="45.83439" lon="4.72889">
        <ele>292.90607</ele>
        <time>2023-06-14T17:04:30.000Z</time>
      </trkpt>
      <trkpt lat="45.83439" lon="4.72893">
        <ele>293.13608</ele>
        <time>2023-06-14T17:04:31.000Z</time>
      </trkpt>
      <trkpt lat="45.83438" lon="4.72897">
        <ele>293.52277</ele>
        <time>2023-06-14T17:04:32.000Z</time>
      </trkpt>
      <trkpt lat="45.83438" lon="4.72902">
        <ele>293.9433</ele>
        <time>2023-06-14T17:04:33.000Z</time>
      </trkpt>
      <trkpt lat="45.8344" lon="4.72905">
        <ele>294.28641</ele>
        <time>2023-06-14T17:04:34.000Z</time>
      </trkpt>
      <trkpt lat="45.83441" lon="4.7291">
        <ele>294.58539</ele>
        <time>2023-06-14T17:04:35.000Z</time>
      </trkpt>
      <trkpt lat="45.83442" lon="4.72914">
        <ele>295.29926</ele>
        <time>2023-06-14T17:04:36.000Z</time>
      </trkpt>
      <trkpt lat="45.83443" lon="4.72919">
        <ele>295.8912</ele>
        <time>2023-06-14T17:04:37.000Z</time>
      </trkpt>
      <trkpt lat="45.83445" lon="4.72925">
        <ele>296.41827</ele>
        <time>2023-06-14T17:04:38.000Z</time>
      </trkpt>
      <trkpt lat="45.83447" lon="4.72931">
        <ele>296.7691</ele>
        <time>2023-06-14T17:04:39.000Z</time>
      </trkpt>
      <trkpt lat="45.83449" lon="4.72936">
        <ele>297.04132</ele>
        <time>2023-06-14T17:04:40.000Z</time>
      </trkpt>
      <trkpt lat="45.83451" lon="4.7294">
        <ele>297.21375</ele>
        <time>2023-06-14T17:04:41.000Z</time>
      </trkpt>
      <trkpt lat="45.83453" lon="4.72946">
        <ele>297.33252</ele>
        <time>2023-06-14T17:04:42.000Z</time>
      </trkpt>
      <trkpt lat="45.83454" lon="4.72949">
        <ele>297.48257</ele>
        <time>2023-06-14T17:04:43.000Z</time>
      </trkpt>
      <trkpt lat="45.83456" lon="4.72953">
        <ele>297.61383</ele>
        <time>2023-06-14T17:04:44.000Z</time>
      </trkpt>
      <trkpt lat="45.83458" lon="4.72958">
        <ele>297.75525</ele>
        <time>2023-06-14T17:04:45.000Z</time>
      </trkpt>
      <trkpt lat="45.83459" lon="4.72961">
        <ele>297.68069</ele>
        <time>2023-06-14T17:04:46.000Z</time>
      </trkpt>
      <trkpt lat="45.83461" lon="4.72964">
        <ele>297.6048</ele>
        <time>2023-06-14T17:04:47.000Z</time>
      </trkpt>
      <trkpt lat="45.83462" lon="4.72968">
        <ele>297.51944</ele>
        <time>2023-06-14T17:04:48.000Z</time>
      </trkpt>
      <trkpt lat="45.83463" lon="4.72973">
        <ele>297.79565</ele>
        <time>2023-06-14T17:04:49.000Z</time>
      </trkpt>
      <trkpt lat="45.83464" lon="4.72976">
        <ele>298.04279</ele>
        <time>2023-06-14T17:04:50.000Z</time>
      </trkpt>
      <trkpt lat="45.83466" lon="4.7298">
        <ele>298.26898</ele>
        <time>2023-06-14T17:04:52.000Z</time>
      </trkpt>
      <trkpt lat="45.83467" lon="4.72985">
        <ele>298.28568</ele>
        <time>2023-06-14T17:04:53.000Z</time>
      </trkpt>
      <trkpt lat="45.83469" lon="4.7299">
        <ele>298.34744</ele>
        <time>2023-06-14T17:04:54.000Z</time>
      </trkpt>
      <trkpt lat="45.8347" lon="4.72996">
        <ele>298.37671</ele>
        <time>2023-06-14T17:04:55.000Z</time>
      </trkpt>
      <trkpt lat="45.83471" lon="4.73001">
        <ele>298.32025</ele>
        <time>2023-06-14T17:04:56.000Z</time>
      </trkpt>
      <trkpt lat="45.83473" lon="4.73005">
        <ele>298.27042</ele>
        <time>2023-06-14T17:04:57.000Z</time>
      </trkpt>
      <trkpt lat="45.83474" lon="4.73009">
        <ele>298.2724</ele>
        <time>2023-06-14T17:04:58.000Z</time>
      </trkpt>
      <trkpt lat="45.83476" lon="4.73014">
        <ele>298.31018</ele>
        <time>2023-06-14T17:04:59.000Z</time>
      </trkpt>
      <trkpt lat="45.83478" lon="4.73018">
        <ele>298.36975</ele>
        <time>2023-06-14T17:05:00.000Z</time>
      </trkpt>
      <trkpt lat="45.8348" lon="4.73022">
        <ele>298.48907</ele>
        <time>2023-06-14T17:05:01.000Z</time>
      </trkpt>
      <trkpt lat="45.83483" lon="4.73026">
        <ele>298.64334</ele>
        <time>2023-06-14T17:05:02.000Z</time>
      </trkpt>
      <trkpt lat="45.83486" lon="4.7303">
        <ele>298.81207</ele>
        <time>2023-06-14T17:05:03.000Z</time>
      </trkpt>
      <trkpt lat="45.8349" lon="4.73034">
        <ele>298.73547</ele>
        <time>2023-06-14T17:05:04.000Z</time>
      </trkpt>
      <trkpt lat="45.83493" lon="4.73037">
        <ele>298.71234</ele>
        <time>2023-06-14T17:05:05.000Z</time>
      </trkpt>
      <trkpt lat="45.83496" lon="4.7304">
        <ele>298.62051</ele>
        <time>2023-06-14T17:05:06.000Z</time>
      </trkpt>
      <trkpt lat="45.83499" lon="4.73043">
        <ele>298.73178</ele>
        <time>2023-06-14T17:05:07.000Z</time>
      </trkpt>
      <trkpt lat="45.83502" lon="4.73046">
        <ele>298.80682</ele>
        <time>2023-06-14T17:05:08.000Z</time>
      </trkpt>
      <trkpt lat="45.83504" lon="4.7305">
        <ele>298.82422</ele>
        <time>2023-06-14T17:05:09.000Z</time>
      </trkpt>
      <trkpt lat="45.83507" lon="4.73054">
        <ele>298.82776</ele>
        <time>2023-06-14T17:05:10.000Z</time>
      </trkpt>
      <trkpt lat="45.83509" lon="4.73057">
        <ele>298.76263</ele>
        <time>2023-06-14T17:05:11.000Z</time>
      </trkpt>
      <trkpt lat="45.83512" lon="4.73061">
        <ele>298.6918</ele>
        <time>2023-06-14T17:05:12.000Z</time>
      </trkpt>
      <trkpt lat="45.83516" lon="4.73064">
        <ele>298.61249</ele>
        <time>2023-06-14T17:05:13.000Z</time>
      </trkpt>
      <trkpt lat="45.83519" lon="4.73066">
        <ele>298.47113</ele>
        <time>2023-06-14T17:05:14.000Z</time>
      </trkpt>
      <trkpt lat="45.83523" lon="4.73068">
        <ele>298.45105</ele>
        <time>2023-06-14T17:05:15.000Z</time>
      </trkpt>
      <trkpt lat="45.83527" lon="4.73068">
        <ele>298.526</ele>
        <time>2023-06-14T17:05:16.000Z</time>
      </trkpt>
      <trkpt lat="45.83531" lon="4.73068">
        <ele>298.52673</ele>
        <time>2023-06-14T17:05:17.000Z</time>
      </trkpt>
      <trkpt lat="45.83534" lon="4.73068">
        <ele>298.59274</ele>
        <time>2023-06-14T17:05:18.000Z</time>
      </trkpt>
      <trkpt lat="45.83537" lon="4.73068">
        <ele>298.46075</ele>
        <time>2023-06-14T17:05:19.000Z</time>
      </trkpt>
      <trkpt lat="45.8354" lon="4.73069">
        <ele>298.41452</ele>
        <time>2023-06-14T17:05:20.000Z</time>
      </trkpt>
      <trkpt lat="45.83543" lon="4.73069">
        <ele>298.33795</ele>
        <time>2023-06-14T17:05:21.000Z</time>
      </trkpt>
      <trkpt lat="45.83547" lon="4.73068">
        <ele>298.26794</ele>
        <time>2023-06-14T17:05:22.000Z</time>
      </trkpt>
      <trkpt lat="45.8355" lon="4.73066">
        <ele>298.08502</ele>
        <time>2023-06-14T17:05:23.000Z</time>
      </trkpt>
      <trkpt lat="45.83554" lon="4.73065">
        <ele>298.10422</ele>
        <time>2023-06-14T17:05:24.000Z</time>
      </trkpt>
      <trkpt lat="45.83557" lon="4.73063">
        <ele>297.9548</ele>
        <time>2023-06-14T17:05:25.000Z</time>
      </trkpt>
      <trkpt lat="45.8356" lon="4.73062">
        <ele>297.89679</ele>
        <time>2023-06-14T17:05:26.000Z</time>
      </trkpt>
      <trkpt lat="45.83564" lon="4.73061">
        <ele>297.89661</ele>
        <time>2023-06-14T17:05:27.000Z</time>
      </trkpt>
      <trkpt lat="45.83568" lon="4.7306">
        <ele>297.82788</ele>
        <time>2023-06-14T17:05:28.000Z</time>
      </trkpt>
      <trkpt lat="45.83572" lon="4.73058">
        <ele>297.71344</ele>
        <time>2023-06-14T17:05:29.000Z</time>
      </trkpt>
      <trkpt lat="45.83576" lon="4.73057">
        <ele>297.66437</ele>
        <time>2023-06-14T17:05:30.000Z</time>
      </trkpt>
      <trkpt lat="45.83578" lon="4.73056">
        <ele>297.72714</ele>
        <time>2023-06-14T17:05:31.000Z</time>
      </trkpt>
      <trkpt lat="45.83586" lon="4.73056">
        <ele>297.23505</ele>
        <time>2023-06-14T17:05:32.000Z</time>
      </trkpt>
      <trkpt lat="45.83589" lon="4.73055">
        <ele>296.77573</ele>
        <time>2023-06-14T17:05:33.000Z</time>
      </trkpt>
      <trkpt lat="45.83593" lon="4.73053">
        <ele>296.28732</ele>
        <time>2023-06-14T17:05:34.000Z</time>
      </trkpt>
      <trkpt lat="45.83597" lon="4.73051">
        <ele>295.74405</ele>
        <time>2023-06-14T17:05:35.000Z</time>
      </trkpt>
      <trkpt lat="45.83601" lon="4.73049">
        <ele>295.0979</ele>
        <time>2023-06-14T17:05:36.000Z</time>
      </trkpt>
      <trkpt lat="45.83606" lon="4.73046">
        <ele>294.51825</ele>
        <time>2023-06-14T17:05:37.000Z</time>
      </trkpt>
      <trkpt lat="45.83612" lon="4.73046">
        <ele>293.84375</ele>
        <time>2023-06-14T17:05:38.000Z</time>
      </trkpt>
      <trkpt lat="45.83617" lon="4.73043">
        <ele>293.34247</ele>
        <time>2023-06-14T17:05:39.000Z</time>
      </trkpt>
      <trkpt lat="45.83621" lon="4.73041">
        <ele>292.79214</ele>
        <time>2023-06-14T17:05:40.000Z</time>
      </trkpt>
      <trkpt lat="45.83626" lon="4.73038">
        <ele>292.19174</ele>
        <time>2023-06-14T17:05:41.000Z</time>
      </trkpt>
      <trkpt lat="45.83631" lon="4.73034">
        <ele>291.55341</ele>
        <time>2023-06-14T17:05:42.000Z</time>
      </trkpt>
      <trkpt lat="45.83636" lon="4.73031">
        <ele>290.94391</ele>
        <time>2023-06-14T17:05:43.000Z</time>
      </trkpt>
      <trkpt lat="45.83643" lon="4.73029">
        <ele>290.35065</ele>
        <time>2023-06-14T17:05:44.000Z</time>
      </trkpt>
      <trkpt lat="45.8365" lon="4.73026">
        <ele>289.84668</ele>
        <time>2023-06-14T17:05:45.000Z</time>
      </trkpt>
      <trkpt lat="45.83658" lon="4.73024">
        <ele>289.26871</ele>
        <time>2023-06-14T17:05:46.000Z</time>
      </trkpt>
      <trkpt lat="45.83666" lon="4.73022">
        <ele>288.69818</ele>
        <time>2023-06-14T17:05:47.000Z</time>
      </trkpt>
      <trkpt lat="45.83675" lon="4.73021">
        <ele>288.24347</ele>
        <time>2023-06-14T17:05:48.000Z</time>
      </trkpt>
      <trkpt lat="45.83683" lon="4.73021">
        <ele>287.80731</ele>
        <time>2023-06-14T17:05:49.000Z</time>
      </trkpt>
      <trkpt lat="45.83691" lon="4.73022">
        <ele>287.22223</ele>
        <time>2023-06-14T17:05:50.000Z</time>
      </trkpt>
      <trkpt lat="45.83699" lon="4.73021">
        <ele>286.52423</ele>
        <time>2023-06-14T17:05:51.000Z</time>
      </trkpt>
      <trkpt lat="45.83707" lon="4.73018">
        <ele>286.32877</ele>
        <time>2023-06-14T17:05:52.000Z</time>
      </trkpt>
      <trkpt lat="45.83715" lon="4.73016">
        <ele>286.15234</ele>
        <time>2023-06-14T17:05:53.000Z</time>
      </trkpt>
      <trkpt lat="45.83722" lon="4.73014">
        <ele>286.03278</ele>
        <time>2023-06-14T17:05:54.000Z</time>
      </trkpt>
      <trkpt lat="45.83729" lon="4.73016">
        <ele>285.92245</ele>
        <time>2023-06-14T17:05:55.000Z</time>
      </trkpt>
      <trkpt lat="45.83736" lon="4.73018">
        <ele>285.83673</ele>
        <time>2023-06-14T17:05:56.000Z</time>
      </trkpt>
      <trkpt lat="45.83739" lon="4.73024">
        <ele>285.71967</ele>
        <time>2023-06-14T17:05:57.000Z</time>
      </trkpt>
      <trkpt lat="45.83743" lon="4.7303">
        <ele>285.64352</ele>
        <time>2023-06-14T17:05:58.000Z</time>
      </trkpt>
      <trkpt lat="45.83746" lon="4.73038">
        <ele>285.59317</ele>
        <time>2023-06-14T17:05:59.000Z</time>
      </trkpt>
      <trkpt lat="45.83748" lon="4.73046">
        <ele>285.42853</ele>
        <time>2023-06-14T17:06:00.000Z</time>
      </trkpt>
      <trkpt lat="45.83749" lon="4.73054">
        <ele>285.18011</ele>
        <time>2023-06-14T17:06:01.000Z</time>
      </trkpt>
      <trkpt lat="45.8375" lon="4.73061">
        <ele>284.94293</ele>
        <time>2023-06-14T17:06:02.000Z</time>
      </trkpt>
      <trkpt lat="45.83748" lon="4.73066">
        <ele>284.68756</ele>
        <time>2023-06-14T17:06:03.000Z</time>
      </trkpt>
      <trkpt lat="45.83746" lon="4.73074">
        <ele>284.41107</ele>
        <time>2023-06-14T17:06:04.000Z</time>
      </trkpt>
      <trkpt lat="45.83746" lon="4.73081">
        <ele>284.05899</ele>
        <time>2023-06-14T17:06:05.000Z</time>
      </trkpt>
      <trkpt lat="45.83749" lon="4.73086">
        <ele>283.76907</ele>
        <time>2023-06-14T17:06:06.000Z</time>
      </trkpt>
      <trkpt lat="45.83752" lon="4.73092">
        <ele>283.44293</ele>
        <time>2023-06-14T17:06:07.000Z</time>
      </trkpt>
      <trkpt lat="45.83754" lon="4.73096">
        <ele>283.06506</ele>
        <time>2023-06-14T17:06:08.000Z</time>
      </trkpt>
      <trkpt lat="45.83757" lon="4.73101">
        <ele>282.66003</ele>
        <time>2023-06-14T17:06:09.000Z</time>
      </trkpt>
      <trkpt lat="45.83758" lon="4.73105">
        <ele>282.30243</ele>
        <time>2023-06-14T17:06:10.000Z</time>
      </trkpt>
      <trkpt lat="45.8376" lon="4.7311">
        <ele>281.98822</ele>
        <time>2023-06-14T17:06:11.000Z</time>
      </trkpt>
      <trkpt lat="45.83762" lon="4.73114">
        <ele>281.75757</ele>
        <time>2023-06-14T17:06:12.000Z</time>
      </trkpt>
      <trkpt lat="45.83764" lon="4.73117">
        <ele>281.52789</ele>
        <time>2023-06-14T17:06:13.000Z</time>
      </trkpt>
      <trkpt lat="45.83766" lon="4.73122">
        <ele>281.31836</ele>
        <time>2023-06-14T17:06:14.000Z</time>
      </trkpt>
      <trkpt lat="45.83768" lon="4.73125">
        <ele>281.10724</ele>
        <time>2023-06-14T17:06:15.000Z</time>
      </trkpt>
      <trkpt lat="45.83769" lon="4.73129">
        <ele>280.86523</ele>
        <time>2023-06-14T17:06:16.000Z</time>
      </trkpt>
      <trkpt lat="45.83771" lon="4.73133">
        <ele>280.62042</ele>
        <time>2023-06-14T17:06:17.000Z</time>
      </trkpt>
      <trkpt lat="45.83773" lon="4.73137">
        <ele>280.46304</ele>
        <time>2023-06-14T17:06:18.000Z</time>
      </trkpt>
      <trkpt lat="45.83774" lon="4.73141">
        <ele>280.21869</ele>
        <time>2023-06-14T17:06:19.000Z</time>
      </trkpt>
      <trkpt lat="45.83776" lon="4.73145">
        <ele>280.10614</ele>
        <time>2023-06-14T17:06:20.000Z</time>
      </trkpt>
      <trkpt lat="45.83778" lon="4.73149">
        <ele>280.07858</ele>
        <time>2023-06-14T17:06:21.000Z</time>
      </trkpt>
      <trkpt lat="45.83779" lon="4.73152">
        <ele>280.14993</ele>
        <time>2023-06-14T17:06:22.000Z</time>
      </trkpt>
      <trkpt lat="45.83779" lon="4.73156">
        <ele>280.21185</ele>
        <time>2023-06-14T17:06:23.000Z</time>
      </trkpt>
      <trkpt lat="45.83779" lon="4.73161">
        <ele>280.34259</ele>
        <time>2023-06-14T17:06:24.000Z</time>
      </trkpt>
      <trkpt lat="45.83779" lon="4.73166">
        <ele>280.55371</ele>
        <time>2023-06-14T17:06:25.000Z</time>
      </trkpt>
      <trkpt lat="45.8378" lon="4.7317">
        <ele>280.72656</ele>
        <time>2023-06-14T17:06:26.000Z</time>
      </trkpt>
      <trkpt lat="45.83781" lon="4.73175">
        <ele>280.98541</ele>
        <time>2023-06-14T17:06:27.000Z</time>
      </trkpt>
      <trkpt lat="45.83784" lon="4.73178">
        <ele>281.26239</ele>
        <time>2023-06-14T17:06:28.000Z</time>
      </trkpt>
      <trkpt lat="45.83787" lon="4.73179">
        <ele>281.54538</ele>
        <time>2023-06-14T17:06:29.000Z</time>
      </trkpt>
      <trkpt lat="45.8379" lon="4.73178">
        <ele>281.89828</ele>
        <time>2023-06-14T17:06:30.000Z</time>
      </trkpt>
      <trkpt lat="45.83793" lon="4.73176">
        <ele>282.19012</ele>
        <time>2023-06-14T17:06:31.000Z</time>
      </trkpt>
      <trkpt lat="45.83796" lon="4.73173">
        <ele>282.45294</ele>
        <time>2023-06-14T17:06:32.000Z</time>
      </trkpt>
      <trkpt lat="45.83799" lon="4.73169">
        <ele>282.70825</ele>
        <time>2023-06-14T17:06:33.000Z</time>
      </trkpt>
      <trkpt lat="45.83802" lon="4.73166">
        <ele>282.93787</ele>
        <time>2023-06-14T17:06:34.000Z</time>
      </trkpt>
      <trkpt lat="45.83805" lon="4.73163">
        <ele>283.14069</ele>
        <time>2023-06-14T17:06:35.000Z</time>
      </trkpt>
      <trkpt lat="45.83808" lon="4.7316">
        <ele>283.35538</ele>
        <time>2023-06-14T17:06:36.000Z</time>
      </trkpt>
      <trkpt lat="45.83812" lon="4.73157">
        <ele>283.58783</ele>
        <time>2023-06-14T17:06:37.000Z</time>
      </trkpt>
      <trkpt lat="45.83815" lon="4.73154">
        <ele>283.71295</ele>
        <time>2023-06-14T17:06:38.000Z</time>
      </trkpt>
      <trkpt lat="45.83818" lon="4.73151">
        <ele>283.91913</ele>
        <time>2023-06-14T17:06:39.000Z</time>
      </trkpt>
      <trkpt lat="45.83821" lon="4.73148">
        <ele>284.0925</ele>
        <time>2023-06-14T17:06:40.000Z</time>
      </trkpt>
      <trkpt lat="45.83824" lon="4.73146">
        <ele>284.31259</ele>
        <time>2023-06-14T17:06:41.000Z</time>
      </trkpt>
      <trkpt lat="45.83828" lon="4.73143">
        <ele>284.47162</ele>
        <time>2023-06-14T17:06:42.000Z</time>
      </trkpt>
      <trkpt lat="45.83832" lon="4.7314">
        <ele>284.67758</ele>
        <time>2023-06-14T17:06:43.000Z</time>
      </trkpt>
      <trkpt lat="45.83835" lon="4.73138">
        <ele>284.6037</ele>
        <time>2023-06-14T17:06:44.000Z</time>
      </trkpt>
      <trkpt lat="45.83839" lon="4.73135">
        <ele>284.57352</ele>
        <time>2023-06-14T17:06:45.000Z</time>
      </trkpt>
      <trkpt lat="45.83843" lon="4.73132">
        <ele>284.53314</ele>
        <time>2023-06-14T17:06:46.000Z</time>
      </trkpt>
      <trkpt lat="45.83846" lon="4.7313">
        <ele>284.4129</ele>
        <time>2023-06-14T17:06:47.000Z</time>
      </trkpt>
      <trkpt lat="45.8385" lon="4.73127">
        <ele>284.28583</ele>
        <time>2023-06-14T17:06:48.000Z</time>
      </trkpt>
      <trkpt lat="45.83854" lon="4.73124">
        <ele>284.12833</ele>
        <time>2023-06-14T17:06:49.000Z</time>
      </trkpt>
      <trkpt lat="45.83858" lon="4.73122">
        <ele>283.99908</ele>
        <time>2023-06-14T17:06:50.000Z</time>
      </trkpt>
      <trkpt lat="45.83861" lon="4.73119">
        <ele>283.8421</ele>
        <time>2023-06-14T17:06:51.000Z</time>
      </trkpt>
      <trkpt lat="45.83865" lon="4.73117">
        <ele>283.70224</ele>
        <time>2023-06-14T17:06:52.000Z</time>
      </trkpt>
      <trkpt lat="45.8387" lon="4.73113">
        <ele>283.58435</ele>
        <time>2023-06-14T17:06:53.000Z</time>
      </trkpt>
      <trkpt lat="45.83875" lon="4.73111">
        <ele>283.50391</ele>
        <time>2023-06-14T17:06:54.000Z</time>
      </trkpt>
      <trkpt lat="45.8388" lon="4.73109">
        <ele>283.46191</ele>
        <time>2023-06-14T17:06:55.000Z</time>
      </trkpt>
      <trkpt lat="45.83884" lon="4.73108">
        <ele>283.41052</ele>
        <time>2023-06-14T17:06:56.000Z</time>
      </trkpt>
      <trkpt lat="45.83889" lon="4.73107">
        <ele>283.32779</ele>
        <time>2023-06-14T17:06:57.000Z</time>
      </trkpt>
      <trkpt lat="45.83894" lon="4.73107">
        <ele>283.24811</ele>
        <time>2023-06-14T17:06:58.000Z</time>
      </trkpt>
      <trkpt lat="45.83899" lon="4.73106">
        <ele>283.20001</ele>
        <time>2023-06-14T17:06:59.000Z</time>
      </trkpt>
      <trkpt lat="45.83904" lon="4.73105">
        <ele>283.142</ele>
        <time>2023-06-14T17:07:00.000Z</time>
      </trkpt>
      <trkpt lat="45.83909" lon="4.73104">
        <ele>283.01215</ele>
        <time>2023-06-14T17:07:01.000Z</time>
      </trkpt>
      <trkpt lat="45.83915" lon="4.73102">
        <ele>282.82022</ele>
        <time>2023-06-14T17:07:02.000Z</time>
      </trkpt>
      <trkpt lat="45.83921" lon="4.73101">
        <ele>282.62643</ele>
        <time>2023-06-14T17:07:03.000Z</time>
      </trkpt>
      <trkpt lat="45.83927" lon="4.73101">
        <ele>282.7576</ele>
        <time>2023-06-14T17:07:04.000Z</time>
      </trkpt>
      <trkpt lat="45.83933" lon="4.73099">
        <ele>282.78442</ele>
        <time>2023-06-14T17:07:05.000Z</time>
      </trkpt>
      <trkpt lat="45.83938" lon="4.73097">
        <ele>282.82043</ele>
        <time>2023-06-14T17:07:06.000Z</time>
      </trkpt>
      <trkpt lat="45.83944" lon="4.73095">
        <ele>282.97974</ele>
        <time>2023-06-14T17:07:07.000Z</time>
      </trkpt>
      <trkpt lat="45.83951" lon="4.73094">
        <ele>283.13599</ele>
        <time>2023-06-14T17:07:08.000Z</time>
      </trkpt>
      <trkpt lat="45.83957" lon="4.73092">
        <ele>283.31027</ele>
        <time>2023-06-14T17:07:09.000Z</time>
      </trkpt>
      <trkpt lat="45.83963" lon="4.7309">
        <ele>283.80634</ele>
        <time>2023-06-14T17:07:10.000Z</time>
      </trkpt>
      <trkpt lat="45.83968" lon="4.73089">
        <ele>284.42636</ele>
        <time>2023-06-14T17:07:11.000Z</time>
      </trkpt>
      <trkpt lat="45.83972" lon="4.73088">
        <ele>285.11658</ele>
        <time>2023-06-14T17:07:12.000Z</time>
      </trkpt>
      <trkpt lat="45.83977" lon="4.73086">
        <ele>285.80496</ele>
        <time>2023-06-14T17:07:13.000Z</time>
      </trkpt>
      <trkpt lat="45.83981" lon="4.73085">
        <ele>286.22543</ele>
        <time>2023-06-14T17:07:14.000Z</time>
      </trkpt>
      <trkpt lat="45.83984" lon="4.73083">
        <ele>286.67053</ele>
        <time>2023-06-14T17:07:15.000Z</time>
      </trkpt>
      <trkpt lat="45.83986" lon="4.73083">
        <ele>287.15692</ele>
        <time>2023-06-14T17:07:16.000Z</time>
      </trkpt>
      <trkpt lat="45.83988" lon="4.73081">
        <ele>287.65604</ele>
        <time>2023-06-14T17:07:17.000Z</time>
      </trkpt>
      <trkpt lat="45.8399" lon="4.73083">
        <ele>288.39462</ele>
        <time>2023-06-14T17:07:27.000Z</time>
      </trkpt>
      <trkpt lat="45.83993" lon="4.73085">
        <ele>288.97238</ele>
        <time>2023-06-14T17:07:29.000Z</time>
      </trkpt>
      <trkpt lat="45.83994" lon="4.73089">
        <ele>289.50946</ele>
        <time>2023-06-14T17:07:30.000Z</time>
      </trkpt>
      <trkpt lat="45.83995" lon="4.73092">
        <ele>290.15836</ele>
        <time>2023-06-14T17:07:31.000Z</time>
      </trkpt>
      <trkpt lat="45.83996" lon="4.73096">
        <ele>290.85419</ele>
        <time>2023-06-14T17:07:32.000Z</time>
      </trkpt>
      <trkpt lat="45.83996" lon="4.73102">
        <ele>291.26395</ele>
        <time>2023-06-14T17:07:33.000Z</time>
      </trkpt>
      <trkpt lat="45.83997" lon="4.73108">
        <ele>291.56744</ele>
        <time>2023-06-14T17:07:34.000Z</time>
      </trkpt>
      <trkpt lat="45.83997" lon="4.73115">
        <ele>291.76221</ele>
        <time>2023-06-14T17:07:35.000Z</time>
      </trkpt>
      <trkpt lat="45.83997" lon="4.73121">
        <ele>291.96167</ele>
        <time>2023-06-14T17:07:36.000Z</time>
      </trkpt>
      <trkpt lat="45.83998" lon="4.7313">
        <ele>292.04776</ele>
        <time>2023-06-14T17:07:37.000Z</time>
      </trkpt>
      <trkpt lat="45.83999" lon="4.73138">
        <ele>292.13632</ele>
        <time>2023-06-14T17:07:38.000Z</time>
      </trkpt>
      <trkpt lat="45.83999" lon="4.73144">
        <ele>292.241</ele>
        <time>2023-06-14T17:07:39.000Z</time>
      </trkpt>
      <trkpt lat="45.84" lon="4.73153">
        <ele>291.96478</ele>
        <time>2023-06-14T17:07:40.000Z</time>
      </trkpt>
      <trkpt lat="45.84" lon="4.73163">
        <ele>291.5813</ele>
        <time>2023-06-14T17:07:41.000Z</time>
      </trkpt>
      <trkpt lat="45.84001" lon="4.73173">
        <ele>291.03766</ele>
        <time>2023-06-14T17:07:42.000Z</time>
      </trkpt>
      <trkpt lat="45.84001" lon="4.73182">
        <ele>290.5098</ele>
        <time>2023-06-14T17:07:43.000Z</time>
      </trkpt>
      <trkpt lat="45.84003" lon="4.73191">
        <ele>290.59619</ele>
        <time>2023-06-14T17:07:44.000Z</time>
      </trkpt>
      <trkpt lat="45.84002" lon="4.73199">
        <ele>290.62421</ele>
        <time>2023-06-14T17:07:45.000Z</time>
      </trkpt>
      <trkpt lat="45.84003" lon="4.73208">
        <ele>290.85138</ele>
        <time>2023-06-14T17:07:46.000Z</time>
      </trkpt>
      <trkpt lat="45.84002" lon="4.73216">
        <ele>290.47894</ele>
        <time>2023-06-14T17:07:47.000Z</time>
      </trkpt>
      <trkpt lat="45.84003" lon="4.73226">
        <ele>289.8797</ele>
        <time>2023-06-14T17:07:48.000Z</time>
      </trkpt>
      <trkpt lat="45.84006" lon="4.73237">
        <ele>289.38083</ele>
        <time>2023-06-14T17:07:49.000Z</time>
      </trkpt>
      <trkpt lat="45.8401" lon="4.73245">
        <ele>288.92117</ele>
        <time>2023-06-14T17:07:50.000Z</time>
      </trkpt>
      <trkpt lat="45.84014" lon="4.73249">
        <ele>288.40869</ele>
        <time>2023-06-14T17:07:51.000Z</time>
      </trkpt>
      <trkpt lat="45.84017" lon="4.73255">
        <ele>287.87445</ele>
        <time>2023-06-14T17:07:52.000Z</time>
      </trkpt>
      <trkpt lat="45.84022" lon="4.73262">
        <ele>287.53992</ele>
        <time>2023-06-14T17:07:53.000Z</time>
      </trkpt>
      <trkpt lat="45.84027" lon="4.73267">
        <ele>287.20883</ele>
        <time>2023-06-14T17:07:54.000Z</time>
      </trkpt>
      <trkpt lat="45.84032" lon="4.73273">
        <ele>287.00748</ele>
        <time>2023-06-14T17:07:55.000Z</time>
      </trkpt>
      <trkpt lat="45.84037" lon="4.73278">
        <ele>286.79001</ele>
        <time>2023-06-14T17:07:56.000Z</time>
      </trkpt>
      <trkpt lat="45.84042" lon="4.73282">
        <ele>286.57907</ele>
        <time>2023-06-14T17:07:57.000Z</time>
      </trkpt>
      <trkpt lat="45.84048" lon="4.73288">
        <ele>286.37836</ele>
        <time>2023-06-14T17:07:58.000Z</time>
      </trkpt>
      <trkpt lat="45.84052" lon="4.73293">
        <ele>286.17316</ele>
        <time>2023-06-14T17:07:59.000Z</time>
      </trkpt>
      <trkpt lat="45.84057" lon="4.73297">
        <ele>285.96893</ele>
        <time>2023-06-14T17:08:00.000Z</time>
      </trkpt>
      <trkpt lat="45.84062" lon="4.73302">
        <ele>285.79321</ele>
        <time>2023-06-14T17:08:01.000Z</time>
      </trkpt>
      <trkpt lat="45.84067" lon="4.73307">
        <ele>285.7103</ele>
        <time>2023-06-14T17:08:02.000Z</time>
      </trkpt>
      <trkpt lat="45.84072" lon="4.7331">
        <ele>285.6362</ele>
        <time>2023-06-14T17:08:03.000Z</time>
      </trkpt>
      <trkpt lat="45.84077" lon="4.73314">
        <ele>285.17383</ele>
        <time>2023-06-14T17:08:04.000Z</time>
      </trkpt>
      <trkpt lat="45.84082" lon="4.73318">
        <ele>284.72263</ele>
        <time>2023-06-14T17:08:05.000Z</time>
      </trkpt>
      <trkpt lat="45.84086" lon="4.73322">
        <ele>284.42487</ele>
        <time>2023-06-14T17:08:06.000Z</time>
      </trkpt>
      <trkpt lat="45.84091" lon="4.73326">
        <ele>284.4231</ele>
        <time>2023-06-14T17:08:07.000Z</time>
      </trkpt>
      <trkpt lat="45.84096" lon="4.73329">
        <ele>284.3793</ele>
        <time>2023-06-14T17:08:08.000Z</time>
      </trkpt>
      <trkpt lat="45.84101" lon="4.73332">
        <ele>284.27386</ele>
        <time>2023-06-14T17:08:09.000Z</time>
      </trkpt>
      <trkpt lat="45.84106" lon="4.73335">
        <ele>284.19467</ele>
        <time>2023-06-14T17:08:10.000Z</time>
      </trkpt>
      <trkpt lat="45.8411" lon="4.73338">
        <ele>284.09235</ele>
        <time>2023-06-14T17:08:11.000Z</time>
      </trkpt>
      <trkpt lat="45.84115" lon="4.73341">
        <ele>283.99289</ele>
        <time>2023-06-14T17:08:12.000Z</time>
      </trkpt>
      <trkpt lat="45.8412" lon="4.73345">
        <ele>283.95261</ele>
        <time>2023-06-14T17:08:13.000Z</time>
      </trkpt>
      <trkpt lat="45.84125" lon="4.73349">
        <ele>283.91391</ele>
        <time>2023-06-14T17:08:14.000Z</time>
      </trkpt>
      <trkpt lat="45.8413" lon="4.73352">
        <ele>283.88654</ele>
        <time>2023-06-14T17:08:15.000Z</time>
      </trkpt>
      <trkpt lat="45.84135" lon="4.73356">
        <ele>283.86884</ele>
        <time>2023-06-14T17:08:16.000Z</time>
      </trkpt>
      <trkpt lat="45.8414" lon="4.73358">
        <ele>283.84183</ele>
        <time>2023-06-14T17:08:17.000Z</time>
      </trkpt>
      <trkpt lat="45.84146" lon="4.73361">
        <ele>283.81485</ele>
        <time>2023-06-14T17:08:18.000Z</time>
      </trkpt>
      <trkpt lat="45.84151" lon="4.73365">
        <ele>283.79462</ele>
        <time>2023-06-14T17:08:19.000Z</time>
      </trkpt>
      <trkpt lat="45.84156" lon="4.73369">
        <ele>283.76166</ele>
        <time>2023-06-14T17:08:20.000Z</time>
      </trkpt>
      <trkpt lat="45.84161" lon="4.73374">
        <ele>283.71576</ele>
        <time>2023-06-14T17:08:21.000Z</time>
      </trkpt>
      <trkpt lat="45.84166" lon="4.73377">
        <ele>283.63229</ele>
        <time>2023-06-14T17:08:22.000Z</time>
      </trkpt>
      <trkpt lat="45.84171" lon="4.73381">
        <ele>283.49261</ele>
        <time>2023-06-14T17:08:23.000Z</time>
      </trkpt>
      <trkpt lat="45.84174" lon="4.73385">
        <ele>283.35229</ele>
        <time>2023-06-14T17:08:24.000Z</time>
      </trkpt>
      <trkpt lat="45.84174" lon="4.73389">
        <ele>283.22375</ele>
        <time>2023-06-14T17:08:25.000Z</time>
      </trkpt>
      <trkpt lat="45.84175" lon="4.73393">
        <ele>282.73206</ele>
        <time>2023-06-14T17:08:26.000Z</time>
      </trkpt>
      <trkpt lat="45.8417" lon="4.73396">
        <ele>282.52426</ele>
        <time>2023-06-14T17:08:27.000Z</time>
      </trkpt>
      <trkpt lat="45.84166" lon="4.734">
        <ele>282.55658</ele>
        <time>2023-06-14T17:08:28.000Z</time>
      </trkpt>
      <trkpt lat="45.84162" lon="4.73405">
        <ele>282.67371</ele>
        <time>2023-06-14T17:08:29.000Z</time>
      </trkpt>
      <trkpt lat="45.84157" lon="4.7341">
        <ele>282.74905</ele>
        <time>2023-06-14T17:08:30.000Z</time>
      </trkpt>
      <trkpt lat="45.84151" lon="4.73416">
        <ele>282.81012</ele>
        <time>2023-06-14T17:08:31.000Z</time>
      </trkpt>
      <trkpt lat="45.84145" lon="4.73422">
        <ele>282.86014</ele>
        <time>2023-06-14T17:08:32.000Z</time>
      </trkpt>
      <trkpt lat="45.8414" lon="4.73429">
        <ele>282.92389</ele>
        <time>2023-06-14T17:08:33.000Z</time>
      </trkpt>
      <trkpt lat="45.84134" lon="4.73435">
        <ele>283.00269</ele>
        <time>2023-06-14T17:08:34.000Z</time>
      </trkpt>
      <trkpt lat="45.84128" lon="4.73444">
        <ele>283.04767</ele>
        <time>2023-06-14T17:08:35.000Z</time>
      </trkpt>
      <trkpt lat="45.84121" lon="4.73451">
        <ele>282.73001</ele>
        <time>2023-06-14T17:08:36.000Z</time>
      </trkpt>
      <trkpt lat="45.84115" lon="4.73459">
        <ele>282.4277</ele>
        <time>2023-06-14T17:08:37.000Z</time>
      </trkpt>
      <trkpt lat="45.84109" lon="4.73467">
        <ele>282.21008</ele>
        <time>2023-06-14T17:08:38.000Z</time>
      </trkpt>
      <trkpt lat="45.84104" lon="4.73474">
        <ele>282.00656</ele>
        <time>2023-06-14T17:08:39.000Z</time>
      </trkpt>
      <trkpt lat="45.84099" lon="4.73481">
        <ele>281.89456</ele>
        <time>2023-06-14T17:08:40.000Z</time>
      </trkpt>
      <trkpt lat="45.84095" lon="4.73488">
        <ele>281.81024</ele>
        <time>2023-06-14T17:08:41.000Z</time>
      </trkpt>
      <trkpt lat="45.84091" lon="4.73495">
        <ele>281.64615</ele>
        <time>2023-06-14T17:08:42.000Z</time>
      </trkpt>
      <trkpt lat="45.84087" lon="4.73502">
        <ele>281.52591</ele>
        <time>2023-06-14T17:08:43.000Z</time>
      </trkpt>
      <trkpt lat="45.84083" lon="4.73508">
        <ele>281.42902</ele>
        <time>2023-06-14T17:08:44.000Z</time>
      </trkpt>
      <trkpt lat="45.84078" lon="4.73514">
        <ele>281.32565</ele>
        <time>2023-06-14T17:08:45.000Z</time>
      </trkpt>
      <trkpt lat="45.84074" lon="4.7352">
        <ele>281.22327</ele>
        <time>2023-06-14T17:08:46.000Z</time>
      </trkpt>
      <trkpt lat="45.84069" lon="4.73525">
        <ele>281.13901</ele>
        <time>2023-06-14T17:08:47.000Z</time>
      </trkpt>
      <trkpt lat="45.84064" lon="4.7353">
        <ele>280.84351</ele>
        <time>2023-06-14T17:08:48.000Z</time>
      </trkpt>
      <trkpt lat="45.8406" lon="4.73534">
        <ele>280.53964</ele>
        <time>2023-06-14T17:08:49.000Z</time>
      </trkpt>
      <trkpt lat="45.84055" lon="4.73538">
        <ele>280.25882</ele>
        <time>2023-06-14T17:08:50.000Z</time>
      </trkpt>
      <trkpt lat="45.8405" lon="4.73542">
        <ele>279.99945</ele>
        <time>2023-06-14T17:08:51.000Z</time>
      </trkpt>
      <trkpt lat="45.84045" lon="4.73546">
        <ele>279.79657</ele>
        <time>2023-06-14T17:08:52.000Z</time>
      </trkpt>
      <trkpt lat="45.8404" lon="4.73548">
        <ele>279.57053</ele>
        <time>2023-06-14T17:08:53.000Z</time>
      </trkpt>
      <trkpt lat="45.84036" lon="4.73552">
        <ele>279.38696</ele>
        <time>2023-06-14T17:08:54.000Z</time>
      </trkpt>
      <trkpt lat="45.84034" lon="4.73557">
        <ele>279.23709</ele>
        <time>2023-06-14T17:08:55.000Z</time>
      </trkpt>
      <trkpt lat="45.84032" lon="4.73563">
        <ele>279.4632</ele>
        <time>2023-06-14T17:08:56.000Z</time>
      </trkpt>
      <trkpt lat="45.84029" lon="4.73567">
        <ele>279.70505</ele>
        <time>2023-06-14T17:08:57.000Z</time>
      </trkpt>
      <trkpt lat="45.84027" lon="4.73571">
        <ele>279.8685</ele>
        <time>2023-06-14T17:08:58.000Z</time>
      </trkpt>
      <trkpt lat="45.84025" lon="4.73576">
        <ele>279.9899</ele>
        <time>2023-06-14T17:08:59.000Z</time>
      </trkpt>
      <trkpt lat="45.84022" lon="4.7358">
        <ele>280.04169</ele>
        <time>2023-06-14T17:09:00.000Z</time>
      </trkpt>
      <trkpt lat="45.8402" lon="4.73586">
        <ele>280.07263</ele>
        <time>2023-06-14T17:09:01.000Z</time>
      </trkpt>
      <trkpt lat="45.8402" lon="4.73591">
        <ele>280.22418</ele>
        <time>2023-06-14T17:09:02.000Z</time>
      </trkpt>
      <trkpt lat="45.84018" lon="4.73597">
        <ele>280.37424</ele>
        <time>2023-06-14T17:09:03.000Z</time>
      </trkpt>
      <trkpt lat="45.84017" lon="4.73604">
        <ele>280.5961</ele>
        <time>2023-06-14T17:09:04.000Z</time>
      </trkpt>
      <trkpt lat="45.84014" lon="4.73609">
        <ele>281.16669</ele>
        <time>2023-06-14T17:09:05.000Z</time>
      </trkpt>
      <trkpt lat="45.8401" lon="4.73615">
        <ele>281.64487</ele>
        <time>2023-06-14T17:09:06.000Z</time>
      </trkpt>
      <trkpt lat="45.84006" lon="4.7362">
        <ele>282.09558</ele>
        <time>2023-06-14T17:09:07.000Z</time>
      </trkpt>
      <trkpt lat="45.84001" lon="4.73625">
        <ele>282.69464</ele>
        <time>2023-06-14T17:09:08.000Z</time>
      </trkpt>
      <trkpt lat="45.83996" lon="4.73628">
        <ele>283.25464</ele>
        <time>2023-06-14T17:09:09.000Z</time>
      </trkpt>
      <trkpt lat="45.83991" lon="4.73631">
        <ele>283.85721</ele>
        <time>2023-06-14T17:09:10.000Z</time>
      </trkpt>
      <trkpt lat="45.83986" lon="4.73633">
        <ele>284.14111</ele>
        <time>2023-06-14T17:09:11.000Z</time>
      </trkpt>
      <trkpt lat="45.8398" lon="4.73633">
        <ele>284.32516</ele>
        <time>2023-06-14T17:09:12.000Z</time>
      </trkpt>
      <trkpt lat="45.83975" lon="4.73634">
        <ele>284.44196</ele>
        <time>2023-06-14T17:09:13.000Z</time>
      </trkpt>
      <trkpt lat="45.83969" lon="4.73638">
        <ele>284.50455</ele>
        <time>2023-06-14T17:09:14.000Z</time>
      </trkpt>
      <trkpt lat="45.83964" lon="4.73643">
        <ele>284.54721</ele>
        <time>2023-06-14T17:09:15.000Z</time>
      </trkpt>
      <trkpt lat="45.8396" lon="4.7365">
        <ele>284.57635</ele>
        <time>2023-06-14T17:09:16.000Z</time>
      </trkpt>
      <trkpt lat="45.83956" lon="4.73657">
        <ele>284.58865</ele>
        <time>2023-06-14T17:09:17.000Z</time>
      </trkpt>
      <trkpt lat="45.83955" lon="4.73667">
        <ele>284.58514</ele>
        <time>2023-06-14T17:09:18.000Z</time>
      </trkpt>
      <trkpt lat="45.83954" lon="4.73676">
        <ele>284.61151</ele>
        <time>2023-06-14T17:09:19.000Z</time>
      </trkpt>
      <trkpt lat="45.83955" lon="4.73685">
        <ele>284.62946</ele>
        <time>2023-06-14T17:09:20.000Z</time>
      </trkpt>
      <trkpt lat="45.83955" lon="4.73695">
        <ele>284.63336</ele>
        <time>2023-06-14T17:09:21.000Z</time>
      </trkpt>
      <trkpt lat="45.83953" lon="4.73705">
        <ele>284.61789</ele>
        <time>2023-06-14T17:09:22.000Z</time>
      </trkpt>
      <trkpt lat="45.83949" lon="4.73714">
        <ele>284.55701</ele>
        <time>2023-06-14T17:09:23.000Z</time>
      </trkpt>
      <trkpt lat="45.83945" lon="4.73722">
        <ele>284.39478</ele>
        <time>2023-06-14T17:09:24.000Z</time>
      </trkpt>
      <trkpt lat="45.83941" lon="4.7373">
        <ele>283.65851</ele>
        <time>2023-06-14T17:09:25.000Z</time>
      </trkpt>
      <trkpt lat="45.83937" lon="4.7374">
        <ele>282.9996</ele>
        <time>2023-06-14T17:09:26.000Z</time>
      </trkpt>
      <trkpt lat="45.83935" lon="4.73751">
        <ele>282.38885</ele>
        <time>2023-06-14T17:09:27.000Z</time>
      </trkpt>
      <trkpt lat="45.83933" lon="4.73762">
        <ele>281.82642</ele>
        <time>2023-06-14T17:09:28.000Z</time>
      </trkpt>
      <trkpt lat="45.83934" lon="4.73774">
        <ele>281.25787</ele>
        <time>2023-06-14T17:09:29.000Z</time>
      </trkpt>
      <trkpt lat="45.83937" lon="4.73785">
        <ele>280.6507</ele>
        <time>2023-06-14T17:09:30.000Z</time>
      </trkpt>
      <trkpt lat="45.8394" lon="4.73796">
        <ele>280.34085</ele>
        <time>2023-06-14T17:09:31.000Z</time>
      </trkpt>
      <trkpt lat="45.83947" lon="4.73804">
        <ele>280.07602</ele>
        <time>2023-06-14T17:09:32.000Z</time>
      </trkpt>
      <trkpt lat="45.83951" lon="4.73812">
        <ele>279.90094</ele>
        <time>2023-06-14T17:09:33.000Z</time>
      </trkpt>
      <trkpt lat="45.83959" lon="4.73819">
        <ele>279.71915</ele>
        <time>2023-06-14T17:09:34.000Z</time>
      </trkpt>
      <trkpt lat="45.83966" lon="4.73827">
        <ele>279.54437</ele>
        <time>2023-06-14T17:09:35.000Z</time>
      </trkpt>
      <trkpt lat="45.83973" lon="4.73835">
        <ele>279.30927</ele>
        <time>2023-06-14T17:09:36.000Z</time>
      </trkpt>
      <trkpt lat="45.83977" lon="4.73842">
        <ele>279.42813</ele>
        <time>2023-06-14T17:09:37.000Z</time>
      </trkpt>
      <trkpt lat="45.83986" lon="4.73847">
        <ele>279.65631</ele>
        <time>2023-06-14T17:09:38.000Z</time>
      </trkpt>
      <trkpt lat="45.83999" lon="4.73846">
        <ele>279.49924</ele>
        <time>2023-06-14T17:09:39.000Z</time>
      </trkpt>
      <trkpt lat="45.84008" lon="4.73847">
        <ele>279.39642</ele>
        <time>2023-06-14T17:09:40.000Z</time>
      </trkpt>
      <trkpt lat="45.84016" lon="4.73845">
        <ele>279.33524</ele>
        <time>2023-06-14T17:09:41.000Z</time>
      </trkpt>
      <trkpt lat="45.84027" lon="4.73843">
        <ele>279.33331</ele>
        <time>2023-06-14T17:09:42.000Z</time>
      </trkpt>
      <trkpt lat="45.84036" lon="4.73841">
        <ele>279.40057</ele>
        <time>2023-06-14T17:09:43.000Z</time>
      </trkpt>
      <trkpt lat="45.84044" lon="4.73839">
        <ele>279.39804</ele>
        <time>2023-06-14T17:09:44.000Z</time>
      </trkpt>
      <trkpt lat="45.84054" lon="4.73835">
        <ele>279.57614</ele>
        <time>2023-06-14T17:09:45.000Z</time>
      </trkpt>
      <trkpt lat="45.84062" lon="4.73832">
        <ele>279.74615</ele>
        <time>2023-06-14T17:09:46.000Z</time>
      </trkpt>
      <trkpt lat="45.84072" lon="4.73827">
        <ele>279.92728</ele>
        <time>2023-06-14T17:09:47.000Z</time>
      </trkpt>
      <trkpt lat="45.84078" lon="4.73824">
        <ele>279.89597</ele>
        <time>2023-06-14T17:09:48.000Z</time>
      </trkpt>
      <trkpt lat="45.84086" lon="4.73822">
        <ele>279.84955</ele>
        <time>2023-06-14T17:09:49.000Z</time>
      </trkpt>
      <trkpt lat="45.84094" lon="4.7382">
        <ele>279.7623</ele>
        <time>2023-06-14T17:09:50.000Z</time>
      </trkpt>
      <trkpt lat="45.841" lon="4.73818">
        <ele>279.82642</ele>
        <time>2023-06-14T17:09:51.000Z</time>
      </trkpt>
      <trkpt lat="45.84106" lon="4.73817">
        <ele>279.8761</ele>
        <time>2023-06-14T17:09:52.000Z</time>
      </trkpt>
      <trkpt lat="45.84112" lon="4.73816">
        <ele>279.85617</ele>
        <time>2023-06-14T17:09:53.000Z</time>
      </trkpt>
      <trkpt lat="45.84117" lon="4.73815">
        <ele>279.81686</ele>
        <time>2023-06-14T17:09:54.000Z</time>
      </trkpt>
      <trkpt lat="45.84123" lon="4.73815">
        <ele>279.73218</ele>
        <time>2023-06-14T17:09:55.000Z</time>
      </trkpt>
      <trkpt lat="45.84128" lon="4.73816">
        <ele>279.70084</ele>
        <time>2023-06-14T17:09:56.000Z</time>
      </trkpt>
      <trkpt lat="45.84134" lon="4.73817">
        <ele>279.08453</ele>
        <time>2023-06-14T17:09:57.000Z</time>
      </trkpt>
      <trkpt lat="45.84139" lon="4.73817">
        <ele>278.44208</ele>
        <time>2023-06-14T17:09:58.000Z</time>
      </trkpt>
      <trkpt lat="45.84144" lon="4.73817">
        <ele>278.21387</ele>
        <time>2023-06-14T17:09:59.000Z</time>
      </trkpt>
      <trkpt lat="45.84148" lon="4.73819">
        <ele>277.8334</ele>
        <time>2023-06-14T17:10:00.000Z</time>
      </trkpt>
      <trkpt lat="45.84152" lon="4.73821">
        <ele>277.44162</ele>
        <time>2023-06-14T17:10:01.000Z</time>
      </trkpt>
      <trkpt lat="45.84157" lon="4.73823">
        <ele>277.0293</ele>
        <time>2023-06-14T17:10:02.000Z</time>
      </trkpt>
      <trkpt lat="45.8416" lon="4.73826">
        <ele>276.47827</ele>
        <time>2023-06-14T17:10:03.000Z</time>
      </trkpt>
      <trkpt lat="45.84163" lon="4.73827">
        <ele>276.0321</ele>
        <time>2023-06-14T17:10:04.000Z</time>
      </trkpt>
      <trkpt lat="45.84167" lon="4.7383">
        <ele>275.75644</ele>
        <time>2023-06-14T17:10:05.000Z</time>
      </trkpt>
      <trkpt lat="45.84168" lon="4.73833">
        <ele>275.53558</ele>
        <time>2023-06-14T17:10:06.000Z</time>
      </trkpt>
      <trkpt lat="45.84169" lon="4.73836">
        <ele>275.34378</ele>
        <time>2023-06-14T17:10:07.000Z</time>
      </trkpt>
      <trkpt lat="45.84166" lon="4.73839">
        <ele>275.02985</ele>
        <time>2023-06-14T17:10:08.000Z</time>
      </trkpt>
      <trkpt lat="45.84164" lon="4.73841">
        <ele>274.74722</ele>
        <time>2023-06-14T17:10:09.000Z</time>
      </trkpt>
      <trkpt lat="45.84162" lon="4.73844">
        <ele>274.55621</ele>
        <time>2023-06-14T17:10:10.000Z</time>
      </trkpt>
      <trkpt lat="45.84161" lon="4.73847">
        <ele>274.35114</ele>
        <time>2023-06-14T17:10:11.000Z</time>
      </trkpt>
      <trkpt lat="45.84158" lon="4.73851">
        <ele>274.12607</ele>
        <time>2023-06-14T17:10:12.000Z</time>
      </trkpt>
      <trkpt lat="45.84156" lon="4.73853">
        <ele>273.88702</ele>
        <time>2023-06-14T17:10:13.000Z</time>
      </trkpt>
      <trkpt lat="45.84155" lon="4.73856">
        <ele>273.78125</ele>
        <time>2023-06-14T17:10:14.000Z</time>
      </trkpt>
      <trkpt lat="45.84152" lon="4.73859">
        <ele>273.65137</ele>
        <time>2023-06-14T17:10:15.000Z</time>
      </trkpt>
      <trkpt lat="45.8415" lon="4.73863">
        <ele>273.56992</ele>
        <time>2023-06-14T17:10:16.000Z</time>
      </trkpt>
      <trkpt lat="45.84148" lon="4.73867">
        <ele>273.73907</ele>
        <time>2023-06-14T17:10:17.000Z</time>
      </trkpt>
      <trkpt lat="45.84145" lon="4.73872">
        <ele>273.85922</ele>
        <time>2023-06-14T17:10:18.000Z</time>
      </trkpt>
      <trkpt lat="45.84143" lon="4.73876">
        <ele>273.96829</ele>
        <time>2023-06-14T17:10:19.000Z</time>
      </trkpt>
      <trkpt lat="45.8414" lon="4.7388">
        <ele>274.23581</ele>
        <time>2023-06-14T17:10:20.000Z</time>
      </trkpt>
      <trkpt lat="45.84137" lon="4.73884">
        <ele>274.508</ele>
        <time>2023-06-14T17:10:21.000Z</time>
      </trkpt>
      <trkpt lat="45.84135" lon="4.73887">
        <ele>274.737</ele>
        <time>2023-06-14T17:10:22.000Z</time>
      </trkpt>
      <trkpt lat="45.84132" lon="4.73891">
        <ele>275.08063</ele>
        <time>2023-06-14T17:10:23.000Z</time>
      </trkpt>
      <trkpt lat="45.84129" lon="4.73895">
        <ele>275.39929</ele>
        <time>2023-06-14T17:10:24.000Z</time>
      </trkpt>
      <trkpt lat="45.84126" lon="4.73899">
        <ele>275.62274</ele>
        <time>2023-06-14T17:10:25.000Z</time>
      </trkpt>
      <trkpt lat="45.84123" lon="4.73903">
        <ele>275.8074</ele>
        <time>2023-06-14T17:10:26.000Z</time>
      </trkpt>
      <trkpt lat="45.84121" lon="4.73907">
        <ele>275.92755</ele>
        <time>2023-06-14T17:10:27.000Z</time>
      </trkpt>
      <trkpt lat="45.84119" lon="4.73912">
        <ele>276.12616</ele>
        <time>2023-06-14T17:10:28.000Z</time>
      </trkpt>
      <trkpt lat="45.84116" lon="4.73917">
        <ele>276.36139</ele>
        <time>2023-06-14T17:10:29.000Z</time>
      </trkpt>
      <trkpt lat="45.84113" lon="4.73921">
        <ele>276.64227</ele>
        <time>2023-06-14T17:10:30.000Z</time>
      </trkpt>
      <trkpt lat="45.8411" lon="4.73924">
        <ele>276.78583</ele>
        <time>2023-06-14T17:10:31.000Z</time>
      </trkpt>
      <trkpt lat="45.84108" lon="4.73928">
        <ele>276.97275</ele>
        <time>2023-06-14T17:10:32.000Z</time>
      </trkpt>
      <trkpt lat="45.84105" lon="4.73932">
        <ele>277.25455</ele>
        <time>2023-06-14T17:10:33.000Z</time>
      </trkpt>
      <trkpt lat="45.84102" lon="4.73937">
        <ele>277.45499</ele>
        <time>2023-06-14T17:10:34.000Z</time>
      </trkpt>
      <trkpt lat="45.84099" lon="4.73943">
        <ele>277.50519</ele>
        <time>2023-06-14T17:10:35.000Z</time>
      </trkpt>
      <trkpt lat="45.84096" lon="4.73948">
        <ele>277.54712</ele>
        <time>2023-06-14T17:10:36.000Z</time>
      </trkpt>
      <trkpt lat="45.84093" lon="4.73952">
        <ele>277.5686</ele>
        <time>2023-06-14T17:10:37.000Z</time>
      </trkpt>
      <trkpt lat="45.8409" lon="4.73957">
        <ele>277.57022</ele>
        <time>2023-06-14T17:10:38.000Z</time>
      </trkpt>
      <trkpt lat="45.84087" lon="4.73961">
        <ele>277.60349</ele>
        <time>2023-06-14T17:10:39.000Z</time>
      </trkpt>
      <trkpt lat="45.84083" lon="4.73967">
        <ele>277.58344</ele>
        <time>2023-06-14T17:10:40.000Z</time>
      </trkpt>
      <trkpt lat="45.8408" lon="4.73971">
        <ele>277.48224</ele>
        <time>2023-06-14T17:10:41.000Z</time>
      </trkpt>
      <trkpt lat="45.84076" lon="4.73976">
        <ele>277.35214</ele>
        <time>2023-06-14T17:10:42.000Z</time>
      </trkpt>
      <trkpt lat="45.84072" lon="4.7398">
        <ele>277.16568</ele>
        <time>2023-06-14T17:10:43.000Z</time>
      </trkpt>
      <trkpt lat="45.84066" lon="4.73987">
        <ele>276.91925</ele>
        <time>2023-06-14T17:10:44.000Z</time>
      </trkpt>
      <trkpt lat="45.84062" lon="4.73992">
        <ele>276.71158</ele>
        <time>2023-06-14T17:10:45.000Z</time>
      </trkpt>
      <trkpt lat="45.84058" lon="4.73996">
        <ele>276.50851</ele>
        <time>2023-06-14T17:10:46.000Z</time>
      </trkpt>
      <trkpt lat="45.84055" lon="4.74001">
        <ele>276.33221</ele>
        <time>2023-06-14T17:10:47.000Z</time>
      </trkpt>
      <trkpt lat="45.84051" lon="4.74006">
        <ele>276.24799</ele>
        <time>2023-06-14T17:10:48.000Z</time>
      </trkpt>
      <trkpt lat="45.84049" lon="4.7401">
        <ele>276.19229</ele>
        <time>2023-06-14T17:10:49.000Z</time>
      </trkpt>
      <trkpt lat="45.84048" lon="4.74014">
        <ele>276.12781</ele>
        <time>2023-06-14T17:10:50.000Z</time>
      </trkpt>
      <trkpt lat="45.84046" lon="4.74021">
        <ele>276.12408</ele>
        <time>2023-06-14T17:10:51.000Z</time>
      </trkpt>
      <trkpt lat="45.84043" lon="4.74029">
        <ele>276.08847</ele>
        <time>2023-06-14T17:10:52.000Z</time>
      </trkpt>
      <trkpt lat="45.84043" lon="4.74035">
        <ele>276.06528</ele>
        <time>2023-06-14T17:10:53.000Z</time>
      </trkpt>
      <trkpt lat="45.84041" lon="4.74042">
        <ele>276.01398</ele>
        <time>2023-06-14T17:10:54.000Z</time>
      </trkpt>
      <trkpt lat="45.84039" lon="4.74049">
        <ele>276.20346</ele>
        <time>2023-06-14T17:10:55.000Z</time>
      </trkpt>
      <trkpt lat="45.84036" lon="4.74054">
        <ele>276.38446</ele>
        <time>2023-06-14T17:10:56.000Z</time>
      </trkpt>
      <trkpt lat="45.84036" lon="4.7406">
        <ele>276.64896</ele>
        <time>2023-06-14T17:10:57.000Z</time>
      </trkpt>
      <trkpt lat="45.84034" lon="4.74066">
        <ele>276.9931</ele>
        <time>2023-06-14T17:10:58.000Z</time>
      </trkpt>
      <trkpt lat="45.8403" lon="4.74073">
        <ele>277.3222</ele>
        <time>2023-06-14T17:10:59.000Z</time>
      </trkpt>
      <trkpt lat="45.84026" lon="4.74078">
        <ele>277.66907</ele>
        <time>2023-06-14T17:11:00.000Z</time>
      </trkpt>
      <trkpt lat="45.84022" lon="4.74086">
        <ele>278.10144</ele>
        <time>2023-06-14T17:11:01.000Z</time>
      </trkpt>
      <trkpt lat="45.84019" lon="4.74091">
        <ele>278.58466</ele>
        <time>2023-06-14T17:11:02.000Z</time>
      </trkpt>
      <trkpt lat="45.84015" lon="4.74098">
        <ele>279.06439</ele>
        <time>2023-06-14T17:11:03.000Z</time>
      </trkpt>
      <trkpt lat="45.84012" lon="4.74102">
        <ele>279.57407</ele>
        <time>2023-06-14T17:11:04.000Z</time>
      </trkpt>
      <trkpt lat="45.84009" lon="4.74107">
        <ele>279.98618</ele>
        <time>2023-06-14T17:11:05.000Z</time>
      </trkpt>
      <trkpt lat="45.84006" lon="4.7411">
        <ele>280.30548</ele>
        <time>2023-06-14T17:11:06.000Z</time>
      </trkpt>
      <trkpt lat="45.84003" lon="4.74116">
        <ele>280.61777</ele>
        <time>2023-06-14T17:11:07.000Z</time>
      </trkpt>
      <trkpt lat="45.83999" lon="4.74122">
        <ele>280.83731</ele>
        <time>2023-06-14T17:11:08.000Z</time>
      </trkpt>
      <trkpt lat="45.83995" lon="4.7413">
        <ele>281.11432</ele>
        <time>2023-06-14T17:11:09.000Z</time>
      </trkpt>
      <trkpt lat="45.83991" lon="4.74136">
        <ele>281.17444</ele>
        <time>2023-06-14T17:11:10.000Z</time>
      </trkpt>
      <trkpt lat="45.83988" lon="4.74142">
        <ele>281.21304</ele>
        <time>2023-06-14T17:11:11.000Z</time>
      </trkpt>
      <trkpt lat="45.83986" lon="4.74148">
        <ele>281.35696</ele>
        <time>2023-06-14T17:11:12.000Z</time>
      </trkpt>
      <trkpt lat="45.83985" lon="4.74156">
        <ele>281.4527</ele>
        <time>2023-06-14T17:11:13.000Z</time>
      </trkpt>
      <trkpt lat="45.83981" lon="4.7416">
        <ele>281.64862</ele>
        <time>2023-06-14T17:11:14.000Z</time>
      </trkpt>
      <trkpt lat="45.83978" lon="4.74166">
        <ele>281.82831</ele>
        <time>2023-06-14T17:11:15.000Z</time>
      </trkpt>
      <trkpt lat="45.83975" lon="4.74174">
        <ele>282.01529</ele>
        <time>2023-06-14T17:11:16.000Z</time>
      </trkpt>
      <trkpt lat="45.83973" lon="4.7418">
        <ele>282.00052</ele>
        <time>2023-06-14T17:11:17.000Z</time>
      </trkpt>
      <trkpt lat="45.83973" lon="4.74184">
        <ele>281.95978</ele>
        <time>2023-06-14T17:11:18.000Z</time>
      </trkpt>
      <trkpt lat="45.8397" lon="4.74192">
        <ele>281.83582</ele>
        <time>2023-06-14T17:11:19.000Z</time>
      </trkpt>
      <trkpt lat="45.83968" lon="4.74199">
        <ele>281.70337</ele>
        <time>2023-06-14T17:11:20.000Z</time>
      </trkpt>
      <trkpt lat="45.83968" lon="4.74204">
        <ele>281.58533</ele>
        <time>2023-06-14T17:11:21.000Z</time>
      </trkpt>
      <trkpt lat="45.83965" lon="4.7421">
        <ele>281.36069</ele>
        <time>2023-06-14T17:11:22.000Z</time>
      </trkpt>
      <trkpt lat="45.83963" lon="4.74217">
        <ele>281.18906</ele>
        <time>2023-06-14T17:11:23.000Z</time>
      </trkpt>
      <trkpt lat="45.83961" lon="4.74223">
        <ele>281.11993</ele>
        <time>2023-06-14T17:11:24.000Z</time>
      </trkpt>
      <trkpt lat="45.8396" lon="4.74229">
        <ele>281.09848</ele>
        <time>2023-06-14T17:11:25.000Z</time>
      </trkpt>
      <trkpt lat="45.83958" lon="4.74236">
        <ele>281.24066</ele>
        <time>2023-06-14T17:11:26.000Z</time>
      </trkpt>
      <trkpt lat="45.83956" lon="4.74243">
        <ele>281.39084</ele>
        <time>2023-06-14T17:11:27.000Z</time>
      </trkpt>
      <trkpt lat="45.83955" lon="4.74251">
        <ele>281.59747</ele>
        <time>2023-06-14T17:11:28.000Z</time>
      </trkpt>
      <trkpt lat="45.83954" lon="4.74258">
        <ele>281.71771</ele>
        <time>2023-06-14T17:11:29.000Z</time>
      </trkpt>
      <trkpt lat="45.83955" lon="4.74266">
        <ele>281.94638</ele>
        <time>2023-06-14T17:11:30.000Z</time>
      </trkpt>
      <trkpt lat="45.83955" lon="4.74271">
        <ele>282.15375</ele>
        <time>2023-06-14T17:11:31.000Z</time>
      </trkpt>
      <trkpt lat="45.83955" lon="4.74274">
        <ele>282.31851</ele>
        <time>2023-06-14T17:11:32.000Z</time>
      </trkpt>
      <trkpt lat="45.83955" lon="4.74279">
        <ele>282.45749</ele>
        <time>2023-06-14T17:11:33.000Z</time>
      </trkpt>
      <trkpt lat="45.83955" lon="4.74284">
        <ele>282.51889</ele>
        <time>2023-06-14T17:11:34.000Z</time>
      </trkpt>
      <trkpt lat="45.83952" lon="4.74285">
        <ele>282.50153</ele>
        <time>2023-06-14T17:11:36.000Z</time>
      </trkpt>
      <trkpt lat="45.83951" lon="4.74288">
        <ele>282.42178</ele>
        <time>2023-06-14T17:11:37.000Z</time>
      </trkpt>
      <trkpt lat="45.8395" lon="4.74291">
        <ele>282.44666</ele>
        <time>2023-06-14T17:11:38.000Z</time>
      </trkpt>
      <trkpt lat="45.83949" lon="4.74295">
        <ele>282.45255</ele>
        <time>2023-06-14T17:11:39.000Z</time>
      </trkpt>
      <trkpt lat="45.83949" lon="4.74299">
        <ele>282.51923</ele>
        <time>2023-06-14T17:11:40.000Z</time>
      </trkpt>
      <trkpt lat="45.83949" lon="4.74302">
        <ele>282.6087</ele>
        <time>2023-06-14T17:11:41.000Z</time>
      </trkpt>
      <trkpt lat="45.83949" lon="4.74305">
        <ele>282.6734</ele>
        <time>2023-06-14T17:11:42.000Z</time>
      </trkpt>
      <trkpt lat="45.8395" lon="4.74315">
        <ele>282.65723</ele>
        <time>2023-06-14T17:11:43.000Z</time>
      </trkpt>
      <trkpt lat="45.8395" lon="4.74322">
        <ele>282.63928</ele>
        <time>2023-06-14T17:11:44.000Z</time>
      </trkpt>
      <trkpt lat="45.8395" lon="4.74329">
        <ele>282.59637</ele>
        <time>2023-06-14T17:11:45.000Z</time>
      </trkpt>
      <trkpt lat="45.83951" lon="4.74336">
        <ele>282.54288</ele>
        <time>2023-06-14T17:11:46.000Z</time>
      </trkpt>
      <trkpt lat="45.83952" lon="4.74343">
        <ele>282.39056</ele>
        <time>2023-06-14T17:11:47.000Z</time>
      </trkpt>
      <trkpt lat="45.83953" lon="4.74351">
        <ele>282.23715</ele>
        <time>2023-06-14T17:11:48.000Z</time>
      </trkpt>
      <trkpt lat="45.83952" lon="4.74358">
        <ele>281.98981</ele>
        <time>2023-06-14T17:11:49.000Z</time>
      </trkpt>
      <trkpt lat="45.83951" lon="4.74365">
        <ele>281.70309</ele>
        <time>2023-06-14T17:11:50.000Z</time>
      </trkpt>
      <trkpt lat="45.8395" lon="4.74372">
        <ele>281.41016</ele>
        <time>2023-06-14T17:11:51.000Z</time>
      </trkpt>
      <trkpt lat="45.83948" lon="4.74379">
        <ele>281.17017</ele>
        <time>2023-06-14T17:11:52.000Z</time>
      </trkpt>
      <trkpt lat="45.83946" lon="4.74384">
        <ele>280.936</ele>
        <time>2023-06-14T17:11:53.000Z</time>
      </trkpt>
      <trkpt lat="45.83944" lon="4.74391">
        <ele>280.5629</ele>
        <time>2023-06-14T17:11:54.000Z</time>
      </trkpt>
      <trkpt lat="45.83942" lon="4.74398">
        <ele>280.18735</ele>
        <time>2023-06-14T17:11:55.000Z</time>
      </trkpt>
      <trkpt lat="45.8394" lon="4.74405">
        <ele>279.88513</ele>
        <time>2023-06-14T17:11:56.000Z</time>
      </trkpt>
      <trkpt lat="45.83938" lon="4.74412">
        <ele>279.62506</ele>
        <time>2023-06-14T17:11:57.000Z</time>
      </trkpt>
      <trkpt lat="45.83935" lon="4.7442">
        <ele>279.38739</ele>
        <time>2023-06-14T17:11:58.000Z</time>
      </trkpt>
      <trkpt lat="45.83933" lon="4.74427">
        <ele>279.10114</ele>
        <time>2023-06-14T17:11:59.000Z</time>
      </trkpt>
      <trkpt lat="45.8393" lon="4.74434">
        <ele>278.74695</ele>
        <time>2023-06-14T17:12:00.000Z</time>
      </trkpt>
      <trkpt lat="45.83927" lon="4.74439">
        <ele>278.34222</ele>
        <time>2023-06-14T17:12:01.000Z</time>
      </trkpt>
      <trkpt lat="45.83924" lon="4.74446">
        <ele>277.90488</ele>
        <time>2023-06-14T17:12:02.000Z</time>
      </trkpt>
      <trkpt lat="45.83922" lon="4.74451">
        <ele>277.64545</ele>
        <time>2023-06-14T17:12:03.000Z</time>
      </trkpt>
      <trkpt lat="45.83919" lon="4.74459">
        <ele>277.3833</ele>
        <time>2023-06-14T17:12:04.000Z</time>
      </trkpt>
      <trkpt lat="45.83916" lon="4.74466">
        <ele>277.09552</ele>
        <time>2023-06-14T17:12:05.000Z</time>
      </trkpt>
      <trkpt lat="45.83913" lon="4.74472">
        <ele>276.74185</ele>
        <time>2023-06-14T17:12:06.000Z</time>
      </trkpt>
      <trkpt lat="45.83911" lon="4.74478">
        <ele>276.38666</ele>
        <time>2023-06-14T17:12:07.000Z</time>
      </trkpt>
      <trkpt lat="45.83908" lon="4.74485">
        <ele>276.07135</ele>
        <time>2023-06-14T17:12:08.000Z</time>
      </trkpt>
      <trkpt lat="45.83906" lon="4.74492">
        <ele>275.85355</ele>
        <time>2023-06-14T17:12:09.000Z</time>
      </trkpt>
      <trkpt lat="45.83904" lon="4.745">
        <ele>275.68964</ele>
        <time>2023-06-14T17:12:10.000Z</time>
      </trkpt>
      <trkpt lat="45.83903" lon="4.74506">
        <ele>275.47797</ele>
        <time>2023-06-14T17:12:11.000Z</time>
      </trkpt>
      <trkpt lat="45.83902" lon="4.74513">
        <ele>275.17319</ele>
        <time>2023-06-14T17:12:12.000Z</time>
      </trkpt>
      <trkpt lat="45.839" lon="4.74521">
        <ele>274.86798</ele>
        <time>2023-06-14T17:12:13.000Z</time>
      </trkpt>
      <trkpt lat="45.83899" lon="4.74528">
        <ele>274.74216</ele>
        <time>2023-06-14T17:12:14.000Z</time>
      </trkpt>
      <trkpt lat="45.83899" lon="4.74533">
        <ele>274.6424</ele>
        <time>2023-06-14T17:12:15.000Z</time>
      </trkpt>
      <trkpt lat="45.839" lon="4.74539">
        <ele>274.50879</ele>
        <time>2023-06-14T17:12:16.000Z</time>
      </trkpt>
      <trkpt lat="45.83901" lon="4.74545">
        <ele>274.34491</ele>
        <time>2023-06-14T17:12:17.000Z</time>
      </trkpt>
      <trkpt lat="45.83903" lon="4.74553">
        <ele>274.26334</ele>
        <time>2023-06-14T17:12:18.000Z</time>
      </trkpt>
      <trkpt lat="45.83905" lon="4.74559">
        <ele>274.233</ele>
        <time>2023-06-14T17:12:19.000Z</time>
      </trkpt>
      <trkpt lat="45.83908" lon="4.74567">
        <ele>274.26675</ele>
        <time>2023-06-14T17:12:20.000Z</time>
      </trkpt>
      <trkpt lat="45.8391" lon="4.74575">
        <ele>274.29727</ele>
        <time>2023-06-14T17:12:21.000Z</time>
      </trkpt>
      <trkpt lat="45.83912" lon="4.74584">
        <ele>274.36761</ele>
        <time>2023-06-14T17:12:22.000Z</time>
      </trkpt>
      <trkpt lat="45.8391" lon="4.74593">
        <ele>274.48441</ele>
        <time>2023-06-14T17:12:23.000Z</time>
      </trkpt>
      <trkpt lat="45.83908" lon="4.74601">
        <ele>274.58893</ele>
        <time>2023-06-14T17:12:24.000Z</time>
      </trkpt>
      <trkpt lat="45.83906" lon="4.7461">
        <ele>274.6933</ele>
        <time>2023-06-14T17:12:25.000Z</time>
      </trkpt>
      <trkpt lat="45.83903" lon="4.74617">
        <ele>274.89368</ele>
        <time>2023-06-14T17:12:26.000Z</time>
      </trkpt>
      <trkpt lat="45.83901" lon="4.74624">
        <ele>275.09305</ele>
        <time>2023-06-14T17:12:27.000Z</time>
      </trkpt>
      <trkpt lat="45.83898" lon="4.7463">
        <ele>275.18634</ele>
        <time>2023-06-14T17:12:28.000Z</time>
      </trkpt>
      <trkpt lat="45.83895" lon="4.74635">
        <ele>275.3732</ele>
        <time>2023-06-14T17:12:29.000Z</time>
      </trkpt>
      <trkpt lat="45.83891" lon="4.7464">
        <ele>275.57043</ele>
        <time>2023-06-14T17:12:30.000Z</time>
      </trkpt>
      <trkpt lat="45.83887" lon="4.74645">
        <ele>275.80524</ele>
        <time>2023-06-14T17:12:31.000Z</time>
      </trkpt>
      <trkpt lat="45.83885" lon="4.74648">
        <ele>276.09433</ele>
        <time>2023-06-14T17:12:32.000Z</time>
      </trkpt>
      <trkpt lat="45.83884" lon="4.74653">
        <ele>276.43515</ele>
        <time>2023-06-14T17:12:33.000Z</time>
      </trkpt>
      <trkpt lat="45.83879" lon="4.74659">
        <ele>276.83865</ele>
        <time>2023-06-14T17:12:34.000Z</time>
      </trkpt>
      <trkpt lat="45.83876" lon="4.74664">
        <ele>277.21878</ele>
        <time>2023-06-14T17:12:35.000Z</time>
      </trkpt>
      <trkpt lat="45.83872" lon="4.74668">
        <ele>277.64145</ele>
        <time>2023-06-14T17:12:36.000Z</time>
      </trkpt>
      <trkpt lat="45.83868" lon="4.74674">
        <ele>278.1474</ele>
        <time>2023-06-14T17:12:37.000Z</time>
      </trkpt>
      <trkpt lat="45.83865" lon="4.74682">
        <ele>278.61142</ele>
        <time>2023-06-14T17:12:38.000Z</time>
      </trkpt>
      <trkpt lat="45.83867" lon="4.74684">
        <ele>279.04343</ele>
        <time>2023-06-14T17:12:39.000Z</time>
      </trkpt>
      <trkpt lat="45.83866" lon="4.74688">
        <ele>279.53094</ele>
        <time>2023-06-14T17:12:40.000Z</time>
      </trkpt>
      <trkpt lat="45.83861" lon="4.74695">
        <ele>279.84064</ele>
        <time>2023-06-14T17:12:41.000Z</time>
      </trkpt>
      <trkpt lat="45.83854" lon="4.74703">
        <ele>279.92972</ele>
        <time>2023-06-14T17:12:42.000Z</time>
      </trkpt>
      <trkpt lat="45.83849" lon="4.74706">
        <ele>279.86078</ele>
        <time>2023-06-14T17:12:43.000Z</time>
      </trkpt>
      <trkpt lat="45.83841" lon="4.74712">
        <ele>279.70831</ele>
        <time>2023-06-14T17:12:44.000Z</time>
      </trkpt>
      <trkpt lat="45.83835" lon="4.74713">
        <ele>279.4736</ele>
        <time>2023-06-14T17:12:45.000Z</time>
      </trkpt>
      <trkpt lat="45.83829" lon="4.74718">
        <ele>279.20068</ele>
        <time>2023-06-14T17:12:46.000Z</time>
      </trkpt>
      <trkpt lat="45.83826" lon="4.74723">
        <ele>278.88281</ele>
        <time>2023-06-14T17:12:47.000Z</time>
      </trkpt>
      <trkpt lat="45.83822" lon="4.74726">
        <ele>278.53241</ele>
        <time>2023-06-14T17:12:48.000Z</time>
      </trkpt>
      <trkpt lat="45.83819" lon="4.74729">
        <ele>278.01385</ele>
        <time>2023-06-14T17:12:49.000Z</time>
      </trkpt>
      <trkpt lat="45.83816" lon="4.7473">
        <ele>277.48016</ele>
        <time>2023-06-14T17:12:50.000Z</time>
      </trkpt>
      <trkpt lat="45.83813" lon="4.74734">
        <ele>276.97046</ele>
        <time>2023-06-14T17:12:51.000Z</time>
      </trkpt>
      <trkpt lat="45.8381" lon="4.74739">
        <ele>276.41675</ele>
        <time>2023-06-14T17:12:52.000Z</time>
      </trkpt>
      <trkpt lat="45.83805" lon="4.74746">
        <ele>275.78876</ele>
        <time>2023-06-14T17:12:53.000Z</time>
      </trkpt>
      <trkpt lat="45.83801" lon="4.7475">
        <ele>275.11383</ele>
        <time>2023-06-14T17:12:54.000Z</time>
      </trkpt>
      <trkpt lat="45.83796" lon="4.74755">
        <ele>275.01703</ele>
        <time>2023-06-14T17:12:55.000Z</time>
      </trkpt>
      <trkpt lat="45.83795" lon="4.7476">
        <ele>274.914</ele>
        <time>2023-06-14T17:12:56.000Z</time>
      </trkpt>
      <trkpt lat="45.83791" lon="4.74764">
        <ele>274.78159</ele>
        <time>2023-06-14T17:12:57.000Z</time>
      </trkpt>
      <trkpt lat="45.8379" lon="4.74766">
        <ele>274.62811</ele>
        <time>2023-06-14T17:12:58.000Z</time>
      </trkpt>
      <trkpt lat="45.8379" lon="4.7477">
        <ele>274.45493</ele>
        <time>2023-06-14T17:12:59.000Z</time>
      </trkpt>
      <trkpt lat="45.8379" lon="4.74773">
        <ele>274.24442</ele>
        <time>2023-06-14T17:13:00.000Z</time>
      </trkpt>
      <trkpt lat="45.83787" lon="4.74777">
        <ele>274.26089</ele>
        <time>2023-06-14T17:13:01.000Z</time>
      </trkpt>
      <trkpt lat="45.83782" lon="4.74784">
        <ele>274.44125</ele>
        <time>2023-06-14T17:13:02.000Z</time>
      </trkpt>
      <trkpt lat="45.83774" lon="4.74794">
        <ele>274.7438</ele>
        <time>2023-06-14T17:13:03.000Z</time>
      </trkpt>
      <trkpt lat="45.83767" lon="4.74801">
        <ele>275.10086</ele>
        <time>2023-06-14T17:13:04.000Z</time>
      </trkpt>
      <trkpt lat="45.83764" lon="4.74806">
        <ele>275.51944</ele>
        <time>2023-06-14T17:13:05.000Z</time>
      </trkpt>
      <trkpt lat="45.83759" lon="4.7481">
        <ele>275.97522</ele>
        <time>2023-06-14T17:13:06.000Z</time>
      </trkpt>
      <trkpt lat="45.83754" lon="4.74814">
        <ele>276.53497</ele>
        <time>2023-06-14T17:13:07.000Z</time>
      </trkpt>
      <trkpt lat="45.83749" lon="4.74816">
        <ele>277.18973</ele>
        <time>2023-06-14T17:13:08.000Z</time>
      </trkpt>
      <trkpt lat="45.83744" lon="4.74822">
        <ele>277.90195</ele>
        <time>2023-06-14T17:13:09.000Z</time>
      </trkpt>
      <trkpt lat="45.83739" lon="4.74828">
        <ele>278.50458</ele>
        <time>2023-06-14T17:13:10.000Z</time>
      </trkpt>
      <trkpt lat="45.83732" lon="4.74835">
        <ele>279.1319</ele>
        <time>2023-06-14T17:13:11.000Z</time>
      </trkpt>
      <trkpt lat="45.83727" lon="4.74841">
        <ele>279.77734</ele>
        <time>2023-06-14T17:13:12.000Z</time>
      </trkpt>
      <trkpt lat="45.83721" lon="4.74845">
        <ele>280.40591</ele>
        <time>2023-06-14T17:13:13.000Z</time>
      </trkpt>
      <trkpt lat="45.83716" lon="4.7485">
        <ele>281.02567</ele>
        <time>2023-06-14T17:13:14.000Z</time>
      </trkpt>
      <trkpt lat="45.8371" lon="4.74855">
        <ele>281.02051</ele>
        <time>2023-06-14T17:13:15.000Z</time>
      </trkpt>
      <trkpt lat="45.83706" lon="4.74858">
        <ele>281.07919</ele>
        <time>2023-06-14T17:13:16.000Z</time>
      </trkpt>
      <trkpt lat="45.837" lon="4.74862">
        <ele>281.13803</ele>
        <time>2023-06-14T17:13:17.000Z</time>
      </trkpt>
      <trkpt lat="45.83696" lon="4.74865">
        <ele>281.09979</ele>
        <time>2023-06-14T17:13:18.000Z</time>
      </trkpt>
      <trkpt lat="45.83691" lon="4.74869">
        <ele>281.11679</ele>
        <time>2023-06-14T17:13:19.000Z</time>
      </trkpt>
      <trkpt lat="45.83687" lon="4.74873">
        <ele>281.11707</ele>
        <time>2023-06-14T17:13:20.000Z</time>
      </trkpt>
      <trkpt lat="45.83683" lon="4.74877">
        <ele>281.13477</ele>
        <time>2023-06-14T17:13:21.000Z</time>
      </trkpt>
      <trkpt lat="45.83684" lon="4.7488">
        <ele>281.18481</ele>
        <time>2023-06-14T17:13:22.000Z</time>
      </trkpt>
      <trkpt lat="45.83683" lon="4.74883">
        <ele>281.23697</ele>
        <time>2023-06-14T17:13:23.000Z</time>
      </trkpt>
      <trkpt lat="45.83681" lon="4.74887">
        <ele>281.34558</ele>
        <time>2023-06-14T17:13:24.000Z</time>
      </trkpt>
      <trkpt lat="45.83675" lon="4.74895">
        <ele>281.44626</ele>
        <time>2023-06-14T17:13:25.000Z</time>
      </trkpt>
      <trkpt lat="45.83672" lon="4.74901">
        <ele>281.52002</ele>
        <time>2023-06-14T17:13:26.000Z</time>
      </trkpt>
      <trkpt lat="45.83669" lon="4.74911">
        <ele>281.56857</ele>
        <time>2023-06-14T17:13:27.000Z</time>
      </trkpt>
      <trkpt lat="45.83668" lon="4.74917">
        <ele>281.6059</ele>
        <time>2023-06-14T17:13:28.000Z</time>
      </trkpt>
      <trkpt lat="45.83664" lon="4.74925">
        <ele>281.6709</ele>
        <time>2023-06-14T17:13:29.000Z</time>
      </trkpt>
      <trkpt lat="45.83662" lon="4.74929">
        <ele>281.81271</ele>
        <time>2023-06-14T17:13:30.000Z</time>
      </trkpt>
      <trkpt lat="45.8366" lon="4.74934">
        <ele>281.93414</ele>
        <time>2023-06-14T17:13:31.000Z</time>
      </trkpt>
      <trkpt lat="45.83657" lon="4.74938">
        <ele>282.0686</ele>
        <time>2023-06-14T17:13:32.000Z</time>
      </trkpt>
      <trkpt lat="45.83655" lon="4.74945">
        <ele>282.20313</ele>
        <time>2023-06-14T17:13:33.000Z</time>
      </trkpt>
      <trkpt lat="45.83651" lon="4.74951">
        <ele>282.3512</ele>
        <time>2023-06-14T17:13:34.000Z</time>
      </trkpt>
      <trkpt lat="45.8365" lon="4.74962">
        <ele>282.51263</ele>
        <time>2023-06-14T17:13:35.000Z</time>
      </trkpt>
      <trkpt lat="45.83647" lon="4.74971">
        <ele>282.59521</ele>
        <time>2023-06-14T17:13:36.000Z</time>
      </trkpt>
      <trkpt lat="45.83644" lon="4.74978">
        <ele>282.672</ele>
        <time>2023-06-14T17:13:37.000Z</time>
      </trkpt>
      <trkpt lat="45.83643" lon="4.74986">
        <ele>282.79645</ele>
        <time>2023-06-14T17:13:38.000Z</time>
      </trkpt>
      <trkpt lat="45.83639" lon="4.74993">
        <ele>282.86816</ele>
        <time>2023-06-14T17:13:39.000Z</time>
      </trkpt>
      <trkpt lat="45.83639" lon="4.75">
        <ele>282.948</ele>
        <time>2023-06-14T17:13:40.000Z</time>
      </trkpt>
      <trkpt lat="45.83638" lon="4.75009">
        <ele>282.97107</ele>
        <time>2023-06-14T17:13:41.000Z</time>
      </trkpt>
      <trkpt lat="45.83636" lon="4.75016">
        <ele>282.98367</ele>
        <time>2023-06-14T17:13:42.000Z</time>
      </trkpt>
      <trkpt lat="45.83633" lon="4.75023">
        <ele>282.98737</ele>
        <time>2023-06-14T17:13:43.000Z</time>
      </trkpt>
      <trkpt lat="45.83629" lon="4.75029">
        <ele>282.97464</ele>
        <time>2023-06-14T17:13:44.000Z</time>
      </trkpt>
      <trkpt lat="45.83626" lon="4.75035">
        <ele>282.97443</ele>
        <time>2023-06-14T17:13:45.000Z</time>
      </trkpt>
      <trkpt lat="45.83622" lon="4.7504">
        <ele>282.96417</ele>
        <time>2023-06-14T17:13:46.000Z</time>
      </trkpt>
      <trkpt lat="45.83618" lon="4.75045">
        <ele>282.86972</ele>
        <time>2023-06-14T17:13:47.000Z</time>
      </trkpt>
      <trkpt lat="45.83615" lon="4.75051">
        <ele>282.7634</ele>
        <time>2023-06-14T17:13:48.000Z</time>
      </trkpt>
      <trkpt lat="45.83612" lon="4.75059">
        <ele>282.6098</ele>
        <time>2023-06-14T17:13:49.000Z</time>
      </trkpt>
      <trkpt lat="45.8361" lon="4.75066">
        <ele>282.44299</ele>
        <time>2023-06-14T17:13:50.000Z</time>
      </trkpt>
      <trkpt lat="45.83607" lon="4.75074">
        <ele>282.29926</ele>
        <time>2023-06-14T17:13:51.000Z</time>
      </trkpt>
      <trkpt lat="45.83603" lon="4.75083">
        <ele>282.17355</ele>
        <time>2023-06-14T17:13:52.000Z</time>
      </trkpt>
      <trkpt lat="45.83601" lon="4.75091">
        <ele>282.09174</ele>
        <time>2023-06-14T17:13:53.000Z</time>
      </trkpt>
      <trkpt lat="45.83598" lon="4.75097">
        <ele>282.00659</ele>
        <time>2023-06-14T17:13:54.000Z</time>
      </trkpt>
      <trkpt lat="45.83595" lon="4.75103">
        <ele>281.98105</ele>
        <time>2023-06-14T17:13:55.000Z</time>
      </trkpt>
      <trkpt lat="45.83591" lon="4.75108">
        <ele>282.00275</ele>
        <time>2023-06-14T17:13:56.000Z</time>
      </trkpt>
      <trkpt lat="45.83589" lon="4.75113">
        <ele>282.00076</ele>
        <time>2023-06-14T17:13:57.000Z</time>
      </trkpt>
      <trkpt lat="45.83586" lon="4.75118">
        <ele>282.03979</ele>
        <time>2023-06-14T17:13:58.000Z</time>
      </trkpt>
      <trkpt lat="45.83583" lon="4.75123">
        <ele>282.05682</ele>
        <time>2023-06-14T17:13:59.000Z</time>
      </trkpt>
      <trkpt lat="45.8358" lon="4.75127">
        <ele>282.0943</ele>
        <time>2023-06-14T17:14:00.000Z</time>
      </trkpt>
      <trkpt lat="45.83574" lon="4.75131">
        <ele>282.12122</ele>
        <time>2023-06-14T17:14:01.000Z</time>
      </trkpt>
      <trkpt lat="45.83569" lon="4.75137">
        <ele>282.19055</ele>
        <time>2023-06-14T17:14:02.000Z</time>
      </trkpt>
      <trkpt lat="45.83565" lon="4.75141">
        <ele>282.28363</ele>
        <time>2023-06-14T17:14:03.000Z</time>
      </trkpt>
      <trkpt lat="45.8356" lon="4.75146">
        <ele>282.36591</ele>
        <time>2023-06-14T17:14:04.000Z</time>
      </trkpt>
      <trkpt lat="45.83555" lon="4.75151">
        <ele>282.41837</ele>
        <time>2023-06-14T17:14:05.000Z</time>
      </trkpt>
      <trkpt lat="45.83551" lon="4.75156">
        <ele>282.45715</ele>
        <time>2023-06-14T17:14:06.000Z</time>
      </trkpt>
      <trkpt lat="45.83546" lon="4.7516">
        <ele>282.59402</ele>
        <time>2023-06-14T17:14:07.000Z</time>
      </trkpt>
      <trkpt lat="45.83541" lon="4.75164">
        <ele>282.75095</ele>
        <time>2023-06-14T17:14:08.000Z</time>
      </trkpt>
      <trkpt lat="45.83537" lon="4.75168">
        <ele>282.93979</ele>
        <time>2023-06-14T17:14:09.000Z</time>
      </trkpt>
      <trkpt lat="45.83535" lon="4.75173">
        <ele>283.14508</ele>
        <time>2023-06-14T17:14:10.000Z</time>
      </trkpt>
      <trkpt lat="45.83531" lon="4.75178">
        <ele>283.3255</ele>
        <time>2023-06-14T17:14:11.000Z</time>
      </trkpt>
      <trkpt lat="45.83525" lon="4.75185">
        <ele>283.47491</ele>
        <time>2023-06-14T17:14:12.000Z</time>
      </trkpt>
      <trkpt lat="45.83521" lon="4.75188">
        <ele>283.60083</ele>
        <time>2023-06-14T17:14:13.000Z</time>
      </trkpt>
      <trkpt lat="45.83516" lon="4.75192">
        <ele>283.72101</ele>
        <time>2023-06-14T17:14:14.000Z</time>
      </trkpt>
      <trkpt lat="45.8351" lon="4.75196">
        <ele>283.78192</ele>
        <time>2023-06-14T17:14:15.000Z</time>
      </trkpt>
      <trkpt lat="45.83503" lon="4.75201">
        <ele>283.79523</ele>
        <time>2023-06-14T17:14:16.000Z</time>
      </trkpt>
      <trkpt lat="45.83497" lon="4.75199">
        <ele>283.81439</ele>
        <time>2023-06-14T17:14:17.000Z</time>
      </trkpt>
      <trkpt lat="45.83493" lon="4.75199">
        <ele>283.79724</ele>
        <time>2023-06-14T17:14:18.000Z</time>
      </trkpt>
      <trkpt lat="45.83488" lon="4.75199">
        <ele>283.82001</ele>
        <time>2023-06-14T17:14:19.000Z</time>
      </trkpt>
      <trkpt lat="45.83483" lon="4.75202">
        <ele>283.81256</ele>
        <time>2023-06-14T17:14:20.000Z</time>
      </trkpt>
      <trkpt lat="45.83477" lon="4.75205">
        <ele>283.82834</ele>
        <time>2023-06-14T17:14:21.000Z</time>
      </trkpt>
      <trkpt lat="45.83472" lon="4.75208">
        <ele>283.80698</ele>
        <time>2023-06-14T17:14:22.000Z</time>
      </trkpt>
      <trkpt lat="45.83469" lon="4.7521">
        <ele>283.76083</ele>
        <time>2023-06-14T17:14:23.000Z</time>
      </trkpt>
      <trkpt lat="45.83465" lon="4.75212">
        <ele>283.72495</ele>
        <time>2023-06-14T17:14:24.000Z</time>
      </trkpt>
      <trkpt lat="45.83461" lon="4.75215">
        <ele>283.66083</ele>
        <time>2023-06-14T17:14:25.000Z</time>
      </trkpt>
      <trkpt lat="45.83456" lon="4.75217">
        <ele>283.61957</ele>
        <time>2023-06-14T17:14:26.000Z</time>
      </trkpt>
      <trkpt lat="45.83452" lon="4.75221">
        <ele>283.55722</ele>
        <time>2023-06-14T17:14:27.000Z</time>
      </trkpt>
      <trkpt lat="45.83447" lon="4.75225">
        <ele>283.47565</ele>
        <time>2023-06-14T17:14:28.000Z</time>
      </trkpt>
      <trkpt lat="45.83443" lon="4.75229">
        <ele>283.41489</ele>
        <time>2023-06-14T17:14:29.000Z</time>
      </trkpt>
      <trkpt lat="45.8344" lon="4.75232">
        <ele>283.38654</ele>
        <time>2023-06-14T17:14:30.000Z</time>
      </trkpt>
      <trkpt lat="45.83436" lon="4.75235">
        <ele>283.32379</ele>
        <time>2023-06-14T17:14:31.000Z</time>
      </trkpt>
      <trkpt lat="45.83431" lon="4.7524">
        <ele>283.26822</ele>
        <time>2023-06-14T17:14:32.000Z</time>
      </trkpt>
      <trkpt lat="45.83427" lon="4.75246">
        <ele>283.20874</ele>
        <time>2023-06-14T17:14:33.000Z</time>
      </trkpt>
      <trkpt lat="45.83423" lon="4.75253">
        <ele>283.1369</ele>
        <time>2023-06-14T17:14:34.000Z</time>
      </trkpt>
      <trkpt lat="45.8342" lon="4.75261">
        <ele>283.09662</ele>
        <time>2023-06-14T17:14:35.000Z</time>
      </trkpt>
      <trkpt lat="45.83418" lon="4.7527">
        <ele>283.07269</ele>
        <time>2023-06-14T17:14:36.000Z</time>
      </trkpt>
      <trkpt lat="45.83414" lon="4.75278">
        <ele>283.06415</ele>
        <time>2023-06-14T17:14:37.000Z</time>
      </trkpt>
      <trkpt lat="45.83411" lon="4.75279">
        <ele>283.09125</ele>
        <time>2023-06-14T17:14:38.000Z</time>
      </trkpt>
      <trkpt lat="45.83409" lon="4.75283">
        <ele>283.10941</ele>
        <time>2023-06-14T17:14:39.000Z</time>
      </trkpt>
      <trkpt lat="45.83405" lon="4.75285">
        <ele>283.13513</ele>
        <time>2023-06-14T17:14:40.000Z</time>
      </trkpt>
      <trkpt lat="45.83401" lon="4.7529">
        <ele>283.19632</ele>
        <time>2023-06-14T17:14:41.000Z</time>
      </trkpt>
      <trkpt lat="45.83398" lon="4.75291">
        <ele>283.28912</ele>
        <time>2023-06-14T17:14:42.000Z</time>
      </trkpt>
      <trkpt lat="45.83394" lon="4.75292">
        <ele>283.4064</ele>
        <time>2023-06-14T17:14:43.000Z</time>
      </trkpt>
      <trkpt lat="45.83389" lon="4.75295">
        <ele>283.48276</ele>
        <time>2023-06-14T17:14:44.000Z</time>
      </trkpt>
      <trkpt lat="45.83385" lon="4.75296">
        <ele>283.60635</ele>
        <time>2023-06-14T17:14:45.000Z</time>
      </trkpt>
      <trkpt lat="45.83381" lon="4.75296">
        <ele>283.7305</ele>
        <time>2023-06-14T17:14:46.000Z</time>
      </trkpt>
      <trkpt lat="45.83375" lon="4.75297">
        <ele>283.83914</ele>
        <time>2023-06-14T17:14:47.000Z</time>
      </trkpt>
      <trkpt lat="45.83371" lon="4.75294">
        <ele>283.93951</ele>
        <time>2023-06-14T17:14:48.000Z</time>
      </trkpt>
      <trkpt lat="45.83368" lon="4.75292">
        <ele>283.99942</ele>
        <time>2023-06-14T17:14:49.000Z</time>
      </trkpt>
      <trkpt lat="45.83363" lon="4.75292">
        <ele>284.04987</ele>
        <time>2023-06-14T17:14:50.000Z</time>
      </trkpt>
      <trkpt lat="45.83359" lon="4.75292">
        <ele>284.14813</ele>
        <time>2023-06-14T17:14:51.000Z</time>
      </trkpt>
      <trkpt lat="45.83355" lon="4.75292">
        <ele>284.23087</ele>
        <time>2023-06-14T17:14:52.000Z</time>
      </trkpt>
      <trkpt lat="45.83348" lon="4.75296">
        <ele>284.32361</ele>
        <time>2023-06-14T17:14:53.000Z</time>
      </trkpt>
      <trkpt lat="45.83343" lon="4.753">
        <ele>284.43585</ele>
        <time>2023-06-14T17:14:54.000Z</time>
      </trkpt>
      <trkpt lat="45.83335" lon="4.75306">
        <ele>284.54181</ele>
        <time>2023-06-14T17:14:55.000Z</time>
      </trkpt>
      <trkpt lat="45.83329" lon="4.75312">
        <ele>284.64423</ele>
        <time>2023-06-14T17:14:56.000Z</time>
      </trkpt>
      <trkpt lat="45.83323" lon="4.75318">
        <ele>284.74332</ele>
        <time>2023-06-14T17:14:57.000Z</time>
      </trkpt>
      <trkpt lat="45.83318" lon="4.75321">
        <ele>284.82367</ele>
        <time>2023-06-14T17:14:58.000Z</time>
      </trkpt>
      <trkpt lat="45.83313" lon="4.75325">
        <ele>284.9061</ele>
        <time>2023-06-14T17:14:59.000Z</time>
      </trkpt>
      <trkpt lat="45.83308" lon="4.75328">
        <ele>284.98074</ele>
        <time>2023-06-14T17:15:00.000Z</time>
      </trkpt>
      <trkpt lat="45.83304" lon="4.75331">
        <ele>285.03033</ele>
        <time>2023-06-14T17:15:01.000Z</time>
      </trkpt>
      <trkpt lat="45.83301" lon="4.75335">
        <ele>285.01727</ele>
        <time>2023-06-14T17:15:02.000Z</time>
      </trkpt>
      <trkpt lat="45.83298" lon="4.75339">
        <ele>284.95551</ele>
        <time>2023-06-14T17:15:03.000Z</time>
      </trkpt>
      <trkpt lat="45.83293" lon="4.75341">
        <ele>284.93057</ele>
        <time>2023-06-14T17:15:04.000Z</time>
      </trkpt>
      <trkpt lat="45.83288" lon="4.75344">
        <ele>284.95685</ele>
        <time>2023-06-14T17:15:05.000Z</time>
      </trkpt>
      <trkpt lat="45.83281" lon="4.75348">
        <ele>284.97507</ele>
        <time>2023-06-14T17:15:06.000Z</time>
      </trkpt>
      <trkpt lat="45.83275" lon="4.75351">
        <ele>285.02676</ele>
        <time>2023-06-14T17:15:07.000Z</time>
      </trkpt>
      <trkpt lat="45.83272" lon="4.75354">
        <ele>285.06662</ele>
        <time>2023-06-14T17:15:08.000Z</time>
      </trkpt>
      <trkpt lat="45.83267" lon="4.75354">
        <ele>285.10223</ele>
        <time>2023-06-14T17:15:09.000Z</time>
      </trkpt>
      <trkpt lat="45.8326" lon="4.75356">
        <ele>285.12387</ele>
        <time>2023-06-14T17:15:10.000Z</time>
      </trkpt>
      <trkpt lat="45.83253" lon="4.75358">
        <ele>285.12198</ele>
        <time>2023-06-14T17:15:11.000Z</time>
      </trkpt>
      <trkpt lat="45.83248" lon="4.75359">
        <ele>285.12973</ele>
        <time>2023-06-14T17:15:12.000Z</time>
      </trkpt>
      <trkpt lat="45.83244" lon="4.7536">
        <ele>285.12817</ele>
        <time>2023-06-14T17:15:13.000Z</time>
      </trkpt>
      <trkpt lat="45.83238" lon="4.75361">
        <ele>285.12112</ele>
        <time>2023-06-14T17:15:14.000Z</time>
      </trkpt>
      <trkpt lat="45.83234" lon="4.75364">
        <ele>285.14142</ele>
        <time>2023-06-14T17:15:15.000Z</time>
      </trkpt>
      <trkpt lat="45.8323" lon="4.75367">
        <ele>285.14792</ele>
        <time>2023-06-14T17:15:16.000Z</time>
      </trkpt>
      <trkpt lat="45.83225" lon="4.75371">
        <ele>285.1463</ele>
        <time>2023-06-14T17:15:17.000Z</time>
      </trkpt>
      <trkpt lat="45.83222" lon="4.75374">
        <ele>285.15472</ele>
        <time>2023-06-14T17:15:18.000Z</time>
      </trkpt>
      <trkpt lat="45.83217" lon="4.75374">
        <ele>285.17426</ele>
        <time>2023-06-14T17:15:19.000Z</time>
      </trkpt>
      <trkpt lat="45.83212" lon="4.75378">
        <ele>285.16937</ele>
        <time>2023-06-14T17:15:20.000Z</time>
      </trkpt>
      <trkpt lat="45.83209" lon="4.75379">
        <ele>285.14661</ele>
        <time>2023-06-14T17:15:21.000Z</time>
      </trkpt>
      <trkpt lat="45.83206" lon="4.75381">
        <ele>285.18597</ele>
        <time>2023-06-14T17:15:22.000Z</time>
      </trkpt>
      <trkpt lat="45.83201" lon="4.75384">
        <ele>285.26581</ele>
        <time>2023-06-14T17:15:23.000Z</time>
      </trkpt>
      <trkpt lat="45.83198" lon="4.75387">
        <ele>285.38693</ele>
        <time>2023-06-14T17:15:24.000Z</time>
      </trkpt>
      <trkpt lat="45.83196" lon="4.75391">
        <ele>285.45966</ele>
        <time>2023-06-14T17:15:25.000Z</time>
      </trkpt>
      <trkpt lat="45.83194" lon="4.75394">
        <ele>285.54596</ele>
        <time>2023-06-14T17:15:26.000Z</time>
      </trkpt>
      <trkpt lat="45.83191" lon="4.75398">
        <ele>285.64264</ele>
        <time>2023-06-14T17:15:27.000Z</time>
      </trkpt>
      <trkpt lat="45.83188" lon="4.75401">
        <ele>285.77039</ele>
        <time>2023-06-14T17:15:28.000Z</time>
      </trkpt>
      <trkpt lat="45.83184" lon="4.75404">
        <ele>285.86139</ele>
        <time>2023-06-14T17:15:29.000Z</time>
      </trkpt>
      <trkpt lat="45.83181" lon="4.75408">
        <ele>286.08514</ele>
        <time>2023-06-14T17:15:30.000Z</time>
      </trkpt>
      <trkpt lat="45.83178" lon="4.75411">
        <ele>286.33041</ele>
        <time>2023-06-14T17:15:31.000Z</time>
      </trkpt>
      <trkpt lat="45.83175" lon="4.75415">
        <ele>286.57864</ele>
        <time>2023-06-14T17:15:32.000Z</time>
      </trkpt>
      <trkpt lat="45.83173" lon="4.75417">
        <ele>286.86118</ele>
        <time>2023-06-14T17:15:33.000Z</time>
      </trkpt>
      <trkpt lat="45.83171" lon="4.75418">
        <ele>287.13348</ele>
        <time>2023-06-14T17:15:34.000Z</time>
      </trkpt>
      <trkpt lat="45.83167" lon="4.7542">
        <ele>287.41602</ele>
        <time>2023-06-14T17:15:35.000Z</time>
      </trkpt>
      <trkpt lat="45.83164" lon="4.7542">
        <ele>287.7605</ele>
        <time>2023-06-14T17:15:36.000Z</time>
      </trkpt>
      <trkpt lat="45.83161" lon="4.75421">
        <ele>288.07178</ele>
        <time>2023-06-14T17:15:37.000Z</time>
      </trkpt>
      <trkpt lat="45.83157" lon="4.75422">
        <ele>288.35168</ele>
        <time>2023-06-14T17:15:38.000Z</time>
      </trkpt>
      <trkpt lat="45.83153" lon="4.75423">
        <ele>288.63333</ele>
        <time>2023-06-14T17:15:39.000Z</time>
      </trkpt>
      <trkpt lat="45.8315" lon="4.75424">
        <ele>288.95139</ele>
        <time>2023-06-14T17:15:40.000Z</time>
      </trkpt>
      <trkpt lat="45.83147" lon="4.75426">
        <ele>289.32477</ele>
        <time>2023-06-14T17:15:41.000Z</time>
      </trkpt>
      <trkpt lat="45.83143" lon="4.75428">
        <ele>289.68781</ele>
        <time>2023-06-14T17:15:42.000Z</time>
      </trkpt>
      <trkpt lat="45.8314" lon="4.7543">
        <ele>290.04727</ele>
        <time>2023-06-14T17:15:43.000Z</time>
      </trkpt>
      <trkpt lat="45.83137" lon="4.75432">
        <ele>290.35608</ele>
        <time>2023-06-14T17:15:44.000Z</time>
      </trkpt>
      <trkpt lat="45.83134" lon="4.75434">
        <ele>290.69302</ele>
        <time>2023-06-14T17:15:45.000Z</time>
      </trkpt>
      <trkpt lat="45.83131" lon="4.75437">
        <ele>290.93497</ele>
        <time>2023-06-14T17:15:46.000Z</time>
      </trkpt>
      <trkpt lat="45.83129" lon="4.75441">
        <ele>291.1347</ele>
        <time>2023-06-14T17:15:47.000Z</time>
      </trkpt>
      <trkpt lat="45.83126" lon="4.75445">
        <ele>291.21484</ele>
        <time>2023-06-14T17:15:48.000Z</time>
      </trkpt>
      <trkpt lat="45.83124" lon="4.75449">
        <ele>291.31049</ele>
        <time>2023-06-14T17:15:49.000Z</time>
      </trkpt>
      <trkpt lat="45.83123" lon="4.75453">
        <ele>291.47137</ele>
        <time>2023-06-14T17:15:50.000Z</time>
      </trkpt>
      <trkpt lat="45.83121" lon="4.75457">
        <ele>291.64264</ele>
        <time>2023-06-14T17:15:51.000Z</time>
      </trkpt>
      <trkpt lat="45.8312" lon="4.75461">
        <ele>291.87054</ele>
        <time>2023-06-14T17:15:52.000Z</time>
      </trkpt>
      <trkpt lat="45.8312" lon="4.75466">
        <ele>292.36322</ele>
        <time>2023-06-14T17:15:53.000Z</time>
      </trkpt>
      <trkpt lat="45.8312" lon="4.75471">
        <ele>292.8313</ele>
        <time>2023-06-14T17:15:54.000Z</time>
      </trkpt>
      <trkpt lat="45.8312" lon="4.75475">
        <ele>293.23453</ele>
        <time>2023-06-14T17:15:55.000Z</time>
      </trkpt>
      <trkpt lat="45.8312" lon="4.7548">
        <ele>293.58966</ele>
        <time>2023-06-14T17:15:56.000Z</time>
      </trkpt>
      <trkpt lat="45.83121" lon="4.75484">
        <ele>293.95551</ele>
        <time>2023-06-14T17:15:57.000Z</time>
      </trkpt>
      <trkpt lat="45.83121" lon="4.75489">
        <ele>294.33417</ele>
        <time>2023-06-14T17:15:58.000Z</time>
      </trkpt>
      <trkpt lat="45.83122" lon="4.75493">
        <ele>294.69189</ele>
        <time>2023-06-14T17:15:59.000Z</time>
      </trkpt>
      <trkpt lat="45.83124" lon="4.75498">
        <ele>295.0307</ele>
        <time>2023-06-14T17:16:00.000Z</time>
      </trkpt>
      <trkpt lat="45.83126" lon="4.75503">
        <ele>295.32227</ele>
        <time>2023-06-14T17:16:01.000Z</time>
      </trkpt>
      <trkpt lat="45.83127" lon="4.75507">
        <ele>295.59164</ele>
        <time>2023-06-14T17:16:02.000Z</time>
      </trkpt>
      <trkpt lat="45.83129" lon="4.75512">
        <ele>295.84781</ele>
        <time>2023-06-14T17:16:03.000Z</time>
      </trkpt>
      <trkpt lat="45.83131" lon="4.75516">
        <ele>296.07315</ele>
        <time>2023-06-14T17:16:04.000Z</time>
      </trkpt>
      <trkpt lat="45.83133" lon="4.75519">
        <ele>296.26263</ele>
        <time>2023-06-14T17:16:05.000Z</time>
      </trkpt>
      <trkpt lat="45.83136" lon="4.75523">
        <ele>296.57465</ele>
        <time>2023-06-14T17:16:06.000Z</time>
      </trkpt>
      <trkpt lat="45.83139" lon="4.75526">
        <ele>297.04834</ele>
        <time>2023-06-14T17:16:07.000Z</time>
      </trkpt>
      <trkpt lat="45.83141" lon="4.75529">
        <ele>297.69485</ele>
        <time>2023-06-14T17:16:08.000Z</time>
      </trkpt>
      <trkpt lat="45.83143" lon="4.75533">
        <ele>298.6622</ele>
        <time>2023-06-14T17:16:09.000Z</time>
      </trkpt>
      <trkpt lat="45.83145" lon="4.75536">
        <ele>299.44144</ele>
        <time>2023-06-14T17:16:10.000Z</time>
      </trkpt>
      <trkpt lat="45.83147" lon="4.75539">
        <ele>300.20267</ele>
        <time>2023-06-14T17:16:11.000Z</time>
      </trkpt>
      <trkpt lat="45.83148" lon="4.75542">
        <ele>300.94955</ele>
        <time>2023-06-14T17:16:12.000Z</time>
      </trkpt>
      <trkpt lat="45.83149" lon="4.75546">
        <ele>301.44211</ele>
        <time>2023-06-14T17:16:13.000Z</time>
      </trkpt>
      <trkpt lat="45.83151" lon="4.75551">
        <ele>302.12225</ele>
        <time>2023-06-14T17:16:14.000Z</time>
      </trkpt>
      <trkpt lat="45.83151" lon="4.75556">
        <ele>302.91867</ele>
        <time>2023-06-14T17:16:15.000Z</time>
      </trkpt>
      <trkpt lat="45.83152" lon="4.75561">
        <ele>303.76654</ele>
        <time>2023-06-14T17:16:16.000Z</time>
      </trkpt>
      <trkpt lat="45.83152" lon="4.75567">
        <ele>304.65552</ele>
        <time>2023-06-14T17:16:17.000Z</time>
      </trkpt>
      <trkpt lat="45.83153" lon="4.75572">
        <ele>305.70169</ele>
        <time>2023-06-14T17:16:18.000Z</time>
      </trkpt>
      <trkpt lat="45.83154" lon="4.75577">
        <ele>306.73523</ele>
        <time>2023-06-14T17:16:19.000Z</time>
      </trkpt>
      <trkpt lat="45.83155" lon="4.75583">
        <ele>307.73334</ele>
        <time>2023-06-14T17:16:20.000Z</time>
      </trkpt>
      <trkpt lat="45.83157" lon="4.75588">
        <ele>308.72461</ele>
        <time>2023-06-14T17:16:21.000Z</time>
      </trkpt>
      <trkpt lat="45.83158" lon="4.75593">
        <ele>309.72672</ele>
        <time>2023-06-14T17:16:22.000Z</time>
      </trkpt>
      <trkpt lat="45.83159" lon="4.75598">
        <ele>310.74762</ele>
        <time>2023-06-14T17:16:23.000Z</time>
      </trkpt>
      <trkpt lat="45.83159" lon="4.75603">
        <ele>311.7962</ele>
        <time>2023-06-14T17:16:24.000Z</time>
      </trkpt>
      <trkpt lat="45.8316" lon="4.75608">
        <ele>312.88174</ele>
        <time>2023-06-14T17:16:25.000Z</time>
      </trkpt>
      <trkpt lat="45.8316" lon="4.75614">
        <ele>313.97598</ele>
        <time>2023-06-14T17:16:26.000Z</time>
      </trkpt>
      <trkpt lat="45.83161" lon="4.75619">
        <ele>314.94952</ele>
        <time>2023-06-14T17:16:27.000Z</time>
      </trkpt>
      <trkpt lat="45.8316" lon="4.75625">
        <ele>315.86166</ele>
        <time>2023-06-14T17:16:28.000Z</time>
      </trkpt>
      <trkpt lat="45.8316" lon="4.7563">
        <ele>316.52585</ele>
        <time>2023-06-14T17:16:29.000Z</time>
      </trkpt>
      <trkpt lat="45.83161" lon="4.75636">
        <ele>317.20001</ele>
        <time>2023-06-14T17:16:30.000Z</time>
      </trkpt>
      <trkpt lat="45.83161" lon="4.75643">
        <ele>317.92584</ele>
        <time>2023-06-14T17:16:31.000Z</time>
      </trkpt>
      <trkpt lat="45.83161" lon="4.75649">
        <ele>318.62457</ele>
        <time>2023-06-14T17:16:32.000Z</time>
      </trkpt>
      <trkpt lat="45.83162" lon="4.75654">
        <ele>319.32431</ele>
        <time>2023-06-14T17:16:33.000Z</time>
      </trkpt>
      <trkpt lat="45.83163" lon="4.75658">
        <ele>319.8905</ele>
        <time>2023-06-14T17:16:34.000Z</time>
      </trkpt>
      <trkpt lat="45.83165" lon="4.75663">
        <ele>320.40442</ele>
        <time>2023-06-14T17:16:35.000Z</time>
      </trkpt>
      <trkpt lat="45.83167" lon="4.75667">
        <ele>320.85202</ele>
        <time>2023-06-14T17:16:36.000Z</time>
      </trkpt>
      <trkpt lat="45.8317" lon="4.75672">
        <ele>321.27826</ele>
        <time>2023-06-14T17:16:37.000Z</time>
      </trkpt>
      <trkpt lat="45.83173" lon="4.75676">
        <ele>321.56601</ele>
        <time>2023-06-14T17:16:38.000Z</time>
      </trkpt>
      <trkpt lat="45.83175" lon="4.7568">
        <ele>321.86743</ele>
        <time>2023-06-14T17:16:39.000Z</time>
      </trkpt>
      <trkpt lat="45.83178" lon="4.75684">
        <ele>322.21442</ele>
        <time>2023-06-14T17:16:40.000Z</time>
      </trkpt>
      <trkpt lat="45.83181" lon="4.75688">
        <ele>322.58041</ele>
        <time>2023-06-14T17:16:41.000Z</time>
      </trkpt>
      <trkpt lat="45.83184" lon="4.75692">
        <ele>322.92365</ele>
        <time>2023-06-14T17:16:42.000Z</time>
      </trkpt>
      <trkpt lat="45.83186" lon="4.75695">
        <ele>323.24469</ele>
        <time>2023-06-14T17:16:43.000Z</time>
      </trkpt>
      <trkpt lat="45.83189" lon="4.757">
        <ele>323.58344</ele>
        <time>2023-06-14T17:16:44.000Z</time>
      </trkpt>
      <trkpt lat="45.83192" lon="4.75704">
        <ele>323.88678</ele>
        <time>2023-06-14T17:16:45.000Z</time>
      </trkpt>
      <trkpt lat="45.83194" lon="4.75708">
        <ele>324.15805</ele>
        <time>2023-06-14T17:16:46.000Z</time>
      </trkpt>
      <trkpt lat="45.83197" lon="4.75712">
        <ele>324.41644</ele>
        <time>2023-06-14T17:16:47.000Z</time>
      </trkpt>
      <trkpt lat="45.83199" lon="4.75717">
        <ele>324.69492</ele>
        <time>2023-06-14T17:16:48.000Z</time>
      </trkpt>
      <trkpt lat="45.83201" lon="4.75722">
        <ele>324.95853</ele>
        <time>2023-06-14T17:16:49.000Z</time>
      </trkpt>
      <trkpt lat="45.83203" lon="4.75727">
        <ele>325.3923</ele>
        <time>2023-06-14T17:16:50.000Z</time>
      </trkpt>
      <trkpt lat="45.83205" lon="4.75732">
        <ele>325.76581</ele>
        <time>2023-06-14T17:16:51.000Z</time>
      </trkpt>
      <trkpt lat="45.83207" lon="4.75736">
        <ele>326.13748</ele>
        <time>2023-06-14T17:16:52.000Z</time>
      </trkpt>
      <trkpt lat="45.83208" lon="4.75741">
        <ele>326.44595</ele>
        <time>2023-06-14T17:16:53.000Z</time>
      </trkpt>
      <trkpt lat="45.8321" lon="4.75745">
        <ele>326.74054</ele>
        <time>2023-06-14T17:16:54.000Z</time>
      </trkpt>
      <trkpt lat="45.83211" lon="4.7575">
        <ele>326.87573</ele>
        <time>2023-06-14T17:16:55.000Z</time>
      </trkpt>
      <trkpt lat="45.83213" lon="4.75754">
        <ele>326.99481</ele>
        <time>2023-06-14T17:16:56.000Z</time>
      </trkpt>
      <trkpt lat="45.83215" lon="4.7576">
        <ele>327.04474</ele>
        <time>2023-06-14T17:16:57.000Z</time>
      </trkpt>
      <trkpt lat="45.83217" lon="4.75765">
        <ele>327.20343</ele>
        <time>2023-06-14T17:16:58.000Z</time>
      </trkpt>
      <trkpt lat="45.83219" lon="4.75769">
        <ele>327.40314</ele>
        <time>2023-06-14T17:16:59.000Z</time>
      </trkpt>
      <trkpt lat="45.83221" lon="4.75774">
        <ele>327.59863</ele>
        <time>2023-06-14T17:17:00.000Z</time>
      </trkpt>
      <trkpt lat="45.83223" lon="4.75778">
        <ele>327.78058</ele>
        <time>2023-06-14T17:17:01.000Z</time>
      </trkpt>
      <trkpt lat="45.83225" lon="4.75783">
        <ele>328.00043</ele>
        <time>2023-06-14T17:17:02.000Z</time>
      </trkpt>
      <trkpt lat="45.83228" lon="4.75788">
        <ele>328.23026</ele>
        <time>2023-06-14T17:17:03.000Z</time>
      </trkpt>
      <trkpt lat="45.8323" lon="4.75793">
        <ele>328.49673</ele>
        <time>2023-06-14T17:17:04.000Z</time>
      </trkpt>
      <trkpt lat="45.83232" lon="4.75798">
        <ele>328.78372</ele>
        <time>2023-06-14T17:17:05.000Z</time>
      </trkpt>
      <trkpt lat="45.83234" lon="4.75803">
        <ele>329.08148</ele>
        <time>2023-06-14T17:17:06.000Z</time>
      </trkpt>
      <trkpt lat="45.83236" lon="4.75808">
        <ele>329.39337</ele>
        <time>2023-06-14T17:17:07.000Z</time>
      </trkpt>
      <trkpt lat="45.83238" lon="4.75813">
        <ele>329.65375</ele>
        <time>2023-06-14T17:17:08.000Z</time>
      </trkpt>
      <trkpt lat="45.83239" lon="4.75817">
        <ele>329.89825</ele>
        <time>2023-06-14T17:17:09.000Z</time>
      </trkpt>
      <trkpt lat="45.8324" lon="4.75822">
        <ele>329.98672</ele>
        <time>2023-06-14T17:17:10.000Z</time>
      </trkpt>
      <trkpt lat="45.83241" lon="4.75827">
        <ele>330.07422</ele>
        <time>2023-06-14T17:17:11.000Z</time>
      </trkpt>
      <trkpt lat="45.83242" lon="4.75832">
        <ele>330.15302</ele>
        <time>2023-06-14T17:17:12.000Z</time>
      </trkpt>
      <trkpt lat="45.83242" lon="4.75837">
        <ele>330.27936</ele>
        <time>2023-06-14T17:17:13.000Z</time>
      </trkpt>
      <trkpt lat="45.83243" lon="4.75842">
        <ele>330.48035</ele>
        <time>2023-06-14T17:17:14.000Z</time>
      </trkpt>
      <trkpt lat="45.83243" lon="4.75847">
        <ele>330.75739</ele>
        <time>2023-06-14T17:17:15.000Z</time>
      </trkpt>
      <trkpt lat="45.83244" lon="4.75852">
        <ele>331.08945</ele>
        <time>2023-06-14T17:17:16.000Z</time>
      </trkpt>
      <trkpt lat="45.83244" lon="4.75856">
        <ele>331.47095</ele>
        <time>2023-06-14T17:17:17.000Z</time>
      </trkpt>
      <trkpt lat="45.83245" lon="4.75861">
        <ele>331.74326</ele>
        <time>2023-06-14T17:17:18.000Z</time>
      </trkpt>
      <trkpt lat="45.83245" lon="4.75866">
        <ele>332.01907</ele>
        <time>2023-06-14T17:17:19.000Z</time>
      </trkpt>
      <trkpt lat="45.83245" lon="4.75871">
        <ele>332.33786</ele>
        <time>2023-06-14T17:17:20.000Z</time>
      </trkpt>
      <trkpt lat="45.83244" lon="4.75876">
        <ele>332.70157</ele>
        <time>2023-06-14T17:17:21.000Z</time>
      </trkpt>
      <trkpt lat="45.83244" lon="4.75881">
        <ele>333.01065</ele>
        <time>2023-06-14T17:17:22.000Z</time>
      </trkpt>
      <trkpt lat="45.83244" lon="4.75886">
        <ele>333.32007</ele>
        <time>2023-06-14T17:17:23.000Z</time>
      </trkpt>
      <trkpt lat="45.83245" lon="4.75891">
        <ele>333.6084</ele>
        <time>2023-06-14T17:17:24.000Z</time>
      </trkpt>
      <trkpt lat="45.83245" lon="4.75897">
        <ele>333.86328</ele>
        <time>2023-06-14T17:17:25.000Z</time>
      </trkpt>
      <trkpt lat="45.83245" lon="4.75902">
        <ele>334.05569</ele>
        <time>2023-06-14T17:17:26.000Z</time>
      </trkpt>
      <trkpt lat="45.83245" lon="4.75906">
        <ele>334.25211</ele>
        <time>2023-06-14T17:17:27.000Z</time>
      </trkpt>
      <trkpt lat="45.83245" lon="4.7591">
        <ele>334.46674</ele>
        <time>2023-06-14T17:17:28.000Z</time>
      </trkpt>
      <trkpt lat="45.83246" lon="4.75914">
        <ele>334.67203</ele>
        <time>2023-06-14T17:17:29.000Z</time>
      </trkpt>
      <trkpt lat="45.83246" lon="4.75919">
        <ele>334.7948</ele>
        <time>2023-06-14T17:17:30.000Z</time>
      </trkpt>
      <trkpt lat="45.83246" lon="4.75923">
        <ele>334.90253</ele>
        <time>2023-06-14T17:17:31.000Z</time>
      </trkpt>
      <trkpt lat="45.83247" lon="4.75928">
        <ele>334.99405</ele>
        <time>2023-06-14T17:17:32.000Z</time>
      </trkpt>
      <trkpt lat="45.83248" lon="4.75932">
        <ele>335.03329</ele>
        <time>2023-06-14T17:17:33.000Z</time>
      </trkpt>
      <trkpt lat="45.83249" lon="4.75937">
        <ele>334.99109</ele>
        <time>2023-06-14T17:17:34.000Z</time>
      </trkpt>
      <trkpt lat="45.8325" lon="4.75941">
        <ele>335.08688</ele>
        <time>2023-06-14T17:17:35.000Z</time>
      </trkpt>
      <trkpt lat="45.83252" lon="4.75945">
        <ele>335.15344</ele>
        <time>2023-06-14T17:17:36.000Z</time>
      </trkpt>
      <trkpt lat="45.83255" lon="4.75944">
        <ele>335.3764</ele>
        <time>2023-06-14T17:17:37.000Z</time>
      </trkpt>
      <trkpt lat="45.83257" lon="4.75948">
        <ele>335.62613</ele>
        <time>2023-06-14T17:17:38.000Z</time>
      </trkpt>
      <trkpt lat="45.83258" lon="4.75952">
        <ele>335.67474</ele>
        <time>2023-06-14T17:17:39.000Z</time>
      </trkpt>
      <trkpt lat="45.83258" lon="4.75957">
        <ele>335.68695</ele>
        <time>2023-06-14T17:17:40.000Z</time>
      </trkpt>
      <trkpt lat="45.8326" lon="4.7596">
        <ele>335.69098</ele>
        <time>2023-06-14T17:17:41.000Z</time>
      </trkpt>
      <trkpt lat="45.83261" lon="4.75963">
        <ele>335.76962</ele>
        <time>2023-06-14T17:17:42.000Z</time>
      </trkpt>
      <trkpt lat="45.83263" lon="4.75967">
        <ele>335.85922</ele>
        <time>2023-06-14T17:17:43.000Z</time>
      </trkpt>
      <trkpt lat="45.83264" lon="4.7597">
        <ele>335.91122</ele>
        <time>2023-06-14T17:17:44.000Z</time>
      </trkpt>
      <trkpt lat="45.83266" lon="4.75974">
        <ele>336.03098</ele>
        <time>2023-06-14T17:17:45.000Z</time>
      </trkpt>
      <trkpt lat="45.83267" lon="4.75976">
        <ele>336.18942</ele>
        <time>2023-06-14T17:17:46.000Z</time>
      </trkpt>
      <trkpt lat="45.83268" lon="4.7598">
        <ele>336.32468</ele>
        <time>2023-06-14T17:17:47.000Z</time>
      </trkpt>
      <trkpt lat="45.83268" lon="4.75984">
        <ele>336.4874</ele>
        <time>2023-06-14T17:17:48.000Z</time>
      </trkpt>
      <trkpt lat="45.83269" lon="4.75988">
        <ele>336.6138</ele>
        <time>2023-06-14T17:17:49.000Z</time>
      </trkpt>
      <trkpt lat="45.83271" lon="4.75991">
        <ele>336.77353</ele>
        <time>2023-06-14T17:17:50.000Z</time>
      </trkpt>
      <trkpt lat="45.83272" lon="4.75995">
        <ele>336.3204</ele>
        <time>2023-06-14T17:17:51.000Z</time>
      </trkpt>
      <trkpt lat="45.83273" lon="4.75999">
        <ele>335.87622</ele>
        <time>2023-06-14T17:17:52.000Z</time>
      </trkpt>
      <trkpt lat="45.83274" lon="4.76003">
        <ele>335.46417</ele>
        <time>2023-06-14T17:17:53.000Z</time>
      </trkpt>
      <trkpt lat="45.83275" lon="4.76007">
        <ele>335.03888</ele>
        <time>2023-06-14T17:17:54.000Z</time>
      </trkpt>
      <trkpt lat="45.83276" lon="4.76011">
        <ele>334.54279</ele>
        <time>2023-06-14T17:17:55.000Z</time>
      </trkpt>
      <trkpt lat="45.83278" lon="4.76015">
        <ele>334.06393</ele>
        <time>2023-06-14T17:17:56.000Z</time>
      </trkpt>
      <trkpt lat="45.83279" lon="4.76019">
        <ele>333.29648</ele>
        <time>2023-06-14T17:17:57.000Z</time>
      </trkpt>
      <trkpt lat="45.83281" lon="4.76023">
        <ele>332.49753</ele>
        <time>2023-06-14T17:17:58.000Z</time>
      </trkpt>
      <trkpt lat="45.83282" lon="4.76027">
        <ele>332.32935</ele>
        <time>2023-06-14T17:17:59.000Z</time>
      </trkpt>
      <trkpt lat="45.83283" lon="4.76031">
        <ele>332.07751</ele>
        <time>2023-06-14T17:18:00.000Z</time>
      </trkpt>
      <trkpt lat="45.83285" lon="4.76035">
        <ele>331.77423</ele>
        <time>2023-06-14T17:18:01.000Z</time>
      </trkpt>
      <trkpt lat="45.83286" lon="4.7604">
        <ele>331.36661</ele>
        <time>2023-06-14T17:18:02.000Z</time>
      </trkpt>
      <trkpt lat="45.83286" lon="4.76045">
        <ele>330.94305</ele>
        <time>2023-06-14T17:18:03.000Z</time>
      </trkpt>
      <trkpt lat="45.83286" lon="4.76049">
        <ele>330.49094</ele>
        <time>2023-06-14T17:18:04.000Z</time>
      </trkpt>
      <trkpt lat="45.83287" lon="4.76054">
        <ele>330.03937</ele>
        <time>2023-06-14T17:18:05.000Z</time>
      </trkpt>
      <trkpt lat="45.83286" lon="4.76058">
        <ele>329.57751</ele>
        <time>2023-06-14T17:18:06.000Z</time>
      </trkpt>
      <trkpt lat="45.83286" lon="4.76063">
        <ele>329.0722</ele>
        <time>2023-06-14T17:18:07.000Z</time>
      </trkpt>
      <trkpt lat="45.83285" lon="4.76068">
        <ele>328.55557</ele>
        <time>2023-06-14T17:18:08.000Z</time>
      </trkpt>
      <trkpt lat="45.83284" lon="4.76072">
        <ele>328.01068</ele>
        <time>2023-06-14T17:18:09.000Z</time>
      </trkpt>
      <trkpt lat="45.83283" lon="4.76076">
        <ele>327.51056</ele>
        <time>2023-06-14T17:18:10.000Z</time>
      </trkpt>
      <trkpt lat="45.83281" lon="4.7608">
        <ele>327.56866</ele>
        <time>2023-06-14T17:18:11.000Z</time>
      </trkpt>
      <trkpt lat="45.8328" lon="4.76084">
        <ele>327.5683</ele>
        <time>2023-06-14T17:18:12.000Z</time>
      </trkpt>
      <trkpt lat="45.83279" lon="4.76086">
        <ele>327.51907</ele>
        <time>2023-06-14T17:18:13.000Z</time>
      </trkpt>
      <trkpt lat="45.83278" lon="4.76089">
        <ele>327.49988</ele>
        <time>2023-06-14T17:18:14.000Z</time>
      </trkpt>
      <trkpt lat="45.83277" lon="4.76093">
        <ele>327.26392</ele>
        <time>2023-06-14T17:18:15.000Z</time>
      </trkpt>
      <trkpt lat="45.83275" lon="4.76097">
        <ele>327.17303</ele>
        <time>2023-06-14T17:18:16.000Z</time>
      </trkpt>
      <trkpt lat="45.83273" lon="4.76101">
        <ele>327.15881</ele>
        <time>2023-06-14T17:18:17.000Z</time>
      </trkpt>
      <trkpt lat="45.83271" lon="4.76106">
        <ele>327.20184</ele>
        <time>2023-06-14T17:18:18.000Z</time>
      </trkpt>
      <trkpt lat="45.8327" lon="4.7611">
        <ele>326.80615</ele>
        <time>2023-06-14T17:18:19.000Z</time>
      </trkpt>
      <trkpt lat="45.83268" lon="4.76114">
        <ele>326.54694</ele>
        <time>2023-06-14T17:18:20.000Z</time>
      </trkpt>
      <trkpt lat="45.83266" lon="4.76118">
        <ele>326.08749</ele>
        <time>2023-06-14T17:18:21.000Z</time>
      </trkpt>
      <trkpt lat="45.83265" lon="4.76121">
        <ele>325.46066</ele>
        <time>2023-06-14T17:18:22.000Z</time>
      </trkpt>
      <trkpt lat="45.83264" lon="4.76126">
        <ele>324.82697</ele>
        <time>2023-06-14T17:18:23.000Z</time>
      </trkpt>
      <trkpt lat="45.83265" lon="4.76131">
        <ele>324.74533</ele>
        <time>2023-06-14T17:18:24.000Z</time>
      </trkpt>
      <trkpt lat="45.83266" lon="4.76135">
        <ele>324.66791</ele>
        <time>2023-06-14T17:18:25.000Z</time>
      </trkpt>
      <trkpt lat="45.83267" lon="4.7614">
        <ele>324.47711</ele>
        <time>2023-06-14T17:18:26.000Z</time>
      </trkpt>
      <trkpt lat="45.83267" lon="4.76145">
        <ele>324.26407</ele>
        <time>2023-06-14T17:18:27.000Z</time>
      </trkpt>
      <trkpt lat="45.83267" lon="4.76149">
        <ele>324.06607</ele>
        <time>2023-06-14T17:18:28.000Z</time>
      </trkpt>
      <trkpt lat="45.83268" lon="4.76153">
        <ele>323.98151</ele>
        <time>2023-06-14T17:18:29.000Z</time>
      </trkpt>
      <trkpt lat="45.83268" lon="4.76158">
        <ele>324.08612</ele>
        <time>2023-06-14T17:18:30.000Z</time>
      </trkpt>
      <trkpt lat="45.83269" lon="4.76162">
        <ele>324.4942</ele>
        <time>2023-06-14T17:18:31.000Z</time>
      </trkpt>
      <trkpt lat="45.8327" lon="4.76167">
        <ele>324.99628</ele>
        <time>2023-06-14T17:18:32.000Z</time>
      </trkpt>
      <trkpt lat="45.8327" lon="4.76172">
        <ele>325.4928</ele>
        <time>2023-06-14T17:18:33.000Z</time>
      </trkpt>
      <trkpt lat="45.83271" lon="4.76177">
        <ele>325.92606</ele>
        <time>2023-06-14T17:18:34.000Z</time>
      </trkpt>
      <trkpt lat="45.83271" lon="4.76182">
        <ele>327.08624</ele>
        <time>2023-06-14T17:18:35.000Z</time>
      </trkpt>
      <trkpt lat="45.83271" lon="4.76187">
        <ele>328.08643</ele>
        <time>2023-06-14T17:18:36.000Z</time>
      </trkpt>
      <trkpt lat="45.83272" lon="4.76192">
        <ele>329.1481</ele>
        <time>2023-06-14T17:18:37.000Z</time>
      </trkpt>
      <trkpt lat="45.83273" lon="4.76196">
        <ele>330.15906</ele>
        <time>2023-06-14T17:18:38.000Z</time>
      </trkpt>
      <trkpt lat="45.83273" lon="4.76201">
        <ele>331.16211</ele>
        <time>2023-06-14T17:18:39.000Z</time>
      </trkpt>
      <trkpt lat="45.83273" lon="4.76206">
        <ele>332.10638</ele>
        <time>2023-06-14T17:18:40.000Z</time>
      </trkpt>
      <trkpt lat="45.83273" lon="4.7621">
        <ele>333.28015</ele>
        <time>2023-06-14T17:18:41.000Z</time>
      </trkpt>
      <trkpt lat="45.83274" lon="4.76214">
        <ele>334.68939</ele>
        <time>2023-06-14T17:18:42.000Z</time>
      </trkpt>
      <trkpt lat="45.83274" lon="4.76218">
        <ele>336.1181</ele>
        <time>2023-06-14T17:18:43.000Z</time>
      </trkpt>
      <trkpt lat="45.83275" lon="4.76223">
        <ele>337.03574</ele>
        <time>2023-06-14T17:18:44.000Z</time>
      </trkpt>
      <trkpt lat="45.83275" lon="4.76227">
        <ele>337.89615</ele>
        <time>2023-06-14T17:18:45.000Z</time>
      </trkpt>
      <trkpt lat="45.83276" lon="4.76232">
        <ele>338.88507</ele>
        <time>2023-06-14T17:18:46.000Z</time>
      </trkpt>
      <trkpt lat="45.83277" lon="4.76236">
        <ele>339.95694</ele>
        <time>2023-06-14T17:18:47.000Z</time>
      </trkpt>
      <trkpt lat="45.83277" lon="4.76241">
        <ele>341.06351</ele>
        <time>2023-06-14T17:18:48.000Z</time>
      </trkpt>
      <trkpt lat="45.83278" lon="4.76245">
        <ele>342.13577</ele>
        <time>2023-06-14T17:18:49.000Z</time>
      </trkpt>
      <trkpt lat="45.83278" lon="4.76249">
        <ele>343.00998</ele>
        <time>2023-06-14T17:18:50.000Z</time>
      </trkpt>
      <trkpt lat="45.83278" lon="4.76254">
        <ele>343.6066</ele>
        <time>2023-06-14T17:18:51.000Z</time>
      </trkpt>
      <trkpt lat="45.83278" lon="4.76258">
        <ele>344.19254</ele>
        <time>2023-06-14T17:18:52.000Z</time>
      </trkpt>
      <trkpt lat="45.83278" lon="4.76263">
        <ele>344.81931</ele>
        <time>2023-06-14T17:18:53.000Z</time>
      </trkpt>
      <trkpt lat="45.83278" lon="4.76267">
        <ele>345.50604</ele>
        <time>2023-06-14T17:18:54.000Z</time>
      </trkpt>
      <trkpt lat="45.83278" lon="4.76271">
        <ele>345.69269</ele>
        <time>2023-06-14T17:18:55.000Z</time>
      </trkpt>
      <trkpt lat="45.83278" lon="4.76276">
        <ele>345.87482</ele>
        <time>2023-06-14T17:18:56.000Z</time>
      </trkpt>
      <trkpt lat="45.83278" lon="4.7628">
        <ele>346.05356</ele>
        <time>2023-06-14T17:18:57.000Z</time>
      </trkpt>
      <trkpt lat="45.83279" lon="4.76285">
        <ele>346.19141</ele>
        <time>2023-06-14T17:18:58.000Z</time>
      </trkpt>
      <trkpt lat="45.83279" lon="4.76289">
        <ele>346.31836</ele>
        <time>2023-06-14T17:18:59.000Z</time>
      </trkpt>
      <trkpt lat="45.83279" lon="4.76293">
        <ele>346.40585</ele>
        <time>2023-06-14T17:19:00.000Z</time>
      </trkpt>
      <trkpt lat="45.83279" lon="4.76298">
        <ele>346.44531</ele>
        <time>2023-06-14T17:19:01.000Z</time>
      </trkpt>
      <trkpt lat="45.83279" lon="4.76302">
        <ele>346.4632</ele>
        <time>2023-06-14T17:19:02.000Z</time>
      </trkpt>
      <trkpt lat="45.8328" lon="4.76306">
        <ele>346.61102</ele>
        <time>2023-06-14T17:19:03.000Z</time>
      </trkpt>
      <trkpt lat="45.8328" lon="4.76309">
        <ele>346.7287</ele>
        <time>2023-06-14T17:19:04.000Z</time>
      </trkpt>
      <trkpt lat="45.8328" lon="4.76313">
        <ele>346.91245</ele>
        <time>2023-06-14T17:19:05.000Z</time>
      </trkpt>
      <trkpt lat="45.83281" lon="4.76317">
        <ele>347.104</ele>
        <time>2023-06-14T17:19:06.000Z</time>
      </trkpt>
      <trkpt lat="45.83281" lon="4.76321">
        <ele>347.21118</ele>
        <time>2023-06-14T17:19:07.000Z</time>
      </trkpt>
      <trkpt lat="45.83281" lon="4.76325">
        <ele>347.3074</ele>
        <time>2023-06-14T17:19:08.000Z</time>
      </trkpt>
      <trkpt lat="45.83281" lon="4.76328">
        <ele>347.36145</ele>
        <time>2023-06-14T17:19:09.000Z</time>
      </trkpt>
      <trkpt lat="45.83281" lon="4.76332">
        <ele>347.38434</ele>
        <time>2023-06-14T17:19:10.000Z</time>
      </trkpt>
      <trkpt lat="45.83281" lon="4.76336">
        <ele>347.37836</ele>
        <time>2023-06-14T17:19:11.000Z</time>
      </trkpt>
      <trkpt lat="45.83281" lon="4.7634">
        <ele>347.31635</ele>
        <time>2023-06-14T17:19:12.000Z</time>
      </trkpt>
      <trkpt lat="45.83281" lon="4.76345">
        <ele>347.27798</ele>
        <time>2023-06-14T17:19:13.000Z</time>
      </trkpt>
      <trkpt lat="45.83281" lon="4.76349">
        <ele>347.25061</ele>
        <time>2023-06-14T17:19:14.000Z</time>
      </trkpt>
      <trkpt lat="45.83281" lon="4.76354">
        <ele>347.22488</ele>
        <time>2023-06-14T17:19:15.000Z</time>
      </trkpt>
      <trkpt lat="45.83281" lon="4.76358">
        <ele>347.16208</ele>
        <time>2023-06-14T17:19:16.000Z</time>
      </trkpt>
      <trkpt lat="45.83282" lon="4.76362">
        <ele>347.12045</ele>
        <time>2023-06-14T17:19:17.000Z</time>
      </trkpt>
      <trkpt lat="45.83285" lon="4.76365">
        <ele>347.10434</ele>
        <time>2023-06-14T17:19:18.000Z</time>
      </trkpt>
      <trkpt lat="45.83287" lon="4.76369">
        <ele>345.88052</ele>
        <time>2023-06-14T17:19:19.000Z</time>
      </trkpt>
      <trkpt lat="45.8329" lon="4.76372">
        <ele>344.38107</ele>
        <time>2023-06-14T17:19:20.000Z</time>
      </trkpt>
      <trkpt lat="45.83294" lon="4.76374">
        <ele>343.80328</ele>
        <time>2023-06-14T17:19:21.000Z</time>
      </trkpt>
      <trkpt lat="45.83297" lon="4.76376">
        <ele>344.04742</ele>
        <time>2023-06-14T17:19:22.000Z</time>
      </trkpt>
      <trkpt lat="45.83302" lon="4.76376">
        <ele>344.14151</ele>
        <time>2023-06-14T17:19:23.000Z</time>
      </trkpt>
      <trkpt lat="45.83305" lon="4.76377">
        <ele>344.26889</ele>
        <time>2023-06-14T17:19:24.000Z</time>
      </trkpt>
      <trkpt lat="45.83309" lon="4.76375">
        <ele>344.38803</ele>
        <time>2023-06-14T17:19:25.000Z</time>
      </trkpt>
      <trkpt lat="45.83313" lon="4.76375">
        <ele>344.47665</ele>
        <time>2023-06-14T17:19:26.000Z</time>
      </trkpt>
      <trkpt lat="45.83317" lon="4.76372">
        <ele>344.6601</ele>
        <time>2023-06-14T17:19:27.000Z</time>
      </trkpt>
      <trkpt lat="45.83321" lon="4.76371">
        <ele>344.7608</ele>
        <time>2023-06-14T17:19:28.000Z</time>
      </trkpt>
      <trkpt lat="45.83324" lon="4.76368">
        <ele>344.92923</ele>
        <time>2023-06-14T17:19:29.000Z</time>
      </trkpt>
      <trkpt lat="45.83327" lon="4.76365">
        <ele>345.08978</ele>
        <time>2023-06-14T17:19:30.000Z</time>
      </trkpt>
      <trkpt lat="45.83331" lon="4.76362">
        <ele>345.35953</ele>
        <time>2023-06-14T17:19:31.000Z</time>
      </trkpt>
      <trkpt lat="45.83335" lon="4.76359">
        <ele>345.72037</ele>
        <time>2023-06-14T17:19:32.000Z</time>
      </trkpt>
      <trkpt lat="45.83338" lon="4.76356">
        <ele>346.12741</ele>
        <time>2023-06-14T17:19:33.000Z</time>
      </trkpt>
      <trkpt lat="45.83342" lon="4.76354">
        <ele>346.52972</ele>
        <time>2023-06-14T17:19:34.000Z</time>
      </trkpt>
      <trkpt lat="45.83346" lon="4.76351">
        <ele>346.90369</ele>
        <time>2023-06-14T17:19:35.000Z</time>
      </trkpt>
      <trkpt lat="45.8335" lon="4.76348">
        <ele>347.26208</ele>
        <time>2023-06-14T17:19:36.000Z</time>
      </trkpt>
      <trkpt lat="45.83353" lon="4.76346">
        <ele>347.60352</ele>
        <time>2023-06-14T17:19:37.000Z</time>
      </trkpt>
      <trkpt lat="45.83357" lon="4.76343">
        <ele>347.93625</ele>
        <time>2023-06-14T17:19:38.000Z</time>
      </trkpt>
      <trkpt lat="45.83361" lon="4.76341">
        <ele>349.35745</ele>
        <time>2023-06-14T17:19:39.000Z</time>
      </trkpt>
      <trkpt lat="45.83365" lon="4.76339">
        <ele>351.03937</ele>
        <time>2023-06-14T17:19:40.000Z</time>
      </trkpt>
      <trkpt lat="45.83369" lon="4.76339">
        <ele>351.72025</ele>
        <time>2023-06-14T17:19:41.000Z</time>
      </trkpt>
      <trkpt lat="45.83374" lon="4.76337">
        <ele>351.52759</ele>
        <time>2023-06-14T17:19:42.000Z</time>
      </trkpt>
      <trkpt lat="45.83377" lon="4.76336">
        <ele>351.66141</ele>
        <time>2023-06-14T17:19:43.000Z</time>
      </trkpt>
      <trkpt lat="45.83382" lon="4.76336">
        <ele>351.72049</ele>
        <time>2023-06-14T17:19:44.000Z</time>
      </trkpt>
      <trkpt lat="45.83386" lon="4.76336">
        <ele>351.77322</ele>
        <time>2023-06-14T17:19:45.000Z</time>
      </trkpt>
      <trkpt lat="45.8339" lon="4.76336">
        <ele>351.89349</ele>
        <time>2023-06-14T17:19:46.000Z</time>
      </trkpt>
      <trkpt lat="45.83394" lon="4.76335">
        <ele>352.09659</ele>
        <time>2023-06-14T17:19:47.000Z</time>
      </trkpt>
      <trkpt lat="45.83398" lon="4.76336">
        <ele>352.44489</ele>
        <time>2023-06-14T17:19:48.000Z</time>
      </trkpt>
      <trkpt lat="45.83402" lon="4.76337">
        <ele>352.80042</ele>
        <time>2023-06-14T17:19:49.000Z</time>
      </trkpt>
      <trkpt lat="45.83406" lon="4.76338">
        <ele>353.1741</ele>
        <time>2023-06-14T17:19:50.000Z</time>
      </trkpt>
      <trkpt lat="45.8341" lon="4.76339">
        <ele>353.55682</ele>
        <time>2023-06-14T17:19:51.000Z</time>
      </trkpt>
      <trkpt lat="45.83414" lon="4.7634">
        <ele>353.66364</ele>
        <time>2023-06-14T17:19:52.000Z</time>
      </trkpt>
      <trkpt lat="45.83418" lon="4.76342">
        <ele>353.62598</ele>
        <time>2023-06-14T17:19:53.000Z</time>
      </trkpt>
      <trkpt lat="45.83421" lon="4.76345">
        <ele>353.83365</ele>
        <time>2023-06-14T17:19:54.000Z</time>
      </trkpt>
      <trkpt lat="45.83424" lon="4.76349">
        <ele>354.02087</ele>
        <time>2023-06-14T17:19:55.000Z</time>
      </trkpt>
      <trkpt lat="45.83427" lon="4.76354">
        <ele>354.2482</ele>
        <time>2023-06-14T17:19:56.000Z</time>
      </trkpt>
      <trkpt lat="45.8343" lon="4.76359">
        <ele>354.43945</ele>
        <time>2023-06-14T17:19:57.000Z</time>
      </trkpt>
      <trkpt lat="45.83429" lon="4.76368">
        <ele>354.64725</ele>
        <time>2023-06-14T17:19:58.000Z</time>
      </trkpt>
      <trkpt lat="45.8343" lon="4.76375">
        <ele>354.96161</ele>
        <time>2023-06-14T17:19:59.000Z</time>
      </trkpt>
      <trkpt lat="45.83431" lon="4.76382">
        <ele>355.20313</ele>
        <time>2023-06-14T17:20:00.000Z</time>
      </trkpt>
      <trkpt lat="45.83431" lon="4.76388">
        <ele>355.43951</ele>
        <time>2023-06-14T17:20:01.000Z</time>
      </trkpt>
      <trkpt lat="45.83432" lon="4.76395">
        <ele>355.71249</ele>
        <time>2023-06-14T17:20:02.000Z</time>
      </trkpt>
      <trkpt lat="45.83432" lon="4.76402">
        <ele>355.92203</ele>
        <time>2023-06-14T17:20:03.000Z</time>
      </trkpt>
      <trkpt lat="45.83433" lon="4.76408">
        <ele>356.14044</ele>
        <time>2023-06-14T17:20:04.000Z</time>
      </trkpt>
      <trkpt lat="45.83434" lon="4.76413">
        <ele>356.2482</ele>
        <time>2023-06-14T17:20:05.000Z</time>
      </trkpt>
      <trkpt lat="45.83435" lon="4.76419">
        <ele>356.21375</ele>
        <time>2023-06-14T17:20:06.000Z</time>
      </trkpt>
      <trkpt lat="45.83434" lon="4.76424">
        <ele>355.98813</ele>
        <time>2023-06-14T17:20:07.000Z</time>
      </trkpt>
      <trkpt lat="45.83434" lon="4.76431">
        <ele>355.55969</ele>
        <time>2023-06-14T17:20:08.000Z</time>
      </trkpt>
      <trkpt lat="45.83434" lon="4.76438">
        <ele>355.04108</ele>
        <time>2023-06-14T17:20:09.000Z</time>
      </trkpt>
      <trkpt lat="45.83435" lon="4.76446">
        <ele>354.56317</ele>
        <time>2023-06-14T17:20:10.000Z</time>
      </trkpt>
      <trkpt lat="45.83436" lon="4.76454">
        <ele>354.0351</ele>
        <time>2023-06-14T17:20:11.000Z</time>
      </trkpt>
      <trkpt lat="45.83437" lon="4.76461">
        <ele>353.84747</ele>
        <time>2023-06-14T17:20:12.000Z</time>
      </trkpt>
      <trkpt lat="45.83438" lon="4.76472">
        <ele>353.74921</ele>
        <time>2023-06-14T17:20:13.000Z</time>
      </trkpt>
      <trkpt lat="45.83438" lon="4.7648">
        <ele>353.44757</ele>
        <time>2023-06-14T17:20:14.000Z</time>
      </trkpt>
      <trkpt lat="45.83441" lon="4.7649">
        <ele>353.25616</ele>
        <time>2023-06-14T17:20:15.000Z</time>
      </trkpt>
      <trkpt lat="45.83443" lon="4.76499">
        <ele>353.08286</ele>
        <time>2023-06-14T17:20:16.000Z</time>
      </trkpt>
      <trkpt lat="45.83445" lon="4.76507">
        <ele>352.78241</ele>
        <time>2023-06-14T17:20:17.000Z</time>
      </trkpt>
      <trkpt lat="45.83447" lon="4.76515">
        <ele>352.57941</ele>
        <time>2023-06-14T17:20:18.000Z</time>
      </trkpt>
      <trkpt lat="45.83449" lon="4.76522">
        <ele>352.34067</ele>
        <time>2023-06-14T17:20:19.000Z</time>
      </trkpt>
      <trkpt lat="45.83453" lon="4.7653">
        <ele>352.18073</ele>
        <time>2023-06-14T17:20:20.000Z</time>
      </trkpt>
      <trkpt lat="45.83455" lon="4.76537">
        <ele>352.14615</ele>
        <time>2023-06-14T17:20:21.000Z</time>
      </trkpt>
      <trkpt lat="45.83458" lon="4.76543">
        <ele>352.09225</ele>
        <time>2023-06-14T17:20:22.000Z</time>
      </trkpt>
      <trkpt lat="45.83462" lon="4.76547">
        <ele>351.82809</ele>
        <time>2023-06-14T17:20:23.000Z</time>
      </trkpt>
      <trkpt lat="45.83466" lon="4.76551">
        <ele>351.94635</ele>
        <time>2023-06-14T17:20:24.000Z</time>
      </trkpt>
      <trkpt lat="45.8347" lon="4.76555">
        <ele>352.11243</ele>
        <time>2023-06-14T17:20:25.000Z</time>
      </trkpt>
      <trkpt lat="45.83474" lon="4.76559">
        <ele>352.39093</ele>
        <time>2023-06-14T17:20:26.000Z</time>
      </trkpt>
      <trkpt lat="45.83478" lon="4.76562">
        <ele>352.75424</ele>
        <time>2023-06-14T17:20:27.000Z</time>
      </trkpt>
      <trkpt lat="45.83481" lon="4.76565">
        <ele>353.23257</ele>
        <time>2023-06-14T17:20:28.000Z</time>
      </trkpt>
      <trkpt lat="45.83484" lon="4.76569">
        <ele>353.77719</ele>
        <time>2023-06-14T17:20:29.000Z</time>
      </trkpt>
      <trkpt lat="45.83487" lon="4.76573">
        <ele>354.31464</ele>
        <time>2023-06-14T17:20:30.000Z</time>
      </trkpt>
      <trkpt lat="45.8349" lon="4.76579">
        <ele>354.83661</ele>
        <time>2023-06-14T17:20:31.000Z</time>
      </trkpt>
      <trkpt lat="45.83494" lon="4.76583">
        <ele>355.18213</ele>
        <time>2023-06-14T17:20:32.000Z</time>
      </trkpt>
      <trkpt lat="45.83497" lon="4.76587">
        <ele>355.59857</ele>
        <time>2023-06-14T17:20:33.000Z</time>
      </trkpt>
      <trkpt lat="45.83499" lon="4.76592">
        <ele>355.86432</ele>
        <time>2023-06-14T17:20:34.000Z</time>
      </trkpt>
      <trkpt lat="45.83501" lon="4.76595">
        <ele>356.40332</ele>
        <time>2023-06-14T17:20:35.000Z</time>
      </trkpt>
      <trkpt lat="45.83503" lon="4.76598">
        <ele>356.96661</ele>
        <time>2023-06-14T17:20:36.000Z</time>
      </trkpt>
      <trkpt lat="45.83505" lon="4.76602">
        <ele>357.35809</ele>
        <time>2023-06-14T17:20:37.000Z</time>
      </trkpt>
      <trkpt lat="45.83506" lon="4.76606">
        <ele>357.60599</ele>
        <time>2023-06-14T17:20:38.000Z</time>
      </trkpt>
      <trkpt lat="45.83508" lon="4.76611">
        <ele>357.90204</ele>
        <time>2023-06-14T17:20:39.000Z</time>
      </trkpt>
      <trkpt lat="45.83509" lon="4.76616">
        <ele>358.25354</ele>
        <time>2023-06-14T17:20:40.000Z</time>
      </trkpt>
      <trkpt lat="45.8351" lon="4.76621">
        <ele>358.64426</ele>
        <time>2023-06-14T17:20:41.000Z</time>
      </trkpt>
      <trkpt lat="45.83511" lon="4.76626">
        <ele>358.88522</ele>
        <time>2023-06-14T17:20:42.000Z</time>
      </trkpt>
      <trkpt lat="45.83512" lon="4.76629">
        <ele>359.13391</ele>
        <time>2023-06-14T17:20:43.000Z</time>
      </trkpt>
      <trkpt lat="45.83514" lon="4.76634">
        <ele>359.01901</ele>
        <time>2023-06-14T17:20:44.000Z</time>
      </trkpt>
      <trkpt lat="45.83515" lon="4.76638">
        <ele>358.9209</ele>
        <time>2023-06-14T17:20:45.000Z</time>
      </trkpt>
      <trkpt lat="45.83517" lon="4.76643">
        <ele>359.14594</ele>
        <time>2023-06-14T17:20:46.000Z</time>
      </trkpt>
      <trkpt lat="45.83519" lon="4.76647">
        <ele>359.28644</ele>
        <time>2023-06-14T17:20:47.000Z</time>
      </trkpt>
      <trkpt lat="45.83521" lon="4.76651">
        <ele>359.49826</ele>
        <time>2023-06-14T17:20:48.000Z</time>
      </trkpt>
      <trkpt lat="45.83523" lon="4.76656">
        <ele>359.67657</ele>
        <time>2023-06-14T17:20:49.000Z</time>
      </trkpt>
      <trkpt lat="45.83525" lon="4.7666">
        <ele>359.83899</ele>
        <time>2023-06-14T17:20:50.000Z</time>
      </trkpt>
      <trkpt lat="45.83526" lon="4.76664">
        <ele>359.95929</ele>
        <time>2023-06-14T17:20:51.000Z</time>
      </trkpt>
      <trkpt lat="45.83528" lon="4.76668">
        <ele>360.17896</ele>
        <time>2023-06-14T17:20:52.000Z</time>
      </trkpt>
      <trkpt lat="45.8353" lon="4.76672">
        <ele>360.33569</ele>
        <time>2023-06-14T17:20:53.000Z</time>
      </trkpt>
      <trkpt lat="45.83532" lon="4.76675">
        <ele>360.58884</ele>
        <time>2023-06-14T17:20:54.000Z</time>
      </trkpt>
      <trkpt lat="45.83535" lon="4.76679">
        <ele>360.54095</ele>
        <time>2023-06-14T17:20:55.000Z</time>
      </trkpt>
      <trkpt lat="45.83538" lon="4.76683">
        <ele>360.50815</ele>
        <time>2023-06-14T17:20:56.000Z</time>
      </trkpt>
      <trkpt lat="45.8354" lon="4.76687">
        <ele>360.91522</ele>
        <time>2023-06-14T17:20:57.000Z</time>
      </trkpt>
      <trkpt lat="45.83543" lon="4.76691">
        <ele>361.31992</ele>
        <time>2023-06-14T17:20:58.000Z</time>
      </trkpt>
      <trkpt lat="45.83546" lon="4.76694">
        <ele>361.53964</ele>
        <time>2023-06-14T17:20:59.000Z</time>
      </trkpt>
      <trkpt lat="45.83549" lon="4.76697">
        <ele>361.88785</ele>
        <time>2023-06-14T17:21:00.000Z</time>
      </trkpt>
      <trkpt lat="45.83553" lon="4.767">
        <ele>362.18231</ele>
        <time>2023-06-14T17:21:01.000Z</time>
      </trkpt>
      <trkpt lat="45.83556" lon="4.76702">
        <ele>362.6214</ele>
        <time>2023-06-14T17:21:02.000Z</time>
      </trkpt>
      <trkpt lat="45.83559" lon="4.76704">
        <ele>363.05145</ele>
        <time>2023-06-14T17:21:03.000Z</time>
      </trkpt>
      <trkpt lat="45.83561" lon="4.76706">
        <ele>363.47217</ele>
        <time>2023-06-14T17:21:04.000Z</time>
      </trkpt>
      <trkpt lat="45.83564" lon="4.76708">
        <ele>363.90051</ele>
        <time>2023-06-14T17:21:05.000Z</time>
      </trkpt>
      <trkpt lat="45.83567" lon="4.7671">
        <ele>364.34961</ele>
        <time>2023-06-14T17:21:06.000Z</time>
      </trkpt>
      <trkpt lat="45.8357" lon="4.76712">
        <ele>364.82587</ele>
        <time>2023-06-14T17:21:07.000Z</time>
      </trkpt>
      <trkpt lat="45.83573" lon="4.76714">
        <ele>365.25629</ele>
        <time>2023-06-14T17:21:08.000Z</time>
      </trkpt>
      <trkpt lat="45.83576" lon="4.76717">
        <ele>365.672</ele>
        <time>2023-06-14T17:21:09.000Z</time>
      </trkpt>
      <trkpt lat="45.83579" lon="4.76719">
        <ele>366.12781</ele>
        <time>2023-06-14T17:21:10.000Z</time>
      </trkpt>
      <trkpt lat="45.83582" lon="4.76722">
        <ele>366.66132</ele>
        <time>2023-06-14T17:21:11.000Z</time>
      </trkpt>
      <trkpt lat="45.83585" lon="4.76723">
        <ele>367.00372</ele>
        <time>2023-06-14T17:21:12.000Z</time>
      </trkpt>
      <trkpt lat="45.83589" lon="4.76725">
        <ele>367.38959</ele>
        <time>2023-06-14T17:21:13.000Z</time>
      </trkpt>
      <trkpt lat="45.83592" lon="4.76727">
        <ele>367.80127</ele>
        <time>2023-06-14T17:21:14.000Z</time>
      </trkpt>
      <trkpt lat="45.83595" lon="4.76728">
        <ele>368.05542</ele>
        <time>2023-06-14T17:21:15.000Z</time>
      </trkpt>
      <trkpt lat="45.83598" lon="4.7673">
        <ele>368.29214</ele>
        <time>2023-06-14T17:21:16.000Z</time>
      </trkpt>
      <trkpt lat="45.83601" lon="4.76733">
        <ele>368.3493</ele>
        <time>2023-06-14T17:21:17.000Z</time>
      </trkpt>
      <trkpt lat="45.83604" lon="4.76735">
        <ele>368.44308</ele>
        <time>2023-06-14T17:21:18.000Z</time>
      </trkpt>
      <trkpt lat="45.83607" lon="4.76737">
        <ele>368.66043</ele>
        <time>2023-06-14T17:21:19.000Z</time>
      </trkpt>
      <trkpt lat="45.8361" lon="4.76739">
        <ele>368.70111</ele>
        <time>2023-06-14T17:21:20.000Z</time>
      </trkpt>
      <trkpt lat="45.83613" lon="4.76741">
        <ele>368.65536</ele>
        <time>2023-06-14T17:21:21.000Z</time>
      </trkpt>
      <trkpt lat="45.83616" lon="4.76743">
        <ele>368.71426</ele>
        <time>2023-06-14T17:21:22.000Z</time>
      </trkpt>
      <trkpt lat="45.83619" lon="4.76746">
        <ele>368.82269</ele>
        <time>2023-06-14T17:21:23.000Z</time>
      </trkpt>
      <trkpt lat="45.83622" lon="4.76749">
        <ele>369.04926</ele>
        <time>2023-06-14T17:21:24.000Z</time>
      </trkpt>
      <trkpt lat="45.83625" lon="4.76752">
        <ele>369.379</ele>
        <time>2023-06-14T17:21:25.000Z</time>
      </trkpt>
      <trkpt lat="45.83628" lon="4.76756">
        <ele>369.37119</ele>
        <time>2023-06-14T17:21:26.000Z</time>
      </trkpt>
      <trkpt lat="45.8363" lon="4.76759">
        <ele>369.44354</ele>
        <time>2023-06-14T17:21:27.000Z</time>
      </trkpt>
      <trkpt lat="45.83633" lon="4.76763">
        <ele>369.47623</ele>
        <time>2023-06-14T17:21:28.000Z</time>
      </trkpt>
      <trkpt lat="45.83636" lon="4.76766">
        <ele>369.56589</ele>
        <time>2023-06-14T17:21:29.000Z</time>
      </trkpt>
      <trkpt lat="45.83638" lon="4.7677">
        <ele>369.57874</ele>
        <time>2023-06-14T17:21:30.000Z</time>
      </trkpt>
      <trkpt lat="45.83641" lon="4.76774">
        <ele>369.6275</ele>
        <time>2023-06-14T17:21:31.000Z</time>
      </trkpt>
      <trkpt lat="45.83643" lon="4.76778">
        <ele>369.83478</ele>
        <time>2023-06-14T17:21:32.000Z</time>
      </trkpt>
      <trkpt lat="45.83645" lon="4.76783">
        <ele>370.00406</ele>
        <time>2023-06-14T17:21:33.000Z</time>
      </trkpt>
      <trkpt lat="45.83647" lon="4.76787">
        <ele>370.13992</ele>
        <time>2023-06-14T17:21:34.000Z</time>
      </trkpt>
      <trkpt lat="45.83649" lon="4.76792">
        <ele>370.3844</ele>
        <time>2023-06-14T17:21:35.000Z</time>
      </trkpt>
      <trkpt lat="45.83652" lon="4.76796">
        <ele>370.63632</ele>
        <time>2023-06-14T17:21:36.000Z</time>
      </trkpt>
      <trkpt lat="45.83654" lon="4.76801">
        <ele>370.93311</ele>
        <time>2023-06-14T17:21:37.000Z</time>
      </trkpt>
      <trkpt lat="45.83656" lon="4.76805">
        <ele>371.24521</ele>
        <time>2023-06-14T17:21:38.000Z</time>
      </trkpt>
      <trkpt lat="45.83658" lon="4.7681">
        <ele>371.60522</ele>
        <time>2023-06-14T17:21:39.000Z</time>
      </trkpt>
      <trkpt lat="45.8366" lon="4.76815">
        <ele>372.00153</ele>
        <time>2023-06-14T17:21:40.000Z</time>
      </trkpt>
      <trkpt lat="45.83662" lon="4.7682">
        <ele>372.47217</ele>
        <time>2023-06-14T17:21:41.000Z</time>
      </trkpt>
      <trkpt lat="45.83664" lon="4.76824">
        <ele>373.00125</ele>
        <time>2023-06-14T17:21:42.000Z</time>
      </trkpt>
      <trkpt lat="45.83666" lon="4.76829">
        <ele>373.21014</ele>
        <time>2023-06-14T17:21:43.000Z</time>
      </trkpt>
      <trkpt lat="45.83668" lon="4.76833">
        <ele>373.35614</ele>
        <time>2023-06-14T17:21:44.000Z</time>
      </trkpt>
      <trkpt lat="45.8367" lon="4.76837">
        <ele>373.42041</ele>
        <time>2023-06-14T17:21:45.000Z</time>
      </trkpt>
      <trkpt lat="45.83672" lon="4.76842">
        <ele>373.4502</ele>
        <time>2023-06-14T17:21:46.000Z</time>
      </trkpt>
      <trkpt lat="45.83674" lon="4.76846">
        <ele>373.44571</ele>
        <time>2023-06-14T17:21:47.000Z</time>
      </trkpt>
      <trkpt lat="45.83676" lon="4.7685">
        <ele>373.46201</ele>
        <time>2023-06-14T17:21:48.000Z</time>
      </trkpt>
      <trkpt lat="45.83677" lon="4.76855">
        <ele>373.44684</ele>
        <time>2023-06-14T17:21:49.000Z</time>
      </trkpt>
      <trkpt lat="45.83679" lon="4.76859">
        <ele>373.45828</ele>
        <time>2023-06-14T17:21:50.000Z</time>
      </trkpt>
      <trkpt lat="45.83681" lon="4.76864">
        <ele>373.43008</ele>
        <time>2023-06-14T17:21:51.000Z</time>
      </trkpt>
      <trkpt lat="45.83683" lon="4.76868">
        <ele>373.38928</ele>
        <time>2023-06-14T17:21:52.000Z</time>
      </trkpt>
      <trkpt lat="45.83685" lon="4.76873">
        <ele>373.32553</ele>
        <time>2023-06-14T17:21:53.000Z</time>
      </trkpt>
      <trkpt lat="45.83687" lon="4.76877">
        <ele>373.25922</ele>
        <time>2023-06-14T17:21:54.000Z</time>
      </trkpt>
      <trkpt lat="45.83689" lon="4.76882">
        <ele>373.18335</ele>
        <time>2023-06-14T17:21:55.000Z</time>
      </trkpt>
      <trkpt lat="45.83691" lon="4.76886">
        <ele>373.07806</ele>
        <time>2023-06-14T17:21:56.000Z</time>
      </trkpt>
      <trkpt lat="45.83692" lon="4.7689">
        <ele>373.05701</ele>
        <time>2023-06-14T17:21:57.000Z</time>
      </trkpt>
      <trkpt lat="45.83694" lon="4.76894">
        <ele>373.03363</ele>
        <time>2023-06-14T17:21:58.000Z</time>
      </trkpt>
      <trkpt lat="45.83696" lon="4.76899">
        <ele>373.02444</ele>
        <time>2023-06-14T17:21:59.000Z</time>
      </trkpt>
      <trkpt lat="45.83698" lon="4.76904">
        <ele>373.02252</ele>
        <time>2023-06-14T17:22:00.000Z</time>
      </trkpt>
      <trkpt lat="45.837" lon="4.76908">
        <ele>373.04279</ele>
        <time>2023-06-14T17:22:01.000Z</time>
      </trkpt>
      <trkpt lat="45.83702" lon="4.76912">
        <ele>372.94025</ele>
        <time>2023-06-14T17:22:02.000Z</time>
      </trkpt>
      <trkpt lat="45.83704" lon="4.76917">
        <ele>373.06158</ele>
        <time>2023-06-14T17:22:03.000Z</time>
      </trkpt>
      <trkpt lat="45.83706" lon="4.76922">
        <ele>373.19937</ele>
        <time>2023-06-14T17:22:04.000Z</time>
      </trkpt>
      <trkpt lat="45.83707" lon="4.76927">
        <ele>373.31189</ele>
        <time>2023-06-14T17:22:05.000Z</time>
      </trkpt>
      <trkpt lat="45.83709" lon="4.76931">
        <ele>373.42712</ele>
        <time>2023-06-14T17:22:06.000Z</time>
      </trkpt>
      <trkpt lat="45.83711" lon="4.76936">
        <ele>373.53915</ele>
        <time>2023-06-14T17:22:07.000Z</time>
      </trkpt>
      <trkpt lat="45.83713" lon="4.76941">
        <ele>373.64175</ele>
        <time>2023-06-14T17:22:08.000Z</time>
      </trkpt>
      <trkpt lat="45.83715" lon="4.76945">
        <ele>373.73633</ele>
        <time>2023-06-14T17:22:09.000Z</time>
      </trkpt>
      <trkpt lat="45.83717" lon="4.7695">
        <ele>373.83893</ele>
        <time>2023-06-14T17:22:10.000Z</time>
      </trkpt>
      <trkpt lat="45.83718" lon="4.76955">
        <ele>373.91425</ele>
        <time>2023-06-14T17:22:11.000Z</time>
      </trkpt>
      <trkpt lat="45.8372" lon="4.7696">
        <ele>374.01721</ele>
        <time>2023-06-14T17:22:12.000Z</time>
      </trkpt>
      <trkpt lat="45.83721" lon="4.76964">
        <ele>374.11957</ele>
        <time>2023-06-14T17:22:13.000Z</time>
      </trkpt>
      <trkpt lat="45.83723" lon="4.76969">
        <ele>374.21545</ele>
        <time>2023-06-14T17:22:14.000Z</time>
      </trkpt>
      <trkpt lat="45.83724" lon="4.76973">
        <ele>374.30621</ele>
        <time>2023-06-14T17:22:15.000Z</time>
      </trkpt>
      <trkpt lat="45.83726" lon="4.76977">
        <ele>374.41299</ele>
        <time>2023-06-14T17:22:16.000Z</time>
      </trkpt>
      <trkpt lat="45.83728" lon="4.76982">
        <ele>374.47552</ele>
        <time>2023-06-14T17:22:17.000Z</time>
      </trkpt>
      <trkpt lat="45.83729" lon="4.76986">
        <ele>374.5571</ele>
        <time>2023-06-14T17:22:18.000Z</time>
      </trkpt>
      <trkpt lat="45.83731" lon="4.7699">
        <ele>374.63669</ele>
        <time>2023-06-14T17:22:19.000Z</time>
      </trkpt>
      <trkpt lat="45.83733" lon="4.76994">
        <ele>374.71509</ele>
        <time>2023-06-14T17:22:20.000Z</time>
      </trkpt>
      <trkpt lat="45.83735" lon="4.76999">
        <ele>374.80154</ele>
        <time>2023-06-14T17:22:21.000Z</time>
      </trkpt>
      <trkpt lat="45.83736" lon="4.77004">
        <ele>374.90027</ele>
        <time>2023-06-14T17:22:22.000Z</time>
      </trkpt>
      <trkpt lat="45.83738" lon="4.77009">
        <ele>374.98792</ele>
        <time>2023-06-14T17:22:23.000Z</time>
      </trkpt>
      <trkpt lat="45.83739" lon="4.77014">
        <ele>375.05267</ele>
        <time>2023-06-14T17:22:24.000Z</time>
      </trkpt>
      <trkpt lat="45.83739" lon="4.77019">
        <ele>375.12604</ele>
        <time>2023-06-14T17:22:25.000Z</time>
      </trkpt>
      <trkpt lat="45.8374" lon="4.77024">
        <ele>375.22894</ele>
        <time>2023-06-14T17:22:26.000Z</time>
      </trkpt>
      <trkpt lat="45.83741" lon="4.77029">
        <ele>375.38037</ele>
        <time>2023-06-14T17:22:27.000Z</time>
      </trkpt>
      <trkpt lat="45.83742" lon="4.77033">
        <ele>375.52451</ele>
        <time>2023-06-14T17:22:28.000Z</time>
      </trkpt>
      <trkpt lat="45.83744" lon="4.77037">
        <ele>376.06369</ele>
        <time>2023-06-14T17:22:29.000Z</time>
      </trkpt>
      <trkpt lat="45.83745" lon="4.77042">
        <ele>376.48291</ele>
        <time>2023-06-14T17:22:30.000Z</time>
      </trkpt>
      <trkpt lat="45.83746" lon="4.77046">
        <ele>376.90546</ele>
        <time>2023-06-14T17:22:31.000Z</time>
      </trkpt>
      <trkpt lat="45.83748" lon="4.7705">
        <ele>377.29498</ele>
        <time>2023-06-14T17:22:32.000Z</time>
      </trkpt>
      <trkpt lat="45.83749" lon="4.77054">
        <ele>377.6127</ele>
        <time>2023-06-14T17:22:33.000Z</time>
      </trkpt>
      <trkpt lat="45.83751" lon="4.77058">
        <ele>377.90448</ele>
        <time>2023-06-14T17:22:34.000Z</time>
      </trkpt>
      <trkpt lat="45.83753" lon="4.77063">
        <ele>378.24652</ele>
        <time>2023-06-14T17:22:35.000Z</time>
      </trkpt>
      <trkpt lat="45.83754" lon="4.77067">
        <ele>378.51373</ele>
        <time>2023-06-14T17:22:36.000Z</time>
      </trkpt>
      <trkpt lat="45.83755" lon="4.77071">
        <ele>378.54312</ele>
        <time>2023-06-14T17:22:37.000Z</time>
      </trkpt>
      <trkpt lat="45.83755" lon="4.77075">
        <ele>378.38586</ele>
        <time>2023-06-14T17:22:38.000Z</time>
      </trkpt>
      <trkpt lat="45.83755" lon="4.77079">
        <ele>377.96912</ele>
        <time>2023-06-14T17:22:39.000Z</time>
      </trkpt>
      <trkpt lat="45.83755" lon="4.77083">
        <ele>378.14981</ele>
        <time>2023-06-14T17:22:40.000Z</time>
      </trkpt>
      <trkpt lat="45.83754" lon="4.77088">
        <ele>378.25217</ele>
        <time>2023-06-14T17:22:41.000Z</time>
      </trkpt>
      <trkpt lat="45.83754" lon="4.77092">
        <ele>378.35577</ele>
        <time>2023-06-14T17:22:42.000Z</time>
      </trkpt>
      <trkpt lat="45.83753" lon="4.77097">
        <ele>378.47589</ele>
        <time>2023-06-14T17:22:43.000Z</time>
      </trkpt>
      <trkpt lat="45.83753" lon="4.77101">
        <ele>378.6095</ele>
        <time>2023-06-14T17:22:44.000Z</time>
      </trkpt>
      <trkpt lat="45.83751" lon="4.77105">
        <ele>378.74301</ele>
        <time>2023-06-14T17:22:45.000Z</time>
      </trkpt>
      <trkpt lat="45.83748" lon="4.77109">
        <ele>376.76593</ele>
        <time>2023-06-14T17:22:46.000Z</time>
      </trkpt>
      <trkpt lat="45.83747" lon="4.77114">
        <ele>375.9328</ele>
        <time>2023-06-14T17:22:47.000Z</time>
      </trkpt>
      <trkpt lat="45.83747" lon="4.77118">
        <ele>375.85196</ele>
        <time>2023-06-14T17:22:48.000Z</time>
      </trkpt>
      <trkpt lat="45.83748" lon="4.77123">
        <ele>375.38605</ele>
        <time>2023-06-14T17:22:49.000Z</time>
      </trkpt>
      <trkpt lat="45.83749" lon="4.77127">
        <ele>375.00751</ele>
        <time>2023-06-14T17:22:50.000Z</time>
      </trkpt>
      <trkpt lat="45.8375" lon="4.77131">
        <ele>374.62286</ele>
        <time>2023-06-14T17:22:51.000Z</time>
      </trkpt>
      <trkpt lat="45.83752" lon="4.77135">
        <ele>374.22601</ele>
        <time>2023-06-14T17:22:52.000Z</time>
      </trkpt>
      <trkpt lat="45.83753" lon="4.7714">
        <ele>370.76285</ele>
        <time>2023-06-14T17:22:53.000Z</time>
      </trkpt>
      <trkpt lat="45.83754" lon="4.77143">
        <ele>370.27716</ele>
        <time>2023-06-14T17:22:54.000Z</time>
      </trkpt>
      <trkpt lat="45.83755" lon="4.77146">
        <ele>368.73688</ele>
        <time>2023-06-14T17:22:55.000Z</time>
      </trkpt>
      <trkpt lat="45.83755" lon="4.7715">
        <ele>368.5228</ele>
        <time>2023-06-14T17:22:56.000Z</time>
      </trkpt>
      <trkpt lat="45.83756" lon="4.77153">
        <ele>369.1835</ele>
        <time>2023-06-14T17:22:57.000Z</time>
      </trkpt>
      <trkpt lat="45.83756" lon="4.77156">
        <ele>370.35004</ele>
        <time>2023-06-14T17:22:58.000Z</time>
      </trkpt>
      <trkpt lat="45.83756" lon="4.77159">
        <ele>371.93521</ele>
        <time>2023-06-14T17:22:59.000Z</time>
      </trkpt>
      <trkpt lat="45.83756" lon="4.77162">
        <ele>373.02554</ele>
        <time>2023-06-14T17:23:00.000Z</time>
      </trkpt>
      <trkpt lat="45.83756" lon="4.77164">
        <ele>374.21985</ele>
        <time>2023-06-14T17:23:01.000Z</time>
      </trkpt>
      <trkpt lat="45.83757" lon="4.77167">
        <ele>375.48959</ele>
        <time>2023-06-14T17:23:02.000Z</time>
      </trkpt>
      <trkpt lat="45.83758" lon="4.7717">
        <ele>376.7561</ele>
        <time>2023-06-14T17:23:03.000Z</time>
      </trkpt>
      <trkpt lat="45.8376" lon="4.77172">
        <ele>378.06207</ele>
        <time>2023-06-14T17:23:04.000Z</time>
      </trkpt>
      <trkpt lat="45.83761" lon="4.77175">
        <ele>379.36124</ele>
        <time>2023-06-14T17:23:05.000Z</time>
      </trkpt>
      <trkpt lat="45.83762" lon="4.77179">
        <ele>382.77579</ele>
        <time>2023-06-14T17:23:06.000Z</time>
      </trkpt>
      <trkpt lat="45.83763" lon="4.77182">
        <ele>385.00247</ele>
        <time>2023-06-14T17:23:07.000Z</time>
      </trkpt>
      <trkpt lat="45.83763" lon="4.77186">
        <ele>386.49545</ele>
        <time>2023-06-14T17:23:08.000Z</time>
      </trkpt>
      <trkpt lat="45.83763" lon="4.7719">
        <ele>388.02509</ele>
        <time>2023-06-14T17:23:09.000Z</time>
      </trkpt>
      <trkpt lat="45.83763" lon="4.77194">
        <ele>389.59921</ele>
        <time>2023-06-14T17:23:10.000Z</time>
      </trkpt>
      <trkpt lat="45.83764" lon="4.77197">
        <ele>391.21631</ele>
        <time>2023-06-14T17:23:11.000Z</time>
      </trkpt>
      <trkpt lat="45.83765" lon="4.77201">
        <ele>392.90027</ele>
        <time>2023-06-14T17:23:12.000Z</time>
      </trkpt>
      <trkpt lat="45.83765" lon="4.77205">
        <ele>397.70926</ele>
        <time>2023-06-14T17:23:13.000Z</time>
      </trkpt>
      <trkpt lat="45.83766" lon="4.77209">
        <ele>399.60464</ele>
        <time>2023-06-14T17:23:14.000Z</time>
      </trkpt>
      <trkpt lat="45.83767" lon="4.77213">
        <ele>402.53766</ele>
        <time>2023-06-14T17:23:15.000Z</time>
      </trkpt>
      <trkpt lat="45.83768" lon="4.77217">
        <ele>404.21109</ele>
        <time>2023-06-14T17:23:16.000Z</time>
      </trkpt>
      <trkpt lat="45.83769" lon="4.77221">
        <ele>405.26144</ele>
        <time>2023-06-14T17:23:17.000Z</time>
      </trkpt>
      <trkpt lat="45.83769" lon="4.77225">
        <ele>406.00528</ele>
        <time>2023-06-14T17:23:18.000Z</time>
      </trkpt>
      <trkpt lat="45.8377" lon="4.7723">
        <ele>406.57367</ele>
        <time>2023-06-14T17:23:19.000Z</time>
      </trkpt>
      <trkpt lat="45.8377" lon="4.77234">
        <ele>407.05154</ele>
        <time>2023-06-14T17:23:20.000Z</time>
      </trkpt>
      <trkpt lat="45.8377" lon="4.77238">
        <ele>407.48071</ele>
        <time>2023-06-14T17:23:21.000Z</time>
      </trkpt>
      <trkpt lat="45.83771" lon="4.77242">
        <ele>407.85431</ele>
        <time>2023-06-14T17:23:22.000Z</time>
      </trkpt>
      <trkpt lat="45.83772" lon="4.77246">
        <ele>408.2005</ele>
        <time>2023-06-14T17:23:23.000Z</time>
      </trkpt>
      <trkpt lat="45.83773" lon="4.77249">
        <ele>408.51123</ele>
        <time>2023-06-14T17:23:24.000Z</time>
      </trkpt>
      <trkpt lat="45.83774" lon="4.77253">
        <ele>408.80084</ele>
        <time>2023-06-14T17:23:25.000Z</time>
      </trkpt>
      <trkpt lat="45.83775" lon="4.77256">
        <ele>409.04428</ele>
        <time>2023-06-14T17:23:26.000Z</time>
      </trkpt>
      <trkpt lat="45.83776" lon="4.7726">
        <ele>409.29095</ele>
        <time>2023-06-14T17:23:27.000Z</time>
      </trkpt>
      <trkpt lat="45.83777" lon="4.77264">
        <ele>409.54303</ele>
        <time>2023-06-14T17:23:28.000Z</time>
      </trkpt>
      <trkpt lat="45.83778" lon="4.77267">
        <ele>409.75067</ele>
        <time>2023-06-14T17:23:29.000Z</time>
      </trkpt>
      <trkpt lat="45.8378" lon="4.7727">
        <ele>409.91284</ele>
        <time>2023-06-14T17:23:30.000Z</time>
      </trkpt>
      <trkpt lat="45.8378" lon="4.77273">
        <ele>410.10196</ele>
        <time>2023-06-14T17:23:31.000Z</time>
      </trkpt>
      <trkpt lat="45.83782" lon="4.77277">
        <ele>410.27652</ele>
        <time>2023-06-14T17:23:32.000Z</time>
      </trkpt>
      <trkpt lat="45.83783" lon="4.7728">
        <ele>410.48285</ele>
        <time>2023-06-14T17:23:33.000Z</time>
      </trkpt>
      <trkpt lat="45.83785" lon="4.77283">
        <ele>410.66486</ele>
        <time>2023-06-14T17:23:34.000Z</time>
      </trkpt>
      <trkpt lat="45.83787" lon="4.77286">
        <ele>410.8277</ele>
        <time>2023-06-14T17:23:35.000Z</time>
      </trkpt>
      <trkpt lat="45.83788" lon="4.7729">
        <ele>411.00171</ele>
        <time>2023-06-14T17:23:36.000Z</time>
      </trkpt>
      <trkpt lat="45.8379" lon="4.77293">
        <ele>411.14777</ele>
        <time>2023-06-14T17:23:37.000Z</time>
      </trkpt>
      <trkpt lat="45.83792" lon="4.77296">
        <ele>411.2923</ele>
        <time>2023-06-14T17:23:38.000Z</time>
      </trkpt>
      <trkpt lat="45.83793" lon="4.77299">
        <ele>411.45035</ele>
        <time>2023-06-14T17:23:39.000Z</time>
      </trkpt>
      <trkpt lat="45.83795" lon="4.77302">
        <ele>411.5744</ele>
        <time>2023-06-14T17:23:40.000Z</time>
      </trkpt>
      <trkpt lat="45.83796" lon="4.77305">
        <ele>411.76328</ele>
        <time>2023-06-14T17:23:41.000Z</time>
      </trkpt>
      <trkpt lat="45.83798" lon="4.77308">
        <ele>411.94174</ele>
        <time>2023-06-14T17:23:42.000Z</time>
      </trkpt>
      <trkpt lat="45.838" lon="4.77311">
        <ele>412.14355</ele>
        <time>2023-06-14T17:23:43.000Z</time>
      </trkpt>
      <trkpt lat="45.83802" lon="4.77314">
        <ele>412.32626</ele>
        <time>2023-06-14T17:23:44.000Z</time>
      </trkpt>
      <trkpt lat="45.83804" lon="4.77317">
        <ele>412.56332</ele>
        <time>2023-06-14T17:23:45.000Z</time>
      </trkpt>
      <trkpt lat="45.83806" lon="4.7732">
        <ele>412.85382</ele>
        <time>2023-06-14T17:23:46.000Z</time>
      </trkpt>
      <trkpt lat="45.83808" lon="4.77322">
        <ele>413.12909</ele>
        <time>2023-06-14T17:23:47.000Z</time>
      </trkpt>
      <trkpt lat="45.8381" lon="4.77325">
        <ele>413.42975</ele>
        <time>2023-06-14T17:23:48.000Z</time>
      </trkpt>
      <trkpt lat="45.83812" lon="4.77328">
        <ele>413.77188</ele>
        <time>2023-06-14T17:23:49.000Z</time>
      </trkpt>
      <trkpt lat="45.83814" lon="4.77331">
        <ele>414.15137</ele>
        <time>2023-06-14T17:23:50.000Z</time>
      </trkpt>
      <trkpt lat="45.83814" lon="4.77335">
        <ele>414.48309</ele>
        <time>2023-06-14T17:23:51.000Z</time>
      </trkpt>
      <trkpt lat="45.83814" lon="4.77339">
        <ele>414.80771</ele>
        <time>2023-06-14T17:23:52.000Z</time>
      </trkpt>
      <trkpt lat="45.83813" lon="4.77343">
        <ele>414.97324</ele>
        <time>2023-06-14T17:23:53.000Z</time>
      </trkpt>
      <trkpt lat="45.83812" lon="4.77347">
        <ele>415.17804</ele>
        <time>2023-06-14T17:23:54.000Z</time>
      </trkpt>
      <trkpt lat="45.8381" lon="4.7735">
        <ele>415.36728</ele>
        <time>2023-06-14T17:23:55.000Z</time>
      </trkpt>
      <trkpt lat="45.83809" lon="4.77353">
        <ele>415.52921</ele>
        <time>2023-06-14T17:23:56.000Z</time>
      </trkpt>
      <trkpt lat="45.83806" lon="4.77357">
        <ele>415.73715</ele>
        <time>2023-06-14T17:23:57.000Z</time>
      </trkpt>
      <trkpt lat="45.83804" lon="4.7736">
        <ele>415.95038</ele>
        <time>2023-06-14T17:23:58.000Z</time>
      </trkpt>
      <trkpt lat="45.83801" lon="4.77364">
        <ele>416.14078</ele>
        <time>2023-06-14T17:23:59.000Z</time>
      </trkpt>
      <trkpt lat="45.83799" lon="4.77367">
        <ele>416.34381</ele>
        <time>2023-06-14T17:24:00.000Z</time>
      </trkpt>
      <trkpt lat="45.83797" lon="4.7737">
        <ele>416.53741</ele>
        <time>2023-06-14T17:24:01.000Z</time>
      </trkpt>
      <trkpt lat="45.83794" lon="4.77373">
        <ele>416.73706</ele>
        <time>2023-06-14T17:24:02.000Z</time>
      </trkpt>
      <trkpt lat="45.83791" lon="4.77377">
        <ele>416.96158</ele>
        <time>2023-06-14T17:24:03.000Z</time>
      </trkpt>
      <trkpt lat="45.83788" lon="4.7738">
        <ele>417.15137</ele>
        <time>2023-06-14T17:24:04.000Z</time>
      </trkpt>
      <trkpt lat="45.83786" lon="4.77383">
        <ele>417.33563</ele>
        <time>2023-06-14T17:24:05.000Z</time>
      </trkpt>
      <trkpt lat="45.83784" lon="4.77386">
        <ele>417.50067</ele>
        <time>2023-06-14T17:24:06.000Z</time>
      </trkpt>
      <trkpt lat="45.83781" lon="4.7739">
        <ele>417.70517</ele>
        <time>2023-06-14T17:24:07.000Z</time>
      </trkpt>
      <trkpt lat="45.83778" lon="4.77393">
        <ele>417.87091</ele>
        <time>2023-06-14T17:24:08.000Z</time>
      </trkpt>
      <trkpt lat="45.83776" lon="4.77396">
        <ele>418.00064</ele>
        <time>2023-06-14T17:24:09.000Z</time>
      </trkpt>
      <trkpt lat="45.83773" lon="4.77399">
        <ele>418.11932</ele>
        <time>2023-06-14T17:24:10.000Z</time>
      </trkpt>
      <trkpt lat="45.83771" lon="4.77403">
        <ele>418.26825</ele>
        <time>2023-06-14T17:24:11.000Z</time>
      </trkpt>
      <trkpt lat="45.83768" lon="4.77406">
        <ele>418.39386</ele>
        <time>2023-06-14T17:24:12.000Z</time>
      </trkpt>
      <trkpt lat="45.83766" lon="4.7741">
        <ele>418.65399</ele>
        <time>2023-06-14T17:24:13.000Z</time>
      </trkpt>
      <trkpt lat="45.83764" lon="4.77413">
        <ele>418.83984</ele>
        <time>2023-06-14T17:24:14.000Z</time>
      </trkpt>
      <trkpt lat="45.83762" lon="4.77417">
        <ele>419.15411</ele>
        <time>2023-06-14T17:24:15.000Z</time>
      </trkpt>
      <trkpt lat="45.83759" lon="4.7742">
        <ele>419.60849</ele>
        <time>2023-06-14T17:24:16.000Z</time>
      </trkpt>
      <trkpt lat="45.83757" lon="4.77424">
        <ele>420.03192</ele>
        <time>2023-06-14T17:24:17.000Z</time>
      </trkpt>
      <trkpt lat="45.83755" lon="4.77428">
        <ele>420.46933</ele>
        <time>2023-06-14T17:24:18.000Z</time>
      </trkpt>
      <trkpt lat="45.83754" lon="4.77432">
        <ele>420.94379</ele>
        <time>2023-06-14T17:24:19.000Z</time>
      </trkpt>
      <trkpt lat="45.83753" lon="4.77436">
        <ele>421.42407</ele>
        <time>2023-06-14T17:24:20.000Z</time>
      </trkpt>
      <trkpt lat="45.83752" lon="4.7744">
        <ele>421.85922</ele>
        <time>2023-06-14T17:24:21.000Z</time>
      </trkpt>
      <trkpt lat="45.83751" lon="4.77444">
        <ele>422.29633</ele>
        <time>2023-06-14T17:24:22.000Z</time>
      </trkpt>
      <trkpt lat="45.83751" lon="4.77449">
        <ele>422.69531</ele>
        <time>2023-06-14T17:24:23.000Z</time>
      </trkpt>
      <trkpt lat="45.83751" lon="4.77453">
        <ele>423.15585</ele>
        <time>2023-06-14T17:24:24.000Z</time>
      </trkpt>
      <trkpt lat="45.83751" lon="4.77457">
        <ele>423.61163</ele>
        <time>2023-06-14T17:24:25.000Z</time>
      </trkpt>
      <trkpt lat="45.83751" lon="4.77462">
        <ele>424.05014</ele>
        <time>2023-06-14T17:24:26.000Z</time>
      </trkpt>
      <trkpt lat="45.83752" lon="4.77467">
        <ele>424.45404</ele>
        <time>2023-06-14T17:24:27.000Z</time>
      </trkpt>
      <trkpt lat="45.83752" lon="4.77471">
        <ele>424.82706</ele>
        <time>2023-06-14T17:24:28.000Z</time>
      </trkpt>
      <trkpt lat="45.83753" lon="4.77475">
        <ele>425.20947</ele>
        <time>2023-06-14T17:24:29.000Z</time>
      </trkpt>
      <trkpt lat="45.83754" lon="4.77479">
        <ele>424.54752</ele>
        <time>2023-06-14T17:24:30.000Z</time>
      </trkpt>
      <trkpt lat="45.83755" lon="4.77483">
        <ele>423.73615</ele>
        <time>2023-06-14T17:24:31.000Z</time>
      </trkpt>
      <trkpt lat="45.83756" lon="4.77487">
        <ele>422.97983</ele>
        <time>2023-06-14T17:24:32.000Z</time>
      </trkpt>
      <trkpt lat="45.83758" lon="4.77491">
        <ele>422.0629</ele>
        <time>2023-06-14T17:24:33.000Z</time>
      </trkpt>
      <trkpt lat="45.83759" lon="4.77494">
        <ele>420.99838</ele>
        <time>2023-06-14T17:24:34.000Z</time>
      </trkpt>
      <trkpt lat="45.83761" lon="4.77498">
        <ele>420.91302</ele>
        <time>2023-06-14T17:24:35.000Z</time>
      </trkpt>
      <trkpt lat="45.83763" lon="4.77502">
        <ele>419.66235</ele>
        <time>2023-06-14T17:24:36.000Z</time>
      </trkpt>
      <trkpt lat="45.83765" lon="4.77505">
        <ele>418.40082</ele>
        <time>2023-06-14T17:24:37.000Z</time>
      </trkpt>
      <trkpt lat="45.83767" lon="4.77508">
        <ele>417.15112</ele>
        <time>2023-06-14T17:24:38.000Z</time>
      </trkpt>
      <trkpt lat="45.83768" lon="4.77512">
        <ele>415.87335</ele>
        <time>2023-06-14T17:24:39.000Z</time>
      </trkpt>
      <trkpt lat="45.83769" lon="4.77515">
        <ele>414.49747</ele>
        <time>2023-06-14T17:24:40.000Z</time>
      </trkpt>
      <trkpt lat="45.8377" lon="4.77519">
        <ele>413.20087</ele>
        <time>2023-06-14T17:24:41.000Z</time>
      </trkpt>
      <trkpt lat="45.8377" lon="4.77523">
        <ele>413.23373</ele>
        <time>2023-06-14T17:24:42.000Z</time>
      </trkpt>
      <trkpt lat="45.83771" lon="4.77527">
        <ele>413.33234</ele>
        <time>2023-06-14T17:24:43.000Z</time>
      </trkpt>
      <trkpt lat="45.83772" lon="4.77531">
        <ele>412.22528</ele>
        <time>2023-06-14T17:24:44.000Z</time>
      </trkpt>
      <trkpt lat="45.83772" lon="4.77535">
        <ele>411.20987</ele>
        <time>2023-06-14T17:24:45.000Z</time>
      </trkpt>
      <trkpt lat="45.83773" lon="4.77539">
        <ele>410.29248</ele>
        <time>2023-06-14T17:24:46.000Z</time>
      </trkpt>
      <trkpt lat="45.83773" lon="4.77543">
        <ele>409.38318</ele>
        <time>2023-06-14T17:24:47.000Z</time>
      </trkpt>
      <trkpt lat="45.83773" lon="4.77547">
        <ele>409.44928</ele>
        <time>2023-06-14T17:24:48.000Z</time>
      </trkpt>
      <trkpt lat="45.83774" lon="4.77551">
        <ele>409.55161</ele>
        <time>2023-06-14T17:24:49.000Z</time>
      </trkpt>
      <trkpt lat="45.83774" lon="4.77555">
        <ele>410.69107</ele>
        <time>2023-06-14T17:24:50.000Z</time>
      </trkpt>
      <trkpt lat="45.83774" lon="4.77559">
        <ele>412.01724</ele>
        <time>2023-06-14T17:24:51.000Z</time>
      </trkpt>
      <trkpt lat="45.83774" lon="4.77563">
        <ele>413.29581</ele>
        <time>2023-06-14T17:24:52.000Z</time>
      </trkpt>
      <trkpt lat="45.83775" lon="4.77567">
        <ele>413.75513</ele>
        <time>2023-06-14T17:24:53.000Z</time>
      </trkpt>
      <trkpt lat="45.83775" lon="4.77571">
        <ele>414.42188</ele>
        <time>2023-06-14T17:24:54.000Z</time>
      </trkpt>
      <trkpt lat="45.83775" lon="4.77575">
        <ele>413.98706</ele>
        <time>2023-06-14T17:24:55.000Z</time>
      </trkpt>
      <trkpt lat="45.83776" lon="4.77579">
        <ele>414.61334</ele>
        <time>2023-06-14T17:24:56.000Z</time>
      </trkpt>
      <trkpt lat="45.83777" lon="4.77583">
        <ele>416.18677</ele>
        <time>2023-06-14T17:24:57.000Z</time>
      </trkpt>
      <trkpt lat="45.83778" lon="4.77586">
        <ele>417.73175</ele>
        <time>2023-06-14T17:24:58.000Z</time>
      </trkpt>
      <trkpt lat="45.83779" lon="4.7759">
        <ele>419.27838</ele>
        <time>2023-06-14T17:24:59.000Z</time>
      </trkpt>
      <trkpt lat="45.8378" lon="4.77593">
        <ele>420.95004</ele>
        <time>2023-06-14T17:25:00.000Z</time>
      </trkpt>
      <trkpt lat="45.83781" lon="4.77597">
        <ele>422.53433</ele>
        <time>2023-06-14T17:25:01.000Z</time>
      </trkpt>
      <trkpt lat="45.83781" lon="4.77599">
        <ele>422.79623</ele>
        <time>2023-06-14T17:25:02.000Z</time>
      </trkpt>
      <trkpt lat="45.83782" lon="4.77602">
        <ele>423.02588</ele>
        <time>2023-06-14T17:25:03.000Z</time>
      </trkpt>
      <trkpt lat="45.83784" lon="4.77606">
        <ele>424.45102</ele>
        <time>2023-06-14T17:25:04.000Z</time>
      </trkpt>
      <trkpt lat="45.83785" lon="4.7761">
        <ele>425.7648</ele>
        <time>2023-06-14T17:25:05.000Z</time>
      </trkpt>
      <trkpt lat="45.83786" lon="4.77613">
        <ele>425.90918</ele>
        <time>2023-06-14T17:25:06.000Z</time>
      </trkpt>
      <trkpt lat="45.83788" lon="4.77616">
        <ele>426.00519</ele>
        <time>2023-06-14T17:25:07.000Z</time>
      </trkpt>
      <trkpt lat="45.83789" lon="4.7762">
        <ele>425.16943</ele>
        <time>2023-06-14T17:25:08.000Z</time>
      </trkpt>
      <trkpt lat="45.8379" lon="4.77624">
        <ele>423.98151</ele>
        <time>2023-06-14T17:25:09.000Z</time>
      </trkpt>
      <trkpt lat="45.83791" lon="4.77627">
        <ele>422.81656</ele>
        <time>2023-06-14T17:25:10.000Z</time>
      </trkpt>
      <trkpt lat="45.83792" lon="4.77631">
        <ele>421.67645</ele>
        <time>2023-06-14T17:25:11.000Z</time>
      </trkpt>
      <trkpt lat="45.83793" lon="4.77635">
        <ele>420.58539</ele>
        <time>2023-06-14T17:25:12.000Z</time>
      </trkpt>
      <trkpt lat="45.83794" lon="4.77639">
        <ele>419.78271</ele>
        <time>2023-06-14T17:25:13.000Z</time>
      </trkpt>
      <trkpt lat="45.83795" lon="4.77643">
        <ele>418.99942</ele>
        <time>2023-06-14T17:25:14.000Z</time>
      </trkpt>
      <trkpt lat="45.83796" lon="4.77647">
        <ele>418.26123</ele>
        <time>2023-06-14T17:25:15.000Z</time>
      </trkpt>
      <trkpt lat="45.83797" lon="4.77651">
        <ele>417.48169</ele>
        <time>2023-06-14T17:25:16.000Z</time>
      </trkpt>
      <trkpt lat="45.83797" lon="4.77655">
        <ele>415.66107</ele>
        <time>2023-06-14T17:25:17.000Z</time>
      </trkpt>
      <trkpt lat="45.83798" lon="4.77658">
        <ele>413.82697</ele>
        <time>2023-06-14T17:25:18.000Z</time>
      </trkpt>
      <trkpt lat="45.83799" lon="4.77662">
        <ele>412.32413</ele>
        <time>2023-06-14T17:25:19.000Z</time>
      </trkpt>
      <trkpt lat="45.83799" lon="4.77665">
        <ele>410.43799</ele>
        <time>2023-06-14T17:25:20.000Z</time>
      </trkpt>
      <trkpt lat="45.838" lon="4.77669">
        <ele>409.28928</ele>
        <time>2023-06-14T17:25:21.000Z</time>
      </trkpt>
      <trkpt lat="45.83801" lon="4.77673">
        <ele>407.97098</ele>
        <time>2023-06-14T17:25:22.000Z</time>
      </trkpt>
      <trkpt lat="45.83802" lon="4.77677">
        <ele>406.63461</ele>
        <time>2023-06-14T17:25:23.000Z</time>
      </trkpt>
      <trkpt lat="45.83803" lon="4.7768">
        <ele>405.29721</ele>
        <time>2023-06-14T17:25:24.000Z</time>
      </trkpt>
      <trkpt lat="45.83804" lon="4.77684">
        <ele>404.05713</ele>
        <time>2023-06-14T17:25:25.000Z</time>
      </trkpt>
      <trkpt lat="45.83805" lon="4.77688">
        <ele>404.01825</ele>
        <time>2023-06-14T17:25:26.000Z</time>
      </trkpt>
      <trkpt lat="45.83806" lon="4.77692">
        <ele>403.94672</ele>
        <time>2023-06-14T17:25:27.000Z</time>
      </trkpt>
      <trkpt lat="45.83807" lon="4.77697">
        <ele>403.88654</ele>
        <time>2023-06-14T17:25:28.000Z</time>
      </trkpt>
      <trkpt lat="45.83807" lon="4.77701">
        <ele>404.30453</ele>
        <time>2023-06-14T17:25:29.000Z</time>
      </trkpt>
      <trkpt lat="45.83808" lon="4.77704">
        <ele>404.54834</ele>
        <time>2023-06-14T17:25:30.000Z</time>
      </trkpt>
      <trkpt lat="45.83809" lon="4.77707">
        <ele>404.70859</ele>
        <time>2023-06-14T17:25:31.000Z</time>
      </trkpt>
      <trkpt lat="45.8381" lon="4.77712">
        <ele>404.64481</ele>
        <time>2023-06-14T17:25:32.000Z</time>
      </trkpt>
      <trkpt lat="45.83811" lon="4.77716">
        <ele>405.10187</ele>
        <time>2023-06-14T17:25:33.000Z</time>
      </trkpt>
      <trkpt lat="45.83812" lon="4.7772">
        <ele>405.43619</ele>
        <time>2023-06-14T17:25:34.000Z</time>
      </trkpt>
      <trkpt lat="45.83812" lon="4.77724">
        <ele>405.80981</ele>
        <time>2023-06-14T17:25:35.000Z</time>
      </trkpt>
      <trkpt lat="45.83813" lon="4.77728">
        <ele>406.27707</ele>
        <time>2023-06-14T17:25:36.000Z</time>
      </trkpt>
      <trkpt lat="45.83814" lon="4.77732">
        <ele>406.71692</ele>
        <time>2023-06-14T17:25:37.000Z</time>
      </trkpt>
      <trkpt lat="45.83814" lon="4.77736">
        <ele>407.16489</ele>
        <time>2023-06-14T17:25:38.000Z</time>
      </trkpt>
      <trkpt lat="45.83815" lon="4.77741">
        <ele>407.51254</ele>
        <time>2023-06-14T17:25:39.000Z</time>
      </trkpt>
      <trkpt lat="45.83816" lon="4.77744">
        <ele>408.19473</ele>
        <time>2023-06-14T17:25:40.000Z</time>
      </trkpt>
      <trkpt lat="45.83817" lon="4.77748">
        <ele>409.36221</ele>
        <time>2023-06-14T17:25:41.000Z</time>
      </trkpt>
      <trkpt lat="45.83819" lon="4.77752">
        <ele>410.65976</ele>
        <time>2023-06-14T17:25:42.000Z</time>
      </trkpt>
      <trkpt lat="45.83821" lon="4.77755">
        <ele>411.85474</ele>
        <time>2023-06-14T17:25:43.000Z</time>
      </trkpt>
      <trkpt lat="45.83822" lon="4.77758">
        <ele>413.05362</ele>
        <time>2023-06-14T17:25:44.000Z</time>
      </trkpt>
      <trkpt lat="45.83824" lon="4.77762">
        <ele>414.21884</ele>
        <time>2023-06-14T17:25:45.000Z</time>
      </trkpt>
      <trkpt lat="45.83825" lon="4.77765">
        <ele>415.19321</ele>
        <time>2023-06-14T17:25:46.000Z</time>
      </trkpt>
      <trkpt lat="45.83827" lon="4.77769">
        <ele>416.22821</ele>
        <time>2023-06-14T17:25:47.000Z</time>
      </trkpt>
      <trkpt lat="45.83829" lon="4.77772">
        <ele>417.7164</ele>
        <time>2023-06-14T17:25:48.000Z</time>
      </trkpt>
      <trkpt lat="45.83831" lon="4.77775">
        <ele>419.04614</ele>
        <time>2023-06-14T17:25:49.000Z</time>
      </trkpt>
      <trkpt lat="45.83832" lon="4.77778">
        <ele>420.6622</ele>
        <time>2023-06-14T17:25:50.000Z</time>
      </trkpt>
      <trkpt lat="45.83835" lon="4.7778">
        <ele>422.16461</ele>
        <time>2023-06-14T17:25:51.000Z</time>
      </trkpt>
      <trkpt lat="45.83837" lon="4.77782">
        <ele>423.86484</ele>
        <time>2023-06-14T17:25:52.000Z</time>
      </trkpt>
      <trkpt lat="45.8384" lon="4.77784">
        <ele>425.66885</ele>
        <time>2023-06-14T17:25:53.000Z</time>
      </trkpt>
      <trkpt lat="45.83842" lon="4.77786">
        <ele>427.49103</ele>
        <time>2023-06-14T17:25:54.000Z</time>
      </trkpt>
      <trkpt lat="45.83845" lon="4.77788">
        <ele>429.20746</ele>
        <time>2023-06-14T17:25:55.000Z</time>
      </trkpt>
      <trkpt lat="45.83847" lon="4.77789">
        <ele>431.01645</ele>
        <time>2023-06-14T17:25:56.000Z</time>
      </trkpt>
      <trkpt lat="45.83849" lon="4.7779">
        <ele>433.21567</ele>
        <time>2023-06-14T17:25:57.000Z</time>
      </trkpt>
      <trkpt lat="45.83851" lon="4.77791">
        <ele>435.48297</ele>
        <time>2023-06-14T17:25:58.000Z</time>
      </trkpt>
      <trkpt lat="45.83853" lon="4.77792">
        <ele>437.53946</ele>
        <time>2023-06-14T17:25:59.000Z</time>
      </trkpt>
      <trkpt lat="45.83855" lon="4.77792">
        <ele>439.5975</ele>
        <time>2023-06-14T17:26:00.000Z</time>
      </trkpt>
      <trkpt lat="45.83858" lon="4.77793">
        <ele>440.42505</ele>
        <time>2023-06-14T17:26:01.000Z</time>
      </trkpt>
      <trkpt lat="45.83861" lon="4.77794">
        <ele>440.78491</ele>
        <time>2023-06-14T17:26:02.000Z</time>
      </trkpt>
      <trkpt lat="45.83865" lon="4.77795">
        <ele>441.25919</ele>
        <time>2023-06-14T17:26:03.000Z</time>
      </trkpt>
      <trkpt lat="45.83868" lon="4.77796">
        <ele>441.69971</ele>
        <time>2023-06-14T17:26:04.000Z</time>
      </trkpt>
      <trkpt lat="45.83871" lon="4.77796">
        <ele>442.06415</ele>
        <time>2023-06-14T17:26:05.000Z</time>
      </trkpt>
      <trkpt lat="45.83874" lon="4.77797">
        <ele>442.67267</ele>
        <time>2023-06-14T17:26:06.000Z</time>
      </trkpt>
      <trkpt lat="45.83877" lon="4.77797">
        <ele>443.26373</ele>
        <time>2023-06-14T17:26:07.000Z</time>
      </trkpt>
      <trkpt lat="45.8388" lon="4.77797">
        <ele>443.38776</ele>
        <time>2023-06-14T17:26:08.000Z</time>
      </trkpt>
      <trkpt lat="45.83883" lon="4.77797">
        <ele>443.47614</ele>
        <time>2023-06-14T17:26:09.000Z</time>
      </trkpt>
      <trkpt lat="45.83887" lon="4.77797">
        <ele>443.4632</ele>
        <time>2023-06-14T17:26:10.000Z</time>
      </trkpt>
      <trkpt lat="45.83889" lon="4.77797">
        <ele>443.58929</ele>
        <time>2023-06-14T17:26:11.000Z</time>
      </trkpt>
      <trkpt lat="45.83892" lon="4.77798">
        <ele>443.61148</ele>
        <time>2023-06-14T17:26:12.000Z</time>
      </trkpt>
      <trkpt lat="45.83895" lon="4.77799">
        <ele>443.74521</ele>
        <time>2023-06-14T17:26:13.000Z</time>
      </trkpt>
      <trkpt lat="45.83897" lon="4.778">
        <ele>443.88086</ele>
        <time>2023-06-14T17:26:14.000Z</time>
      </trkpt>
      <trkpt lat="45.839" lon="4.778">
        <ele>444.23358</ele>
        <time>2023-06-14T17:26:15.000Z</time>
      </trkpt>
      <trkpt lat="45.83903" lon="4.77801">
        <ele>444.37671</ele>
        <time>2023-06-14T17:26:16.000Z</time>
      </trkpt>
      <trkpt lat="45.83905" lon="4.77801">
        <ele>444.29639</ele>
        <time>2023-06-14T17:26:17.000Z</time>
      </trkpt>
      <trkpt lat="45.83907" lon="4.77801">
        <ele>444.14185</ele>
        <time>2023-06-14T17:26:18.000Z</time>
      </trkpt>
      <trkpt lat="45.8391" lon="4.778">
        <ele>444.21005</ele>
        <time>2023-06-14T17:26:19.000Z</time>
      </trkpt>
      <trkpt lat="45.83913" lon="4.778">
        <ele>444.26495</ele>
        <time>2023-06-14T17:26:20.000Z</time>
      </trkpt>
      <trkpt lat="45.83916" lon="4.778">
        <ele>444.3233</ele>
        <time>2023-06-14T17:26:21.000Z</time>
      </trkpt>
      <trkpt lat="45.83918" lon="4.778">
        <ele>444.85724</ele>
        <time>2023-06-14T17:26:22.000Z</time>
      </trkpt>
      <trkpt lat="45.8392" lon="4.77801">
        <ele>445.36905</ele>
        <time>2023-06-14T17:26:23.000Z</time>
      </trkpt>
      <trkpt lat="45.83923" lon="4.77801">
        <ele>445.892</ele>
        <time>2023-06-14T17:26:24.000Z</time>
      </trkpt>
      <trkpt lat="45.83926" lon="4.77802">
        <ele>446.41708</ele>
        <time>2023-06-14T17:26:25.000Z</time>
      </trkpt>
      <trkpt lat="45.83928" lon="4.77802">
        <ele>446.87045</ele>
        <time>2023-06-14T17:26:26.000Z</time>
      </trkpt>
      <trkpt lat="45.83931" lon="4.77802">
        <ele>447.33096</ele>
        <time>2023-06-14T17:26:27.000Z</time>
      </trkpt>
      <trkpt lat="45.83934" lon="4.77802">
        <ele>447.78867</ele>
        <time>2023-06-14T17:26:28.000Z</time>
      </trkpt>
      <trkpt lat="45.83937" lon="4.77802">
        <ele>448.2356</ele>
        <time>2023-06-14T17:26:29.000Z</time>
      </trkpt>
      <trkpt lat="45.83941" lon="4.77802">
        <ele>448.63712</ele>
        <time>2023-06-14T17:26:30.000Z</time>
      </trkpt>
      <trkpt lat="45.83943" lon="4.77802">
        <ele>449.01727</ele>
        <time>2023-06-14T17:26:31.000Z</time>
      </trkpt>
      <trkpt lat="45.83946" lon="4.778">
        <ele>449.46387</ele>
        <time>2023-06-14T17:26:32.000Z</time>
      </trkpt>
      <trkpt lat="45.83948" lon="4.77798">
        <ele>449.89948</ele>
        <time>2023-06-14T17:26:33.000Z</time>
      </trkpt>
      <trkpt lat="45.8395" lon="4.77794">
        <ele>450.37946</ele>
        <time>2023-06-14T17:26:34.000Z</time>
      </trkpt>
      <trkpt lat="45.8395" lon="4.77791">
        <ele>450.68668</ele>
        <time>2023-06-14T17:26:35.000Z</time>
      </trkpt>
      <trkpt lat="45.83948" lon="4.77787">
        <ele>451.13232</ele>
        <time>2023-06-14T17:26:36.000Z</time>
      </trkpt>
      <trkpt lat="45.83946" lon="4.77785">
        <ele>451.53989</ele>
        <time>2023-06-14T17:26:37.000Z</time>
      </trkpt>
      <trkpt lat="45.83944" lon="4.77784">
        <ele>451.92548</ele>
        <time>2023-06-14T17:26:38.000Z</time>
      </trkpt>
      <trkpt lat="45.83942" lon="4.77782">
        <ele>452.06876</ele>
        <time>2023-06-14T17:26:39.000Z</time>
      </trkpt>
      <trkpt lat="45.83939" lon="4.77781">
        <ele>452.27979</ele>
        <time>2023-06-14T17:26:40.000Z</time>
      </trkpt>
      <trkpt lat="45.83937" lon="4.7778">
        <ele>452.47256</ele>
        <time>2023-06-14T17:26:41.000Z</time>
      </trkpt>
      <trkpt lat="45.83934" lon="4.77779">
        <ele>452.6048</ele>
        <time>2023-06-14T17:26:42.000Z</time>
      </trkpt>
      <trkpt lat="45.83932" lon="4.77778">
        <ele>452.88885</ele>
        <time>2023-06-14T17:26:43.000Z</time>
      </trkpt>
      <trkpt lat="45.8393" lon="4.77777">
        <ele>453.13492</ele>
        <time>2023-06-14T17:26:44.000Z</time>
      </trkpt>
      <trkpt lat="45.83929" lon="4.77776">
        <ele>453.42416</ele>
        <time>2023-06-14T17:26:45.000Z</time>
      </trkpt>
      <trkpt lat="45.83927" lon="4.77774">
        <ele>453.55658</ele>
        <time>2023-06-14T17:26:46.000Z</time>
      </trkpt>
      <trkpt lat="45.83926" lon="4.77773">
        <ele>453.70425</ele>
        <time>2023-06-14T17:26:47.000Z</time>
      </trkpt>
      <trkpt lat="45.83924" lon="4.77771">
        <ele>453.80133</ele>
        <time>2023-06-14T17:26:48.000Z</time>
      </trkpt>
      <trkpt lat="45.83922" lon="4.77771">
        <ele>453.90936</ele>
        <time>2023-06-14T17:26:49.000Z</time>
      </trkpt>
      <trkpt lat="45.83919" lon="4.77771">
        <ele>454.01019</ele>
        <time>2023-06-14T17:26:50.000Z</time>
      </trkpt>
      <trkpt lat="45.83917" lon="4.7777">
        <ele>454.13458</ele>
        <time>2023-06-14T17:26:51.000Z</time>
      </trkpt>
      <trkpt lat="45.83915" lon="4.7777">
        <ele>453.84213</ele>
        <time>2023-06-14T17:26:52.000Z</time>
      </trkpt>
      <trkpt lat="45.83912" lon="4.77767">
        <ele>453.5954</ele>
        <time>2023-06-14T17:26:54.000Z</time>
      </trkpt>
      <trkpt lat="45.83909" lon="4.77766">
        <ele>453.39288</ele>
        <time>2023-06-14T17:26:55.000Z</time>
      </trkpt>
      <trkpt lat="45.83907" lon="4.77765">
        <ele>453.13437</ele>
        <time>2023-06-14T17:26:56.000Z</time>
      </trkpt>
      <trkpt lat="45.83905" lon="4.77763">
        <ele>452.80585</ele>
        <time>2023-06-14T17:26:57.000Z</time>
      </trkpt>
      <trkpt lat="45.83903" lon="4.77761">
        <ele>452.46249</ele>
        <time>2023-06-14T17:26:58.000Z</time>
      </trkpt>
      <trkpt lat="45.83901" lon="4.77759">
        <ele>452.16879</ele>
        <time>2023-06-14T17:26:59.000Z</time>
      </trkpt>
      <trkpt lat="45.83899" lon="4.77756">
        <ele>451.91528</ele>
        <time>2023-06-14T17:27:00.000Z</time>
      </trkpt>
      <trkpt lat="45.839" lon="4.77753">
        <ele>451.664</ele>
        <time>2023-06-14T17:27:01.000Z</time>
      </trkpt>
      <trkpt lat="45.83902" lon="4.77751">
        <ele>451.44513</ele>
        <time>2023-06-14T17:27:02.000Z</time>
      </trkpt>
      <trkpt lat="45.83905" lon="4.77751">
        <ele>451.26669</ele>
        <time>2023-06-14T17:27:03.000Z</time>
      </trkpt>
      <trkpt lat="45.83908" lon="4.77753">
        <ele>450.836</ele>
        <time>2023-06-14T17:27:05.000Z</time>
      </trkpt>
      <trkpt lat="45.8391" lon="4.77755">
        <ele>450.38242</ele>
        <time>2023-06-14T17:27:06.000Z</time>
      </trkpt>
      <trkpt lat="45.83912" lon="4.77756">
        <ele>449.86066</ele>
        <time>2023-06-14T17:27:07.000Z</time>
      </trkpt>
      <trkpt lat="45.83914" lon="4.77758">
        <ele>449.32657</ele>
        <time>2023-06-14T17:27:08.000Z</time>
      </trkpt>
      <trkpt lat="45.83916" lon="4.7776">
        <ele>448.84082</ele>
        <time>2023-06-14T17:27:09.000Z</time>
      </trkpt>
      <trkpt lat="45.83918" lon="4.77763">
        <ele>448.37323</ele>
        <time>2023-06-14T17:27:10.000Z</time>
      </trkpt>
      <trkpt lat="45.8392" lon="4.77765">
        <ele>447.91977</ele>
        <time>2023-06-14T17:27:11.000Z</time>
      </trkpt>
      <trkpt lat="45.83924" lon="4.77768">
        <ele>447.47711</ele>
        <time>2023-06-14T17:27:12.000Z</time>
      </trkpt>
      <trkpt lat="45.83928" lon="4.7777">
        <ele>446.9942</ele>
        <time>2023-06-14T17:27:13.000Z</time>
      </trkpt>
      <trkpt lat="45.83931" lon="4.77771">
        <ele>446.9165</ele>
        <time>2023-06-14T17:27:14.000Z</time>
      </trkpt>
      <trkpt lat="45.83933" lon="4.77773">
        <ele>446.74969</ele>
        <time>2023-06-14T17:27:15.000Z</time>
      </trkpt>
      <trkpt lat="45.83936" lon="4.77775">
        <ele>446.53671</ele>
        <time>2023-06-14T17:27:16.000Z</time>
      </trkpt>
      <trkpt lat="45.83939" lon="4.77776">
        <ele>446.29297</ele>
        <time>2023-06-14T17:27:17.000Z</time>
      </trkpt>
      <trkpt lat="45.83942" lon="4.77777">
        <ele>445.33755</ele>
        <time>2023-06-14T17:27:18.000Z</time>
      </trkpt>
      <trkpt lat="45.83945" lon="4.77778">
        <ele>444.47125</ele>
        <time>2023-06-14T17:27:19.000Z</time>
      </trkpt>
      <trkpt lat="45.83948" lon="4.77779">
        <ele>443.53134</ele>
        <time>2023-06-14T17:27:20.000Z</time>
      </trkpt>
      <trkpt lat="45.8395" lon="4.7778">
        <ele>443.10123</ele>
        <time>2023-06-14T17:27:21.000Z</time>
      </trkpt>
      <trkpt lat="45.83954" lon="4.77781">
        <ele>442.98492</ele>
        <time>2023-06-14T17:27:22.000Z</time>
      </trkpt>
      <trkpt lat="45.83957" lon="4.77781">
        <ele>443.00116</ele>
        <time>2023-06-14T17:27:23.000Z</time>
      </trkpt>
      <trkpt lat="45.8396" lon="4.77782">
        <ele>443.06024</ele>
        <time>2023-06-14T17:27:24.000Z</time>
      </trkpt>
      <trkpt lat="45.83963" lon="4.77783">
        <ele>443.39551</ele>
        <time>2023-06-14T17:27:25.000Z</time>
      </trkpt>
      <trkpt lat="45.83967" lon="4.77783">
        <ele>443.90787</ele>
        <time>2023-06-14T17:27:26.000Z</time>
      </trkpt>
      <trkpt lat="45.8397" lon="4.77783">
        <ele>444.23795</ele>
        <time>2023-06-14T17:27:27.000Z</time>
      </trkpt>
      <trkpt lat="45.83973" lon="4.77783">
        <ele>444.63223</ele>
        <time>2023-06-14T17:27:28.000Z</time>
      </trkpt>
      <trkpt lat="45.83976" lon="4.77783">
        <ele>444.94638</ele>
        <time>2023-06-14T17:27:29.000Z</time>
      </trkpt>
      <trkpt lat="45.83979" lon="4.77783">
        <ele>445.27948</ele>
        <time>2023-06-14T17:27:30.000Z</time>
      </trkpt>
      <trkpt lat="45.83982" lon="4.77784">
        <ele>445.64169</ele>
        <time>2023-06-14T17:27:31.000Z</time>
      </trkpt>
      <trkpt lat="45.83985" lon="4.77784">
        <ele>446.03558</ele>
        <time>2023-06-14T17:27:32.000Z</time>
      </trkpt>
      <trkpt lat="45.83988" lon="4.77784">
        <ele>446.45801</ele>
        <time>2023-06-14T17:27:33.000Z</time>
      </trkpt>
      <trkpt lat="45.83991" lon="4.77784">
        <ele>446.92749</ele>
        <time>2023-06-14T17:27:34.000Z</time>
      </trkpt>
      <trkpt lat="45.83994" lon="4.77784">
        <ele>447.42245</ele>
        <time>2023-06-14T17:27:35.000Z</time>
      </trkpt>
      <trkpt lat="45.83997" lon="4.77783">
        <ele>447.88519</ele>
        <time>2023-06-14T17:27:36.000Z</time>
      </trkpt>
      <trkpt lat="45.83999" lon="4.77783">
        <ele>448.42285</ele>
        <time>2023-06-14T17:27:37.000Z</time>
      </trkpt>
      <trkpt lat="45.84002" lon="4.77784">
        <ele>449.67993</ele>
        <time>2023-06-14T17:27:38.000Z</time>
      </trkpt>
      <trkpt lat="45.84005" lon="4.77785">
        <ele>450.85699</ele>
        <time>2023-06-14T17:27:39.000Z</time>
      </trkpt>
      <trkpt lat="45.84008" lon="4.77785">
        <ele>452.05762</ele>
        <time>2023-06-14T17:27:40.000Z</time>
      </trkpt>
      <trkpt lat="45.84011" lon="4.77786">
        <ele>452.71811</ele>
        <time>2023-06-14T17:27:41.000Z</time>
      </trkpt>
      <trkpt lat="45.84013" lon="4.77786">
        <ele>453.05981</ele>
        <time>2023-06-14T17:27:42.000Z</time>
      </trkpt>
      <trkpt lat="45.84016" lon="4.77787">
        <ele>453.31183</ele>
        <time>2023-06-14T17:27:43.000Z</time>
      </trkpt>
      <trkpt lat="45.84018" lon="4.77787">
        <ele>453.55362</ele>
        <time>2023-06-14T17:27:44.000Z</time>
      </trkpt>
      <trkpt lat="45.8402" lon="4.77787">
        <ele>453.62262</ele>
        <time>2023-06-14T17:27:45.000Z</time>
      </trkpt>
      <trkpt lat="45.84022" lon="4.77787">
        <ele>453.5415</ele>
        <time>2023-06-14T17:27:46.000Z</time>
      </trkpt>
      <trkpt lat="45.84026" lon="4.77786">
        <ele>453.66846</ele>
        <time>2023-06-14T17:27:48.000Z</time>
      </trkpt>
      <trkpt lat="45.84029" lon="4.77787">
        <ele>453.75067</ele>
        <time>2023-06-14T17:27:49.000Z</time>
      </trkpt>
      <trkpt lat="45.84032" lon="4.77787">
        <ele>454.05405</ele>
        <time>2023-06-14T17:27:51.000Z</time>
      </trkpt>
      <trkpt lat="45.84034" lon="4.77786">
        <ele>454.35806</ele>
        <time>2023-06-14T17:27:52.000Z</time>
      </trkpt>
      <trkpt lat="45.84037" lon="4.77785">
        <ele>454.86005</ele>
        <time>2023-06-14T17:27:54.000Z</time>
      </trkpt>
      <trkpt lat="45.84038" lon="4.77783">
        <ele>455.36273</ele>
        <time>2023-06-14T17:27:56.000Z</time>
      </trkpt>
      <trkpt lat="45.84039" lon="4.77781">
        <ele>455.9267</ele>
        <time>2023-06-14T17:28:07.000Z</time>
      </trkpt>
      <trkpt lat="45.84041" lon="4.77781">
        <ele>456.44791</ele>
        <time>2023-06-14T17:28:13.000Z</time>
      </trkpt>
      <trkpt lat="45.84043" lon="4.77782">
        <ele>456.99966</ele>
        <time>2023-06-14T17:28:17.000Z</time>
      </trkpt>
      <trkpt lat="45.84045" lon="4.77781">
        <ele>457.56622</ele>
        <time>2023-06-14T17:28:25.000Z</time>
      </trkpt>
      <trkpt lat="45.84047" lon="4.77784">
        <ele>458.11542</ele>
        <time>2023-06-14T17:28:28.000Z</time>
      </trkpt>
      <trkpt lat="45.84049" lon="4.77784">
        <ele>458.68936</ele>
        <time>2023-06-14T17:28:30.000Z</time>
      </trkpt>
      <trkpt lat="45.84051" lon="4.77782">
        <ele>459.25641</ele>
        <time>2023-06-14T17:28:32.000Z</time>
      </trkpt>
      <trkpt lat="45.84054" lon="4.77782">
        <ele>459.82675</ele>
        <time>2023-06-14T17:28:34.000Z</time>
      </trkpt>
      <trkpt lat="45.84056" lon="4.77783">
        <ele>460.41772</ele>
        <time>2023-06-14T17:28:36.000Z</time>
      </trkpt>
      <trkpt lat="45.84059" lon="4.7778">
        <ele>460.98999</ele>
        <time>2023-06-14T17:28:38.000Z</time>
      </trkpt>
      <trkpt lat="45.84061" lon="4.77777">
        <ele>461.62784</ele>
        <time>2023-06-14T17:28:40.000Z</time>
      </trkpt>
      <trkpt lat="45.84064" lon="4.77777">
        <ele>462.26514</ele>
        <time>2023-06-14T17:28:42.000Z</time>
      </trkpt>
      <trkpt lat="45.84066" lon="4.77776">
        <ele>462.92145</ele>
        <time>2023-06-14T17:28:43.000Z</time>
      </trkpt>
      <trkpt lat="45.84068" lon="4.77775">
        <ele>463.65591</ele>
        <time>2023-06-14T17:28:44.000Z</time>
      </trkpt>
      <trkpt lat="45.84069" lon="4.77773">
        <ele>464.37189</ele>
        <time>2023-06-14T17:28:45.000Z</time>
      </trkpt>
      <trkpt lat="45.84072" lon="4.7777">
        <ele>465.09683</ele>
        <time>2023-06-14T17:28:47.000Z</time>
      </trkpt>
      <trkpt lat="45.84074" lon="4.77768">
        <ele>465.70541</ele>
        <time>2023-06-14T17:28:48.000Z</time>
      </trkpt>
      <trkpt lat="45.84075" lon="4.77765">
        <ele>466.2901</ele>
        <time>2023-06-14T17:28:49.000Z</time>
      </trkpt>
      <trkpt lat="45.84077" lon="4.77762">
        <ele>466.66351</ele>
        <time>2023-06-14T17:28:50.000Z</time>
      </trkpt>
      <trkpt lat="45.84079" lon="4.77759">
        <ele>466.96811</ele>
        <time>2023-06-14T17:28:52.000Z</time>
      </trkpt>
      <trkpt lat="45.84081" lon="4.77756">
        <ele>467.23511</ele>
        <time>2023-06-14T17:28:54.000Z</time>
      </trkpt>
      <trkpt lat="45.84084" lon="4.77755">
        <ele>467.5499</ele>
        <time>2023-06-14T17:28:55.000Z</time>
      </trkpt>
      <trkpt lat="45.84086" lon="4.77753">
        <ele>467.83066</ele>
        <time>2023-06-14T17:28:56.000Z</time>
      </trkpt>
      <trkpt lat="45.84089" lon="4.77752">
        <ele>468.12247</ele>
        <time>2023-06-14T17:28:57.000Z</time>
      </trkpt>
      <trkpt lat="45.84091" lon="4.77752">
        <ele>468.38412</ele>
        <time>2023-06-14T17:28:58.000Z</time>
      </trkpt>
      <trkpt lat="45.84092" lon="4.77751">
        <ele>468.60611</ele>
        <time>2023-06-14T17:28:59.000Z</time>
      </trkpt>
      <trkpt lat="45.84094" lon="4.77751">
        <ele>468.84601</ele>
        <time>2023-06-14T17:29:00.000Z</time>
      </trkpt>
      <trkpt lat="45.84098" lon="4.77751">
        <ele>468.90982</ele>
        <time>2023-06-14T17:29:02.000Z</time>
      </trkpt>
      <trkpt lat="45.84101" lon="4.7775">
        <ele>468.95197</ele>
        <time>2023-06-14T17:29:04.000Z</time>
      </trkpt>
      <trkpt lat="45.84103" lon="4.7775">
        <ele>468.89111</ele>
        <time>2023-06-14T17:29:05.000Z</time>
      </trkpt>
      <trkpt lat="45.84106" lon="4.77751">
        <ele>468.68619</ele>
        <time>2023-06-14T17:29:06.000Z</time>
      </trkpt>
      <trkpt lat="45.84109" lon="4.77754">
        <ele>468.46088</ele>
        <time>2023-06-14T17:29:08.000Z</time>
      </trkpt>
      <trkpt lat="45.8411" lon="4.77756">
        <ele>468.22552</ele>
        <time>2023-06-14T17:29:09.000Z</time>
      </trkpt>
      <trkpt lat="45.84112" lon="4.77757">
        <ele>467.96613</ele>
        <time>2023-06-14T17:29:10.000Z</time>
      </trkpt>
      <trkpt lat="45.84113" lon="4.7776">
        <ele>467.73486</ele>
        <time>2023-06-14T17:29:11.000Z</time>
      </trkpt>
      <trkpt lat="45.84115" lon="4.77762">
        <ele>467.50595</ele>
        <time>2023-06-14T17:29:12.000Z</time>
      </trkpt>
      <trkpt lat="45.84116" lon="4.77766">
        <ele>467.23065</ele>
        <time>2023-06-14T17:29:14.000Z</time>
      </trkpt>
      <trkpt lat="45.84117" lon="4.77768">
        <ele>467.13013</ele>
        <time>2023-06-14T17:29:15.000Z</time>
      </trkpt>
      <trkpt lat="45.84118" lon="4.77771">
        <ele>466.97055</ele>
        <time>2023-06-14T17:29:16.000Z</time>
      </trkpt>
      <trkpt lat="45.84119" lon="4.77773">
        <ele>466.84341</ele>
        <time>2023-06-14T17:29:17.000Z</time>
      </trkpt>
      <trkpt lat="45.8412" lon="4.77776">
        <ele>466.67026</ele>
        <time>2023-06-14T17:29:18.000Z</time>
      </trkpt>
      <trkpt lat="45.84121" lon="4.77778">
        <ele>466.46948</ele>
        <time>2023-06-14T17:29:20.000Z</time>
      </trkpt>
      <trkpt lat="45.84123" lon="4.77777">
        <ele>466.31314</ele>
        <time>2023-06-14T17:29:23.000Z</time>
      </trkpt>
      <trkpt lat="45.84125" lon="4.77776">
        <ele>466.16107</ele>
        <time>2023-06-14T17:29:28.000Z</time>
      </trkpt>
      <trkpt lat="45.84127" lon="4.77776">
        <ele>466.11774</ele>
        <time>2023-06-14T17:29:33.000Z</time>
      </trkpt>
      <trkpt lat="45.84125" lon="4.77776">
        <ele>466.08643</ele>
        <time>2023-06-14T17:30:03.000Z</time>
      </trkpt>
      <trkpt lat="45.84123" lon="4.77778">
        <ele>466.04108</ele>
        <time>2023-06-14T17:30:04.000Z</time>
      </trkpt>
      <trkpt lat="45.84123" lon="4.77782">
        <ele>466.18018</ele>
        <time>2023-06-14T17:30:06.000Z</time>
      </trkpt>
      <trkpt lat="45.84126" lon="4.77783">
        <ele>466.33731</ele>
        <time>2023-06-14T17:30:07.000Z</time>
      </trkpt>
      <trkpt lat="45.84128" lon="4.77782">
        <ele>466.64325</ele>
        <time>2023-06-14T17:30:08.000Z</time>
      </trkpt>
      <trkpt lat="45.8413" lon="4.77781">
        <ele>466.99796</ele>
        <time>2023-06-14T17:30:09.000Z</time>
      </trkpt>
      <trkpt lat="45.84133" lon="4.7778">
        <ele>467.35419</ele>
        <time>2023-06-14T17:30:11.000Z</time>
      </trkpt>
      <trkpt lat="45.84137" lon="4.7778">
        <ele>467.68427</ele>
        <time>2023-06-14T17:30:13.000Z</time>
      </trkpt>
      <trkpt lat="45.84138" lon="4.77779">
        <ele>467.96869</ele>
        <time>2023-06-14T17:30:14.000Z</time>
      </trkpt>
      <trkpt lat="45.84141" lon="4.77777">
        <ele>468.46136</ele>
        <time>2023-06-14T17:30:15.000Z</time>
      </trkpt>
      <trkpt lat="45.84143" lon="4.77775">
        <ele>468.92242</ele>
        <time>2023-06-14T17:30:16.000Z</time>
      </trkpt>
      <trkpt lat="45.84145" lon="4.77772">
        <ele>469.36362</ele>
        <time>2023-06-14T17:30:17.000Z</time>
      </trkpt>
      <trkpt lat="45.84147" lon="4.7777">
        <ele>469.53629</ele>
        <time>2023-06-14T17:30:18.000Z</time>
      </trkpt>
      <trkpt lat="45.84149" lon="4.77768">
        <ele>469.86142</ele>
        <time>2023-06-14T17:30:19.000Z</time>
      </trkpt>
      <trkpt lat="45.8415" lon="4.77766">
        <ele>470.21909</ele>
        <time>2023-06-14T17:30:20.000Z</time>
      </trkpt>
      <trkpt lat="45.84152" lon="4.77765">
        <ele>470.57968</ele>
        <time>2023-06-14T17:30:21.000Z</time>
      </trkpt>
      <trkpt lat="45.84154" lon="4.77763">
        <ele>470.76187</ele>
        <time>2023-06-14T17:30:23.000Z</time>
      </trkpt>
      <trkpt lat="45.84158" lon="4.77762">
        <ele>471.11157</ele>
        <time>2023-06-14T17:30:25.000Z</time>
      </trkpt>
      <trkpt lat="45.84161" lon="4.7776">
        <ele>471.66382</ele>
        <time>2023-06-14T17:30:27.000Z</time>
      </trkpt>
      <trkpt lat="45.84163" lon="4.77758">
        <ele>472.16342</ele>
        <time>2023-06-14T17:30:28.000Z</time>
      </trkpt>
      <trkpt lat="45.84166" lon="4.77757">
        <ele>472.54535</ele>
        <time>2023-06-14T17:30:29.000Z</time>
      </trkpt>
      <trkpt lat="45.84169" lon="4.77756">
        <ele>472.87695</ele>
        <time>2023-06-14T17:30:30.000Z</time>
      </trkpt>
      <trkpt lat="45.84171" lon="4.77756">
        <ele>473.24698</ele>
        <time>2023-06-14T17:30:31.000Z</time>
      </trkpt>
      <trkpt lat="45.84173" lon="4.77755">
        <ele>473.53433</ele>
        <time>2023-06-14T17:30:32.000Z</time>
      </trkpt>
      <trkpt lat="45.84175" lon="4.77754">
        <ele>473.75464</ele>
        <time>2023-06-14T17:30:33.000Z</time>
      </trkpt>
      <trkpt lat="45.84177" lon="4.77754">
        <ele>473.92593</ele>
        <time>2023-06-14T17:30:34.000Z</time>
      </trkpt>
      <trkpt lat="45.8418" lon="4.77754">
        <ele>474.14072</ele>
        <time>2023-06-14T17:30:36.000Z</time>
      </trkpt>
      <trkpt lat="45.84183" lon="4.77755">
        <ele>474.2272</ele>
        <time>2023-06-14T17:30:37.000Z</time>
      </trkpt>
      <trkpt lat="45.84185" lon="4.77755">
        <ele>474.30859</ele>
        <time>2023-06-14T17:30:38.000Z</time>
      </trkpt>
      <trkpt lat="45.84188" lon="4.77755">
        <ele>474.1774</ele>
        <time>2023-06-14T17:30:39.000Z</time>
      </trkpt>
      <trkpt lat="45.84191" lon="4.77754">
        <ele>474.10211</ele>
        <time>2023-06-14T17:30:40.000Z</time>
      </trkpt>
      <trkpt lat="45.84194" lon="4.77754">
        <ele>473.96039</ele>
        <time>2023-06-14T17:30:41.000Z</time>
      </trkpt>
      <trkpt lat="45.84196" lon="4.77754">
        <ele>474.12491</ele>
        <time>2023-06-14T17:30:42.000Z</time>
      </trkpt>
      <trkpt lat="45.84199" lon="4.77753">
        <ele>474.10059</ele>
        <time>2023-06-14T17:30:44.000Z</time>
      </trkpt>
      <trkpt lat="45.84202" lon="4.77752">
        <ele>474.09344</ele>
        <time>2023-06-14T17:30:45.000Z</time>
      </trkpt>
      <trkpt lat="45.84204" lon="4.77752">
        <ele>474.10294</ele>
        <time>2023-06-14T17:30:46.000Z</time>
      </trkpt>
      <trkpt lat="45.84207" lon="4.77752">
        <ele>474.37262</ele>
        <time>2023-06-14T17:30:47.000Z</time>
      </trkpt>
      <trkpt lat="45.84209" lon="4.77752">
        <ele>474.47281</ele>
        <time>2023-06-14T17:30:48.000Z</time>
      </trkpt>
      <trkpt lat="45.84211" lon="4.77753">
        <ele>474.46136</ele>
        <time>2023-06-14T17:30:49.000Z</time>
      </trkpt>
      <trkpt lat="45.84213" lon="4.77754">
        <ele>474.42181</ele>
        <time>2023-06-14T17:30:50.000Z</time>
      </trkpt>
      <trkpt lat="45.84215" lon="4.77754">
        <ele>474.55658</ele>
        <time>2023-06-14T17:30:51.000Z</time>
      </trkpt>
      <trkpt lat="45.84217" lon="4.77755">
        <ele>474.72061</ele>
        <time>2023-06-14T17:30:52.000Z</time>
      </trkpt>
      <trkpt lat="45.84219" lon="4.77755">
        <ele>474.80014</ele>
        <time>2023-06-14T17:30:53.000Z</time>
      </trkpt>
      <trkpt lat="45.84222" lon="4.77757">
        <ele>474.88812</ele>
        <time>2023-06-14T17:30:55.000Z</time>
      </trkpt>
      <trkpt lat="45.84224" lon="4.77758">
        <ele>474.93277</ele>
        <time>2023-06-14T17:30:56.000Z</time>
      </trkpt>
      <trkpt lat="45.84226" lon="4.77759">
        <ele>475.05884</ele>
        <time>2023-06-14T17:30:57.000Z</time>
      </trkpt>
      <trkpt lat="45.84229" lon="4.77759">
        <ele>475.07056</ele>
        <time>2023-06-14T17:30:58.000Z</time>
      </trkpt>
      <trkpt lat="45.84231" lon="4.77756">
        <ele>475.54742</ele>
        <time>2023-06-14T17:31:00.000Z</time>
      </trkpt>
      <trkpt lat="45.84232" lon="4.77754">
        <ele>476.21201</ele>
        <time>2023-06-14T17:31:01.000Z</time>
      </trkpt>
      <trkpt lat="45.84234" lon="4.77752">
        <ele>476.92767</ele>
        <time>2023-06-14T17:31:02.000Z</time>
      </trkpt>
      <trkpt lat="45.84236" lon="4.77751">
        <ele>477.61435</ele>
        <time>2023-06-14T17:31:03.000Z</time>
      </trkpt>
      <trkpt lat="45.84238" lon="4.7775">
        <ele>478.39142</ele>
        <time>2023-06-14T17:31:04.000Z</time>
      </trkpt>
      <trkpt lat="45.8424" lon="4.77749">
        <ele>478.96362</ele>
        <time>2023-06-14T17:31:05.000Z</time>
      </trkpt>
      <trkpt lat="45.84242" lon="4.77747">
        <ele>479.64111</ele>
        <time>2023-06-14T17:31:06.000Z</time>
      </trkpt>
      <trkpt lat="45.84244" lon="4.77746">
        <ele>480.28448</ele>
        <time>2023-06-14T17:31:07.000Z</time>
      </trkpt>
      <trkpt lat="45.84246" lon="4.77745">
        <ele>480.97412</ele>
        <time>2023-06-14T17:31:08.000Z</time>
      </trkpt>
      <trkpt lat="45.84248" lon="4.77744">
        <ele>481.57867</ele>
        <time>2023-06-14T17:31:09.000Z</time>
      </trkpt>
      <trkpt lat="45.84251" lon="4.77743">
        <ele>482.15366</ele>
        <time>2023-06-14T17:31:10.000Z</time>
      </trkpt>
      <trkpt lat="45.84253" lon="4.77741">
        <ele>483.02573</ele>
        <time>2023-06-14T17:31:11.000Z</time>
      </trkpt>
      <trkpt lat="45.84256" lon="4.7774">
        <ele>483.96426</ele>
        <time>2023-06-14T17:31:13.000Z</time>
      </trkpt>
      <trkpt lat="45.84259" lon="4.77739">
        <ele>484.80371</ele>
        <time>2023-06-14T17:31:14.000Z</time>
      </trkpt>
      <trkpt lat="45.84261" lon="4.77738">
        <ele>485.68539</ele>
        <time>2023-06-14T17:31:15.000Z</time>
      </trkpt>
      <trkpt lat="45.84265" lon="4.77737">
        <ele>486.67807</ele>
        <time>2023-06-14T17:31:17.000Z</time>
      </trkpt>
      <trkpt lat="45.84267" lon="4.77735">
        <ele>487.76685</ele>
        <time>2023-06-14T17:31:18.000Z</time>
      </trkpt>
      <trkpt lat="45.84269" lon="4.77734">
        <ele>488.90973</ele>
        <time>2023-06-14T17:31:19.000Z</time>
      </trkpt>
      <trkpt lat="45.84271" lon="4.77733">
        <ele>489.99503</ele>
        <time>2023-06-14T17:31:20.000Z</time>
      </trkpt>
      <trkpt lat="45.84274" lon="4.77733">
        <ele>491.16562</ele>
        <time>2023-06-14T17:31:21.000Z</time>
      </trkpt>
      <trkpt lat="45.84276" lon="4.77734">
        <ele>491.99829</ele>
        <time>2023-06-14T17:31:22.000Z</time>
      </trkpt>
      <trkpt lat="45.84279" lon="4.77734">
        <ele>492.69156</ele>
        <time>2023-06-14T17:31:23.000Z</time>
      </trkpt>
      <trkpt lat="45.84281" lon="4.77734">
        <ele>492.86075</ele>
        <time>2023-06-14T17:31:24.000Z</time>
      </trkpt>
      <trkpt lat="45.84283" lon="4.77734">
        <ele>493.05215</ele>
        <time>2023-06-14T17:31:25.000Z</time>
      </trkpt>
      <trkpt lat="45.84286" lon="4.77733">
        <ele>493.18857</ele>
        <time>2023-06-14T17:31:26.000Z</time>
      </trkpt>
      <trkpt lat="45.84288" lon="4.77732">
        <ele>493.21231</ele>
        <time>2023-06-14T17:31:27.000Z</time>
      </trkpt>
      <trkpt lat="45.84291" lon="4.77731">
        <ele>493.12354</ele>
        <time>2023-06-14T17:31:29.000Z</time>
      </trkpt>
      <trkpt lat="45.84293" lon="4.7773">
        <ele>492.93491</ele>
        <time>2023-06-14T17:31:30.000Z</time>
      </trkpt>
      <trkpt lat="45.84295" lon="4.77729">
        <ele>492.7431</ele>
        <time>2023-06-14T17:31:31.000Z</time>
      </trkpt>
      <trkpt lat="45.84297" lon="4.77727">
        <ele>492.57379</ele>
        <time>2023-06-14T17:31:32.000Z</time>
      </trkpt>
      <trkpt lat="45.84301" lon="4.77725">
        <ele>493.03052</ele>
        <time>2023-06-14T17:31:34.000Z</time>
      </trkpt>
      <trkpt lat="45.84304" lon="4.77723">
        <ele>493.3891</ele>
        <time>2023-06-14T17:31:35.000Z</time>
      </trkpt>
      <trkpt lat="45.84306" lon="4.77722">
        <ele>493.70685</ele>
        <time>2023-06-14T17:31:36.000Z</time>
      </trkpt>
      <trkpt lat="45.8431" lon="4.77719">
        <ele>494.008</ele>
        <time>2023-06-14T17:31:38.000Z</time>
      </trkpt>
      <trkpt lat="45.84313" lon="4.77718">
        <ele>494.3111</ele>
        <time>2023-06-14T17:31:39.000Z</time>
      </trkpt>
      <trkpt lat="45.84316" lon="4.77717">
        <ele>494.51678</ele>
        <time>2023-06-14T17:31:40.000Z</time>
      </trkpt>
      <trkpt lat="45.84319" lon="4.77716">
        <ele>494.64981</ele>
        <time>2023-06-14T17:31:41.000Z</time>
      </trkpt>
      <trkpt lat="45.84322" lon="4.77715">
        <ele>494.75375</ele>
        <time>2023-06-14T17:31:42.000Z</time>
      </trkpt>
      <trkpt lat="45.84324" lon="4.77715">
        <ele>494.94644</ele>
        <time>2023-06-14T17:31:43.000Z</time>
      </trkpt>
      <trkpt lat="45.84328" lon="4.77715">
        <ele>495.06723</ele>
        <time>2023-06-14T17:31:45.000Z</time>
      </trkpt>
      <trkpt lat="45.8433" lon="4.77715">
        <ele>495.13834</ele>
        <time>2023-06-14T17:31:46.000Z</time>
      </trkpt>
      <trkpt lat="45.84332" lon="4.77714">
        <ele>495.33527</ele>
        <time>2023-06-14T17:31:47.000Z</time>
      </trkpt>
      <trkpt lat="45.84335" lon="4.77714">
        <ele>496.03314</ele>
        <time>2023-06-14T17:31:48.000Z</time>
      </trkpt>
      <trkpt lat="45.84337" lon="4.77714">
        <ele>496.80267</ele>
        <time>2023-06-14T17:31:49.000Z</time>
      </trkpt>
      <trkpt lat="45.8434" lon="4.77713">
        <ele>497.71783</ele>
        <time>2023-06-14T17:31:51.000Z</time>
      </trkpt>
      <trkpt lat="45.84342" lon="4.77711">
        <ele>498.75723</ele>
        <time>2023-06-14T17:31:52.000Z</time>
      </trkpt>
      <trkpt lat="45.84344" lon="4.77709">
        <ele>499.94989</ele>
        <time>2023-06-14T17:31:53.000Z</time>
      </trkpt>
      <trkpt lat="45.84347" lon="4.77707">
        <ele>501.22006</ele>
        <time>2023-06-14T17:31:54.000Z</time>
      </trkpt>
      <trkpt lat="45.84349" lon="4.77706">
        <ele>502.45621</ele>
        <time>2023-06-14T17:31:55.000Z</time>
      </trkpt>
      <trkpt lat="45.84351" lon="4.77705">
        <ele>503.67627</ele>
        <time>2023-06-14T17:31:56.000Z</time>
      </trkpt>
      <trkpt lat="45.84354" lon="4.77704">
        <ele>504.27921</ele>
        <time>2023-06-14T17:31:57.000Z</time>
      </trkpt>
      <trkpt lat="45.84356" lon="4.77703">
        <ele>504.62207</ele>
        <time>2023-06-14T17:31:58.000Z</time>
      </trkpt>
      <trkpt lat="45.84358" lon="4.77701">
        <ele>504.93701</ele>
        <time>2023-06-14T17:31:59.000Z</time>
      </trkpt>
      <trkpt lat="45.8436" lon="4.777">
        <ele>505.44659</ele>
        <time>2023-06-14T17:32:01.000Z</time>
      </trkpt>
      <trkpt lat="45.84364" lon="4.77697">
        <ele>505.9834</ele>
        <time>2023-06-14T17:32:03.000Z</time>
      </trkpt>
      <trkpt lat="45.84366" lon="4.77696">
        <ele>506.59698</ele>
        <time>2023-06-14T17:32:04.000Z</time>
      </trkpt>
      <trkpt lat="45.84368" lon="4.77696">
        <ele>507.17242</ele>
        <time>2023-06-14T17:32:05.000Z</time>
      </trkpt>
      <trkpt lat="45.8437" lon="4.77695">
        <ele>507.78287</ele>
        <time>2023-06-14T17:32:06.000Z</time>
      </trkpt>
      <trkpt lat="45.84373" lon="4.77694">
        <ele>508.30331</ele>
        <time>2023-06-14T17:32:07.000Z</time>
      </trkpt>
      <trkpt lat="45.84375" lon="4.77693">
        <ele>508.71973</ele>
        <time>2023-06-14T17:32:09.000Z</time>
      </trkpt>
      <trkpt lat="45.84377" lon="4.77693">
        <ele>509.24274</ele>
        <time>2023-06-14T17:32:10.000Z</time>
      </trkpt>
      <trkpt lat="45.84379" lon="4.77691">
        <ele>509.77554</ele>
        <time>2023-06-14T17:32:11.000Z</time>
      </trkpt>
      <trkpt lat="45.84381" lon="4.7769">
        <ele>510.30582</ele>
        <time>2023-06-14T17:32:12.000Z</time>
      </trkpt>
      <trkpt lat="45.84383" lon="4.77689">
        <ele>510.78091</ele>
        <time>2023-06-14T17:32:13.000Z</time>
      </trkpt>
      <trkpt lat="45.84387" lon="4.77688">
        <ele>511.24155</ele>
        <time>2023-06-14T17:32:15.000Z</time>
      </trkpt>
      <trkpt lat="45.84389" lon="4.77686">
        <ele>511.72144</ele>
        <time>2023-06-14T17:32:16.000Z</time>
      </trkpt>
      <trkpt lat="45.84391" lon="4.77685">
        <ele>512.15198</ele>
        <time>2023-06-14T17:32:17.000Z</time>
      </trkpt>
      <trkpt lat="45.84393" lon="4.77683">
        <ele>512.63757</ele>
        <time>2023-06-14T17:32:18.000Z</time>
      </trkpt>
      <trkpt lat="45.84396" lon="4.77681">
        <ele>513.10022</ele>
        <time>2023-06-14T17:32:19.000Z</time>
      </trkpt>
      <trkpt lat="45.84398" lon="4.77679">
        <ele>513.5611</ele>
        <time>2023-06-14T17:32:20.000Z</time>
      </trkpt>
      <trkpt lat="45.844" lon="4.77677">
        <ele>513.95154</ele>
        <time>2023-06-14T17:32:21.000Z</time>
      </trkpt>
      <trkpt lat="45.84403" lon="4.77676">
        <ele>514.33649</ele>
        <time>2023-06-14T17:32:22.000Z</time>
      </trkpt>
      <trkpt lat="45.84405" lon="4.77677">
        <ele>514.73157</ele>
        <time>2023-06-14T17:32:23.000Z</time>
      </trkpt>
      <trkpt lat="45.84407" lon="4.77677">
        <ele>514.96191</ele>
        <time>2023-06-14T17:32:24.000Z</time>
      </trkpt>
      <trkpt lat="45.84409" lon="4.77677">
        <ele>515.15674</ele>
        <time>2023-06-14T17:32:25.000Z</time>
      </trkpt>
      <trkpt lat="45.84412" lon="4.77676">
        <ele>515.27869</ele>
        <time>2023-06-14T17:32:26.000Z</time>
      </trkpt>
      <trkpt lat="45.84414" lon="4.77675">
        <ele>515.46661</ele>
        <time>2023-06-14T17:32:27.000Z</time>
      </trkpt>
      <trkpt lat="45.84417" lon="4.77674">
        <ele>514.90588</ele>
        <time>2023-06-14T17:32:28.000Z</time>
      </trkpt>
      <trkpt lat="45.8442" lon="4.77673">
        <ele>514.43677</ele>
        <time>2023-06-14T17:32:29.000Z</time>
      </trkpt>
      <trkpt lat="45.84422" lon="4.77671">
        <ele>514.14331</ele>
        <time>2023-06-14T17:32:30.000Z</time>
      </trkpt>
      <trkpt lat="45.84424" lon="4.77669">
        <ele>513.86548</ele>
        <time>2023-06-14T17:32:31.000Z</time>
      </trkpt>
      <trkpt lat="45.84426" lon="4.77667">
        <ele>513.46936</ele>
        <time>2023-06-14T17:32:32.000Z</time>
      </trkpt>
      <trkpt lat="45.84428" lon="4.77664">
        <ele>513.07758</ele>
        <time>2023-06-14T17:32:33.000Z</time>
      </trkpt>
      <trkpt lat="45.8443" lon="4.77663">
        <ele>512.68799</ele>
        <time>2023-06-14T17:32:34.000Z</time>
      </trkpt>
      <trkpt lat="45.84433" lon="4.77661">
        <ele>512.14478</ele>
        <time>2023-06-14T17:32:35.000Z</time>
      </trkpt>
      <trkpt lat="45.84436" lon="4.7766">
        <ele>511.5567</ele>
        <time>2023-06-14T17:32:36.000Z</time>
      </trkpt>
      <trkpt lat="45.84439" lon="4.77659">
        <ele>511.21646</ele>
        <time>2023-06-14T17:32:37.000Z</time>
      </trkpt>
      <trkpt lat="45.84442" lon="4.77659">
        <ele>510.86053</ele>
        <time>2023-06-14T17:32:38.000Z</time>
      </trkpt>
      <trkpt lat="45.84445" lon="4.77658">
        <ele>510.53214</ele>
        <time>2023-06-14T17:32:39.000Z</time>
      </trkpt>
      <trkpt lat="45.84448" lon="4.77657">
        <ele>510.129</ele>
        <time>2023-06-14T17:32:40.000Z</time>
      </trkpt>
      <trkpt lat="45.8445" lon="4.77657">
        <ele>510.15765</ele>
        <time>2023-06-14T17:32:41.000Z</time>
      </trkpt>
      <trkpt lat="45.84453" lon="4.77656">
        <ele>510.21909</ele>
        <time>2023-06-14T17:32:42.000Z</time>
      </trkpt>
      <trkpt lat="45.84456" lon="4.77654">
        <ele>510.48505</ele>
        <time>2023-06-14T17:32:43.000Z</time>
      </trkpt>
      <trkpt lat="45.84459" lon="4.77652">
        <ele>510.73541</ele>
        <time>2023-06-14T17:32:44.000Z</time>
      </trkpt>
      <trkpt lat="45.84461" lon="4.7765">
        <ele>511.07089</ele>
        <time>2023-06-14T17:32:45.000Z</time>
      </trkpt>
      <trkpt lat="45.84463" lon="4.77649">
        <ele>511.40933</ele>
        <time>2023-06-14T17:32:46.000Z</time>
      </trkpt>
      <trkpt lat="45.84465" lon="4.77648">
        <ele>511.82343</ele>
        <time>2023-06-14T17:32:47.000Z</time>
      </trkpt>
      <trkpt lat="45.84466" lon="4.77646">
        <ele>512.98718</ele>
        <time>2023-06-14T17:32:48.000Z</time>
      </trkpt>
      <trkpt lat="45.84469" lon="4.77644">
        <ele>514.15137</ele>
        <time>2023-06-14T17:32:49.000Z</time>
      </trkpt>
      <trkpt lat="45.84471" lon="4.77643">
        <ele>515.33398</ele>
        <time>2023-06-14T17:32:50.000Z</time>
      </trkpt>
      <trkpt lat="45.84473" lon="4.77642">
        <ele>516.53918</ele>
        <time>2023-06-14T17:32:51.000Z</time>
      </trkpt>
      <trkpt lat="45.84475" lon="4.77641">
        <ele>517.72174</ele>
        <time>2023-06-14T17:32:52.000Z</time>
      </trkpt>
      <trkpt lat="45.84478" lon="4.7764">
        <ele>518.49176</ele>
        <time>2023-06-14T17:32:53.000Z</time>
      </trkpt>
      <trkpt lat="45.84481" lon="4.77639">
        <ele>519.33228</ele>
        <time>2023-06-14T17:32:55.000Z</time>
      </trkpt>
      <trkpt lat="45.84483" lon="4.77638">
        <ele>520.24109</ele>
        <time>2023-06-14T17:32:56.000Z</time>
      </trkpt>
      <trkpt lat="45.84484" lon="4.77637">
        <ele>521.17072</ele>
        <time>2023-06-14T17:32:57.000Z</time>
      </trkpt>
      <trkpt lat="45.84487" lon="4.77635">
        <ele>521.84857</ele>
        <time>2023-06-14T17:32:58.000Z</time>
      </trkpt>
      <trkpt lat="45.84489" lon="4.77634">
        <ele>522.51257</ele>
        <time>2023-06-14T17:32:59.000Z</time>
      </trkpt>
      <trkpt lat="45.84492" lon="4.77634">
        <ele>523.16327</ele>
        <time>2023-06-14T17:33:00.000Z</time>
      </trkpt>
      <trkpt lat="45.84495" lon="4.77633">
        <ele>523.9364</ele>
        <time>2023-06-14T17:33:02.000Z</time>
      </trkpt>
      <trkpt lat="45.84498" lon="4.77631">
        <ele>524.30096</ele>
        <time>2023-06-14T17:33:03.000Z</time>
      </trkpt>
      <trkpt lat="45.84501" lon="4.7763">
        <ele>524.6015</ele>
        <time>2023-06-14T17:33:04.000Z</time>
      </trkpt>
      <trkpt lat="45.84503" lon="4.77629">
        <ele>524.64233</ele>
        <time>2023-06-14T17:33:05.000Z</time>
      </trkpt>
      <trkpt lat="45.84505" lon="4.77627">
        <ele>524.71033</ele>
        <time>2023-06-14T17:33:06.000Z</time>
      </trkpt>
      <trkpt lat="45.84507" lon="4.77626">
        <ele>524.74353</ele>
        <time>2023-06-14T17:33:07.000Z</time>
      </trkpt>
      <trkpt lat="45.84508" lon="4.77624">
        <ele>524.79462</ele>
        <time>2023-06-14T17:33:08.000Z</time>
      </trkpt>
      <trkpt lat="45.8451" lon="4.77623">
        <ele>523.45813</ele>
        <time>2023-06-14T17:33:09.000Z</time>
      </trkpt>
      <trkpt lat="45.84512" lon="4.77621">
        <ele>521.92151</ele>
        <time>2023-06-14T17:33:11.000Z</time>
      </trkpt>
      <trkpt lat="45.84514" lon="4.7762">
        <ele>520.43713</ele>
        <time>2023-06-14T17:33:12.000Z</time>
      </trkpt>
      <trkpt lat="45.84517" lon="4.77619">
        <ele>519.70837</ele>
        <time>2023-06-14T17:33:13.000Z</time>
      </trkpt>
      <trkpt lat="45.84519" lon="4.77617">
        <ele>519.45563</ele>
        <time>2023-06-14T17:33:14.000Z</time>
      </trkpt>
      <trkpt lat="45.84521" lon="4.77616">
        <ele>519.24426</ele>
        <time>2023-06-14T17:33:15.000Z</time>
      </trkpt>
      <trkpt lat="45.84523" lon="4.77615">
        <ele>519.73755</ele>
        <time>2023-06-14T17:33:16.000Z</time>
      </trkpt>
      <trkpt lat="45.84525" lon="4.77613">
        <ele>520.30896</ele>
        <time>2023-06-14T17:33:17.000Z</time>
      </trkpt>
      <trkpt lat="45.84527" lon="4.77612">
        <ele>520.97278</ele>
        <time>2023-06-14T17:33:18.000Z</time>
      </trkpt>
      <trkpt lat="45.84529" lon="4.7761">
        <ele>521.64587</ele>
        <time>2023-06-14T17:33:19.000Z</time>
      </trkpt>
      <trkpt lat="45.84532" lon="4.7761">
        <ele>522.31604</ele>
        <time>2023-06-14T17:33:20.000Z</time>
      </trkpt>
      <trkpt lat="45.84534" lon="4.77609">
        <ele>523.03839</ele>
        <time>2023-06-14T17:33:21.000Z</time>
      </trkpt>
      <trkpt lat="45.84537" lon="4.77607">
        <ele>523.74969</ele>
        <time>2023-06-14T17:33:22.000Z</time>
      </trkpt>
      <trkpt lat="45.84539" lon="4.77606">
        <ele>524.43994</ele>
        <time>2023-06-14T17:33:23.000Z</time>
      </trkpt>
      <trkpt lat="45.84542" lon="4.77604">
        <ele>525.15369</ele>
        <time>2023-06-14T17:33:24.000Z</time>
      </trkpt>
      <trkpt lat="45.84544" lon="4.77603">
        <ele>525.85413</ele>
        <time>2023-06-14T17:33:25.000Z</time>
      </trkpt>
      <trkpt lat="45.84546" lon="4.77602">
        <ele>526.61493</ele>
        <time>2023-06-14T17:33:26.000Z</time>
      </trkpt>
      <trkpt lat="45.84548" lon="4.77601">
        <ele>527.36145</ele>
        <time>2023-06-14T17:33:27.000Z</time>
      </trkpt>
      <trkpt lat="45.8455" lon="4.77599">
        <ele>528.07147</ele>
        <time>2023-06-14T17:33:28.000Z</time>
      </trkpt>
      <trkpt lat="45.84552" lon="4.77598">
        <ele>528.78967</ele>
        <time>2023-06-14T17:33:29.000Z</time>
      </trkpt>
      <trkpt lat="45.84554" lon="4.77597">
        <ele>530.81097</ele>
        <time>2023-06-14T17:33:30.000Z</time>
      </trkpt>
      <trkpt lat="45.84556" lon="4.77596">
        <ele>533.01379</ele>
        <time>2023-06-14T17:33:31.000Z</time>
      </trkpt>
      <trkpt lat="45.84558" lon="4.77595">
        <ele>535.06317</ele>
        <time>2023-06-14T17:33:32.000Z</time>
      </trkpt>
      <trkpt lat="45.8456" lon="4.77595">
        <ele>536.34613</ele>
        <time>2023-06-14T17:33:33.000Z</time>
      </trkpt>
      <trkpt lat="45.84564" lon="4.77593">
        <ele>537.1297</ele>
        <time>2023-06-14T17:33:35.000Z</time>
      </trkpt>
      <trkpt lat="45.84566" lon="4.77592">
        <ele>537.90784</ele>
        <time>2023-06-14T17:33:36.000Z</time>
      </trkpt>
      <trkpt lat="45.84568" lon="4.77591">
        <ele>538.36243</ele>
        <time>2023-06-14T17:33:37.000Z</time>
      </trkpt>
      <trkpt lat="45.8457" lon="4.7759">
        <ele>538.66711</ele>
        <time>2023-06-14T17:33:38.000Z</time>
      </trkpt>
      <trkpt lat="45.84572" lon="4.77589">
        <ele>538.86169</ele>
        <time>2023-06-14T17:33:39.000Z</time>
      </trkpt>
      <trkpt lat="45.84574" lon="4.77589">
        <ele>539.02551</ele>
        <time>2023-06-14T17:33:40.000Z</time>
      </trkpt>
      <trkpt lat="45.84576" lon="4.77588">
        <ele>539.18677</ele>
        <time>2023-06-14T17:33:41.000Z</time>
      </trkpt>
      <trkpt lat="45.84579" lon="4.77587">
        <ele>539.29279</ele>
        <time>2023-06-14T17:33:42.000Z</time>
      </trkpt>
      <trkpt lat="45.84581" lon="4.77586">
        <ele>539.39124</ele>
        <time>2023-06-14T17:33:43.000Z</time>
      </trkpt>
      <trkpt lat="45.84584" lon="4.77585">
        <ele>539.44061</ele>
        <time>2023-06-14T17:33:44.000Z</time>
      </trkpt>
      <trkpt lat="45.84586" lon="4.77584">
        <ele>539.53223</ele>
        <time>2023-06-14T17:33:45.000Z</time>
      </trkpt>
      <trkpt lat="45.84589" lon="4.77582">
        <ele>539.64246</ele>
        <time>2023-06-14T17:33:46.000Z</time>
      </trkpt>
      <trkpt lat="45.84591" lon="4.77581">
        <ele>539.75183</ele>
        <time>2023-06-14T17:33:47.000Z</time>
      </trkpt>
      <trkpt lat="45.84593" lon="4.7758">
        <ele>539.8548</ele>
        <time>2023-06-14T17:33:48.000Z</time>
      </trkpt>
      <trkpt lat="45.84596" lon="4.7758">
        <ele>539.87933</ele>
        <time>2023-06-14T17:33:49.000Z</time>
      </trkpt>
      <trkpt lat="45.84598" lon="4.77579">
        <ele>539.9364</ele>
        <time>2023-06-14T17:33:50.000Z</time>
      </trkpt>
      <trkpt lat="45.84601" lon="4.77578">
        <ele>539.99866</ele>
        <time>2023-06-14T17:33:51.000Z</time>
      </trkpt>
      <trkpt lat="45.84603" lon="4.77577">
        <ele>540.0448</ele>
        <time>2023-06-14T17:33:52.000Z</time>
      </trkpt>
      <trkpt lat="45.84605" lon="4.77576">
        <ele>540.15479</ele>
        <time>2023-06-14T17:33:53.000Z</time>
      </trkpt>
      <trkpt lat="45.84607" lon="4.77575">
        <ele>540.28467</ele>
        <time>2023-06-14T17:33:54.000Z</time>
      </trkpt>
      <trkpt lat="45.84609" lon="4.77575">
        <ele>540.35986</ele>
        <time>2023-06-14T17:33:55.000Z</time>
      </trkpt>
      <trkpt lat="45.84611" lon="4.77575">
        <ele>540.41705</ele>
        <time>2023-06-14T17:33:56.000Z</time>
      </trkpt>
      <trkpt lat="45.84613" lon="4.77574">
        <ele>540.49817</ele>
        <time>2023-06-14T17:33:57.000Z</time>
      </trkpt>
      <trkpt lat="45.84615" lon="4.77574">
        <ele>540.59039</ele>
        <time>2023-06-14T17:33:58.000Z</time>
      </trkpt>
      <trkpt lat="45.84618" lon="4.77573">
        <ele>540.68433</ele>
        <time>2023-06-14T17:33:59.000Z</time>
      </trkpt>
      <trkpt lat="45.8462" lon="4.77573">
        <ele>540.79736</ele>
        <time>2023-06-14T17:34:00.000Z</time>
      </trkpt>
      <trkpt lat="45.84622" lon="4.77572">
        <ele>541.02649</ele>
        <time>2023-06-14T17:34:01.000Z</time>
      </trkpt>
      <trkpt lat="45.84625" lon="4.77571">
        <ele>541.26093</ele>
        <time>2023-06-14T17:34:02.000Z</time>
      </trkpt>
      <trkpt lat="45.84627" lon="4.7757">
        <ele>541.51599</ele>
        <time>2023-06-14T17:34:03.000Z</time>
      </trkpt>
      <trkpt lat="45.8463" lon="4.7757">
        <ele>541.82068</ele>
        <time>2023-06-14T17:34:04.000Z</time>
      </trkpt>
      <trkpt lat="45.84632" lon="4.77569">
        <ele>542.11322</ele>
        <time>2023-06-14T17:34:05.000Z</time>
      </trkpt>
      <trkpt lat="45.84634" lon="4.77568">
        <ele>542.41345</ele>
        <time>2023-06-14T17:34:06.000Z</time>
      </trkpt>
      <trkpt lat="45.84637" lon="4.77568">
        <ele>542.13849</ele>
        <time>2023-06-14T17:34:07.000Z</time>
      </trkpt>
      <trkpt lat="45.84639" lon="4.77568">
        <ele>541.64124</ele>
        <time>2023-06-14T17:34:08.000Z</time>
      </trkpt>
      <trkpt lat="45.84641" lon="4.77567">
        <ele>541.07458</ele>
        <time>2023-06-14T17:34:09.000Z</time>
      </trkpt>
      <trkpt lat="45.84644" lon="4.77567">
        <ele>540.48358</ele>
        <time>2023-06-14T17:34:10.000Z</time>
      </trkpt>
      <trkpt lat="45.84646" lon="4.77567">
        <ele>540.38721</ele>
        <time>2023-06-14T17:34:11.000Z</time>
      </trkpt>
      <trkpt lat="45.84648" lon="4.77566">
        <ele>540.24927</ele>
        <time>2023-06-14T17:34:12.000Z</time>
      </trkpt>
      <trkpt lat="45.8465" lon="4.77566">
        <ele>540.20203</ele>
        <time>2023-06-14T17:34:13.000Z</time>
      </trkpt>
      <trkpt lat="45.84653" lon="4.77566">
        <ele>540.12384</ele>
        <time>2023-06-14T17:34:14.000Z</time>
      </trkpt>
      <trkpt lat="45.84655" lon="4.77566">
        <ele>540.05212</ele>
        <time>2023-06-14T17:34:15.000Z</time>
      </trkpt>
      <trkpt lat="45.84657" lon="4.77566">
        <ele>539.9649</ele>
        <time>2023-06-14T17:34:16.000Z</time>
      </trkpt>
      <trkpt lat="45.8466" lon="4.77566">
        <ele>539.84375</ele>
        <time>2023-06-14T17:34:17.000Z</time>
      </trkpt>
      <trkpt lat="45.84662" lon="4.77565">
        <ele>539.31525</ele>
        <time>2023-06-14T17:34:18.000Z</time>
      </trkpt>
      <trkpt lat="45.84665" lon="4.77564">
        <ele>539.66608</ele>
        <time>2023-06-14T17:34:19.000Z</time>
      </trkpt>
      <trkpt lat="45.84667" lon="4.77562">
        <ele>540.02161</ele>
        <time>2023-06-14T17:34:20.000Z</time>
      </trkpt>
      <trkpt lat="45.84669" lon="4.77561">
        <ele>540.38586</ele>
        <time>2023-06-14T17:34:21.000Z</time>
      </trkpt>
      <trkpt lat="45.84671" lon="4.77561">
        <ele>540.75916</ele>
        <time>2023-06-14T17:34:22.000Z</time>
      </trkpt>
      <trkpt lat="45.84674" lon="4.77561">
        <ele>541.11377</ele>
        <time>2023-06-14T17:34:23.000Z</time>
      </trkpt>
      <trkpt lat="45.84676" lon="4.77562">
        <ele>541.30798</ele>
        <time>2023-06-14T17:34:24.000Z</time>
      </trkpt>
      <trkpt lat="45.84678" lon="4.77562">
        <ele>541.49731</ele>
        <time>2023-06-14T17:34:25.000Z</time>
      </trkpt>
      <trkpt lat="45.8468" lon="4.77562">
        <ele>541.66858</ele>
        <time>2023-06-14T17:34:26.000Z</time>
      </trkpt>
      <trkpt lat="45.84682" lon="4.77562">
        <ele>542.40356</ele>
        <time>2023-06-14T17:34:27.000Z</time>
      </trkpt>
      <trkpt lat="45.84684" lon="4.77563">
        <ele>543.35541</ele>
        <time>2023-06-14T17:34:28.000Z</time>
      </trkpt>
      <trkpt lat="45.84686" lon="4.77564">
        <ele>544.42816</ele>
        <time>2023-06-14T17:34:29.000Z</time>
      </trkpt>
      <trkpt lat="45.84688" lon="4.77564">
        <ele>545.48499</ele>
        <time>2023-06-14T17:34:30.000Z</time>
      </trkpt>
      <trkpt lat="45.8469" lon="4.77565">
        <ele>546.02576</ele>
        <time>2023-06-14T17:34:31.000Z</time>
      </trkpt>
      <trkpt lat="45.84692" lon="4.77567">
        <ele>546.63049</ele>
        <time>2023-06-14T17:34:33.000Z</time>
      </trkpt>
      <trkpt lat="45.84694" lon="4.77567">
        <ele>546.99176</ele>
        <time>2023-06-14T17:34:41.000Z</time>
      </trkpt>
      <trkpt lat="45.84695" lon="4.7757">
        <ele>547.2973</ele>
        <time>2023-06-14T17:36:23.000Z</time>
      </trkpt>
      <trkpt lat="45.84697" lon="4.77572">
        <ele>547.58948</ele>
        <time>2023-06-14T17:36:25.000Z</time>
      </trkpt>
      <trkpt lat="45.84699" lon="4.77573">
        <ele>547.87128</ele>
        <time>2023-06-14T17:36:26.000Z</time>
      </trkpt>
      <trkpt lat="45.84702" lon="4.77576">
        <ele>548.15283</ele>
        <time>2023-06-14T17:36:27.000Z</time>
      </trkpt>
      <trkpt lat="45.84704" lon="4.77579">
        <ele>548.80225</ele>
        <time>2023-06-14T17:36:28.000Z</time>
      </trkpt>
      <trkpt lat="45.84707" lon="4.77582">
        <ele>548.59589</ele>
        <time>2023-06-14T17:36:29.000Z</time>
      </trkpt>
      <trkpt lat="45.84709" lon="4.77586">
        <ele>548.39032</ele>
        <time>2023-06-14T17:36:30.000Z</time>
      </trkpt>
      <trkpt lat="45.84712" lon="4.77589">
        <ele>548.04163</ele>
        <time>2023-06-14T17:36:31.000Z</time>
      </trkpt>
      <trkpt lat="45.84715" lon="4.77593">
        <ele>547.67059</ele>
        <time>2023-06-14T17:36:32.000Z</time>
      </trkpt>
      <trkpt lat="45.84717" lon="4.77596">
        <ele>547.29358</ele>
        <time>2023-06-14T17:36:33.000Z</time>
      </trkpt>
      <trkpt lat="45.8472" lon="4.77599">
        <ele>547.03375</ele>
        <time>2023-06-14T17:36:34.000Z</time>
      </trkpt>
      <trkpt lat="45.84723" lon="4.77602">
        <ele>546.83917</ele>
        <time>2023-06-14T17:36:35.000Z</time>
      </trkpt>
      <trkpt lat="45.84725" lon="4.77604">
        <ele>546.69592</ele>
        <time>2023-06-14T17:36:36.000Z</time>
      </trkpt>
      <trkpt lat="45.84729" lon="4.77607">
        <ele>546.55774</ele>
        <time>2023-06-14T17:36:37.000Z</time>
      </trkpt>
      <trkpt lat="45.84732" lon="4.77609">
        <ele>546.48456</ele>
        <time>2023-06-14T17:36:38.000Z</time>
      </trkpt>
      <trkpt lat="45.84736" lon="4.77612">
        <ele>546.37097</ele>
        <time>2023-06-14T17:36:39.000Z</time>
      </trkpt>
      <trkpt lat="45.84741" lon="4.77613">
        <ele>546.2511</ele>
        <time>2023-06-14T17:36:40.000Z</time>
      </trkpt>
      <trkpt lat="45.84745" lon="4.77613">
        <ele>546.15466</ele>
        <time>2023-06-14T17:36:41.000Z</time>
      </trkpt>
      <trkpt lat="45.8475" lon="4.77617">
        <ele>546.03796</ele>
        <time>2023-06-14T17:36:42.000Z</time>
      </trkpt>
      <trkpt lat="45.84754" lon="4.77619">
        <ele>546.02618</ele>
        <time>2023-06-14T17:36:43.000Z</time>
      </trkpt>
      <trkpt lat="45.84757" lon="4.7762">
        <ele>546.07568</ele>
        <time>2023-06-14T17:36:44.000Z</time>
      </trkpt>
      <trkpt lat="45.84761" lon="4.77621">
        <ele>546.21667</ele>
        <time>2023-06-14T17:36:45.000Z</time>
      </trkpt>
      <trkpt lat="45.84764" lon="4.77622">
        <ele>546.39984</ele>
        <time>2023-06-14T17:36:46.000Z</time>
      </trkpt>
      <trkpt lat="45.84768" lon="4.77623">
        <ele>546.61548</ele>
        <time>2023-06-14T17:36:47.000Z</time>
      </trkpt>
      <trkpt lat="45.84772" lon="4.77622">
        <ele>546.82446</ele>
        <time>2023-06-14T17:36:48.000Z</time>
      </trkpt>
      <trkpt lat="45.84775" lon="4.77621">
        <ele>547.06732</ele>
        <time>2023-06-14T17:36:49.000Z</time>
      </trkpt>
      <trkpt lat="45.84779" lon="4.77622">
        <ele>547.4035</ele>
        <time>2023-06-14T17:36:50.000Z</time>
      </trkpt>
      <trkpt lat="45.84783" lon="4.77623">
        <ele>547.8028</ele>
        <time>2023-06-14T17:36:51.000Z</time>
      </trkpt>
      <trkpt lat="45.84786" lon="4.77623">
        <ele>548.21857</ele>
        <time>2023-06-14T17:36:52.000Z</time>
      </trkpt>
      <trkpt lat="45.8479" lon="4.77624">
        <ele>548.6156</ele>
        <time>2023-06-14T17:36:53.000Z</time>
      </trkpt>
      <trkpt lat="45.84794" lon="4.77625">
        <ele>549.04694</ele>
        <time>2023-06-14T17:36:54.000Z</time>
      </trkpt>
      <trkpt lat="45.84798" lon="4.77625">
        <ele>549.3891</ele>
        <time>2023-06-14T17:36:55.000Z</time>
      </trkpt>
      <trkpt lat="45.84801" lon="4.77626">
        <ele>549.69971</ele>
        <time>2023-06-14T17:36:56.000Z</time>
      </trkpt>
      <trkpt lat="45.84805" lon="4.77626">
        <ele>549.96667</ele>
        <time>2023-06-14T17:36:57.000Z</time>
      </trkpt>
      <trkpt lat="45.84809" lon="4.77626">
        <ele>550.14563</ele>
        <time>2023-06-14T17:36:58.000Z</time>
      </trkpt>
      <trkpt lat="45.84812" lon="4.77626">
        <ele>550.38733</ele>
        <time>2023-06-14T17:36:59.000Z</time>
      </trkpt>
      <trkpt lat="45.84816" lon="4.77626">
        <ele>550.60809</ele>
        <time>2023-06-14T17:37:00.000Z</time>
      </trkpt>
      <trkpt lat="45.8482" lon="4.77625">
        <ele>550.8512</ele>
        <time>2023-06-14T17:37:01.000Z</time>
      </trkpt>
      <trkpt lat="45.84824" lon="4.77625">
        <ele>551.09631</ele>
        <time>2023-06-14T17:37:02.000Z</time>
      </trkpt>
      <trkpt lat="45.84827" lon="4.77624">
        <ele>551.33563</ele>
        <time>2023-06-14T17:37:03.000Z</time>
      </trkpt>
      <trkpt lat="45.8483" lon="4.77624">
        <ele>551.5603</ele>
        <time>2023-06-14T17:37:04.000Z</time>
      </trkpt>
      <trkpt lat="45.84833" lon="4.77624">
        <ele>551.67993</ele>
        <time>2023-06-14T17:37:05.000Z</time>
      </trkpt>
      <trkpt lat="45.84836" lon="4.77624">
        <ele>551.79321</ele>
        <time>2023-06-14T17:37:06.000Z</time>
      </trkpt>
      <trkpt lat="45.8484" lon="4.77623">
        <ele>551.91736</ele>
        <time>2023-06-14T17:37:07.000Z</time>
      </trkpt>
      <trkpt lat="45.84843" lon="4.77623">
        <ele>552.0918</ele>
        <time>2023-06-14T17:37:08.000Z</time>
      </trkpt>
      <trkpt lat="45.84847" lon="4.77622">
        <ele>552.22394</ele>
        <time>2023-06-14T17:37:09.000Z</time>
      </trkpt>
      <trkpt lat="45.84851" lon="4.77622">
        <ele>552.20734</ele>
        <time>2023-06-14T17:37:10.000Z</time>
      </trkpt>
      <trkpt lat="45.84854" lon="4.77621">
        <ele>552.1615</ele>
        <time>2023-06-14T17:37:11.000Z</time>
      </trkpt>
      <trkpt lat="45.84857" lon="4.77621">
        <ele>552.09833</ele>
        <time>2023-06-14T17:37:12.000Z</time>
      </trkpt>
      <trkpt lat="45.8486" lon="4.77621">
        <ele>552.05219</ele>
        <time>2023-06-14T17:37:13.000Z</time>
      </trkpt>
      <trkpt lat="45.84863" lon="4.77621">
        <ele>551.99628</ele>
        <time>2023-06-14T17:37:14.000Z</time>
      </trkpt>
      <trkpt lat="45.84866" lon="4.77621">
        <ele>551.888</ele>
        <time>2023-06-14T17:37:15.000Z</time>
      </trkpt>
      <trkpt lat="45.84869" lon="4.77621">
        <ele>551.80499</ele>
        <time>2023-06-14T17:37:16.000Z</time>
      </trkpt>
      <trkpt lat="45.84872" lon="4.77621">
        <ele>551.78906</ele>
        <time>2023-06-14T17:37:17.000Z</time>
      </trkpt>
      <trkpt lat="45.84875" lon="4.77621">
        <ele>551.81531</ele>
        <time>2023-06-14T17:37:18.000Z</time>
      </trkpt>
      <trkpt lat="45.84878" lon="4.77621">
        <ele>551.80457</ele>
        <time>2023-06-14T17:37:19.000Z</time>
      </trkpt>
      <trkpt lat="45.84881" lon="4.77621">
        <ele>551.82654</ele>
        <time>2023-06-14T17:37:20.000Z</time>
      </trkpt>
      <trkpt lat="45.84884" lon="4.77621">
        <ele>551.81287</ele>
        <time>2023-06-14T17:37:21.000Z</time>
      </trkpt>
      <trkpt lat="45.84887" lon="4.77621">
        <ele>551.82599</ele>
        <time>2023-06-14T17:37:22.000Z</time>
      </trkpt>
      <trkpt lat="45.8489" lon="4.7762">
        <ele>551.86011</ele>
        <time>2023-06-14T17:37:23.000Z</time>
      </trkpt>
      <trkpt lat="45.84893" lon="4.7762">
        <ele>551.90186</ele>
        <time>2023-06-14T17:37:24.000Z</time>
      </trkpt>
      <trkpt lat="45.84896" lon="4.77619">
        <ele>551.96045</ele>
        <time>2023-06-14T17:37:25.000Z</time>
      </trkpt>
      <trkpt lat="45.84899" lon="4.77618">
        <ele>552.00085</ele>
        <time>2023-06-14T17:37:26.000Z</time>
      </trkpt>
      <trkpt lat="45.84903" lon="4.77618">
        <ele>551.99384</ele>
        <time>2023-06-14T17:37:27.000Z</time>
      </trkpt>
      <trkpt lat="45.84906" lon="4.77618">
        <ele>551.97986</ele>
        <time>2023-06-14T17:37:28.000Z</time>
      </trkpt>
      <trkpt lat="45.8491" lon="4.77618">
        <ele>551.96191</ele>
        <time>2023-06-14T17:37:29.000Z</time>
      </trkpt>
      <trkpt lat="45.84913" lon="4.77618">
        <ele>552.01392</ele>
        <time>2023-06-14T17:37:30.000Z</time>
      </trkpt>
      <trkpt lat="45.84917" lon="4.77618">
        <ele>552.04932</ele>
        <time>2023-06-14T17:37:31.000Z</time>
      </trkpt>
      <trkpt lat="45.8492" lon="4.77618">
        <ele>552.07196</ele>
        <time>2023-06-14T17:37:32.000Z</time>
      </trkpt>
      <trkpt lat="45.84924" lon="4.77617">
        <ele>552.08569</ele>
        <time>2023-06-14T17:37:33.000Z</time>
      </trkpt>
      <trkpt lat="45.84927" lon="4.77617">
        <ele>552.05914</ele>
        <time>2023-06-14T17:37:34.000Z</time>
      </trkpt>
      <trkpt lat="45.84931" lon="4.77617">
        <ele>552.08923</ele>
        <time>2023-06-14T17:37:35.000Z</time>
      </trkpt>
      <trkpt lat="45.84935" lon="4.77617">
        <ele>552.09192</ele>
        <time>2023-06-14T17:37:36.000Z</time>
      </trkpt>
      <trkpt lat="45.84939" lon="4.77618">
        <ele>552.07263</ele>
        <time>2023-06-14T17:37:37.000Z</time>
      </trkpt>
      <trkpt lat="45.84943" lon="4.77618">
        <ele>552.04401</ele>
        <time>2023-06-14T17:37:38.000Z</time>
      </trkpt>
      <trkpt lat="45.84947" lon="4.77618">
        <ele>552.09363</ele>
        <time>2023-06-14T17:37:39.000Z</time>
      </trkpt>
      <trkpt lat="45.84951" lon="4.77619">
        <ele>552.14056</ele>
        <time>2023-06-14T17:37:40.000Z</time>
      </trkpt>
      <trkpt lat="45.84954" lon="4.77619">
        <ele>552.21277</ele>
        <time>2023-06-14T17:37:41.000Z</time>
      </trkpt>
      <trkpt lat="45.84958" lon="4.77619">
        <ele>552.26312</ele>
        <time>2023-06-14T17:37:42.000Z</time>
      </trkpt>
      <trkpt lat="45.84962" lon="4.7762">
        <ele>552.3468</ele>
        <time>2023-06-14T17:37:43.000Z</time>
      </trkpt>
      <trkpt lat="45.84966" lon="4.77621">
        <ele>552.42737</ele>
        <time>2023-06-14T17:37:44.000Z</time>
      </trkpt>
      <trkpt lat="45.84969" lon="4.77622">
        <ele>552.51379</ele>
        <time>2023-06-14T17:37:45.000Z</time>
      </trkpt>
      <trkpt lat="45.84973" lon="4.77623">
        <ele>552.58807</ele>
        <time>2023-06-14T17:37:46.000Z</time>
      </trkpt>
      <trkpt lat="45.84977" lon="4.77624">
        <ele>552.65338</ele>
        <time>2023-06-14T17:37:47.000Z</time>
      </trkpt>
      <trkpt lat="45.84981" lon="4.77623">
        <ele>552.64905</ele>
        <time>2023-06-14T17:37:48.000Z</time>
      </trkpt>
      <trkpt lat="45.84985" lon="4.77623">
        <ele>552.67023</ele>
        <time>2023-06-14T17:37:49.000Z</time>
      </trkpt>
      <trkpt lat="45.84989" lon="4.77624">
        <ele>552.68097</ele>
        <time>2023-06-14T17:37:50.000Z</time>
      </trkpt>
      <trkpt lat="45.84993" lon="4.77624">
        <ele>552.75604</ele>
        <time>2023-06-14T17:37:51.000Z</time>
      </trkpt>
      <trkpt lat="45.84997" lon="4.77625">
        <ele>552.89191</ele>
        <time>2023-06-14T17:37:52.000Z</time>
      </trkpt>
      <trkpt lat="45.85002" lon="4.77625">
        <ele>553.04083</ele>
        <time>2023-06-14T17:37:53.000Z</time>
      </trkpt>
      <trkpt lat="45.85006" lon="4.77626">
        <ele>553.23767</ele>
        <time>2023-06-14T17:37:54.000Z</time>
      </trkpt>
      <trkpt lat="45.8501" lon="4.77627">
        <ele>553.45557</ele>
        <time>2023-06-14T17:37:55.000Z</time>
      </trkpt>
      <trkpt lat="45.85014" lon="4.77628">
        <ele>553.70911</ele>
        <time>2023-06-14T17:37:56.000Z</time>
      </trkpt>
      <trkpt lat="45.85018" lon="4.77629">
        <ele>553.94556</ele>
        <time>2023-06-14T17:37:57.000Z</time>
      </trkpt>
      <trkpt lat="45.85022" lon="4.7763">
        <ele>554.16235</ele>
        <time>2023-06-14T17:37:58.000Z</time>
      </trkpt>
      <trkpt lat="45.85026" lon="4.77631">
        <ele>554.31946</ele>
        <time>2023-06-14T17:37:59.000Z</time>
      </trkpt>
      <trkpt lat="45.8503" lon="4.77633">
        <ele>554.47009</ele>
        <time>2023-06-14T17:38:00.000Z</time>
      </trkpt>
      <trkpt lat="45.85033" lon="4.77635">
        <ele>554.60461</ele>
        <time>2023-06-14T17:38:01.000Z</time>
      </trkpt>
      <trkpt lat="45.85037" lon="4.77636">
        <ele>554.73761</ele>
        <time>2023-06-14T17:38:02.000Z</time>
      </trkpt>
      <trkpt lat="45.85041" lon="4.77639">
        <ele>554.8573</ele>
        <time>2023-06-14T17:38:03.000Z</time>
      </trkpt>
      <trkpt lat="45.85044" lon="4.77641">
        <ele>554.98962</ele>
        <time>2023-06-14T17:38:04.000Z</time>
      </trkpt>
      <trkpt lat="45.85047" lon="4.77644">
        <ele>555.09619</ele>
        <time>2023-06-14T17:38:05.000Z</time>
      </trkpt>
      <trkpt lat="45.8505" lon="4.77646">
        <ele>555.19928</ele>
        <time>2023-06-14T17:38:06.000Z</time>
      </trkpt>
      <trkpt lat="45.85053" lon="4.77649">
        <ele>555.34918</ele>
        <time>2023-06-14T17:38:07.000Z</time>
      </trkpt>
      <trkpt lat="45.85056" lon="4.77652">
        <ele>555.5036</ele>
        <time>2023-06-14T17:38:08.000Z</time>
      </trkpt>
      <trkpt lat="45.85058" lon="4.77655">
        <ele>555.62189</ele>
        <time>2023-06-14T17:38:09.000Z</time>
      </trkpt>
      <trkpt lat="45.85061" lon="4.77658">
        <ele>555.7384</ele>
        <time>2023-06-14T17:38:10.000Z</time>
      </trkpt>
      <trkpt lat="45.85063" lon="4.77661">
        <ele>555.80121</ele>
        <time>2023-06-14T17:38:11.000Z</time>
      </trkpt>
      <trkpt lat="45.85065" lon="4.77664">
        <ele>555.85925</ele>
        <time>2023-06-14T17:38:12.000Z</time>
      </trkpt>
      <trkpt lat="45.85067" lon="4.77668">
        <ele>555.93201</ele>
        <time>2023-06-14T17:38:13.000Z</time>
      </trkpt>
      <trkpt lat="45.85069" lon="4.77672">
        <ele>556.00775</ele>
        <time>2023-06-14T17:38:14.000Z</time>
      </trkpt>
      <trkpt lat="45.85071" lon="4.77675">
        <ele>556.07111</ele>
        <time>2023-06-14T17:38:15.000Z</time>
      </trkpt>
      <trkpt lat="45.85074" lon="4.77679">
        <ele>556.14838</ele>
        <time>2023-06-14T17:38:16.000Z</time>
      </trkpt>
      <trkpt lat="45.85076" lon="4.77683">
        <ele>556.25555</ele>
        <time>2023-06-14T17:38:17.000Z</time>
      </trkpt>
      <trkpt lat="45.85078" lon="4.77688">
        <ele>556.36902</ele>
        <time>2023-06-14T17:38:18.000Z</time>
      </trkpt>
      <trkpt lat="45.85079" lon="4.77692">
        <ele>556.44971</ele>
        <time>2023-06-14T17:38:19.000Z</time>
      </trkpt>
      <trkpt lat="45.8508" lon="4.77697">
        <ele>556.388</ele>
        <time>2023-06-14T17:38:20.000Z</time>
      </trkpt>
      <trkpt lat="45.85081" lon="4.777">
        <ele>556.34296</ele>
        <time>2023-06-14T17:38:21.000Z</time>
      </trkpt>
      <trkpt lat="45.85083" lon="4.77704">
        <ele>556.4198</ele>
        <time>2023-06-14T17:38:22.000Z</time>
      </trkpt>
      <trkpt lat="45.85084" lon="4.77708">
        <ele>556.47424</ele>
        <time>2023-06-14T17:38:23.000Z</time>
      </trkpt>
      <trkpt lat="45.85085" lon="4.77712">
        <ele>556.53296</ele>
        <time>2023-06-14T17:38:24.000Z</time>
      </trkpt>
      <trkpt lat="45.85087" lon="4.77716">
        <ele>556.66376</ele>
        <time>2023-06-14T17:38:25.000Z</time>
      </trkpt>
      <trkpt lat="45.85089" lon="4.77721">
        <ele>556.79346</ele>
        <time>2023-06-14T17:38:26.000Z</time>
      </trkpt>
      <trkpt lat="45.8509" lon="4.77725">
        <ele>556.92548</ele>
        <time>2023-06-14T17:38:27.000Z</time>
      </trkpt>
      <trkpt lat="45.85096" lon="4.77731">
        <ele>557.15729</ele>
        <time>2023-06-14T17:38:28.000Z</time>
      </trkpt>
      <trkpt lat="45.85097" lon="4.77735">
        <ele>557.3808</ele>
        <time>2023-06-14T17:38:29.000Z</time>
      </trkpt>
      <trkpt lat="45.85097" lon="4.77739">
        <ele>557.63263</ele>
        <time>2023-06-14T17:38:30.000Z</time>
      </trkpt>
      <trkpt lat="45.85097" lon="4.77743">
        <ele>557.85345</ele>
        <time>2023-06-14T17:38:31.000Z</time>
      </trkpt>
      <trkpt lat="45.85097" lon="4.77746">
        <ele>558.15228</ele>
        <time>2023-06-14T17:38:32.000Z</time>
      </trkpt>
      <trkpt lat="45.85098" lon="4.7775">
        <ele>558.45874</ele>
        <time>2023-06-14T17:38:33.000Z</time>
      </trkpt>
      <trkpt lat="45.85099" lon="4.77756">
        <ele>558.69482</ele>
        <time>2023-06-14T17:38:34.000Z</time>
      </trkpt>
      <trkpt lat="45.851" lon="4.7776">
        <ele>558.91229</ele>
        <time>2023-06-14T17:38:35.000Z</time>
      </trkpt>
      <trkpt lat="45.851" lon="4.77765">
        <ele>559.09784</ele>
        <time>2023-06-14T17:38:36.000Z</time>
      </trkpt>
      <trkpt lat="45.85101" lon="4.7777">
        <ele>559.23303</ele>
        <time>2023-06-14T17:38:37.000Z</time>
      </trkpt>
      <trkpt lat="45.85102" lon="4.77774">
        <ele>559.26331</ele>
        <time>2023-06-14T17:38:38.000Z</time>
      </trkpt>
      <trkpt lat="45.85102" lon="4.77779">
        <ele>559.36218</ele>
        <time>2023-06-14T17:38:39.000Z</time>
      </trkpt>
      <trkpt lat="45.85102" lon="4.77783">
        <ele>559.61786</ele>
        <time>2023-06-14T17:38:40.000Z</time>
      </trkpt>
      <trkpt lat="45.85103" lon="4.77787">
        <ele>559.8606</ele>
        <time>2023-06-14T17:38:41.000Z</time>
      </trkpt>
      <trkpt lat="45.85103" lon="4.77791">
        <ele>559.96423</ele>
        <time>2023-06-14T17:38:42.000Z</time>
      </trkpt>
      <trkpt lat="45.85103" lon="4.77796">
        <ele>560.08075</ele>
        <time>2023-06-14T17:38:43.000Z</time>
      </trkpt>
      <trkpt lat="45.85103" lon="4.778">
        <ele>560.16113</ele>
        <time>2023-06-14T17:38:44.000Z</time>
      </trkpt>
      <trkpt lat="45.85102" lon="4.77804">
        <ele>560.1994</ele>
        <time>2023-06-14T17:38:45.000Z</time>
      </trkpt>
      <trkpt lat="45.85101" lon="4.77807">
        <ele>560.40668</ele>
        <time>2023-06-14T17:38:46.000Z</time>
      </trkpt>
      <trkpt lat="45.85101" lon="4.77811">
        <ele>560.66052</ele>
        <time>2023-06-14T17:38:47.000Z</time>
      </trkpt>
      <trkpt lat="45.851" lon="4.77817">
        <ele>560.82709</ele>
        <time>2023-06-14T17:38:48.000Z</time>
      </trkpt>
      <trkpt lat="45.851" lon="4.77821">
        <ele>561.00983</ele>
        <time>2023-06-14T17:38:49.000Z</time>
      </trkpt>
      <trkpt lat="45.85099" lon="4.77825">
        <ele>561.21979</ele>
        <time>2023-06-14T17:38:50.000Z</time>
      </trkpt>
      <trkpt lat="45.85098" lon="4.7783">
        <ele>561.20917</ele>
        <time>2023-06-14T17:38:51.000Z</time>
      </trkpt>
      <trkpt lat="45.85098" lon="4.77835">
        <ele>561.06042</ele>
        <time>2023-06-14T17:38:52.000Z</time>
      </trkpt>
      <trkpt lat="45.85098" lon="4.77839">
        <ele>560.93152</ele>
        <time>2023-06-14T17:38:53.000Z</time>
      </trkpt>
      <trkpt lat="45.85099" lon="4.77844">
        <ele>560.85071</ele>
        <time>2023-06-14T17:38:54.000Z</time>
      </trkpt>
      <trkpt lat="45.85099" lon="4.77849">
        <ele>560.77844</ele>
        <time>2023-06-14T17:38:55.000Z</time>
      </trkpt>
      <trkpt lat="45.85099" lon="4.77853">
        <ele>560.70154</ele>
        <time>2023-06-14T17:38:56.000Z</time>
      </trkpt>
      <trkpt lat="45.85099" lon="4.77857">
        <ele>560.74548</ele>
        <time>2023-06-14T17:38:57.000Z</time>
      </trkpt>
      <trkpt lat="45.85098" lon="4.77862">
        <ele>560.93921</ele>
        <time>2023-06-14T17:38:59.000Z</time>
      </trkpt>
      <trkpt lat="45.85098" lon="4.77865">
        <ele>561.08325</ele>
        <time>2023-06-14T17:39:00.000Z</time>
      </trkpt>
      <trkpt lat="45.85096" lon="4.77869">
        <ele>561.20813</ele>
        <time>2023-06-14T17:39:01.000Z</time>
      </trkpt>
      <trkpt lat="45.85094" lon="4.77874">
        <ele>561.35461</ele>
        <time>2023-06-14T17:39:02.000Z</time>
      </trkpt>
      <trkpt lat="45.85094" lon="4.7788">
        <ele>561.60022</ele>
        <time>2023-06-14T17:39:03.000Z</time>
      </trkpt>
      <trkpt lat="45.85095" lon="4.77884">
        <ele>561.87024</ele>
        <time>2023-06-14T17:39:04.000Z</time>
      </trkpt>
      <trkpt lat="45.85096" lon="4.77889">
        <ele>562.17212</ele>
        <time>2023-06-14T17:39:05.000Z</time>
      </trkpt>
      <trkpt lat="45.85098" lon="4.77893">
        <ele>562.49133</ele>
        <time>2023-06-14T17:39:06.000Z</time>
      </trkpt>
      <trkpt lat="45.851" lon="4.77898">
        <ele>562.66315</ele>
        <time>2023-06-14T17:39:07.000Z</time>
      </trkpt>
      <trkpt lat="45.85102" lon="4.77902">
        <ele>562.78748</ele>
        <time>2023-06-14T17:39:08.000Z</time>
      </trkpt>
      <trkpt lat="45.85104" lon="4.77906">
        <ele>562.95819</ele>
        <time>2023-06-14T17:39:09.000Z</time>
      </trkpt>
      <trkpt lat="45.85107" lon="4.7791">
        <ele>563.11414</ele>
        <time>2023-06-14T17:39:10.000Z</time>
      </trkpt>
      <trkpt lat="45.85111" lon="4.77918">
        <ele>563.21179</ele>
        <time>2023-06-14T17:39:11.000Z</time>
      </trkpt>
      <trkpt lat="45.85116" lon="4.77927">
        <ele>563.52179</ele>
        <time>2023-06-14T17:39:12.000Z</time>
      </trkpt>
      <trkpt lat="45.85118" lon="4.77935">
        <ele>563.85767</ele>
        <time>2023-06-14T17:39:13.000Z</time>
      </trkpt>
      <trkpt lat="45.85119" lon="4.77945">
        <ele>564.14215</ele>
        <time>2023-06-14T17:39:14.000Z</time>
      </trkpt>
      <trkpt lat="45.8512" lon="4.77955">
        <ele>564.43286</ele>
        <time>2023-06-14T17:39:15.000Z</time>
      </trkpt>
      <trkpt lat="45.85123" lon="4.77963">
        <ele>564.70886</ele>
        <time>2023-06-14T17:39:16.000Z</time>
      </trkpt>
      <trkpt lat="45.85125" lon="4.77971">
        <ele>564.9942</ele>
        <time>2023-06-14T17:39:17.000Z</time>
      </trkpt>
      <trkpt lat="45.85126" lon="4.7798">
        <ele>565.19305</ele>
        <time>2023-06-14T17:39:18.000Z</time>
      </trkpt>
      <trkpt lat="45.85132" lon="4.77991">
        <ele>565.31244</ele>
        <time>2023-06-14T17:39:19.000Z</time>
      </trkpt>
      <trkpt lat="45.85136" lon="4.78001">
        <ele>565.4541</ele>
        <time>2023-06-14T17:39:20.000Z</time>
      </trkpt>
      <trkpt lat="45.85138" lon="4.78008">
        <ele>565.59796</ele>
        <time>2023-06-14T17:39:21.000Z</time>
      </trkpt>
      <trkpt lat="45.85142" lon="4.78016">
        <ele>565.72968</ele>
        <time>2023-06-14T17:39:22.000Z</time>
      </trkpt>
      <trkpt lat="45.85142" lon="4.7802">
        <ele>565.79755</ele>
        <time>2023-06-14T17:39:23.000Z</time>
      </trkpt>
      <trkpt lat="45.85144" lon="4.78025">
        <ele>565.83081</ele>
        <time>2023-06-14T17:39:24.000Z</time>
      </trkpt>
      <trkpt lat="45.85144" lon="4.78036">
        <ele>565.85577</ele>
        <time>2023-06-14T17:39:25.000Z</time>
      </trkpt>
      <trkpt lat="45.85146" lon="4.78044">
        <ele>565.86682</ele>
        <time>2023-06-14T17:39:26.000Z</time>
      </trkpt>
      <trkpt lat="45.8515" lon="4.78055">
        <ele>565.86328</ele>
        <time>2023-06-14T17:39:27.000Z</time>
      </trkpt>
      <trkpt lat="45.85156" lon="4.78062">
        <ele>565.83759</ele>
        <time>2023-06-14T17:39:28.000Z</time>
      </trkpt>
      <trkpt lat="45.85161" lon="4.78068">
        <ele>554.76471</ele>
        <time>2023-06-14T17:39:29.000Z</time>
      </trkpt>
      <trkpt lat="45.85166" lon="4.78077">
        <ele>554.17712</ele>
        <time>2023-06-14T17:39:30.000Z</time>
      </trkpt>
      <trkpt lat="45.85171" lon="4.78088">
        <ele>553.56201</ele>
        <time>2023-06-14T17:39:31.000Z</time>
      </trkpt>
      <trkpt lat="45.85178" lon="4.781">
        <ele>552.95233</ele>
        <time>2023-06-14T17:39:32.000Z</time>
      </trkpt>
      <trkpt lat="45.85182" lon="4.78109">
        <ele>552.31366</ele>
        <time>2023-06-14T17:39:33.000Z</time>
      </trkpt>
      <trkpt lat="45.8519" lon="4.78118">
        <ele>551.64703</ele>
        <time>2023-06-14T17:39:34.000Z</time>
      </trkpt>
      <trkpt lat="45.85193" lon="4.78127">
        <ele>547.18579</ele>
        <time>2023-06-14T17:39:35.000Z</time>
      </trkpt>
      <trkpt lat="45.85197" lon="4.78134">
        <ele>546.25598</ele>
        <time>2023-06-14T17:39:36.000Z</time>
      </trkpt>
      <trkpt lat="45.85202" lon="4.78146">
        <ele>545.63983</ele>
        <time>2023-06-14T17:39:37.000Z</time>
      </trkpt>
      <trkpt lat="45.8521" lon="4.78156">
        <ele>545.0863</ele>
        <time>2023-06-14T17:39:38.000Z</time>
      </trkpt>
      <trkpt lat="45.85212" lon="4.78164">
        <ele>544.54193</ele>
        <time>2023-06-14T17:39:39.000Z</time>
      </trkpt>
      <trkpt lat="45.85217" lon="4.7817">
        <ele>543.99524</ele>
        <time>2023-06-14T17:39:40.000Z</time>
      </trkpt>
      <trkpt lat="45.85221" lon="4.78178">
        <ele>543.55286</ele>
        <time>2023-06-14T17:39:41.000Z</time>
      </trkpt>
      <trkpt lat="45.85225" lon="4.78186">
        <ele>543.03912</ele>
        <time>2023-06-14T17:39:42.000Z</time>
      </trkpt>
      <trkpt lat="45.85228" lon="4.78193">
        <ele>542.50598</ele>
        <time>2023-06-14T17:39:43.000Z</time>
      </trkpt>
      <trkpt lat="45.85232" lon="4.78198">
        <ele>541.95239</ele>
        <time>2023-06-14T17:39:44.000Z</time>
      </trkpt>
      <trkpt lat="45.85236" lon="4.78204">
        <ele>540.75842</ele>
        <time>2023-06-14T17:39:45.000Z</time>
      </trkpt>
      <trkpt lat="45.8524" lon="4.78212">
        <ele>539.5036</ele>
        <time>2023-06-14T17:39:46.000Z</time>
      </trkpt>
      <trkpt lat="45.85242" lon="4.78219">
        <ele>538.18542</ele>
        <time>2023-06-14T17:39:47.000Z</time>
      </trkpt>
      <trkpt lat="45.85245" lon="4.78226">
        <ele>536.80157</ele>
        <time>2023-06-14T17:39:48.000Z</time>
      </trkpt>
      <trkpt lat="45.8525" lon="4.78231">
        <ele>546.37982</ele>
        <time>2023-06-14T17:39:49.000Z</time>
      </trkpt>
      <trkpt lat="45.85253" lon="4.78235">
        <ele>535.42859</ele>
        <time>2023-06-14T17:39:50.000Z</time>
      </trkpt>
      <trkpt lat="45.85257" lon="4.78241">
        <ele>534.49115</ele>
        <time>2023-06-14T17:39:51.000Z</time>
      </trkpt>
      <trkpt lat="45.8526" lon="4.78247">
        <ele>533.53766</ele>
        <time>2023-06-14T17:39:52.000Z</time>
      </trkpt>
      <trkpt lat="45.85264" lon="4.78254">
        <ele>532.56696</ele>
        <time>2023-06-14T17:39:53.000Z</time>
      </trkpt>
      <trkpt lat="45.85268" lon="4.78259">
        <ele>531.57965</ele>
        <time>2023-06-14T17:39:54.000Z</time>
      </trkpt>
      <trkpt lat="45.85272" lon="4.78265">
        <ele>534.32483</ele>
        <time>2023-06-14T17:39:55.000Z</time>
      </trkpt>
      <trkpt lat="45.85275" lon="4.78272">
        <ele>524.44006</ele>
        <time>2023-06-14T17:39:56.000Z</time>
      </trkpt>
      <trkpt lat="45.85278" lon="4.78281">
        <ele>522.97235</ele>
        <time>2023-06-14T17:39:57.000Z</time>
      </trkpt>
      <trkpt lat="45.85283" lon="4.78286">
        <ele>521.36591</ele>
        <time>2023-06-14T17:39:58.000Z</time>
      </trkpt>
      <trkpt lat="45.85288" lon="4.78293">
        <ele>519.71893</ele>
        <time>2023-06-14T17:39:59.000Z</time>
      </trkpt>
      <trkpt lat="45.85291" lon="4.783">
        <ele>517.98596</ele>
        <time>2023-06-14T17:40:00.000Z</time>
      </trkpt>
      <trkpt lat="45.85296" lon="4.78304">
        <ele>516.06628</ele>
        <time>2023-06-14T17:40:01.000Z</time>
      </trkpt>
      <trkpt lat="45.85301" lon="4.7831">
        <ele>508.34351</ele>
        <time>2023-06-14T17:40:02.000Z</time>
      </trkpt>
      <trkpt lat="45.85306" lon="4.78316">
        <ele>506.01505</ele>
        <time>2023-06-14T17:40:03.000Z</time>
      </trkpt>
      <trkpt lat="45.8531" lon="4.78322">
        <ele>503.57944</ele>
        <time>2023-06-14T17:40:04.000Z</time>
      </trkpt>
      <trkpt lat="45.85313" lon="4.78327">
        <ele>501.6608</ele>
        <time>2023-06-14T17:40:05.000Z</time>
      </trkpt>
      <trkpt lat="45.85318" lon="4.78334">
        <ele>499.7059</ele>
        <time>2023-06-14T17:40:06.000Z</time>
      </trkpt>
      <trkpt lat="45.8532" lon="4.7834">
        <ele>497.70883</ele>
        <time>2023-06-14T17:40:07.000Z</time>
      </trkpt>
      <trkpt lat="45.85324" lon="4.78346">
        <ele>495.685</ele>
        <time>2023-06-14T17:40:08.000Z</time>
      </trkpt>
      <trkpt lat="45.85331" lon="4.78351">
        <ele>493.62915</ele>
        <time>2023-06-14T17:40:09.000Z</time>
      </trkpt>
      <trkpt lat="45.85337" lon="4.78357">
        <ele>501.52362</ele>
        <time>2023-06-14T17:40:10.000Z</time>
      </trkpt>
      <trkpt lat="45.85341" lon="4.78364">
        <ele>499.82837</ele>
        <time>2023-06-14T17:40:11.000Z</time>
      </trkpt>
      <trkpt lat="45.85345" lon="4.78369">
        <ele>498.09521</ele>
        <time>2023-06-14T17:40:12.000Z</time>
      </trkpt>
      <trkpt lat="45.85349" lon="4.78375">
        <ele>499.1236</ele>
        <time>2023-06-14T17:40:13.000Z</time>
      </trkpt>
      <trkpt lat="45.85353" lon="4.78381">
        <ele>497.45142</ele>
        <time>2023-06-14T17:40:14.000Z</time>
      </trkpt>
      <trkpt lat="45.85358" lon="4.78388">
        <ele>495.74496</ele>
        <time>2023-06-14T17:40:15.000Z</time>
      </trkpt>
      <trkpt lat="45.85362" lon="4.78395">
        <ele>503.05768</ele>
        <time>2023-06-14T17:40:16.000Z</time>
      </trkpt>
      <trkpt lat="45.85367" lon="4.78402">
        <ele>501.98853</ele>
        <time>2023-06-14T17:40:17.000Z</time>
      </trkpt>
      <trkpt lat="45.85371" lon="4.78408">
        <ele>500.9393</ele>
        <time>2023-06-14T17:40:18.000Z</time>
      </trkpt>
      <trkpt lat="45.85376" lon="4.78414">
        <ele>502.63641</ele>
        <time>2023-06-14T17:40:19.000Z</time>
      </trkpt>
      <trkpt lat="45.85381" lon="4.7842">
        <ele>501.78232</ele>
        <time>2023-06-14T17:40:20.000Z</time>
      </trkpt>
      <trkpt lat="45.85385" lon="4.78426">
        <ele>500.97211</ele>
        <time>2023-06-14T17:40:21.000Z</time>
      </trkpt>
      <trkpt lat="45.8539" lon="4.78432">
        <ele>505.98526</ele>
        <time>2023-06-14T17:40:22.000Z</time>
      </trkpt>
      <trkpt lat="45.85394" lon="4.78439">
        <ele>505.86734</ele>
        <time>2023-06-14T17:40:23.000Z</time>
      </trkpt>
      <trkpt lat="45.85399" lon="4.78445">
        <ele>505.85995</ele>
        <time>2023-06-14T17:40:24.000Z</time>
      </trkpt>
      <trkpt lat="45.85404" lon="4.78452">
        <ele>508.35327</ele>
        <time>2023-06-14T17:40:25.000Z</time>
      </trkpt>
      <trkpt lat="45.8541" lon="4.78457">
        <ele>508.6879</ele>
        <time>2023-06-14T17:40:26.000Z</time>
      </trkpt>
      <trkpt lat="45.85415" lon="4.78464">
        <ele>509.14413</ele>
        <time>2023-06-14T17:40:27.000Z</time>
      </trkpt>
      <trkpt lat="45.85421" lon="4.7847">
        <ele>509.71591</ele>
        <time>2023-06-14T17:40:28.000Z</time>
      </trkpt>
      <trkpt lat="45.85427" lon="4.78476">
        <ele>510.41748</ele>
        <time>2023-06-14T17:40:29.000Z</time>
      </trkpt>
      <trkpt lat="45.85433" lon="4.78483">
        <ele>511.25693</ele>
        <time>2023-06-14T17:40:30.000Z</time>
      </trkpt>
      <trkpt lat="45.85439" lon="4.78489">
        <ele>513.75391</ele>
        <time>2023-06-14T17:40:31.000Z</time>
      </trkpt>
      <trkpt lat="45.85446" lon="4.78496">
        <ele>514.4502</ele>
        <time>2023-06-14T17:40:32.000Z</time>
      </trkpt>
      <trkpt lat="45.85451" lon="4.78503">
        <ele>512.46741</ele>
        <time>2023-06-14T17:40:33.000Z</time>
      </trkpt>
      <trkpt lat="45.85459" lon="4.7851">
        <ele>513.13464</ele>
        <time>2023-06-14T17:40:34.000Z</time>
      </trkpt>
      <trkpt lat="45.85465" lon="4.78516">
        <ele>513.91882</ele>
        <time>2023-06-14T17:40:35.000Z</time>
      </trkpt>
      <trkpt lat="45.85471" lon="4.78524">
        <ele>514.82751</ele>
        <time>2023-06-14T17:40:36.000Z</time>
      </trkpt>
      <trkpt lat="45.85477" lon="4.7853">
        <ele>517.23657</ele>
        <time>2023-06-14T17:40:37.000Z</time>
      </trkpt>
      <trkpt lat="45.85483" lon="4.78536">
        <ele>517.99896</ele>
        <time>2023-06-14T17:40:38.000Z</time>
      </trkpt>
      <trkpt lat="45.85489" lon="4.78546">
        <ele>516.13348</ele>
        <time>2023-06-14T17:40:39.000Z</time>
      </trkpt>
      <trkpt lat="45.85494" lon="4.78554">
        <ele>516.80835</ele>
        <time>2023-06-14T17:40:40.000Z</time>
      </trkpt>
      <trkpt lat="45.855" lon="4.78561">
        <ele>517.55969</ele>
        <time>2023-06-14T17:40:41.000Z</time>
      </trkpt>
      <trkpt lat="45.85507" lon="4.78567">
        <ele>518.38904</ele>
        <time>2023-06-14T17:40:42.000Z</time>
      </trkpt>
      <trkpt lat="45.85513" lon="4.78574">
        <ele>520.58722</ele>
        <time>2023-06-14T17:40:43.000Z</time>
      </trkpt>
      <trkpt lat="45.8552" lon="4.78581">
        <ele>522.8136</ele>
        <time>2023-06-14T17:40:44.000Z</time>
      </trkpt>
      <trkpt lat="45.85526" lon="4.78586">
        <ele>522.46234</ele>
        <time>2023-06-14T17:40:45.000Z</time>
      </trkpt>
      <trkpt lat="45.85534" lon="4.7859">
        <ele>524.38208</ele>
        <time>2023-06-14T17:40:46.000Z</time>
      </trkpt>
      <trkpt lat="45.85541" lon="4.78595">
        <ele>526.29187</ele>
        <time>2023-06-14T17:40:47.000Z</time>
      </trkpt>
      <trkpt lat="45.85549" lon="4.78597">
        <ele>528.14191</ele>
        <time>2023-06-14T17:40:48.000Z</time>
      </trkpt>
      <trkpt lat="45.85556" lon="4.78599">
        <ele>529.98273</ele>
        <time>2023-06-14T17:40:49.000Z</time>
      </trkpt>
      <trkpt lat="45.85562" lon="4.786">
        <ele>531.77081</ele>
        <time>2023-06-14T17:40:50.000Z</time>
      </trkpt>
      <trkpt lat="45.85567" lon="4.78606">
        <ele>531.53333</ele>
        <time>2023-06-14T17:40:51.000Z</time>
      </trkpt>
      <trkpt lat="45.85573" lon="4.7861">
        <ele>533.21899</ele>
        <time>2023-06-14T17:40:52.000Z</time>
      </trkpt>
      <trkpt lat="45.85578" lon="4.78614">
        <ele>534.90973</ele>
        <time>2023-06-14T17:40:53.000Z</time>
      </trkpt>
      <trkpt lat="45.85582" lon="4.78617">
        <ele>536.71729</ele>
        <time>2023-06-14T17:40:54.000Z</time>
      </trkpt>
      <trkpt lat="45.85588" lon="4.78622">
        <ele>538.53748</ele>
        <time>2023-06-14T17:40:55.000Z</time>
      </trkpt>
      <trkpt lat="45.85594" lon="4.78626">
        <ele>540.30823</ele>
        <time>2023-06-14T17:40:56.000Z</time>
      </trkpt>
      <trkpt lat="45.85599" lon="4.78629">
        <ele>540.20056</ele>
        <time>2023-06-14T17:40:57.000Z</time>
      </trkpt>
      <trkpt lat="45.85605" lon="4.78631">
        <ele>541.71167</ele>
        <time>2023-06-14T17:40:58.000Z</time>
      </trkpt>
      <trkpt lat="45.85609" lon="4.78634">
        <ele>543.22308</ele>
        <time>2023-06-14T17:40:59.000Z</time>
      </trkpt>
      <trkpt lat="45.85613" lon="4.78636">
        <ele>544.84436</ele>
        <time>2023-06-14T17:41:00.000Z</time>
      </trkpt>
      <trkpt lat="45.85618" lon="4.78641">
        <ele>546.43579</ele>
        <time>2023-06-14T17:41:01.000Z</time>
      </trkpt>
      <trkpt lat="45.85621" lon="4.78646">
        <ele>547.98279</ele>
        <time>2023-06-14T17:41:02.000Z</time>
      </trkpt>
      <trkpt lat="45.85626" lon="4.78652">
        <ele>547.91168</ele>
        <time>2023-06-14T17:41:03.000Z</time>
      </trkpt>
      <trkpt lat="45.8563" lon="4.78655">
        <ele>547.83893</ele>
        <time>2023-06-14T17:41:04.000Z</time>
      </trkpt>
      <trkpt lat="45.85639" lon="4.78657">
        <ele>547.98523</ele>
        <time>2023-06-14T17:41:05.000Z</time>
      </trkpt>
      <trkpt lat="45.85644" lon="4.7866">
        <ele>548.11584</ele>
        <time>2023-06-14T17:41:06.000Z</time>
      </trkpt>
      <trkpt lat="45.85649" lon="4.78663">
        <ele>548.24414</ele>
        <time>2023-06-14T17:41:07.000Z</time>
      </trkpt>
      <trkpt lat="45.85655" lon="4.78666">
        <ele>548.40747</ele>
        <time>2023-06-14T17:41:08.000Z</time>
      </trkpt>
      <trkpt lat="45.85658" lon="4.7867">
        <ele>548.5058</ele>
        <time>2023-06-14T17:41:09.000Z</time>
      </trkpt>
      <trkpt lat="45.85664" lon="4.78675">
        <ele>548.57971</ele>
        <time>2023-06-14T17:41:10.000Z</time>
      </trkpt>
      <trkpt lat="45.85667" lon="4.78681">
        <ele>548.59314</ele>
        <time>2023-06-14T17:41:11.000Z</time>
      </trkpt>
      <trkpt lat="45.85673" lon="4.78686">
        <ele>548.55969</ele>
        <time>2023-06-14T17:41:12.000Z</time>
      </trkpt>
      <trkpt lat="45.85678" lon="4.78691">
        <ele>548.46289</ele>
        <time>2023-06-14T17:41:13.000Z</time>
      </trkpt>
      <trkpt lat="45.85683" lon="4.78698">
        <ele>548.33826</ele>
        <time>2023-06-14T17:41:14.000Z</time>
      </trkpt>
      <trkpt lat="45.85688" lon="4.78704">
        <ele>548.15204</ele>
        <time>2023-06-14T17:41:15.000Z</time>
      </trkpt>
      <trkpt lat="45.85692" lon="4.7871">
        <ele>547.94989</ele>
        <time>2023-06-14T17:41:16.000Z</time>
      </trkpt>
      <trkpt lat="45.85696" lon="4.7872">
        <ele>547.75494</ele>
        <time>2023-06-14T17:41:17.000Z</time>
      </trkpt>
      <trkpt lat="45.85701" lon="4.78726">
        <ele>547.64783</ele>
        <time>2023-06-14T17:41:18.000Z</time>
      </trkpt>
      <trkpt lat="45.85707" lon="4.78732">
        <ele>547.54974</ele>
        <time>2023-06-14T17:41:19.000Z</time>
      </trkpt>
      <trkpt lat="45.85714" lon="4.78738">
        <ele>547.27362</ele>
        <time>2023-06-14T17:41:20.000Z</time>
      </trkpt>
      <trkpt lat="45.8572" lon="4.78743">
        <ele>547.05438</ele>
        <time>2023-06-14T17:41:21.000Z</time>
      </trkpt>
      <trkpt lat="45.85726" lon="4.78751">
        <ele>546.84668</ele>
        <time>2023-06-14T17:41:22.000Z</time>
      </trkpt>
      <trkpt lat="45.85731" lon="4.78756">
        <ele>546.64313</ele>
        <time>2023-06-14T17:41:23.000Z</time>
      </trkpt>
      <trkpt lat="45.85735" lon="4.78761">
        <ele>546.47583</ele>
        <time>2023-06-14T17:41:24.000Z</time>
      </trkpt>
      <trkpt lat="45.8574" lon="4.78764">
        <ele>546.31439</ele>
        <time>2023-06-14T17:41:25.000Z</time>
      </trkpt>
      <trkpt lat="45.85743" lon="4.78768">
        <ele>546.12604</ele>
        <time>2023-06-14T17:41:26.000Z</time>
      </trkpt>
      <trkpt lat="45.85747" lon="4.78772">
        <ele>545.8822</ele>
        <time>2023-06-14T17:41:27.000Z</time>
      </trkpt>
      <trkpt lat="45.85749" lon="4.78777">
        <ele>545.60748</ele>
        <time>2023-06-14T17:41:28.000Z</time>
      </trkpt>
      <trkpt lat="45.85753" lon="4.78779">
        <ele>545.37299</ele>
        <time>2023-06-14T17:41:29.000Z</time>
      </trkpt>
      <trkpt lat="45.85757" lon="4.7878">
        <ele>545.20056</ele>
        <time>2023-06-14T17:41:30.000Z</time>
      </trkpt>
      <trkpt lat="45.85761" lon="4.7878">
        <ele>545.05042</ele>
        <time>2023-06-14T17:41:31.000Z</time>
      </trkpt>
      <trkpt lat="45.85766" lon="4.7878">
        <ele>544.88733</ele>
        <time>2023-06-14T17:41:32.000Z</time>
      </trkpt>
      <trkpt lat="45.8577" lon="4.78783">
        <ele>544.73407</ele>
        <time>2023-06-14T17:41:33.000Z</time>
      </trkpt>
      <trkpt lat="45.85775" lon="4.78786">
        <ele>544.58923</ele>
        <time>2023-06-14T17:41:34.000Z</time>
      </trkpt>
      <trkpt lat="45.85781" lon="4.78788">
        <ele>544.47711</ele>
        <time>2023-06-14T17:41:35.000Z</time>
      </trkpt>
      <trkpt lat="45.85788" lon="4.78791">
        <ele>544.39874</ele>
        <time>2023-06-14T17:41:36.000Z</time>
      </trkpt>
      <trkpt lat="45.85795" lon="4.78793">
        <ele>544.31848</ele>
        <time>2023-06-14T17:41:37.000Z</time>
      </trkpt>
      <trkpt lat="45.85803" lon="4.78795">
        <ele>544.17767</ele>
        <time>2023-06-14T17:41:38.000Z</time>
      </trkpt>
      <trkpt lat="45.85808" lon="4.788">
        <ele>543.94452</ele>
        <time>2023-06-14T17:41:39.000Z</time>
      </trkpt>
      <trkpt lat="45.85812" lon="4.78803">
        <ele>543.87823</ele>
        <time>2023-06-14T17:41:40.000Z</time>
      </trkpt>
      <trkpt lat="45.85817" lon="4.78806">
        <ele>543.72839</ele>
        <time>2023-06-14T17:41:41.000Z</time>
      </trkpt>
      <trkpt lat="45.85822" lon="4.78808">
        <ele>543.57819</ele>
        <time>2023-06-14T17:41:42.000Z</time>
      </trkpt>
      <trkpt lat="45.85828" lon="4.7881">
        <ele>543.41248</ele>
        <time>2023-06-14T17:41:43.000Z</time>
      </trkpt>
      <trkpt lat="45.85832" lon="4.78812">
        <ele>543.07654</ele>
        <time>2023-06-14T17:41:44.000Z</time>
      </trkpt>
      <trkpt lat="45.85835" lon="4.78815">
        <ele>542.71478</ele>
        <time>2023-06-14T17:41:45.000Z</time>
      </trkpt>
      <trkpt lat="45.85838" lon="4.78818">
        <ele>542.41205</ele>
        <time>2023-06-14T17:41:46.000Z</time>
      </trkpt>
      <trkpt lat="45.85839" lon="4.78822">
        <ele>542.18958</ele>
        <time>2023-06-14T17:41:47.000Z</time>
      </trkpt>
      <trkpt lat="45.8584" lon="4.78825">
        <ele>541.99133</ele>
        <time>2023-06-14T17:41:48.000Z</time>
      </trkpt>
      <trkpt lat="45.85844" lon="4.78826">
        <ele>541.85266</ele>
        <time>2023-06-14T17:41:50.000Z</time>
      </trkpt>
      <trkpt lat="45.85846" lon="4.78826">
        <ele>541.96008</ele>
        <time>2023-06-14T17:41:51.000Z</time>
      </trkpt>
      <trkpt lat="45.85848" lon="4.78825">
        <ele>541.81604</ele>
        <time>2023-06-14T17:41:52.000Z</time>
      </trkpt>
      <trkpt lat="45.85851" lon="4.78824">
        <ele>541.66711</ele>
        <time>2023-06-14T17:41:54.000Z</time>
      </trkpt>
      <trkpt lat="45.85853" lon="4.78824">
        <ele>541.67847</ele>
        <time>2023-06-14T17:41:55.000Z</time>
      </trkpt>
      <trkpt lat="45.85855" lon="4.78823">
        <ele>541.68494</ele>
        <time>2023-06-14T17:41:56.000Z</time>
      </trkpt>
      <trkpt lat="45.85859" lon="4.78823">
        <ele>541.65936</ele>
        <time>2023-06-14T17:42:13.000Z</time>
      </trkpt>
      <trkpt lat="45.85861" lon="4.78823">
        <ele>541.64203</ele>
        <time>2023-06-14T17:42:14.000Z</time>
      </trkpt>
      <trkpt lat="45.85865" lon="4.78822">
        <ele>541.65466</ele>
        <time>2023-06-14T17:42:16.000Z</time>
      </trkpt>
      <trkpt lat="45.85867" lon="4.78821">
        <ele>541.74939</ele>
        <time>2023-06-14T17:42:17.000Z</time>
      </trkpt>
      <trkpt lat="45.8587" lon="4.78822">
        <ele>541.86328</ele>
        <time>2023-06-14T17:42:18.000Z</time>
      </trkpt>
      <trkpt lat="45.85875" lon="4.78824">
        <ele>542.01807</ele>
        <time>2023-06-14T17:42:19.000Z</time>
      </trkpt>
      <trkpt lat="45.85881" lon="4.78827">
        <ele>542.26575</ele>
        <time>2023-06-14T17:42:20.000Z</time>
      </trkpt>
      <trkpt lat="45.85887" lon="4.78827">
        <ele>542.29248</ele>
        <time>2023-06-14T17:42:21.000Z</time>
      </trkpt>
      <trkpt lat="45.85892" lon="4.78828">
        <ele>542.31348</ele>
        <time>2023-06-14T17:42:22.000Z</time>
      </trkpt>
      <trkpt lat="45.85898" lon="4.78828">
        <ele>542.48596</ele>
        <time>2023-06-14T17:42:23.000Z</time>
      </trkpt>
      <trkpt lat="45.859" lon="4.78831">
        <ele>542.68121</ele>
        <time>2023-06-14T17:42:24.000Z</time>
      </trkpt>
      <trkpt lat="45.85904" lon="4.7883">
        <ele>542.98065</ele>
        <time>2023-06-14T17:42:25.000Z</time>
      </trkpt>
      <trkpt lat="45.85909" lon="4.7883">
        <ele>543.34906</ele>
        <time>2023-06-14T17:42:26.000Z</time>
      </trkpt>
      <trkpt lat="45.85912" lon="4.7883">
        <ele>543.65784</ele>
        <time>2023-06-14T17:42:27.000Z</time>
      </trkpt>
      <trkpt lat="45.85914" lon="4.7883">
        <ele>543.73938</ele>
        <time>2023-06-14T17:42:28.000Z</time>
      </trkpt>
      <trkpt lat="45.85917" lon="4.78828">
        <ele>543.59808</ele>
        <time>2023-06-14T17:42:36.000Z</time>
      </trkpt>
      <trkpt lat="45.85919" lon="4.78826">
        <ele>543.79749</ele>
        <time>2023-06-14T17:42:41.000Z</time>
      </trkpt>
      <trkpt lat="45.85922" lon="4.78825">
        <ele>543.97986</ele>
        <time>2023-06-14T17:42:42.000Z</time>
      </trkpt>
      <trkpt lat="45.85926" lon="4.78825">
        <ele>544.00623</ele>
        <time>2023-06-14T17:42:43.000Z</time>
      </trkpt>
      <trkpt lat="45.85932" lon="4.78824">
        <ele>543.96735</ele>
        <time>2023-06-14T17:42:44.000Z</time>
      </trkpt>
      <trkpt lat="45.85938" lon="4.78825">
        <ele>543.92688</ele>
        <time>2023-06-14T17:42:45.000Z</time>
      </trkpt>
      <trkpt lat="45.85944" lon="4.78827">
        <ele>543.91077</ele>
        <time>2023-06-14T17:42:46.000Z</time>
      </trkpt>
      <trkpt lat="45.85952" lon="4.78829">
        <ele>543.85602</ele>
        <time>2023-06-14T17:42:47.000Z</time>
      </trkpt>
      <trkpt lat="45.85959" lon="4.78833">
        <ele>543.70636</ele>
        <time>2023-06-14T17:42:48.000Z</time>
      </trkpt>
      <trkpt lat="45.85966" lon="4.78836">
        <ele>543.65985</ele>
        <time>2023-06-14T17:42:49.000Z</time>
      </trkpt>
      <trkpt lat="45.85973" lon="4.78839">
        <ele>543.54602</ele>
        <time>2023-06-14T17:42:50.000Z</time>
      </trkpt>
      <trkpt lat="45.85977" lon="4.78843">
        <ele>543.38116</ele>
        <time>2023-06-14T17:42:51.000Z</time>
      </trkpt>
      <trkpt lat="45.85981" lon="4.78844">
        <ele>543.46033</ele>
        <time>2023-06-14T17:42:52.000Z</time>
      </trkpt>
      <trkpt lat="45.85991" lon="4.78849">
        <ele>543.58215</ele>
        <time>2023-06-14T17:42:53.000Z</time>
      </trkpt>
      <trkpt lat="45.85998" lon="4.78853">
        <ele>543.69879</ele>
        <time>2023-06-14T17:42:54.000Z</time>
      </trkpt>
      <trkpt lat="45.86005" lon="4.78861">
        <ele>543.83539</ele>
        <time>2023-06-14T17:42:55.000Z</time>
      </trkpt>
      <trkpt lat="45.86014" lon="4.78866">
        <ele>543.87854</ele>
        <time>2023-06-14T17:42:56.000Z</time>
      </trkpt>
      <trkpt lat="45.86021" lon="4.78871">
        <ele>543.87329</ele>
        <time>2023-06-14T17:42:57.000Z</time>
      </trkpt>
      <trkpt lat="45.86029" lon="4.78876">
        <ele>543.64136</ele>
        <time>2023-06-14T17:42:58.000Z</time>
      </trkpt>
      <trkpt lat="45.86038" lon="4.78879">
        <ele>543.62158</ele>
        <time>2023-06-14T17:42:59.000Z</time>
      </trkpt>
      <trkpt lat="45.86045" lon="4.78884">
        <ele>543.46295</ele>
        <time>2023-06-14T17:43:00.000Z</time>
      </trkpt>
      <trkpt lat="45.86051" lon="4.78886">
        <ele>543.17993</ele>
        <time>2023-06-14T17:43:01.000Z</time>
      </trkpt>
      <trkpt lat="45.86056" lon="4.78889">
        <ele>542.9541</ele>
        <time>2023-06-14T17:43:02.000Z</time>
      </trkpt>
      <trkpt lat="45.86062" lon="4.78893">
        <ele>542.64392</ele>
        <time>2023-06-14T17:43:03.000Z</time>
      </trkpt>
      <trkpt lat="45.86069" lon="4.78899">
        <ele>542.3822</ele>
        <time>2023-06-14T17:43:04.000Z</time>
      </trkpt>
      <trkpt lat="45.86075" lon="4.78904">
        <ele>542.16565</ele>
        <time>2023-06-14T17:43:05.000Z</time>
      </trkpt>
      <trkpt lat="45.86082" lon="4.78909">
        <ele>541.97107</ele>
        <time>2023-06-14T17:43:06.000Z</time>
      </trkpt>
      <trkpt lat="45.86089" lon="4.78915">
        <ele>541.7699</ele>
        <time>2023-06-14T17:43:07.000Z</time>
      </trkpt>
      <trkpt lat="45.86098" lon="4.78923">
        <ele>541.61932</ele>
        <time>2023-06-14T17:43:08.000Z</time>
      </trkpt>
      <trkpt lat="45.86105" lon="4.7893">
        <ele>541.38928</ele>
        <time>2023-06-14T17:43:09.000Z</time>
      </trkpt>
      <trkpt lat="45.86111" lon="4.78937">
        <ele>541.12299</ele>
        <time>2023-06-14T17:43:10.000Z</time>
      </trkpt>
      <trkpt lat="45.86117" lon="4.78945">
        <ele>540.82483</ele>
        <time>2023-06-14T17:43:11.000Z</time>
      </trkpt>
      <trkpt lat="45.86121" lon="4.78947">
        <ele>540.60974</ele>
        <time>2023-06-14T17:43:12.000Z</time>
      </trkpt>
      <trkpt lat="45.86125" lon="4.78951">
        <ele>540.2937</ele>
        <time>2023-06-14T17:43:13.000Z</time>
      </trkpt>
      <trkpt lat="45.86127" lon="4.78953">
        <ele>540.01874</ele>
        <time>2023-06-14T17:43:14.000Z</time>
      </trkpt>
      <trkpt lat="45.86128" lon="4.7896">
        <ele>539.68616</ele>
        <time>2023-06-14T17:43:15.000Z</time>
      </trkpt>
      <trkpt lat="45.86131" lon="4.78965">
        <ele>539.28894</ele>
        <time>2023-06-14T17:43:16.000Z</time>
      </trkpt>
      <trkpt lat="45.86132" lon="4.78973">
        <ele>538.86084</ele>
        <time>2023-06-14T17:43:17.000Z</time>
      </trkpt>
      <trkpt lat="45.86133" lon="4.78977">
        <ele>538.84467</ele>
        <time>2023-06-14T17:43:18.000Z</time>
      </trkpt>
      <trkpt lat="45.86137" lon="4.78982">
        <ele>538.82532</ele>
        <time>2023-06-14T17:43:19.000Z</time>
      </trkpt>
      <trkpt lat="45.86139" lon="4.78986">
        <ele>538.74854</ele>
        <time>2023-06-14T17:43:20.000Z</time>
      </trkpt>
      <trkpt lat="45.86144" lon="4.78991">
        <ele>538.71472</ele>
        <time>2023-06-14T17:43:21.000Z</time>
      </trkpt>
      <trkpt lat="45.86146" lon="4.78994">
        <ele>538.66589</ele>
        <time>2023-06-14T17:43:22.000Z</time>
      </trkpt>
      <trkpt lat="45.86149" lon="4.78995">
        <ele>538.70862</ele>
        <time>2023-06-14T17:43:24.000Z</time>
      </trkpt>
      <trkpt lat="45.86151" lon="4.78996">
        <ele>530.33496</ele>
        <time>2023-06-14T17:43:28.000Z</time>
      </trkpt>
      <trkpt lat="45.86153" lon="4.78996">
        <ele>529.95569</ele>
        <time>2023-06-14T17:43:30.000Z</time>
      </trkpt>
      <trkpt lat="45.86155" lon="4.78996">
        <ele>524.16272</ele>
        <time>2023-06-14T17:43:34.000Z</time>
      </trkpt>
      <trkpt lat="45.86157" lon="4.79">
        <ele>521.99078</ele>
        <time>2023-06-14T17:43:38.000Z</time>
      </trkpt>
      <trkpt lat="45.86159" lon="4.79002">
        <ele>519.73431</ele>
        <time>2023-06-14T17:43:39.000Z</time>
      </trkpt>
      <trkpt lat="45.86162" lon="4.79007">
        <ele>517.47925</ele>
        <time>2023-06-14T17:43:40.000Z</time>
      </trkpt>
      <trkpt lat="45.86164" lon="4.79011">
        <ele>515.2926</ele>
        <time>2023-06-14T17:43:41.000Z</time>
      </trkpt>
      <trkpt lat="45.86165" lon="4.79014">
        <ele>513.16919</ele>
        <time>2023-06-14T17:43:42.000Z</time>
      </trkpt>
      <trkpt lat="45.86167" lon="4.79018">
        <ele>510.90665</ele>
        <time>2023-06-14T17:43:43.000Z</time>
      </trkpt>
      <trkpt lat="45.8617" lon="4.79022">
        <ele>508.70355</ele>
        <time>2023-06-14T17:43:44.000Z</time>
      </trkpt>
      <trkpt lat="45.86172" lon="4.79025">
        <ele>506.50464</ele>
        <time>2023-06-14T17:43:45.000Z</time>
      </trkpt>
      <trkpt lat="45.86174" lon="4.79029">
        <ele>504.34814</ele>
        <time>2023-06-14T17:43:46.000Z</time>
      </trkpt>
      <trkpt lat="45.86176" lon="4.79032">
        <ele>502.1792</ele>
        <time>2023-06-14T17:43:47.000Z</time>
      </trkpt>
      <trkpt lat="45.86177" lon="4.79034">
        <ele>499.93619</ele>
        <time>2023-06-14T17:43:48.000Z</time>
      </trkpt>
      <trkpt lat="45.86179" lon="4.79036">
        <ele>497.25726</ele>
        <time>2023-06-14T17:43:50.000Z</time>
      </trkpt>
      <trkpt lat="45.86181" lon="4.79039">
        <ele>494.34003</ele>
        <time>2023-06-14T17:43:53.000Z</time>
      </trkpt>
      <trkpt lat="45.86183" lon="4.79042">
        <ele>491.46924</ele>
        <time>2023-06-14T17:43:55.000Z</time>
      </trkpt>
      <trkpt lat="45.86184" lon="4.79044">
        <ele>488.60239</ele>
        <time>2023-06-14T17:43:56.000Z</time>
      </trkpt>
      <trkpt lat="45.86186" lon="4.79047">
        <ele>485.89233</ele>
        <time>2023-06-14T17:43:57.000Z</time>
      </trkpt>
      <trkpt lat="45.86193" lon="4.7905">
        <ele>483.30655</ele>
        <time>2023-06-14T17:43:58.000Z</time>
      </trkpt>
      <trkpt lat="45.86197" lon="4.79054">
        <ele>489.23941</ele>
        <time>2023-06-14T17:43:59.000Z</time>
      </trkpt>
      <trkpt lat="45.86201" lon="4.79058">
        <ele>487.03726</ele>
        <time>2023-06-14T17:44:00.000Z</time>
      </trkpt>
      <trkpt lat="45.86204" lon="4.79062">
        <ele>489.93521</ele>
        <time>2023-06-14T17:44:01.000Z</time>
      </trkpt>
      <trkpt lat="45.86208" lon="4.7907">
        <ele>489.26898</ele>
        <time>2023-06-14T17:44:02.000Z</time>
      </trkpt>
      <trkpt lat="45.86215" lon="4.79074">
        <ele>488.67276</ele>
        <time>2023-06-14T17:44:03.000Z</time>
      </trkpt>
      <trkpt lat="45.86222" lon="4.79079">
        <ele>488.15717</ele>
        <time>2023-06-14T17:44:04.000Z</time>
      </trkpt>
      <trkpt lat="45.86229" lon="4.79085">
        <ele>487.42993</ele>
        <time>2023-06-14T17:44:05.000Z</time>
      </trkpt>
      <trkpt lat="45.86235" lon="4.79092">
        <ele>486.7486</ele>
        <time>2023-06-14T17:44:06.000Z</time>
      </trkpt>
      <trkpt lat="45.86243" lon="4.79101">
        <ele>486.05597</ele>
        <time>2023-06-14T17:44:07.000Z</time>
      </trkpt>
      <trkpt lat="45.86246" lon="4.7911">
        <ele>485.0621</ele>
        <time>2023-06-14T17:44:08.000Z</time>
      </trkpt>
      <trkpt lat="45.86252" lon="4.7912">
        <ele>483.86606</ele>
        <time>2023-06-14T17:44:09.000Z</time>
      </trkpt>
      <trkpt lat="45.86256" lon="4.7913">
        <ele>482.56366</ele>
        <time>2023-06-14T17:44:10.000Z</time>
      </trkpt>
      <trkpt lat="45.8626" lon="4.79138">
        <ele>481.13885</ele>
        <time>2023-06-14T17:44:11.000Z</time>
      </trkpt>
      <trkpt lat="45.86265" lon="4.79146">
        <ele>479.83536</ele>
        <time>2023-06-14T17:44:12.000Z</time>
      </trkpt>
      <trkpt lat="45.8627" lon="4.79155">
        <ele>478.75879</ele>
        <time>2023-06-14T17:44:13.000Z</time>
      </trkpt>
      <trkpt lat="45.86274" lon="4.79159">
        <ele>478.47348</ele>
        <time>2023-06-14T17:44:14.000Z</time>
      </trkpt>
      <trkpt lat="45.86279" lon="4.79165">
        <ele>478.21378</ele>
        <time>2023-06-14T17:44:15.000Z</time>
      </trkpt>
      <trkpt lat="45.86283" lon="4.79171">
        <ele>477.97974</ele>
        <time>2023-06-14T17:44:16.000Z</time>
      </trkpt>
      <trkpt lat="45.86287" lon="4.79178">
        <ele>477.45078</ele>
        <time>2023-06-14T17:44:17.000Z</time>
      </trkpt>
      <trkpt lat="45.86296" lon="4.79186">
        <ele>476.66235</ele>
        <time>2023-06-14T17:44:18.000Z</time>
      </trkpt>
      <trkpt lat="45.86302" lon="4.79192">
        <ele>475.78583</ele>
        <time>2023-06-14T17:44:19.000Z</time>
      </trkpt>
      <trkpt lat="45.86309" lon="4.79195">
        <ele>474.98788</ele>
        <time>2023-06-14T17:44:20.000Z</time>
      </trkpt>
      <trkpt lat="45.86313" lon="4.79204">
        <ele>474.29742</ele>
        <time>2023-06-14T17:44:21.000Z</time>
      </trkpt>
      <trkpt lat="45.86318" lon="4.79211">
        <ele>473.59821</ele>
        <time>2023-06-14T17:44:22.000Z</time>
      </trkpt>
      <trkpt lat="45.86324" lon="4.79216">
        <ele>472.92447</ele>
        <time>2023-06-14T17:44:23.000Z</time>
      </trkpt>
      <trkpt lat="45.86331" lon="4.79223">
        <ele>472.23282</ele>
        <time>2023-06-14T17:44:24.000Z</time>
      </trkpt>
      <trkpt lat="45.86338" lon="4.7923">
        <ele>471.69931</ele>
        <time>2023-06-14T17:44:25.000Z</time>
      </trkpt>
      <trkpt lat="45.86344" lon="4.79238">
        <ele>470.96979</ele>
        <time>2023-06-14T17:44:26.000Z</time>
      </trkpt>
      <trkpt lat="45.86353" lon="4.79246">
        <ele>470.35043</ele>
        <time>2023-06-14T17:44:27.000Z</time>
      </trkpt>
      <trkpt lat="45.8636" lon="4.79253">
        <ele>469.9328</ele>
        <time>2023-06-14T17:44:28.000Z</time>
      </trkpt>
      <trkpt lat="45.86369" lon="4.79264">
        <ele>469.61896</ele>
        <time>2023-06-14T17:44:29.000Z</time>
      </trkpt>
      <trkpt lat="45.86377" lon="4.79273">
        <ele>469.11612</ele>
        <time>2023-06-14T17:44:30.000Z</time>
      </trkpt>
      <trkpt lat="45.86387" lon="4.79282">
        <ele>468.82349</ele>
        <time>2023-06-14T17:44:31.000Z</time>
      </trkpt>
      <trkpt lat="45.86396" lon="4.7929">
        <ele>468.55728</ele>
        <time>2023-06-14T17:44:32.000Z</time>
      </trkpt>
      <trkpt lat="45.86402" lon="4.79299">
        <ele>468.35004</ele>
        <time>2023-06-14T17:44:33.000Z</time>
      </trkpt>
      <trkpt lat="45.86407" lon="4.79307">
        <ele>467.49628</ele>
        <time>2023-06-14T17:44:34.000Z</time>
      </trkpt>
      <trkpt lat="45.86414" lon="4.79316">
        <ele>466.69717</ele>
        <time>2023-06-14T17:44:35.000Z</time>
      </trkpt>
      <trkpt lat="45.86422" lon="4.79328">
        <ele>465.76587</ele>
        <time>2023-06-14T17:44:36.000Z</time>
      </trkpt>
      <trkpt lat="45.8643" lon="4.79337">
        <ele>465.39471</ele>
        <time>2023-06-14T17:44:37.000Z</time>
      </trkpt>
      <trkpt lat="45.86439" lon="4.79345">
        <ele>464.98843</ele>
        <time>2023-06-14T17:44:38.000Z</time>
      </trkpt>
      <trkpt lat="45.86448" lon="4.79359">
        <ele>464.64926</ele>
        <time>2023-06-14T17:44:39.000Z</time>
      </trkpt>
      <trkpt lat="45.86457" lon="4.79368">
        <ele>464.32651</ele>
        <time>2023-06-14T17:44:40.000Z</time>
      </trkpt>
      <trkpt lat="45.86463" lon="4.79376">
        <ele>464.19858</ele>
        <time>2023-06-14T17:44:41.000Z</time>
      </trkpt>
      <trkpt lat="45.86472" lon="4.79387">
        <ele>464.12427</ele>
        <time>2023-06-14T17:44:42.000Z</time>
      </trkpt>
      <trkpt lat="45.86481" lon="4.79397">
        <ele>464.0141</ele>
        <time>2023-06-14T17:44:43.000Z</time>
      </trkpt>
      <trkpt lat="45.86489" lon="4.79406">
        <ele>463.87949</ele>
        <time>2023-06-14T17:44:44.000Z</time>
      </trkpt>
      <trkpt lat="45.86498" lon="4.79417">
        <ele>463.81158</ele>
        <time>2023-06-14T17:44:45.000Z</time>
      </trkpt>
      <trkpt lat="45.86507" lon="4.79426">
        <ele>463.8566</ele>
        <time>2023-06-14T17:44:46.000Z</time>
      </trkpt>
      <trkpt lat="45.86515" lon="4.79434">
        <ele>463.84042</ele>
        <time>2023-06-14T17:44:47.000Z</time>
      </trkpt>
      <trkpt lat="45.86525" lon="4.79441">
        <ele>463.92709</ele>
        <time>2023-06-14T17:44:48.000Z</time>
      </trkpt>
      <trkpt lat="45.86532" lon="4.79449">
        <ele>463.89355</ele>
        <time>2023-06-14T17:44:49.000Z</time>
      </trkpt>
      <trkpt lat="45.86542" lon="4.79456">
        <ele>463.94794</ele>
        <time>2023-06-14T17:44:50.000Z</time>
      </trkpt>
      <trkpt lat="45.86551" lon="4.79469">
        <ele>463.81161</ele>
        <time>2023-06-14T17:44:51.000Z</time>
      </trkpt>
      <trkpt lat="45.86559" lon="4.79478">
        <ele>463.91071</ele>
        <time>2023-06-14T17:44:52.000Z</time>
      </trkpt>
      <trkpt lat="45.86567" lon="4.79486">
        <ele>463.86761</ele>
        <time>2023-06-14T17:44:53.000Z</time>
      </trkpt>
      <trkpt lat="45.86576" lon="4.79496">
        <ele>463.88763</ele>
        <time>2023-06-14T17:44:54.000Z</time>
      </trkpt>
      <trkpt lat="45.86585" lon="4.79504">
        <ele>463.86914</ele>
        <time>2023-06-14T17:44:55.000Z</time>
      </trkpt>
      <trkpt lat="45.86597" lon="4.79517">
        <ele>463.82837</ele>
        <time>2023-06-14T17:44:56.000Z</time>
      </trkpt>
      <trkpt lat="45.86604" lon="4.79526">
        <ele>463.37543</ele>
        <time>2023-06-14T17:44:57.000Z</time>
      </trkpt>
      <trkpt lat="45.8661" lon="4.79535">
        <ele>463.12207</ele>
        <time>2023-06-14T17:44:58.000Z</time>
      </trkpt>
      <trkpt lat="45.86616" lon="4.79545">
        <ele>462.8847</ele>
        <time>2023-06-14T17:44:59.000Z</time>
      </trkpt>
      <trkpt lat="45.86622" lon="4.79555">
        <ele>462.65228</ele>
        <time>2023-06-14T17:45:00.000Z</time>
      </trkpt>
      <trkpt lat="45.86628" lon="4.79564">
        <ele>462.30096</ele>
        <time>2023-06-14T17:45:01.000Z</time>
      </trkpt>
      <trkpt lat="45.86634" lon="4.79575">
        <ele>461.81552</ele>
        <time>2023-06-14T17:45:02.000Z</time>
      </trkpt>
      <trkpt lat="45.8664" lon="4.79588">
        <ele>461.29297</ele>
        <time>2023-06-14T17:45:03.000Z</time>
      </trkpt>
      <trkpt lat="45.86644" lon="4.79599">
        <ele>460.74957</ele>
        <time>2023-06-14T17:45:04.000Z</time>
      </trkpt>
      <trkpt lat="45.86648" lon="4.79608">
        <ele>460.12872</ele>
        <time>2023-06-14T17:45:05.000Z</time>
      </trkpt>
      <trkpt lat="45.86654" lon="4.79617">
        <ele>459.52969</ele>
        <time>2023-06-14T17:45:06.000Z</time>
      </trkpt>
      <trkpt lat="45.86656" lon="4.79624">
        <ele>458.94897</ele>
        <time>2023-06-14T17:45:07.000Z</time>
      </trkpt>
      <trkpt lat="45.86653" lon="4.79632">
        <ele>458.54053</ele>
        <time>2023-06-14T17:45:08.000Z</time>
      </trkpt>
      <trkpt lat="45.86653" lon="4.79638">
        <ele>458.25204</ele>
        <time>2023-06-14T17:45:09.000Z</time>
      </trkpt>
      <trkpt lat="45.86655" lon="4.79643">
        <ele>458.12857</ele>
        <time>2023-06-14T17:45:10.000Z</time>
      </trkpt>
      <trkpt lat="45.86659" lon="4.79647">
        <ele>458.13541</ele>
        <time>2023-06-14T17:45:11.000Z</time>
      </trkpt>
      <trkpt lat="45.86664" lon="4.79654">
        <ele>457.81464</ele>
        <time>2023-06-14T17:45:12.000Z</time>
      </trkpt>
      <trkpt lat="45.86668" lon="4.79663">
        <ele>459.3642</ele>
        <time>2023-06-14T17:45:13.000Z</time>
      </trkpt>
      <trkpt lat="45.86672" lon="4.79673">
        <ele>459.27451</ele>
        <time>2023-06-14T17:45:14.000Z</time>
      </trkpt>
      <trkpt lat="45.86673" lon="4.79683">
        <ele>459.82892</ele>
        <time>2023-06-14T17:45:15.000Z</time>
      </trkpt>
      <trkpt lat="45.86674" lon="4.79695">
        <ele>460.45743</ele>
        <time>2023-06-14T17:45:16.000Z</time>
      </trkpt>
      <trkpt lat="45.86673" lon="4.79707">
        <ele>460.76019</ele>
        <time>2023-06-14T17:45:17.000Z</time>
      </trkpt>
      <trkpt lat="45.86671" lon="4.79719">
        <ele>460.89877</ele>
        <time>2023-06-14T17:45:18.000Z</time>
      </trkpt>
      <trkpt lat="45.86669" lon="4.7973">
        <ele>460.97015</ele>
        <time>2023-06-14T17:45:19.000Z</time>
      </trkpt>
      <trkpt lat="45.86666" lon="4.79741">
        <ele>461.05719</ele>
        <time>2023-06-14T17:45:20.000Z</time>
      </trkpt>
      <trkpt lat="45.86661" lon="4.7975">
        <ele>461.21661</ele>
        <time>2023-06-14T17:45:21.000Z</time>
      </trkpt>
      <trkpt lat="45.86657" lon="4.7976">
        <ele>461.43881</ele>
        <time>2023-06-14T17:45:22.000Z</time>
      </trkpt>
      <trkpt lat="45.86652" lon="4.79769">
        <ele>457.04379</ele>
        <time>2023-06-14T17:45:23.000Z</time>
      </trkpt>
      <trkpt lat="45.86649" lon="4.79776">
        <ele>457.1188</ele>
        <time>2023-06-14T17:45:24.000Z</time>
      </trkpt>
      <trkpt lat="45.86646" lon="4.79781">
        <ele>457.25073</ele>
        <time>2023-06-14T17:45:25.000Z</time>
      </trkpt>
      <trkpt lat="45.86643" lon="4.79786">
        <ele>457.35416</ele>
        <time>2023-06-14T17:45:26.000Z</time>
      </trkpt>
      <trkpt lat="45.86639" lon="4.79792">
        <ele>457.43536</ele>
        <time>2023-06-14T17:45:27.000Z</time>
      </trkpt>
      <trkpt lat="45.86638" lon="4.79797">
        <ele>457.35968</ele>
        <time>2023-06-14T17:45:28.000Z</time>
      </trkpt>
      <trkpt lat="45.86637" lon="4.79802">
        <ele>451.7016</ele>
        <time>2023-06-14T17:45:30.000Z</time>
      </trkpt>
      <trkpt lat="45.86638" lon="4.79806">
        <ele>451.37408</ele>
        <time>2023-06-14T17:45:31.000Z</time>
      </trkpt>
      <trkpt lat="45.86638" lon="4.7981">
        <ele>451.03632</ele>
        <time>2023-06-14T17:45:32.000Z</time>
      </trkpt>
      <trkpt lat="45.86637" lon="4.79814">
        <ele>450.68134</ele>
        <time>2023-06-14T17:45:34.000Z</time>
      </trkpt>
      <trkpt lat="45.86634" lon="4.79819">
        <ele>448.61337</ele>
        <time>2023-06-14T17:45:35.000Z</time>
      </trkpt>
      <trkpt lat="45.86633" lon="4.79824">
        <ele>449.71143</ele>
        <time>2023-06-14T17:45:37.000Z</time>
      </trkpt>
      <trkpt lat="45.86632" lon="4.79827">
        <ele>449.38281</ele>
        <time>2023-06-14T17:45:38.000Z</time>
      </trkpt>
      <trkpt lat="45.8663" lon="4.79832">
        <ele>449.12686</ele>
        <time>2023-06-14T17:45:39.000Z</time>
      </trkpt>
      <trkpt lat="45.86628" lon="4.79836">
        <ele>449.22275</ele>
        <time>2023-06-14T17:45:40.000Z</time>
      </trkpt>
      <trkpt lat="45.86626" lon="4.79841">
        <ele>449.53116</ele>
        <time>2023-06-14T17:45:41.000Z</time>
      </trkpt>
      <trkpt lat="45.86624" lon="4.79844">
        <ele>449.85742</ele>
        <time>2023-06-14T17:45:42.000Z</time>
      </trkpt>
      <trkpt lat="45.86618" lon="4.79851">
        <ele>449.62656</ele>
        <time>2023-06-14T17:45:43.000Z</time>
      </trkpt>
      <trkpt lat="45.86615" lon="4.79856">
        <ele>449.15918</ele>
        <time>2023-06-14T17:45:44.000Z</time>
      </trkpt>
      <trkpt lat="45.86612" lon="4.79862">
        <ele>448.5257</ele>
        <time>2023-06-14T17:45:45.000Z</time>
      </trkpt>
      <trkpt lat="45.8661" lon="4.79866">
        <ele>452.52115</ele>
        <time>2023-06-14T17:45:46.000Z</time>
      </trkpt>
      <trkpt lat="45.86606" lon="4.79871">
        <ele>452.00043</ele>
        <time>2023-06-14T17:45:47.000Z</time>
      </trkpt>
      <trkpt lat="45.86603" lon="4.79875">
        <ele>451.49994</ele>
        <time>2023-06-14T17:45:48.000Z</time>
      </trkpt>
      <trkpt lat="45.866" lon="4.79878">
        <ele>451.01987</ele>
        <time>2023-06-14T17:45:49.000Z</time>
      </trkpt>
      <trkpt lat="45.86597" lon="4.79883">
        <ele>450.51727</ele>
        <time>2023-06-14T17:45:50.000Z</time>
      </trkpt>
      <trkpt lat="45.86593" lon="4.79887">
        <ele>450.05997</ele>
        <time>2023-06-14T17:45:51.000Z</time>
      </trkpt>
      <trkpt lat="45.86589" lon="4.7989">
        <ele>455.22552</ele>
        <time>2023-06-14T17:45:52.000Z</time>
      </trkpt>
      <trkpt lat="45.86587" lon="4.79894">
        <ele>455.07135</ele>
        <time>2023-06-14T17:45:53.000Z</time>
      </trkpt>
      <trkpt lat="45.86585" lon="4.79897">
        <ele>454.93097</ele>
        <time>2023-06-14T17:45:54.000Z</time>
      </trkpt>
      <trkpt lat="45.86584" lon="4.79902">
        <ele>454.81699</ele>
        <time>2023-06-14T17:45:55.000Z</time>
      </trkpt>
      <trkpt lat="45.86585" lon="4.79906">
        <ele>455.02377</ele>
        <time>2023-06-14T17:45:56.000Z</time>
      </trkpt>
      <trkpt lat="45.86585" lon="4.7991">
        <ele>454.75317</ele>
        <time>2023-06-14T17:45:57.000Z</time>
      </trkpt>
      <trkpt lat="45.86587" lon="4.79912">
        <ele>455.60733</ele>
        <time>2023-06-14T17:45:58.000Z</time>
      </trkpt>
      <trkpt lat="45.86591" lon="4.79915">
        <ele>455.36563</ele>
        <time>2023-06-14T17:45:59.000Z</time>
      </trkpt>
      <trkpt lat="45.86594" lon="4.79916">
        <ele>455.11826</ele>
        <time>2023-06-14T17:46:00.000Z</time>
      </trkpt>
      <trkpt lat="45.86598" lon="4.79918">
        <ele>454.80817</ele>
        <time>2023-06-14T17:46:01.000Z</time>
      </trkpt>
      <trkpt lat="45.86602" lon="4.7992">
        <ele>454.38702</ele>
        <time>2023-06-14T17:46:02.000Z</time>
      </trkpt>
      <trkpt lat="45.86605" lon="4.79922">
        <ele>454.54395</ele>
        <time>2023-06-14T17:46:03.000Z</time>
      </trkpt>
      <trkpt lat="45.8661" lon="4.79924">
        <ele>454.95502</ele>
        <time>2023-06-14T17:46:04.000Z</time>
      </trkpt>
      <trkpt lat="45.86614" lon="4.79927">
        <ele>455.51801</ele>
        <time>2023-06-14T17:46:05.000Z</time>
      </trkpt>
      <trkpt lat="45.86618" lon="4.7993">
        <ele>456.12885</ele>
        <time>2023-06-14T17:46:06.000Z</time>
      </trkpt>
      <trkpt lat="45.86623" lon="4.79932">
        <ele>456.84784</ele>
        <time>2023-06-14T17:46:07.000Z</time>
      </trkpt>
      <trkpt lat="45.86627" lon="4.79935">
        <ele>457.54254</ele>
        <time>2023-06-14T17:46:08.000Z</time>
      </trkpt>
      <trkpt lat="45.86631" lon="4.79938">
        <ele>458.19662</ele>
        <time>2023-06-14T17:46:09.000Z</time>
      </trkpt>
      <trkpt lat="45.86635" lon="4.79941">
        <ele>458.83456</ele>
        <time>2023-06-14T17:46:10.000Z</time>
      </trkpt>
      <trkpt lat="45.8664" lon="4.79942">
        <ele>459.38959</ele>
        <time>2023-06-14T17:46:11.000Z</time>
      </trkpt>
      <trkpt lat="45.86645" lon="4.79945">
        <ele>459.90601</ele>
        <time>2023-06-14T17:46:12.000Z</time>
      </trkpt>
      <trkpt lat="45.8665" lon="4.79947">
        <ele>461.66415</ele>
        <time>2023-06-14T17:46:13.000Z</time>
      </trkpt>
      <trkpt lat="45.86655" lon="4.79951">
        <ele>462.94009</ele>
        <time>2023-06-14T17:46:14.000Z</time>
      </trkpt>
      <trkpt lat="45.86659" lon="4.79956">
        <ele>464.19156</ele>
        <time>2023-06-14T17:46:15.000Z</time>
      </trkpt>
      <trkpt lat="45.86662" lon="4.7996">
        <ele>465.13287</ele>
        <time>2023-06-14T17:46:16.000Z</time>
      </trkpt>
      <trkpt lat="45.86665" lon="4.79964">
        <ele>464.15961</ele>
        <time>2023-06-14T17:46:17.000Z</time>
      </trkpt>
      <trkpt lat="45.86668" lon="4.79968">
        <ele>462.69296</ele>
        <time>2023-06-14T17:46:18.000Z</time>
      </trkpt>
      <trkpt lat="45.86672" lon="4.79972">
        <ele>462.29034</ele>
        <time>2023-06-14T17:46:19.000Z</time>
      </trkpt>
      <trkpt lat="45.86675" lon="4.79979">
        <ele>461.83099</ele>
        <time>2023-06-14T17:46:20.000Z</time>
      </trkpt>
      <trkpt lat="45.86676" lon="4.79984">
        <ele>461.35385</ele>
        <time>2023-06-14T17:46:21.000Z</time>
      </trkpt>
      <trkpt lat="45.86678" lon="4.79988">
        <ele>460.93817</ele>
        <time>2023-06-14T17:46:22.000Z</time>
      </trkpt>
      <trkpt lat="45.86681" lon="4.79992">
        <ele>461.65918</ele>
        <time>2023-06-14T17:46:23.000Z</time>
      </trkpt>
      <trkpt lat="45.86683" lon="4.79997">
        <ele>462.38409</ele>
        <time>2023-06-14T17:46:24.000Z</time>
      </trkpt>
      <trkpt lat="45.86687" lon="4.80001">
        <ele>463.62012</ele>
        <time>2023-06-14T17:46:25.000Z</time>
      </trkpt>
      <trkpt lat="45.8669" lon="4.80004">
        <ele>465.31445</ele>
        <time>2023-06-14T17:46:26.000Z</time>
      </trkpt>
      <trkpt lat="45.86695" lon="4.80006">
        <ele>465.52969</ele>
        <time>2023-06-14T17:46:27.000Z</time>
      </trkpt>
      <trkpt lat="45.86698" lon="4.80005">
        <ele>465.75601</ele>
        <time>2023-06-14T17:46:28.000Z</time>
      </trkpt>
      <trkpt lat="45.867" lon="4.80006">
        <ele>466.00723</ele>
        <time>2023-06-14T17:46:29.000Z</time>
      </trkpt>
      <trkpt lat="45.86703" lon="4.80008">
        <ele>467.02866</ele>
        <time>2023-06-14T17:46:30.000Z</time>
      </trkpt>
      <trkpt lat="45.86705" lon="4.80011">
        <ele>468.31445</ele>
        <time>2023-06-14T17:46:31.000Z</time>
      </trkpt>
      <trkpt lat="45.86707" lon="4.80013">
        <ele>469.52264</ele>
        <time>2023-06-14T17:46:32.000Z</time>
      </trkpt>
      <trkpt lat="45.8671" lon="4.80015">
        <ele>467.88959</ele>
        <time>2023-06-14T17:46:33.000Z</time>
      </trkpt>
      <trkpt lat="45.86712" lon="4.80018">
        <ele>466.72787</ele>
        <time>2023-06-14T17:46:34.000Z</time>
      </trkpt>
      <trkpt lat="45.86714" lon="4.80022">
        <ele>465.60468</ele>
        <time>2023-06-14T17:46:35.000Z</time>
      </trkpt>
      <trkpt lat="45.86716" lon="4.80026">
        <ele>464.50235</ele>
        <time>2023-06-14T17:46:36.000Z</time>
      </trkpt>
      <trkpt lat="45.86718" lon="4.80031">
        <ele>464.2731</ele>
        <time>2023-06-14T17:46:37.000Z</time>
      </trkpt>
      <trkpt lat="45.8672" lon="4.80034">
        <ele>464.24518</ele>
        <time>2023-06-14T17:46:39.000Z</time>
      </trkpt>
      <trkpt lat="45.8672" lon="4.80038">
        <ele>464.22177</ele>
        <time>2023-06-14T17:46:41.000Z</time>
      </trkpt>
      <trkpt lat="45.8672" lon="4.8004">
        <ele>464.21899</ele>
        <time>2023-06-14T17:46:42.000Z</time>
      </trkpt>
      <trkpt lat="45.8672" lon="4.80043">
        <ele>464.22858</ele>
        <time>2023-06-14T17:46:43.000Z</time>
      </trkpt>
      <trkpt lat="45.8672" lon="4.80046">
        <ele>464.2706</ele>
        <time>2023-06-14T17:46:44.000Z</time>
      </trkpt>
      <trkpt lat="45.8672" lon="4.8005">
        <ele>463.15854</ele>
        <time>2023-06-14T17:46:45.000Z</time>
      </trkpt>
      <trkpt lat="45.8672" lon="4.80054">
        <ele>462.03607</ele>
        <time>2023-06-14T17:46:46.000Z</time>
      </trkpt>
      <trkpt lat="45.86721" lon="4.80059">
        <ele>460.40118</ele>
        <time>2023-06-14T17:46:47.000Z</time>
      </trkpt>
      <trkpt lat="45.86722" lon="4.80062">
        <ele>458.32217</ele>
        <time>2023-06-14T17:46:48.000Z</time>
      </trkpt>
      <trkpt lat="45.86723" lon="4.80066">
        <ele>457.61539</ele>
        <time>2023-06-14T17:46:49.000Z</time>
      </trkpt>
      <trkpt lat="45.86724" lon="4.8007">
        <ele>456.89999</ele>
        <time>2023-06-14T17:46:50.000Z</time>
      </trkpt>
      <trkpt lat="45.86725" lon="4.80074">
        <ele>456.16571</ele>
        <time>2023-06-14T17:46:51.000Z</time>
      </trkpt>
      <trkpt lat="45.86726" lon="4.80077">
        <ele>454.68451</ele>
        <time>2023-06-14T17:46:52.000Z</time>
      </trkpt>
      <trkpt lat="45.86726" lon="4.80081">
        <ele>453.01627</ele>
        <time>2023-06-14T17:46:53.000Z</time>
      </trkpt>
      <trkpt lat="45.86727" lon="4.80086">
        <ele>451.43427</ele>
        <time>2023-06-14T17:46:54.000Z</time>
      </trkpt>
      <trkpt lat="45.86729" lon="4.80091">
        <ele>451.47372</ele>
        <time>2023-06-14T17:46:55.000Z</time>
      </trkpt>
      <trkpt lat="45.8673" lon="4.80095">
        <ele>451.56403</ele>
        <time>2023-06-14T17:46:56.000Z</time>
      </trkpt>
      <trkpt lat="45.86732" lon="4.80099">
        <ele>451.62003</ele>
        <time>2023-06-14T17:46:57.000Z</time>
      </trkpt>
      <trkpt lat="45.86733" lon="4.80102">
        <ele>451.70465</ele>
        <time>2023-06-14T17:46:58.000Z</time>
      </trkpt>
      <trkpt lat="45.86733" lon="4.80106">
        <ele>451.82001</ele>
        <time>2023-06-14T17:46:59.000Z</time>
      </trkpt>
      <trkpt lat="45.86735" lon="4.80111">
        <ele>451.94598</ele>
        <time>2023-06-14T17:47:00.000Z</time>
      </trkpt>
      <trkpt lat="45.86736" lon="4.80115">
        <ele>452.06738</ele>
        <time>2023-06-14T17:47:01.000Z</time>
      </trkpt>
      <trkpt lat="45.86738" lon="4.80119">
        <ele>452.19424</ele>
        <time>2023-06-14T17:47:02.000Z</time>
      </trkpt>
      <trkpt lat="45.86739" lon="4.80123">
        <ele>452.26385</ele>
        <time>2023-06-14T17:47:03.000Z</time>
      </trkpt>
      <trkpt lat="45.86741" lon="4.80126">
        <ele>452.3371</ele>
        <time>2023-06-14T17:47:04.000Z</time>
      </trkpt>
      <trkpt lat="45.86743" lon="4.8013">
        <ele>452.41699</ele>
        <time>2023-06-14T17:47:05.000Z</time>
      </trkpt>
      <trkpt lat="45.86745" lon="4.80133">
        <ele>452.51108</ele>
        <time>2023-06-14T17:47:06.000Z</time>
      </trkpt>
      <trkpt lat="45.86747" lon="4.80136">
        <ele>452.58798</ele>
        <time>2023-06-14T17:47:07.000Z</time>
      </trkpt>
      <trkpt lat="45.86749" lon="4.80139">
        <ele>452.69293</ele>
        <time>2023-06-14T17:47:08.000Z</time>
      </trkpt>
      <trkpt lat="45.86751" lon="4.80142">
        <ele>452.85162</ele>
        <time>2023-06-14T17:47:09.000Z</time>
      </trkpt>
      <trkpt lat="45.86753" lon="4.80145">
        <ele>453.02057</ele>
        <time>2023-06-14T17:47:10.000Z</time>
      </trkpt>
      <trkpt lat="45.86755" lon="4.80148">
        <ele>453.19702</ele>
        <time>2023-06-14T17:47:11.000Z</time>
      </trkpt>
      <trkpt lat="45.86757" lon="4.80151">
        <ele>453.37338</ele>
        <time>2023-06-14T17:47:12.000Z</time>
      </trkpt>
      <trkpt lat="45.86758" lon="4.80154">
        <ele>453.54419</ele>
        <time>2023-06-14T17:47:13.000Z</time>
      </trkpt>
      <trkpt lat="45.86759" lon="4.80157">
        <ele>453.63861</ele>
        <time>2023-06-14T17:47:14.000Z</time>
      </trkpt>
      <trkpt lat="45.86762" lon="4.8016">
        <ele>453.80386</ele>
        <time>2023-06-14T17:47:15.000Z</time>
      </trkpt>
      <trkpt lat="45.86766" lon="4.80161">
        <ele>453.91034</ele>
        <time>2023-06-14T17:47:16.000Z</time>
      </trkpt>
      <trkpt lat="45.8677" lon="4.80159">
        <ele>454.69327</ele>
        <time>2023-06-14T17:47:17.000Z</time>
      </trkpt>
      <trkpt lat="45.86773" lon="4.80155">
        <ele>454.76349</ele>
        <time>2023-06-14T17:47:18.000Z</time>
      </trkpt>
      <trkpt lat="45.86774" lon="4.8015">
        <ele>454.79312</ele>
        <time>2023-06-14T17:47:19.000Z</time>
      </trkpt>
      <trkpt lat="45.86774" lon="4.80145">
        <ele>455.18643</ele>
        <time>2023-06-14T17:47:20.000Z</time>
      </trkpt>
      <trkpt lat="45.86773" lon="4.80141">
        <ele>455.58246</ele>
        <time>2023-06-14T17:47:21.000Z</time>
      </trkpt>
      <trkpt lat="45.86772" lon="4.80139">
        <ele>455.97672</ele>
        <time>2023-06-14T17:47:22.000Z</time>
      </trkpt>
      <trkpt lat="45.8677" lon="4.80137">
        <ele>456.3287</ele>
        <time>2023-06-14T17:47:23.000Z</time>
      </trkpt>
      <trkpt lat="45.86767" lon="4.80135">
        <ele>456.80688</ele>
        <time>2023-06-14T17:47:25.000Z</time>
      </trkpt>
      <trkpt lat="45.86766" lon="4.80133">
        <ele>457.26553</ele>
        <time>2023-06-14T17:47:27.000Z</time>
      </trkpt>
      <trkpt lat="45.86765" lon="4.80131">
        <ele>457.70392</ele>
        <time>2023-06-14T17:47:29.000Z</time>
      </trkpt>
      <trkpt lat="45.86765" lon="4.80131">
        <ele>457.70392</ele>
        <time>2023-06-14T17:47:29.000Z</time>
      </trkpt>
      <trkpt lat="45.86767" lon="4.80132">
        <ele>458.29477</ele>
        <time>2023-06-14T17:54:29.000Z</time>
      </trkpt>
      <trkpt lat="45.86767" lon="4.80132">
        <ele>458.29477</ele>
        <time>2023-06-14T17:54:29.000Z</time>
      </trkpt>
      <trkpt lat="45.86769" lon="4.80132">
        <ele>458.88589</ele>
        <time>2023-06-14T17:55:04.000Z</time>
      </trkpt>
      <trkpt lat="45.86769" lon="4.80128">
        <ele>459.44711</ele>
        <time>2023-06-14T17:55:09.000Z</time>
      </trkpt>
      <trkpt lat="45.86768" lon="4.80124">
        <ele>459.9931</ele>
        <time>2023-06-14T17:55:11.000Z</time>
      </trkpt>
      <trkpt lat="45.86767" lon="4.80123">
        <ele>460.46811</ele>
        <time>2023-06-14T17:55:12.000Z</time>
      </trkpt>
      <trkpt lat="45.86763" lon="4.80123">
        <ele>460.9527</ele>
        <time>2023-06-14T17:55:14.000Z</time>
      </trkpt>
      <trkpt lat="45.86762" lon="4.80125">
        <ele>461.4516</ele>
        <time>2023-06-14T17:55:15.000Z</time>
      </trkpt>
      <trkpt lat="45.86761" lon="4.80127">
        <ele>462.03427</ele>
        <time>2023-06-14T17:55:16.000Z</time>
      </trkpt>
      <trkpt lat="45.86761" lon="4.80131">
        <ele>462.52179</ele>
        <time>2023-06-14T17:55:17.000Z</time>
      </trkpt>
      <trkpt lat="45.86761" lon="4.80135">
        <ele>463.02719</ele>
        <time>2023-06-14T17:55:18.000Z</time>
      </trkpt>
      <trkpt lat="45.86761" lon="4.80138">
        <ele>462.85205</ele>
        <time>2023-06-14T17:55:19.000Z</time>
      </trkpt>
      <trkpt lat="45.86761" lon="4.80142">
        <ele>463.33505</ele>
        <time>2023-06-14T17:55:20.000Z</time>
      </trkpt>
      <trkpt lat="45.86759" lon="4.80144">
        <ele>463.77484</ele>
        <time>2023-06-14T17:55:22.000Z</time>
      </trkpt>
      <trkpt lat="45.86756" lon="4.80143">
        <ele>463.86108</ele>
        <time>2023-06-14T17:55:23.000Z</time>
      </trkpt>
      <trkpt lat="45.86753" lon="4.80143">
        <ele>464.00049</ele>
        <time>2023-06-14T17:55:24.000Z</time>
      </trkpt>
      <trkpt lat="45.86751" lon="4.80142">
        <ele>464.14902</ele>
        <time>2023-06-14T17:55:25.000Z</time>
      </trkpt>
      <trkpt lat="45.86747" lon="4.8014">
        <ele>464.39203</ele>
        <time>2023-06-14T17:55:26.000Z</time>
      </trkpt>
      <trkpt lat="45.86743" lon="4.80137">
        <ele>464.4957</ele>
        <time>2023-06-14T17:55:27.000Z</time>
      </trkpt>
      <trkpt lat="45.8674" lon="4.80134">
        <ele>464.58212</ele>
        <time>2023-06-14T17:55:28.000Z</time>
      </trkpt>
      <trkpt lat="45.86739" lon="4.80132">
        <ele>464.64838</ele>
        <time>2023-06-14T17:55:29.000Z</time>
      </trkpt>
      <trkpt lat="45.86738" lon="4.80129">
        <ele>464.58966</ele>
        <time>2023-06-14T17:55:34.000Z</time>
      </trkpt>
      <trkpt lat="45.86739" lon="4.80127">
        <ele>464.51392</ele>
        <time>2023-06-14T17:55:42.000Z</time>
      </trkpt>
      <trkpt lat="45.86737" lon="4.80122">
        <ele>464.42694</ele>
        <time>2023-06-14T17:55:44.000Z</time>
      </trkpt>
      <trkpt lat="45.86735" lon="4.80117">
        <ele>464.31558</ele>
        <time>2023-06-14T17:55:45.000Z</time>
      </trkpt>
      <trkpt lat="45.86734" lon="4.80113">
        <ele>464.24786</ele>
        <time>2023-06-14T17:55:46.000Z</time>
      </trkpt>
      <trkpt lat="45.86732" lon="4.80108">
        <ele>464.18423</ele>
        <time>2023-06-14T17:55:47.000Z</time>
      </trkpt>
      <trkpt lat="45.86731" lon="4.80103">
        <ele>464.04901</ele>
        <time>2023-06-14T17:55:48.000Z</time>
      </trkpt>
      <trkpt lat="45.8673" lon="4.80097">
        <ele>463.8956</ele>
        <time>2023-06-14T17:55:49.000Z</time>
      </trkpt>
      <trkpt lat="45.86729" lon="4.80088">
        <ele>463.7316</ele>
        <time>2023-06-14T17:55:50.000Z</time>
      </trkpt>
      <trkpt lat="45.86727" lon="4.80081">
        <ele>463.55426</ele>
        <time>2023-06-14T17:55:51.000Z</time>
      </trkpt>
      <trkpt lat="45.86725" lon="4.80073">
        <ele>463.35138</ele>
        <time>2023-06-14T17:55:52.000Z</time>
      </trkpt>
      <trkpt lat="45.86726" lon="4.80069">
        <ele>463.12207</ele>
        <time>2023-06-14T17:55:53.000Z</time>
      </trkpt>
      <trkpt lat="45.86724" lon="4.80059">
        <ele>462.92197</ele>
        <time>2023-06-14T17:55:54.000Z</time>
      </trkpt>
      <trkpt lat="45.86724" lon="4.80052">
        <ele>462.70102</ele>
        <time>2023-06-14T17:55:55.000Z</time>
      </trkpt>
      <trkpt lat="45.86724" lon="4.80048">
        <ele>462.43506</ele>
        <time>2023-06-14T17:55:56.000Z</time>
      </trkpt>
      <trkpt lat="45.86722" lon="4.80044">
        <ele>462.17661</ele>
        <time>2023-06-14T17:55:58.000Z</time>
      </trkpt>
      <trkpt lat="45.86722" lon="4.8004">
        <ele>461.8501</ele>
        <time>2023-06-14T17:56:00.000Z</time>
      </trkpt>
      <trkpt lat="45.8672" lon="4.80037">
        <ele>461.48193</ele>
        <time>2023-06-14T17:56:01.000Z</time>
      </trkpt>
      <trkpt lat="45.86718" lon="4.80032">
        <ele>461.14227</ele>
        <time>2023-06-14T17:56:02.000Z</time>
      </trkpt>
      <trkpt lat="45.86716" lon="4.80027">
        <ele>460.78384</ele>
        <time>2023-06-14T17:56:03.000Z</time>
      </trkpt>
      <trkpt lat="45.86715" lon="4.80023">
        <ele>460.36835</ele>
        <time>2023-06-14T17:56:04.000Z</time>
      </trkpt>
      <trkpt lat="45.86712" lon="4.8002">
        <ele>459.90137</ele>
        <time>2023-06-14T17:56:05.000Z</time>
      </trkpt>
      <trkpt lat="45.86708" lon="4.80018">
        <ele>459.45313</ele>
        <time>2023-06-14T17:56:06.000Z</time>
      </trkpt>
      <trkpt lat="45.86702" lon="4.80016">
        <ele>458.90591</ele>
        <time>2023-06-14T17:56:07.000Z</time>
      </trkpt>
      <trkpt lat="45.86697" lon="4.80015">
        <ele>458.36469</ele>
        <time>2023-06-14T17:56:08.000Z</time>
      </trkpt>
      <trkpt lat="45.86691" lon="4.80011">
        <ele>457.92285</ele>
        <time>2023-06-14T17:56:09.000Z</time>
      </trkpt>
      <trkpt lat="45.86687" lon="4.80006">
        <ele>457.52457</ele>
        <time>2023-06-14T17:56:10.000Z</time>
      </trkpt>
      <trkpt lat="45.86684" lon="4.79999">
        <ele>457.2067</ele>
        <time>2023-06-14T17:56:11.000Z</time>
      </trkpt>
      <trkpt lat="45.86682" lon="4.79993">
        <ele>456.91074</ele>
        <time>2023-06-14T17:56:12.000Z</time>
      </trkpt>
      <trkpt lat="45.8668" lon="4.79989">
        <ele>456.479</ele>
        <time>2023-06-14T17:56:13.000Z</time>
      </trkpt>
      <trkpt lat="45.86678" lon="4.79983">
        <ele>456.24554</ele>
        <time>2023-06-14T17:56:14.000Z</time>
      </trkpt>
      <trkpt lat="45.86675" lon="4.79978">
        <ele>455.89996</ele>
        <time>2023-06-14T17:56:15.000Z</time>
      </trkpt>
      <trkpt lat="45.86672" lon="4.79975">
        <ele>455.7453</ele>
        <time>2023-06-14T17:56:16.000Z</time>
      </trkpt>
      <trkpt lat="45.86669" lon="4.79972">
        <ele>455.6228</ele>
        <time>2023-06-14T17:56:17.000Z</time>
      </trkpt>
      <trkpt lat="45.86666" lon="4.79969">
        <ele>455.51593</ele>
        <time>2023-06-14T17:56:18.000Z</time>
      </trkpt>
      <trkpt lat="45.86664" lon="4.79966">
        <ele>455.39804</ele>
        <time>2023-06-14T17:56:19.000Z</time>
      </trkpt>
      <trkpt lat="45.8666" lon="4.79962">
        <ele>455.14581</ele>
        <time>2023-06-14T17:56:20.000Z</time>
      </trkpt>
      <trkpt lat="45.86658" lon="4.79958">
        <ele>454.94101</ele>
        <time>2023-06-14T17:56:21.000Z</time>
      </trkpt>
      <trkpt lat="45.86655" lon="4.79955">
        <ele>454.72574</ele>
        <time>2023-06-14T17:56:22.000Z</time>
      </trkpt>
      <trkpt lat="45.86651" lon="4.79953">
        <ele>454.69589</ele>
        <time>2023-06-14T17:56:23.000Z</time>
      </trkpt>
      <trkpt lat="45.86648" lon="4.7995">
        <ele>454.57422</ele>
        <time>2023-06-14T17:56:24.000Z</time>
      </trkpt>
      <trkpt lat="45.86644" lon="4.79948">
        <ele>454.51645</ele>
        <time>2023-06-14T17:56:25.000Z</time>
      </trkpt>
      <trkpt lat="45.86641" lon="4.79946">
        <ele>454.64844</ele>
        <time>2023-06-14T17:56:26.000Z</time>
      </trkpt>
      <trkpt lat="45.86638" lon="4.79943">
        <ele>454.90094</ele>
        <time>2023-06-14T17:56:27.000Z</time>
      </trkpt>
      <trkpt lat="45.86635" lon="4.79941">
        <ele>455.08505</ele>
        <time>2023-06-14T17:56:28.000Z</time>
      </trkpt>
      <trkpt lat="45.86631" lon="4.79939">
        <ele>455.08893</ele>
        <time>2023-06-14T17:56:29.000Z</time>
      </trkpt>
      <trkpt lat="45.86628" lon="4.79937">
        <ele>455.03094</ele>
        <time>2023-06-14T17:56:30.000Z</time>
      </trkpt>
      <trkpt lat="45.86624" lon="4.79935">
        <ele>454.90494</ele>
        <time>2023-06-14T17:56:31.000Z</time>
      </trkpt>
      <trkpt lat="45.8662" lon="4.79933">
        <ele>454.7811</ele>
        <time>2023-06-14T17:56:32.000Z</time>
      </trkpt>
      <trkpt lat="45.86617" lon="4.79931">
        <ele>454.83707</ele>
        <time>2023-06-14T17:56:33.000Z</time>
      </trkpt>
      <trkpt lat="45.86613" lon="4.79929">
        <ele>454.71866</ele>
        <time>2023-06-14T17:56:34.000Z</time>
      </trkpt>
      <trkpt lat="45.86609" lon="4.79927">
        <ele>454.76318</ele>
        <time>2023-06-14T17:56:35.000Z</time>
      </trkpt>
      <trkpt lat="45.86606" lon="4.79926">
        <ele>454.62384</ele>
        <time>2023-06-14T17:56:36.000Z</time>
      </trkpt>
      <trkpt lat="45.86602" lon="4.79924">
        <ele>454.60358</ele>
        <time>2023-06-14T17:56:37.000Z</time>
      </trkpt>
      <trkpt lat="45.86599" lon="4.79923">
        <ele>454.56235</ele>
        <time>2023-06-14T17:56:38.000Z</time>
      </trkpt>
      <trkpt lat="45.86596" lon="4.79922">
        <ele>454.57071</ele>
        <time>2023-06-14T17:56:39.000Z</time>
      </trkpt>
      <trkpt lat="45.86594" lon="4.7992">
        <ele>454.59253</ele>
        <time>2023-06-14T17:56:40.000Z</time>
      </trkpt>
      <trkpt lat="45.86591" lon="4.79918">
        <ele>454.61392</ele>
        <time>2023-06-14T17:56:41.000Z</time>
      </trkpt>
      <trkpt lat="45.86589" lon="4.79916">
        <ele>454.65805</ele>
        <time>2023-06-14T17:56:42.000Z</time>
      </trkpt>
      <trkpt lat="45.86586" lon="4.79914">
        <ele>454.55518</ele>
        <time>2023-06-14T17:56:43.000Z</time>
      </trkpt>
      <trkpt lat="45.86584" lon="4.79912">
        <ele>454.62524</ele>
        <time>2023-06-14T17:56:44.000Z</time>
      </trkpt>
      <trkpt lat="45.86582" lon="4.79909">
        <ele>454.67328</ele>
        <time>2023-06-14T17:56:46.000Z</time>
      </trkpt>
      <trkpt lat="45.86581" lon="4.79906">
        <ele>454.52557</ele>
        <time>2023-06-14T17:56:48.000Z</time>
      </trkpt>
      <trkpt lat="45.86582" lon="4.79903">
        <ele>454.58359</ele>
        <time>2023-06-14T17:57:16.000Z</time>
      </trkpt>
      <trkpt lat="45.86583" lon="4.799">
        <ele>454.53726</ele>
        <time>2023-06-14T17:57:18.000Z</time>
      </trkpt>
      <trkpt lat="45.86584" lon="4.79898">
        <ele>454.56284</ele>
        <time>2023-06-14T17:57:19.000Z</time>
      </trkpt>
      <trkpt lat="45.86586" lon="4.79896">
        <ele>454.61435</ele>
        <time>2023-06-14T17:57:20.000Z</time>
      </trkpt>
      <trkpt lat="45.86589" lon="4.79894">
        <ele>454.67618</ele>
        <time>2023-06-14T17:57:21.000Z</time>
      </trkpt>
      <trkpt lat="45.86591" lon="4.79891">
        <ele>454.71744</ele>
        <time>2023-06-14T17:57:22.000Z</time>
      </trkpt>
      <trkpt lat="45.86594" lon="4.79889">
        <ele>455.12115</ele>
        <time>2023-06-14T17:57:23.000Z</time>
      </trkpt>
      <trkpt lat="45.86596" lon="4.79886">
        <ele>455.53522</ele>
        <time>2023-06-14T17:57:24.000Z</time>
      </trkpt>
      <trkpt lat="45.86599" lon="4.79884">
        <ele>455.87579</ele>
        <time>2023-06-14T17:57:25.000Z</time>
      </trkpt>
      <trkpt lat="45.86602" lon="4.7988">
        <ele>456.21216</ele>
        <time>2023-06-14T17:57:26.000Z</time>
      </trkpt>
      <trkpt lat="45.86606" lon="4.79877">
        <ele>456.49503</ele>
        <time>2023-06-14T17:57:27.000Z</time>
      </trkpt>
      <trkpt lat="45.8661" lon="4.79872">
        <ele>456.95135</ele>
        <time>2023-06-14T17:57:28.000Z</time>
      </trkpt>
      <trkpt lat="45.86613" lon="4.79866">
        <ele>457.3183</ele>
        <time>2023-06-14T17:57:29.000Z</time>
      </trkpt>
      <trkpt lat="45.86617" lon="4.79861">
        <ele>457.35352</ele>
        <time>2023-06-14T17:57:30.000Z</time>
      </trkpt>
      <trkpt lat="45.86619" lon="4.79855">
        <ele>457.38672</ele>
        <time>2023-06-14T17:57:31.000Z</time>
      </trkpt>
      <trkpt lat="45.86622" lon="4.79848">
        <ele>457.40567</ele>
        <time>2023-06-14T17:57:32.000Z</time>
      </trkpt>
      <trkpt lat="45.86626" lon="4.79842">
        <ele>457.41473</ele>
        <time>2023-06-14T17:57:33.000Z</time>
      </trkpt>
      <trkpt lat="45.86629" lon="4.79835">
        <ele>457.39404</ele>
        <time>2023-06-14T17:57:34.000Z</time>
      </trkpt>
      <trkpt lat="45.8663" lon="4.79828">
        <ele>457.53204</ele>
        <time>2023-06-14T17:57:35.000Z</time>
      </trkpt>
      <trkpt lat="45.86633" lon="4.7982">
        <ele>457.68817</ele>
        <time>2023-06-14T17:57:36.000Z</time>
      </trkpt>
      <trkpt lat="45.86636" lon="4.7981">
        <ele>457.61615</ele>
        <time>2023-06-14T17:57:37.000Z</time>
      </trkpt>
      <trkpt lat="45.8664" lon="4.79801">
        <ele>457.71796</ele>
        <time>2023-06-14T17:57:38.000Z</time>
      </trkpt>
      <trkpt lat="45.86645" lon="4.79793">
        <ele>457.84113</ele>
        <time>2023-06-14T17:57:39.000Z</time>
      </trkpt>
      <trkpt lat="45.8665" lon="4.79784">
        <ele>458.03354</ele>
        <time>2023-06-14T17:57:40.000Z</time>
      </trkpt>
      <trkpt lat="45.86653" lon="4.79775">
        <ele>458.25165</ele>
        <time>2023-06-14T17:57:41.000Z</time>
      </trkpt>
      <trkpt lat="45.86658" lon="4.79766">
        <ele>458.48819</ele>
        <time>2023-06-14T17:57:42.000Z</time>
      </trkpt>
      <trkpt lat="45.8666" lon="4.79756">
        <ele>458.2326</ele>
        <time>2023-06-14T17:57:43.000Z</time>
      </trkpt>
      <trkpt lat="45.86666" lon="4.79747">
        <ele>458.01007</ele>
        <time>2023-06-14T17:57:44.000Z</time>
      </trkpt>
      <trkpt lat="45.86669" lon="4.79738">
        <ele>457.8168</ele>
        <time>2023-06-14T17:57:45.000Z</time>
      </trkpt>
      <trkpt lat="45.86671" lon="4.79729">
        <ele>457.58701</ele>
        <time>2023-06-14T17:57:46.000Z</time>
      </trkpt>
      <trkpt lat="45.86672" lon="4.79722">
        <ele>457.2728</ele>
        <time>2023-06-14T17:57:47.000Z</time>
      </trkpt>
      <trkpt lat="45.86673" lon="4.79716">
        <ele>456.81577</ele>
        <time>2023-06-14T17:57:48.000Z</time>
      </trkpt>
      <trkpt lat="45.86672" lon="4.7971">
        <ele>456.42609</ele>
        <time>2023-06-14T17:57:49.000Z</time>
      </trkpt>
      <trkpt lat="45.86671" lon="4.79704">
        <ele>456.53574</ele>
        <time>2023-06-14T17:57:50.000Z</time>
      </trkpt>
      <trkpt lat="45.86669" lon="4.797">
        <ele>456.64948</ele>
        <time>2023-06-14T17:57:51.000Z</time>
      </trkpt>
      <trkpt lat="45.86668" lon="4.79696">
        <ele>456.76532</ele>
        <time>2023-06-14T17:57:52.000Z</time>
      </trkpt>
      <trkpt lat="45.86667" lon="4.79691">
        <ele>456.88794</ele>
        <time>2023-06-14T17:57:53.000Z</time>
      </trkpt>
      <trkpt lat="45.86665" lon="4.79686">
        <ele>448.21744</ele>
        <time>2023-06-14T17:57:54.000Z</time>
      </trkpt>
      <trkpt lat="45.86664" lon="4.79683">
        <ele>447.75977</ele>
        <time>2023-06-14T17:57:55.000Z</time>
      </trkpt>
      <trkpt lat="45.86663" lon="4.7968">
        <ele>447.26367</ele>
        <time>2023-06-14T17:57:56.000Z</time>
      </trkpt>
      <trkpt lat="45.86662" lon="4.79678">
        <ele>446.77094</ele>
        <time>2023-06-14T17:57:57.000Z</time>
      </trkpt>
      <trkpt lat="45.8666" lon="4.79675">
        <ele>446.27386</ele>
        <time>2023-06-14T17:57:58.000Z</time>
      </trkpt>
      <trkpt lat="45.86658" lon="4.79672">
        <ele>445.73618</ele>
        <time>2023-06-14T17:57:59.000Z</time>
      </trkpt>
      <trkpt lat="45.86656" lon="4.79668">
        <ele>438.1521</ele>
        <time>2023-06-14T17:58:00.000Z</time>
      </trkpt>
      <trkpt lat="45.86654" lon="4.79664">
        <ele>437.1228</ele>
        <time>2023-06-14T17:58:01.000Z</time>
      </trkpt>
      <trkpt lat="45.86652" lon="4.79661">
        <ele>436.0368</ele>
        <time>2023-06-14T17:58:02.000Z</time>
      </trkpt>
      <trkpt lat="45.86651" lon="4.79658">
        <ele>435.97388</ele>
        <time>2023-06-14T17:58:03.000Z</time>
      </trkpt>
      <trkpt lat="45.86649" lon="4.79655">
        <ele>435.87442</ele>
        <time>2023-06-14T17:58:04.000Z</time>
      </trkpt>
      <trkpt lat="45.86648" lon="4.79653">
        <ele>435.82489</ele>
        <time>2023-06-14T17:58:05.000Z</time>
      </trkpt>
      <trkpt lat="45.86647" lon="4.79651">
        <ele>435.80582</ele>
        <time>2023-06-14T17:58:06.000Z</time>
      </trkpt>
      <trkpt lat="45.86645" lon="4.79648">
        <ele>435.79828</ele>
        <time>2023-06-14T17:58:07.000Z</time>
      </trkpt>
      <trkpt lat="45.86644" lon="4.79644">
        <ele>435.75986</ele>
        <time>2023-06-14T17:58:08.000Z</time>
      </trkpt>
      <trkpt lat="45.86642" lon="4.79641">
        <ele>435.66986</ele>
        <time>2023-06-14T17:58:09.000Z</time>
      </trkpt>
      <trkpt lat="45.86641" lon="4.79638">
        <ele>435.63681</ele>
        <time>2023-06-14T17:58:10.000Z</time>
      </trkpt>
      <trkpt lat="45.8664" lon="4.79634">
        <ele>435.5524</ele>
        <time>2023-06-14T17:58:11.000Z</time>
      </trkpt>
      <trkpt lat="45.86638" lon="4.79631">
        <ele>435.50372</ele>
        <time>2023-06-14T17:58:12.000Z</time>
      </trkpt>
      <trkpt lat="45.86637" lon="4.79628">
        <ele>435.42059</ele>
        <time>2023-06-14T17:58:13.000Z</time>
      </trkpt>
      <trkpt lat="45.86635" lon="4.79625">
        <ele>444.13361</ele>
        <time>2023-06-14T17:58:14.000Z</time>
      </trkpt>
      <trkpt lat="45.86633" lon="4.79622">
        <ele>444.56915</ele>
        <time>2023-06-14T17:58:15.000Z</time>
      </trkpt>
      <trkpt lat="45.86632" lon="4.79619">
        <ele>445.00854</ele>
        <time>2023-06-14T17:58:16.000Z</time>
      </trkpt>
      <trkpt lat="45.86631" lon="4.79616">
        <ele>445.46558</ele>
        <time>2023-06-14T17:58:18.000Z</time>
      </trkpt>
      <trkpt lat="45.8663" lon="4.79614">
        <ele>446.01929</ele>
        <time>2023-06-14T17:58:20.000Z</time>
      </trkpt>
      <trkpt lat="45.86629" lon="4.79611">
        <ele>446.73331</ele>
        <time>2023-06-14T17:58:22.000Z</time>
      </trkpt>
      <trkpt lat="45.86626" lon="4.79607">
        <ele>454.3504</ele>
        <time>2023-06-14T17:58:24.000Z</time>
      </trkpt>
      <trkpt lat="45.86625" lon="4.79603">
        <ele>455.39493</ele>
        <time>2023-06-14T17:58:25.000Z</time>
      </trkpt>
      <trkpt lat="45.86624" lon="4.79598">
        <ele>456.46753</ele>
        <time>2023-06-14T17:58:26.000Z</time>
      </trkpt>
      <trkpt lat="45.86622" lon="4.79594">
        <ele>456.64746</ele>
        <time>2023-06-14T17:58:27.000Z</time>
      </trkpt>
      <trkpt lat="45.86621" lon="4.7959">
        <ele>456.87241</ele>
        <time>2023-06-14T17:58:28.000Z</time>
      </trkpt>
      <trkpt lat="45.8662" lon="4.79586">
        <ele>457.05859</ele>
        <time>2023-06-14T17:58:29.000Z</time>
      </trkpt>
      <trkpt lat="45.86618" lon="4.79583">
        <ele>457.27286</ele>
        <time>2023-06-14T17:58:30.000Z</time>
      </trkpt>
      <trkpt lat="45.86616" lon="4.79579">
        <ele>457.48273</ele>
        <time>2023-06-14T17:58:31.000Z</time>
      </trkpt>
      <trkpt lat="45.86614" lon="4.79575">
        <ele>457.70538</ele>
        <time>2023-06-14T17:58:32.000Z</time>
      </trkpt>
      <trkpt lat="45.86612" lon="4.79571">
        <ele>457.9921</ele>
        <time>2023-06-14T17:58:33.000Z</time>
      </trkpt>
      <trkpt lat="45.86611" lon="4.79567">
        <ele>458.26392</ele>
        <time>2023-06-14T17:58:34.000Z</time>
      </trkpt>
      <trkpt lat="45.86609" lon="4.79564">
        <ele>458.60513</ele>
        <time>2023-06-14T17:58:35.000Z</time>
      </trkpt>
      <trkpt lat="45.86608" lon="4.7956">
        <ele>458.91153</ele>
        <time>2023-06-14T17:58:36.000Z</time>
      </trkpt>
      <trkpt lat="45.86606" lon="4.79556">
        <ele>459.26587</ele>
        <time>2023-06-14T17:58:37.000Z</time>
      </trkpt>
      <trkpt lat="45.86605" lon="4.79553">
        <ele>459.60767</ele>
        <time>2023-06-14T17:58:38.000Z</time>
      </trkpt>
      <trkpt lat="45.86604" lon="4.79549">
        <ele>459.86533</ele>
        <time>2023-06-14T17:58:39.000Z</time>
      </trkpt>
      <trkpt lat="45.86602" lon="4.79545">
        <ele>460.14639</ele>
        <time>2023-06-14T17:58:40.000Z</time>
      </trkpt>
      <trkpt lat="45.866" lon="4.79542">
        <ele>460.44135</ele>
        <time>2023-06-14T17:58:41.000Z</time>
      </trkpt>
      <trkpt lat="45.86597" lon="4.79538">
        <ele>460.66064</ele>
        <time>2023-06-14T17:58:42.000Z</time>
      </trkpt>
      <trkpt lat="45.86595" lon="4.79535">
        <ele>460.73788</ele>
        <time>2023-06-14T17:58:43.000Z</time>
      </trkpt>
      <trkpt lat="45.86594" lon="4.79533">
        <ele>460.9183</ele>
        <time>2023-06-14T17:58:44.000Z</time>
      </trkpt>
      <trkpt lat="45.86593" lon="4.7953">
        <ele>461.08856</ele>
        <time>2023-06-14T17:58:45.000Z</time>
      </trkpt>
      <trkpt lat="45.86591" lon="4.79526">
        <ele>461.29306</ele>
        <time>2023-06-14T17:58:46.000Z</time>
      </trkpt>
      <trkpt lat="45.8659" lon="4.79522">
        <ele>461.49579</ele>
        <time>2023-06-14T17:58:47.000Z</time>
      </trkpt>
      <trkpt lat="45.86588" lon="4.7952">
        <ele>461.63388</ele>
        <time>2023-06-14T17:58:48.000Z</time>
      </trkpt>
      <trkpt lat="45.86586" lon="4.79518">
        <ele>461.77768</ele>
        <time>2023-06-14T17:58:49.000Z</time>
      </trkpt>
      <trkpt lat="45.86583" lon="4.79515">
        <ele>461.91675</ele>
        <time>2023-06-14T17:58:50.000Z</time>
      </trkpt>
      <trkpt lat="45.86582" lon="4.79514">
        <ele>462.06128</ele>
        <time>2023-06-14T17:58:51.000Z</time>
      </trkpt>
      <trkpt lat="45.86579" lon="4.7951">
        <ele>462.20746</ele>
        <time>2023-06-14T17:58:53.000Z</time>
      </trkpt>
      <trkpt lat="45.86576" lon="4.79507">
        <ele>462.32333</ele>
        <time>2023-06-14T17:58:54.000Z</time>
      </trkpt>
      <trkpt lat="45.86573" lon="4.79504">
        <ele>462.4057</ele>
        <time>2023-06-14T17:58:55.000Z</time>
      </trkpt>
      <trkpt lat="45.86571" lon="4.79503">
        <ele>462.49228</ele>
        <time>2023-06-14T17:58:56.000Z</time>
      </trkpt>
      <trkpt lat="45.86568" lon="4.79499">
        <ele>462.59888</ele>
        <time>2023-06-14T17:58:58.000Z</time>
      </trkpt>
      <trkpt lat="45.86566" lon="4.79497">
        <ele>462.68637</ele>
        <time>2023-06-14T17:58:59.000Z</time>
      </trkpt>
      <trkpt lat="45.86563" lon="4.79495">
        <ele>462.78558</ele>
        <time>2023-06-14T17:59:00.000Z</time>
      </trkpt>
      <trkpt lat="45.86561" lon="4.79493">
        <ele>462.8902</ele>
        <time>2023-06-14T17:59:01.000Z</time>
      </trkpt>
      <trkpt lat="45.86558" lon="4.79492">
        <ele>462.9953</ele>
        <time>2023-06-14T17:59:02.000Z</time>
      </trkpt>
      <trkpt lat="45.86556" lon="4.7949">
        <ele>463.0799</ele>
        <time>2023-06-14T17:59:03.000Z</time>
      </trkpt>
      <trkpt lat="45.86554" lon="4.79489">
        <ele>463.15985</ele>
        <time>2023-06-14T17:59:04.000Z</time>
      </trkpt>
      <trkpt lat="45.86552" lon="4.79487">
        <ele>463.24976</ele>
        <time>2023-06-14T17:59:05.000Z</time>
      </trkpt>
      <trkpt lat="45.86551" lon="4.79484">
        <ele>463.34576</ele>
        <time>2023-06-14T17:59:06.000Z</time>
      </trkpt>
      <trkpt lat="45.86549" lon="4.79482">
        <ele>463.44385</ele>
        <time>2023-06-14T17:59:07.000Z</time>
      </trkpt>
      <trkpt lat="45.86547" lon="4.79478">
        <ele>463.55728</ele>
        <time>2023-06-14T17:59:08.000Z</time>
      </trkpt>
      <trkpt lat="45.86545" lon="4.79476">
        <ele>463.65298</ele>
        <time>2023-06-14T17:59:09.000Z</time>
      </trkpt>
      <trkpt lat="45.86543" lon="4.79473">
        <ele>463.79404</ele>
        <time>2023-06-14T17:59:10.000Z</time>
      </trkpt>
      <trkpt lat="45.86541" lon="4.79471">
        <ele>463.95752</ele>
        <time>2023-06-14T17:59:11.000Z</time>
      </trkpt>
      <trkpt lat="45.86539" lon="4.79469">
        <ele>464.12045</ele>
        <time>2023-06-14T17:59:12.000Z</time>
      </trkpt>
      <trkpt lat="45.86537" lon="4.79467">
        <ele>464.28412</ele>
        <time>2023-06-14T17:59:13.000Z</time>
      </trkpt>
      <trkpt lat="45.86534" lon="4.79465">
        <ele>464.44971</ele>
        <time>2023-06-14T17:59:14.000Z</time>
      </trkpt>
      <trkpt lat="45.86532" lon="4.79464">
        <ele>464.64752</ele>
        <time>2023-06-14T17:59:15.000Z</time>
      </trkpt>
      <trkpt lat="45.86529" lon="4.79461">
        <ele>464.85114</ele>
        <time>2023-06-14T17:59:16.000Z</time>
      </trkpt>
      <trkpt lat="45.86526" lon="4.79457">
        <ele>464.99634</ele>
        <time>2023-06-14T17:59:17.000Z</time>
      </trkpt>
      <trkpt lat="45.86525" lon="4.79454">
        <ele>465.13165</ele>
        <time>2023-06-14T17:59:18.000Z</time>
      </trkpt>
      <trkpt lat="45.86523" lon="4.79451">
        <ele>465.25659</ele>
        <time>2023-06-14T17:59:19.000Z</time>
      </trkpt>
      <trkpt lat="45.86521" lon="4.79449">
        <ele>465.41083</ele>
        <time>2023-06-14T17:59:20.000Z</time>
      </trkpt>
      <trkpt lat="45.86518" lon="4.79444">
        <ele>465.57803</ele>
        <time>2023-06-14T17:59:22.000Z</time>
      </trkpt>
      <trkpt lat="45.86515" lon="4.79441">
        <ele>465.78629</ele>
        <time>2023-06-14T17:59:23.000Z</time>
      </trkpt>
      <trkpt lat="45.86513" lon="4.79438">
        <ele>465.99527</ele>
        <time>2023-06-14T17:59:24.000Z</time>
      </trkpt>
      <trkpt lat="45.86511" lon="4.79436">
        <ele>466.24164</ele>
        <time>2023-06-14T17:59:25.000Z</time>
      </trkpt>
      <trkpt lat="45.86508" lon="4.79433">
        <ele>466.50928</ele>
        <time>2023-06-14T17:59:26.000Z</time>
      </trkpt>
      <trkpt lat="45.86506" lon="4.7943">
        <ele>466.7478</ele>
        <time>2023-06-14T17:59:27.000Z</time>
      </trkpt>
      <trkpt lat="45.86504" lon="4.79427">
        <ele>466.93579</ele>
        <time>2023-06-14T17:59:28.000Z</time>
      </trkpt>
      <trkpt lat="45.86502" lon="4.79423">
        <ele>467.10654</ele>
        <time>2023-06-14T17:59:29.000Z</time>
      </trkpt>
      <trkpt lat="45.865" lon="4.79421">
        <ele>467.2829</ele>
        <time>2023-06-14T17:59:30.000Z</time>
      </trkpt>
      <trkpt lat="45.86499" lon="4.79419">
        <ele>467.49448</ele>
        <time>2023-06-14T17:59:32.000Z</time>
      </trkpt>
      <trkpt lat="45.86497" lon="4.79418">
        <ele>467.61972</ele>
        <time>2023-06-14T17:59:33.000Z</time>
      </trkpt>
      <trkpt lat="45.86495" lon="4.79416">
        <ele>467.70038</ele>
        <time>2023-06-14T17:59:34.000Z</time>
      </trkpt>
      <trkpt lat="45.86493" lon="4.79414">
        <ele>467.74969</ele>
        <time>2023-06-14T17:59:35.000Z</time>
      </trkpt>
      <trkpt lat="45.8649" lon="4.79412">
        <ele>467.76279</ele>
        <time>2023-06-14T17:59:36.000Z</time>
      </trkpt>
      <trkpt lat="45.86487" lon="4.7941">
        <ele>467.72568</ele>
        <time>2023-06-14T17:59:37.000Z</time>
      </trkpt>
      <trkpt lat="45.86484" lon="4.79407">
        <ele>467.78607</ele>
        <time>2023-06-14T17:59:38.000Z</time>
      </trkpt>
      <trkpt lat="45.86481" lon="4.79403">
        <ele>467.86798</ele>
        <time>2023-06-14T17:59:39.000Z</time>
      </trkpt>
      <trkpt lat="45.86479" lon="4.79399">
        <ele>467.97821</ele>
        <time>2023-06-14T17:59:40.000Z</time>
      </trkpt>
      <trkpt lat="45.86478" lon="4.79396">
        <ele>468.1153</ele>
        <time>2023-06-14T17:59:41.000Z</time>
      </trkpt>
      <trkpt lat="45.86476" lon="4.79393">
        <ele>468.23697</ele>
        <time>2023-06-14T17:59:42.000Z</time>
      </trkpt>
      <trkpt lat="45.86474" lon="4.79391">
        <ele>468.30606</ele>
        <time>2023-06-14T17:59:43.000Z</time>
      </trkpt>
      <trkpt lat="45.86473" lon="4.79389">
        <ele>468.35855</ele>
        <time>2023-06-14T17:59:44.000Z</time>
      </trkpt>
      <trkpt lat="45.8647" lon="4.79385">
        <ele>468.4213</ele>
        <time>2023-06-14T17:59:46.000Z</time>
      </trkpt>
      <trkpt lat="45.86467" lon="4.79382">
        <ele>468.4353</ele>
        <time>2023-06-14T17:59:47.000Z</time>
      </trkpt>
      <trkpt lat="45.86464" lon="4.79378">
        <ele>468.3956</ele>
        <time>2023-06-14T17:59:48.000Z</time>
      </trkpt>
      <trkpt lat="45.86462" lon="4.79374">
        <ele>468.37622</ele>
        <time>2023-06-14T17:59:49.000Z</time>
      </trkpt>
      <trkpt lat="45.86459" lon="4.79369">
        <ele>468.45331</ele>
        <time>2023-06-14T17:59:50.000Z</time>
      </trkpt>
      <trkpt lat="45.86457" lon="4.79365">
        <ele>468.55469</ele>
        <time>2023-06-14T17:59:51.000Z</time>
      </trkpt>
      <trkpt lat="45.86454" lon="4.79362">
        <ele>468.62225</ele>
        <time>2023-06-14T17:59:52.000Z</time>
      </trkpt>
      <trkpt lat="45.86451" lon="4.79359">
        <ele>468.65372</ele>
        <time>2023-06-14T17:59:53.000Z</time>
      </trkpt>
      <trkpt lat="45.86446" lon="4.79355">
        <ele>468.75845</ele>
        <time>2023-06-14T17:59:54.000Z</time>
      </trkpt>
      <trkpt lat="45.86442" lon="4.79351">
        <ele>468.90771</ele>
        <time>2023-06-14T17:59:55.000Z</time>
      </trkpt>
      <trkpt lat="45.86439" lon="4.79347">
        <ele>469.04907</ele>
        <time>2023-06-14T17:59:56.000Z</time>
      </trkpt>
      <trkpt lat="45.86437" lon="4.79342">
        <ele>469.21271</ele>
        <time>2023-06-14T17:59:57.000Z</time>
      </trkpt>
      <trkpt lat="45.86434" lon="4.79338">
        <ele>469.37094</ele>
        <time>2023-06-14T17:59:58.000Z</time>
      </trkpt>
      <trkpt lat="45.86432" lon="4.79334">
        <ele>469.46924</ele>
        <time>2023-06-14T17:59:59.000Z</time>
      </trkpt>
      <trkpt lat="45.86429" lon="4.7933">
        <ele>469.52423</ele>
        <time>2023-06-14T18:00:00.000Z</time>
      </trkpt>
      <trkpt lat="45.86426" lon="4.79327">
        <ele>469.54022</ele>
        <time>2023-06-14T18:00:01.000Z</time>
      </trkpt>
      <trkpt lat="45.86424" lon="4.79324">
        <ele>469.59872</ele>
        <time>2023-06-14T18:00:02.000Z</time>
      </trkpt>
      <trkpt lat="45.86422" lon="4.7932">
        <ele>469.6604</ele>
        <time>2023-06-14T18:00:03.000Z</time>
      </trkpt>
      <trkpt lat="45.86421" lon="4.79317">
        <ele>469.77289</ele>
        <time>2023-06-14T18:00:04.000Z</time>
      </trkpt>
      <trkpt lat="45.8642" lon="4.79313">
        <ele>469.88373</ele>
        <time>2023-06-14T18:00:05.000Z</time>
      </trkpt>
      <trkpt lat="45.86417" lon="4.7931">
        <ele>469.94547</ele>
        <time>2023-06-14T18:00:06.000Z</time>
      </trkpt>
      <trkpt lat="45.86414" lon="4.79307">
        <ele>470.03107</ele>
        <time>2023-06-14T18:00:07.000Z</time>
      </trkpt>
      <trkpt lat="45.8641" lon="4.79304">
        <ele>470.1828</ele>
        <time>2023-06-14T18:00:08.000Z</time>
      </trkpt>
      <trkpt lat="45.86406" lon="4.79301">
        <ele>470.31561</ele>
        <time>2023-06-14T18:00:09.000Z</time>
      </trkpt>
      <trkpt lat="45.86403" lon="4.79298">
        <ele>470.3443</ele>
        <time>2023-06-14T18:00:10.000Z</time>
      </trkpt>
      <trkpt lat="45.86399" lon="4.79296">
        <ele>470.35245</ele>
        <time>2023-06-14T18:00:11.000Z</time>
      </trkpt>
      <trkpt lat="45.86397" lon="4.79294">
        <ele>470.3558</ele>
        <time>2023-06-14T18:00:12.000Z</time>
      </trkpt>
      <trkpt lat="45.86394" lon="4.79292">
        <ele>470.25372</ele>
        <time>2023-06-14T18:00:13.000Z</time>
      </trkpt>
      <trkpt lat="45.86392" lon="4.79291">
        <ele>470.36542</ele>
        <time>2023-06-14T18:00:14.000Z</time>
      </trkpt>
      <trkpt lat="45.86389" lon="4.79289">
        <ele>470.44962</ele>
        <time>2023-06-14T18:00:15.000Z</time>
      </trkpt>
      <trkpt lat="45.86387" lon="4.79286">
        <ele>470.59833</ele>
        <time>2023-06-14T18:00:16.000Z</time>
      </trkpt>
      <trkpt lat="45.86385" lon="4.79284">
        <ele>470.72052</ele>
        <time>2023-06-14T18:00:17.000Z</time>
      </trkpt>
      <trkpt lat="45.86382" lon="4.79282">
        <ele>470.8829</ele>
        <time>2023-06-14T18:00:18.000Z</time>
      </trkpt>
      <trkpt lat="45.8638" lon="4.79279">
        <ele>471.01505</ele>
        <time>2023-06-14T18:00:19.000Z</time>
      </trkpt>
      <trkpt lat="45.86378" lon="4.79277">
        <ele>471.14252</ele>
        <time>2023-06-14T18:00:20.000Z</time>
      </trkpt>
      <trkpt lat="45.86376" lon="4.79275">
        <ele>471.30011</ele>
        <time>2023-06-14T18:00:21.000Z</time>
      </trkpt>
      <trkpt lat="45.86374" lon="4.79273">
        <ele>471.37817</ele>
        <time>2023-06-14T18:00:22.000Z</time>
      </trkpt>
      <trkpt lat="45.86372" lon="4.79271">
        <ele>471.44156</ele>
        <time>2023-06-14T18:00:23.000Z</time>
      </trkpt>
      <trkpt lat="45.8637" lon="4.79269">
        <ele>471.4794</ele>
        <time>2023-06-14T18:00:24.000Z</time>
      </trkpt>
      <trkpt lat="45.86368" lon="4.79265">
        <ele>471.47638</ele>
        <time>2023-06-14T18:00:26.000Z</time>
      </trkpt>
      <trkpt lat="45.86366" lon="4.79262">
        <ele>471.51349</ele>
        <time>2023-06-14T18:00:27.000Z</time>
      </trkpt>
      <trkpt lat="45.86365" lon="4.79259">
        <ele>471.62363</ele>
        <time>2023-06-14T18:00:28.000Z</time>
      </trkpt>
      <trkpt lat="45.86363" lon="4.79256">
        <ele>471.66245</ele>
        <time>2023-06-14T18:00:29.000Z</time>
      </trkpt>
      <trkpt lat="45.8636" lon="4.79253">
        <ele>471.77246</ele>
        <time>2023-06-14T18:00:30.000Z</time>
      </trkpt>
      <trkpt lat="45.86357" lon="4.79251">
        <ele>471.91693</ele>
        <time>2023-06-14T18:00:31.000Z</time>
      </trkpt>
      <trkpt lat="45.86352" lon="4.79245">
        <ele>473.47623</ele>
        <time>2023-06-14T18:00:32.000Z</time>
      </trkpt>
      <trkpt lat="45.86351" lon="4.79242">
        <ele>475.11005</ele>
        <time>2023-06-14T18:00:33.000Z</time>
      </trkpt>
      <trkpt lat="45.86345" lon="4.79237">
        <ele>475.29477</ele>
        <time>2023-06-14T18:00:34.000Z</time>
      </trkpt>
      <trkpt lat="45.86343" lon="4.79234">
        <ele>475.22437</ele>
        <time>2023-06-14T18:00:35.000Z</time>
      </trkpt>
      <trkpt lat="45.8634" lon="4.79232">
        <ele>475.45917</ele>
        <time>2023-06-14T18:00:36.000Z</time>
      </trkpt>
      <trkpt lat="45.86338" lon="4.7923">
        <ele>475.61475</ele>
        <time>2023-06-14T18:00:37.000Z</time>
      </trkpt>
      <trkpt lat="45.86334" lon="4.79226">
        <ele>475.83194</ele>
        <time>2023-06-14T18:00:38.000Z</time>
      </trkpt>
      <trkpt lat="45.86332" lon="4.79224">
        <ele>475.97305</ele>
        <time>2023-06-14T18:00:39.000Z</time>
      </trkpt>
      <trkpt lat="45.86332" lon="4.79222">
        <ele>476.12735</ele>
        <time>2023-06-14T18:00:40.000Z</time>
      </trkpt>
      <trkpt lat="45.86328" lon="4.79218">
        <ele>476.28583</ele>
        <time>2023-06-14T18:00:42.000Z</time>
      </trkpt>
      <trkpt lat="45.86326" lon="4.79216">
        <ele>476.52173</ele>
        <time>2023-06-14T18:00:43.000Z</time>
      </trkpt>
      <trkpt lat="45.86324" lon="4.79213">
        <ele>476.80273</ele>
        <time>2023-06-14T18:00:44.000Z</time>
      </trkpt>
      <trkpt lat="45.86321" lon="4.7921">
        <ele>477.1297</ele>
        <time>2023-06-14T18:00:45.000Z</time>
      </trkpt>
      <trkpt lat="45.8632" lon="4.79207">
        <ele>477.48145</ele>
        <time>2023-06-14T18:00:46.000Z</time>
      </trkpt>
      <trkpt lat="45.86318" lon="4.79205">
        <ele>477.84546</ele>
        <time>2023-06-14T18:00:47.000Z</time>
      </trkpt>
      <trkpt lat="45.86315" lon="4.79202">
        <ele>478.03564</ele>
        <time>2023-06-14T18:00:49.000Z</time>
      </trkpt>
      <trkpt lat="45.86313" lon="4.79199">
        <ele>478.04205</ele>
        <time>2023-06-14T18:00:50.000Z</time>
      </trkpt>
      <trkpt lat="45.86311" lon="4.79196">
        <ele>478.45905</ele>
        <time>2023-06-14T18:00:51.000Z</time>
      </trkpt>
      <trkpt lat="45.8631" lon="4.79195">
        <ele>478.63019</ele>
        <time>2023-06-14T18:00:52.000Z</time>
      </trkpt>
      <trkpt lat="45.86308" lon="4.79193">
        <ele>478.81451</ele>
        <time>2023-06-14T18:00:53.000Z</time>
      </trkpt>
      <trkpt lat="45.86306" lon="4.79191">
        <ele>477.61679</ele>
        <time>2023-06-14T18:00:54.000Z</time>
      </trkpt>
      <trkpt lat="45.86304" lon="4.79189">
        <ele>476.41464</ele>
        <time>2023-06-14T18:00:55.000Z</time>
      </trkpt>
      <trkpt lat="45.86302" lon="4.79188">
        <ele>476.70776</ele>
        <time>2023-06-14T18:00:56.000Z</time>
      </trkpt>
      <trkpt lat="45.86298" lon="4.79186">
        <ele>477.07339</ele>
        <time>2023-06-14T18:00:57.000Z</time>
      </trkpt>
      <trkpt lat="45.86295" lon="4.79184">
        <ele>477.10294</ele>
        <time>2023-06-14T18:00:58.000Z</time>
      </trkpt>
      <trkpt lat="45.86291" lon="4.79181">
        <ele>477.15903</ele>
        <time>2023-06-14T18:00:59.000Z</time>
      </trkpt>
      <trkpt lat="45.86288" lon="4.79177">
        <ele>477.06406</ele>
        <time>2023-06-14T18:01:00.000Z</time>
      </trkpt>
      <trkpt lat="45.86284" lon="4.79173">
        <ele>476.96933</ele>
        <time>2023-06-14T18:01:01.000Z</time>
      </trkpt>
      <trkpt lat="45.86282" lon="4.79169">
        <ele>476.80865</ele>
        <time>2023-06-14T18:01:02.000Z</time>
      </trkpt>
      <trkpt lat="45.86279" lon="4.79165">
        <ele>476.63882</ele>
        <time>2023-06-14T18:01:03.000Z</time>
      </trkpt>
      <trkpt lat="45.86276" lon="4.7916">
        <ele>476.64862</ele>
        <time>2023-06-14T18:01:04.000Z</time>
      </trkpt>
      <trkpt lat="45.86273" lon="4.79155">
        <ele>476.53452</ele>
        <time>2023-06-14T18:01:05.000Z</time>
      </trkpt>
      <trkpt lat="45.86271" lon="4.79152">
        <ele>476.37378</ele>
        <time>2023-06-14T18:01:06.000Z</time>
      </trkpt>
      <trkpt lat="45.86269" lon="4.79149">
        <ele>476.25107</ele>
        <time>2023-06-14T18:01:07.000Z</time>
      </trkpt>
      <trkpt lat="45.86267" lon="4.79146">
        <ele>476.1669</ele>
        <time>2023-06-14T18:01:08.000Z</time>
      </trkpt>
      <trkpt lat="45.86265" lon="4.79143">
        <ele>476.28677</ele>
        <time>2023-06-14T18:01:09.000Z</time>
      </trkpt>
      <trkpt lat="45.86263" lon="4.79141">
        <ele>476.48773</ele>
        <time>2023-06-14T18:01:10.000Z</time>
      </trkpt>
      <trkpt lat="45.8626" lon="4.7914">
        <ele>476.23553</ele>
        <time>2023-06-14T18:01:11.000Z</time>
      </trkpt>
      <trkpt lat="45.86257" lon="4.79137">
        <ele>476.20255</ele>
        <time>2023-06-14T18:01:12.000Z</time>
      </trkpt>
      <trkpt lat="45.86255" lon="4.79135">
        <ele>476.09601</ele>
        <time>2023-06-14T18:01:13.000Z</time>
      </trkpt>
      <trkpt lat="45.86252" lon="4.79132">
        <ele>475.95844</ele>
        <time>2023-06-14T18:01:14.000Z</time>
      </trkpt>
      <trkpt lat="45.8625" lon="4.79131">
        <ele>475.79672</ele>
        <time>2023-06-14T18:01:15.000Z</time>
      </trkpt>
      <trkpt lat="45.86247" lon="4.79127">
        <ele>475.80176</ele>
        <time>2023-06-14T18:01:17.000Z</time>
      </trkpt>
      <trkpt lat="45.86245" lon="4.79124">
        <ele>475.7565</ele>
        <time>2023-06-14T18:01:18.000Z</time>
      </trkpt>
      <trkpt lat="45.86243" lon="4.7912">
        <ele>475.78101</ele>
        <time>2023-06-14T18:01:19.000Z</time>
      </trkpt>
      <trkpt lat="45.86242" lon="4.79117">
        <ele>475.89191</ele>
        <time>2023-06-14T18:01:20.000Z</time>
      </trkpt>
      <trkpt lat="45.8624" lon="4.79114">
        <ele>476.04013</ele>
        <time>2023-06-14T18:01:21.000Z</time>
      </trkpt>
      <trkpt lat="45.86238" lon="4.79111">
        <ele>476.21494</ele>
        <time>2023-06-14T18:01:22.000Z</time>
      </trkpt>
      <trkpt lat="45.86235" lon="4.79108">
        <ele>476.48395</ele>
        <time>2023-06-14T18:01:23.000Z</time>
      </trkpt>
      <trkpt lat="45.86233" lon="4.79104">
        <ele>476.8392</ele>
        <time>2023-06-14T18:01:24.000Z</time>
      </trkpt>
      <trkpt lat="45.8623" lon="4.79102">
        <ele>476.9314</ele>
        <time>2023-06-14T18:01:25.000Z</time>
      </trkpt>
      <trkpt lat="45.86227" lon="4.791">
        <ele>477.06519</ele>
        <time>2023-06-14T18:01:26.000Z</time>
      </trkpt>
      <trkpt lat="45.86223" lon="4.79097">
        <ele>477.22299</ele>
        <time>2023-06-14T18:01:27.000Z</time>
      </trkpt>
      <trkpt lat="45.86221" lon="4.79095">
        <ele>477.40625</ele>
        <time>2023-06-14T18:01:28.000Z</time>
      </trkpt>
      <trkpt lat="45.86219" lon="4.79093">
        <ele>477.52032</ele>
        <time>2023-06-14T18:01:29.000Z</time>
      </trkpt>
      <trkpt lat="45.86217" lon="4.79091">
        <ele>477.5799</ele>
        <time>2023-06-14T18:01:30.000Z</time>
      </trkpt>
      <trkpt lat="45.86214" lon="4.79089">
        <ele>477.67252</ele>
        <time>2023-06-14T18:01:31.000Z</time>
      </trkpt>
      <trkpt lat="45.86211" lon="4.79087">
        <ele>477.86093</ele>
        <time>2023-06-14T18:01:32.000Z</time>
      </trkpt>
      <trkpt lat="45.86209" lon="4.79084">
        <ele>478.013</ele>
        <time>2023-06-14T18:01:33.000Z</time>
      </trkpt>
      <trkpt lat="45.86208" lon="4.79081">
        <ele>478.16739</ele>
        <time>2023-06-14T18:01:34.000Z</time>
      </trkpt>
      <trkpt lat="45.86207" lon="4.79078">
        <ele>478.40616</ele>
        <time>2023-06-14T18:01:35.000Z</time>
      </trkpt>
      <trkpt lat="45.86207" lon="4.79073">
        <ele>478.57123</ele>
        <time>2023-06-14T18:01:37.000Z</time>
      </trkpt>
      <trkpt lat="45.86206" lon="4.79071">
        <ele>478.52448</ele>
        <time>2023-06-14T18:01:38.000Z</time>
      </trkpt>
      <trkpt lat="45.86204" lon="4.79068">
        <ele>478.49731</ele>
        <time>2023-06-14T18:01:39.000Z</time>
      </trkpt>
      <trkpt lat="45.86202" lon="4.79066">
        <ele>478.41962</ele>
        <time>2023-06-14T18:01:40.000Z</time>
      </trkpt>
      <trkpt lat="45.862" lon="4.79065">
        <ele>478.31186</ele>
        <time>2023-06-14T18:01:41.000Z</time>
      </trkpt>
      <trkpt lat="45.86198" lon="4.79063">
        <ele>478.2619</ele>
        <time>2023-06-14T18:01:42.000Z</time>
      </trkpt>
      <trkpt lat="45.86196" lon="4.79062">
        <ele>478.15649</ele>
        <time>2023-06-14T18:01:43.000Z</time>
      </trkpt>
      <trkpt lat="45.86195" lon="4.7906">
        <ele>477.97626</ele>
        <time>2023-06-14T18:01:44.000Z</time>
      </trkpt>
      <trkpt lat="45.86193" lon="4.79054">
        <ele>477.7207</ele>
        <time>2023-06-14T18:01:46.000Z</time>
      </trkpt>
      <trkpt lat="45.86191" lon="4.7905">
        <ele>477.35782</ele>
        <time>2023-06-14T18:01:47.000Z</time>
      </trkpt>
      <trkpt lat="45.86188" lon="4.79046">
        <ele>476.99927</ele>
        <time>2023-06-14T18:01:48.000Z</time>
      </trkpt>
      <trkpt lat="45.86187" lon="4.79043">
        <ele>476.66718</ele>
        <time>2023-06-14T18:01:49.000Z</time>
      </trkpt>
      <trkpt lat="45.86185" lon="4.79039">
        <ele>476.21393</ele>
        <time>2023-06-14T18:01:50.000Z</time>
      </trkpt>
      <trkpt lat="45.86183" lon="4.79036">
        <ele>475.79022</ele>
        <time>2023-06-14T18:01:51.000Z</time>
      </trkpt>
      <trkpt lat="45.86182" lon="4.79033">
        <ele>475.43726</ele>
        <time>2023-06-14T18:01:52.000Z</time>
      </trkpt>
      <trkpt lat="45.86179" lon="4.79028">
        <ele>475.08853</ele>
        <time>2023-06-14T18:01:53.000Z</time>
      </trkpt>
      <trkpt lat="45.86175" lon="4.79025">
        <ele>474.70108</ele>
        <time>2023-06-14T18:01:54.000Z</time>
      </trkpt>
      <trkpt lat="45.86173" lon="4.79023">
        <ele>474.2724</ele>
        <time>2023-06-14T18:01:55.000Z</time>
      </trkpt>
      <trkpt lat="45.8617" lon="4.7902">
        <ele>473.97241</ele>
        <time>2023-06-14T18:01:56.000Z</time>
      </trkpt>
      <trkpt lat="45.86167" lon="4.79017">
        <ele>473.56372</ele>
        <time>2023-06-14T18:01:57.000Z</time>
      </trkpt>
      <trkpt lat="45.86164" lon="4.79014">
        <ele>473.21289</ele>
        <time>2023-06-14T18:01:58.000Z</time>
      </trkpt>
      <trkpt lat="45.8616" lon="4.79011">
        <ele>473.01147</ele>
        <time>2023-06-14T18:01:59.000Z</time>
      </trkpt>
      <trkpt lat="45.86156" lon="4.79007">
        <ele>472.82504</ele>
        <time>2023-06-14T18:02:00.000Z</time>
      </trkpt>
      <trkpt lat="45.86153" lon="4.79004">
        <ele>472.6748</ele>
        <time>2023-06-14T18:02:01.000Z</time>
      </trkpt>
      <trkpt lat="45.86151" lon="4.79">
        <ele>472.51523</ele>
        <time>2023-06-14T18:02:02.000Z</time>
      </trkpt>
      <trkpt lat="45.86148" lon="4.78995">
        <ele>472.36157</ele>
        <time>2023-06-14T18:02:03.000Z</time>
      </trkpt>
      <trkpt lat="45.86146" lon="4.78989">
        <ele>472.22916</ele>
        <time>2023-06-14T18:02:04.000Z</time>
      </trkpt>
      <trkpt lat="45.86143" lon="4.78984">
        <ele>472.1214</ele>
        <time>2023-06-14T18:02:05.000Z</time>
      </trkpt>
      <trkpt lat="45.86141" lon="4.78979">
        <ele>472.05933</ele>
        <time>2023-06-14T18:02:06.000Z</time>
      </trkpt>
      <trkpt lat="45.86139" lon="4.78973">
        <ele>472.07144</ele>
        <time>2023-06-14T18:02:07.000Z</time>
      </trkpt>
      <trkpt lat="45.86136" lon="4.78968">
        <ele>472.13727</ele>
        <time>2023-06-14T18:02:08.000Z</time>
      </trkpt>
      <trkpt lat="45.86134" lon="4.78963">
        <ele>475.82159</ele>
        <time>2023-06-14T18:02:09.000Z</time>
      </trkpt>
      <trkpt lat="45.8613" lon="4.7896">
        <ele>476.05829</ele>
        <time>2023-06-14T18:02:10.000Z</time>
      </trkpt>
      <trkpt lat="45.8612" lon="4.78951">
        <ele>476.3089</ele>
        <time>2023-06-14T18:02:11.000Z</time>
      </trkpt>
      <trkpt lat="45.86117" lon="4.78946">
        <ele>476.53729</ele>
        <time>2023-06-14T18:02:12.000Z</time>
      </trkpt>
      <trkpt lat="45.86113" lon="4.78942">
        <ele>476.76523</ele>
        <time>2023-06-14T18:02:13.000Z</time>
      </trkpt>
      <trkpt lat="45.86109" lon="4.78938">
        <ele>477.02441</ele>
        <time>2023-06-14T18:02:14.000Z</time>
      </trkpt>
      <trkpt lat="45.86108" lon="4.78932">
        <ele>480.47836</ele>
        <time>2023-06-14T18:02:15.000Z</time>
      </trkpt>
      <trkpt lat="45.86105" lon="4.78928">
        <ele>480.91138</ele>
        <time>2023-06-14T18:02:16.000Z</time>
      </trkpt>
      <trkpt lat="45.86102" lon="4.78926">
        <ele>481.37589</ele>
        <time>2023-06-14T18:02:17.000Z</time>
      </trkpt>
      <trkpt lat="45.861" lon="4.78922">
        <ele>481.85797</ele>
        <time>2023-06-14T18:02:18.000Z</time>
      </trkpt>
      <trkpt lat="45.86095" lon="4.78919">
        <ele>482.30396</ele>
        <time>2023-06-14T18:02:19.000Z</time>
      </trkpt>
      <trkpt lat="45.86093" lon="4.78916">
        <ele>482.76251</ele>
        <time>2023-06-14T18:02:20.000Z</time>
      </trkpt>
      <trkpt lat="45.8609" lon="4.78914">
        <ele>486.21323</ele>
        <time>2023-06-14T18:02:21.000Z</time>
      </trkpt>
      <trkpt lat="45.86087" lon="4.78912">
        <ele>486.82983</ele>
        <time>2023-06-14T18:02:22.000Z</time>
      </trkpt>
      <trkpt lat="45.86083" lon="4.78909">
        <ele>487.4982</ele>
        <time>2023-06-14T18:02:23.000Z</time>
      </trkpt>
      <trkpt lat="45.86081" lon="4.78906">
        <ele>488.56036</ele>
        <time>2023-06-14T18:02:24.000Z</time>
      </trkpt>
      <trkpt lat="45.86078" lon="4.78903">
        <ele>489.63495</ele>
        <time>2023-06-14T18:02:25.000Z</time>
      </trkpt>
      <trkpt lat="45.86076" lon="4.78901">
        <ele>490.54437</ele>
        <time>2023-06-14T18:02:26.000Z</time>
      </trkpt>
      <trkpt lat="45.86073" lon="4.78899">
        <ele>491.43222</ele>
        <time>2023-06-14T18:02:27.000Z</time>
      </trkpt>
      <trkpt lat="45.86069" lon="4.78897">
        <ele>491.87494</ele>
        <time>2023-06-14T18:02:28.000Z</time>
      </trkpt>
      <trkpt lat="45.86065" lon="4.78896">
        <ele>489.19525</ele>
        <time>2023-06-14T18:02:29.000Z</time>
      </trkpt>
      <trkpt lat="45.86062" lon="4.78894">
        <ele>489.86395</ele>
        <time>2023-06-14T18:02:30.000Z</time>
      </trkpt>
      <trkpt lat="45.86059" lon="4.78893">
        <ele>490.55426</ele>
        <time>2023-06-14T18:02:31.000Z</time>
      </trkpt>
      <trkpt lat="45.86055" lon="4.78891">
        <ele>491.26654</ele>
        <time>2023-06-14T18:02:32.000Z</time>
      </trkpt>
      <trkpt lat="45.8605" lon="4.78889">
        <ele>492.00302</ele>
        <time>2023-06-14T18:02:33.000Z</time>
      </trkpt>
      <trkpt lat="45.86047" lon="4.78888">
        <ele>483.07431</ele>
        <time>2023-06-14T18:02:34.000Z</time>
      </trkpt>
      <trkpt lat="45.86042" lon="4.78887">
        <ele>480.23193</ele>
        <time>2023-06-14T18:02:35.000Z</time>
      </trkpt>
      <trkpt lat="45.86038" lon="4.78886">
        <ele>480.21964</ele>
        <time>2023-06-14T18:02:36.000Z</time>
      </trkpt>
      <trkpt lat="45.86034" lon="4.78886">
        <ele>480.18506</ele>
        <time>2023-06-14T18:02:37.000Z</time>
      </trkpt>
      <trkpt lat="45.8603" lon="4.78885">
        <ele>480.12549</ele>
        <time>2023-06-14T18:02:38.000Z</time>
      </trkpt>
      <trkpt lat="45.86027" lon="4.78883">
        <ele>480.03888</ele>
        <time>2023-06-14T18:02:39.000Z</time>
      </trkpt>
      <trkpt lat="45.86024" lon="4.78881">
        <ele>471.57364</ele>
        <time>2023-06-14T18:02:40.000Z</time>
      </trkpt>
      <trkpt lat="45.86021" lon="4.78879">
        <ele>468.03888</ele>
        <time>2023-06-14T18:02:41.000Z</time>
      </trkpt>
      <trkpt lat="45.86012" lon="4.78871">
        <ele>467.13019</ele>
        <time>2023-06-14T18:02:42.000Z</time>
      </trkpt>
      <trkpt lat="45.86008" lon="4.78871">
        <ele>466.14517</ele>
        <time>2023-06-14T18:02:43.000Z</time>
      </trkpt>
      <trkpt lat="45.86005" lon="4.78869">
        <ele>464.77222</ele>
        <time>2023-06-14T18:02:44.000Z</time>
      </trkpt>
      <trkpt lat="45.86002" lon="4.78869">
        <ele>463.32477</ele>
        <time>2023-06-14T18:02:45.000Z</time>
      </trkpt>
      <trkpt lat="45.85999" lon="4.7887">
        <ele>454.69635</ele>
        <time>2023-06-14T18:02:46.000Z</time>
      </trkpt>
      <trkpt lat="45.85996" lon="4.78869">
        <ele>452.94034</ele>
        <time>2023-06-14T18:02:47.000Z</time>
      </trkpt>
      <trkpt lat="45.85992" lon="4.78867">
        <ele>451.54108</ele>
        <time>2023-06-14T18:02:48.000Z</time>
      </trkpt>
      <trkpt lat="45.8599" lon="4.78866">
        <ele>450.67188</ele>
        <time>2023-06-14T18:02:49.000Z</time>
      </trkpt>
      <trkpt lat="45.85988" lon="4.78863">
        <ele>449.97504</ele>
        <time>2023-06-14T18:02:50.000Z</time>
      </trkpt>
      <trkpt lat="45.85984" lon="4.7886">
        <ele>449.13776</ele>
        <time>2023-06-14T18:02:51.000Z</time>
      </trkpt>
      <trkpt lat="45.85979" lon="4.78857">
        <ele>448.14984</ele>
        <time>2023-06-14T18:02:52.000Z</time>
      </trkpt>
      <trkpt lat="45.85975" lon="4.78854">
        <ele>447.03458</ele>
        <time>2023-06-14T18:02:53.000Z</time>
      </trkpt>
      <trkpt lat="45.85971" lon="4.78851">
        <ele>455.90765</ele>
        <time>2023-06-14T18:02:54.000Z</time>
      </trkpt>
      <trkpt lat="45.85968" lon="4.78849">
        <ele>455.43399</ele>
        <time>2023-06-14T18:02:55.000Z</time>
      </trkpt>
      <trkpt lat="45.85965" lon="4.78847">
        <ele>454.97931</ele>
        <time>2023-06-14T18:02:56.000Z</time>
      </trkpt>
      <trkpt lat="45.85961" lon="4.78846">
        <ele>454.5766</ele>
        <time>2023-06-14T18:02:57.000Z</time>
      </trkpt>
      <trkpt lat="45.85957" lon="4.78844">
        <ele>454.2337</ele>
        <time>2023-06-14T18:02:58.000Z</time>
      </trkpt>
      <trkpt lat="45.85953" lon="4.78842">
        <ele>453.96225</ele>
        <time>2023-06-14T18:02:59.000Z</time>
      </trkpt>
      <trkpt lat="45.85949" lon="4.7884">
        <ele>461.98602</ele>
        <time>2023-06-14T18:03:00.000Z</time>
      </trkpt>
      <trkpt lat="45.85946" lon="4.78839">
        <ele>462.09244</ele>
        <time>2023-06-14T18:03:01.000Z</time>
      </trkpt>
      <trkpt lat="45.85943" lon="4.78837">
        <ele>462.48544</ele>
        <time>2023-06-14T18:03:02.000Z</time>
      </trkpt>
      <trkpt lat="45.85939" lon="4.78836">
        <ele>463.4729</ele>
        <time>2023-06-14T18:03:03.000Z</time>
      </trkpt>
      <trkpt lat="45.85936" lon="4.78835">
        <ele>464.53156</ele>
        <time>2023-06-14T18:03:04.000Z</time>
      </trkpt>
      <trkpt lat="45.85933" lon="4.78835">
        <ele>465.80624</ele>
        <time>2023-06-14T18:03:05.000Z</time>
      </trkpt>
      <trkpt lat="45.8593" lon="4.78834">
        <ele>474.39545</ele>
        <time>2023-06-14T18:03:06.000Z</time>
      </trkpt>
      <trkpt lat="45.85928" lon="4.78833">
        <ele>476.28021</ele>
        <time>2023-06-14T18:03:07.000Z</time>
      </trkpt>
      <trkpt lat="45.85926" lon="4.78831">
        <ele>477.4472</ele>
        <time>2023-06-14T18:03:09.000Z</time>
      </trkpt>
      <trkpt lat="45.85924" lon="4.78831">
        <ele>478.82535</ele>
        <time>2023-06-14T18:03:11.000Z</time>
      </trkpt>
      <trkpt lat="45.85921" lon="4.7883">
        <ele>480.27875</ele>
        <time>2023-06-14T18:03:35.000Z</time>
      </trkpt>
      <trkpt lat="45.85919" lon="4.7883">
        <ele>480.63678</ele>
        <time>2023-06-14T18:03:36.000Z</time>
      </trkpt>
      <trkpt lat="45.85916" lon="4.78829">
        <ele>481.12875</ele>
        <time>2023-06-14T18:03:38.000Z</time>
      </trkpt>
      <trkpt lat="45.85914" lon="4.78828">
        <ele>481.73715</ele>
        <time>2023-06-14T18:03:39.000Z</time>
      </trkpt>
      <trkpt lat="45.85912" lon="4.78827">
        <ele>474.75684</ele>
        <time>2023-06-14T18:03:41.000Z</time>
      </trkpt>
      <trkpt lat="45.85909" lon="4.78826">
        <ele>474.81464</ele>
        <time>2023-06-14T18:03:43.000Z</time>
      </trkpt>
      <trkpt lat="45.85907" lon="4.78826">
        <ele>474.99844</ele>
        <time>2023-06-14T18:03:44.000Z</time>
      </trkpt>
      <trkpt lat="45.85904" lon="4.78826">
        <ele>475.14005</ele>
        <time>2023-06-14T18:03:45.000Z</time>
      </trkpt>
      <trkpt lat="45.85902" lon="4.78826">
        <ele>475.23071</ele>
        <time>2023-06-14T18:03:46.000Z</time>
      </trkpt>
      <trkpt lat="45.859" lon="4.78825">
        <ele>478.50259</ele>
        <time>2023-06-14T18:03:47.000Z</time>
      </trkpt>
      <trkpt lat="45.85897" lon="4.78825">
        <ele>478.754</ele>
        <time>2023-06-14T18:03:48.000Z</time>
      </trkpt>
      <trkpt lat="45.85895" lon="4.78825">
        <ele>479.00665</ele>
        <time>2023-06-14T18:03:49.000Z</time>
      </trkpt>
      <trkpt lat="45.85892" lon="4.78824">
        <ele>479.16202</ele>
        <time>2023-06-14T18:03:50.000Z</time>
      </trkpt>
      <trkpt lat="45.8589" lon="4.78824">
        <ele>478.77618</ele>
        <time>2023-06-14T18:03:51.000Z</time>
      </trkpt>
      <trkpt lat="45.85886" lon="4.78823">
        <ele>481.664</ele>
        <time>2023-06-14T18:03:53.000Z</time>
      </trkpt>
      <trkpt lat="45.85884" lon="4.78823">
        <ele>481.23389</ele>
        <time>2023-06-14T18:03:54.000Z</time>
      </trkpt>
      <trkpt lat="45.85881" lon="4.78825">
        <ele>480.81934</ele>
        <time>2023-06-14T18:03:56.000Z</time>
      </trkpt>
      <trkpt lat="45.85879" lon="4.78825">
        <ele>480.97858</ele>
        <time>2023-06-14T18:03:57.000Z</time>
      </trkpt>
      <trkpt lat="45.85876" lon="4.78826">
        <ele>482.14365</ele>
        <time>2023-06-14T18:03:58.000Z</time>
      </trkpt>
      <trkpt lat="45.85872" lon="4.78826">
        <ele>481.14813</ele>
        <time>2023-06-14T18:03:59.000Z</time>
      </trkpt>
      <trkpt lat="45.85869" lon="4.78826">
        <ele>479.9892</ele>
        <time>2023-06-14T18:04:00.000Z</time>
      </trkpt>
      <trkpt lat="45.85867" lon="4.78826">
        <ele>479.97476</ele>
        <time>2023-06-14T18:04:01.000Z</time>
      </trkpt>
      <trkpt lat="45.85865" lon="4.78827">
        <ele>479.94165</ele>
        <time>2023-06-14T18:04:02.000Z</time>
      </trkpt>
      <trkpt lat="45.85862" lon="4.78828">
        <ele>479.88226</ele>
        <time>2023-06-14T18:04:03.000Z</time>
      </trkpt>
      <trkpt lat="45.8586" lon="4.78829">
        <ele>490.43439</ele>
        <time>2023-06-14T18:04:04.000Z</time>
      </trkpt>
      <trkpt lat="45.85857" lon="4.7883">
        <ele>491.21826</ele>
        <time>2023-06-14T18:04:06.000Z</time>
      </trkpt>
      <trkpt lat="45.85855" lon="4.78831">
        <ele>492.03848</ele>
        <time>2023-06-14T18:04:07.000Z</time>
      </trkpt>
      <trkpt lat="45.85853" lon="4.78831">
        <ele>492.89047</ele>
        <time>2023-06-14T18:04:08.000Z</time>
      </trkpt>
      <trkpt lat="45.85851" lon="4.7883">
        <ele>496.56119</ele>
        <time>2023-06-14T18:04:11.000Z</time>
      </trkpt>
      <trkpt lat="45.85849" lon="4.78829">
        <ele>494.38257</ele>
        <time>2023-06-14T18:04:15.000Z</time>
      </trkpt>
      <trkpt lat="45.85846" lon="4.7883">
        <ele>497.77026</ele>
        <time>2023-06-14T18:04:17.000Z</time>
      </trkpt>
      <trkpt lat="45.85844" lon="4.7883">
        <ele>498.7211</ele>
        <time>2023-06-14T18:04:18.000Z</time>
      </trkpt>
      <trkpt lat="45.85842" lon="4.78828">
        <ele>499.70679</ele>
        <time>2023-06-14T18:04:19.000Z</time>
      </trkpt>
      <trkpt lat="45.85839" lon="4.78825">
        <ele>500.73404</ele>
        <time>2023-06-14T18:04:20.000Z</time>
      </trkpt>
      <trkpt lat="45.85836" lon="4.78821">
        <ele>498.517</ele>
        <time>2023-06-14T18:04:21.000Z</time>
      </trkpt>
      <trkpt lat="45.85831" lon="4.78815">
        <ele>499.35962</ele>
        <time>2023-06-14T18:04:22.000Z</time>
      </trkpt>
      <trkpt lat="45.85824" lon="4.78812">
        <ele>502.51767</ele>
        <time>2023-06-14T18:04:23.000Z</time>
      </trkpt>
      <trkpt lat="45.85819" lon="4.78809">
        <ele>502.86475</ele>
        <time>2023-06-14T18:04:24.000Z</time>
      </trkpt>
      <trkpt lat="45.85814" lon="4.78806">
        <ele>503.0289</ele>
        <time>2023-06-14T18:04:25.000Z</time>
      </trkpt>
      <trkpt lat="45.85809" lon="4.78802">
        <ele>504.07318</ele>
        <time>2023-06-14T18:04:26.000Z</time>
      </trkpt>
      <trkpt lat="45.85806" lon="4.78799">
        <ele>505.21942</ele>
        <time>2023-06-14T18:04:27.000Z</time>
      </trkpt>
      <trkpt lat="45.85802" lon="4.78796">
        <ele>506.48096</ele>
        <time>2023-06-14T18:04:28.000Z</time>
      </trkpt>
      <trkpt lat="45.85799" lon="4.78795">
        <ele>509.51324</ele>
        <time>2023-06-14T18:04:29.000Z</time>
      </trkpt>
      <trkpt lat="45.85795" lon="4.78794">
        <ele>510.99185</ele>
        <time>2023-06-14T18:04:30.000Z</time>
      </trkpt>
      <trkpt lat="45.85793" lon="4.78792">
        <ele>510.67221</ele>
        <time>2023-06-14T18:04:31.000Z</time>
      </trkpt>
      <trkpt lat="45.85789" lon="4.78791">
        <ele>511.68408</ele>
        <time>2023-06-14T18:04:32.000Z</time>
      </trkpt>
      <trkpt lat="45.85787" lon="4.7879">
        <ele>514.11713</ele>
        <time>2023-06-14T18:04:33.000Z</time>
      </trkpt>
      <trkpt lat="45.85784" lon="4.78789">
        <ele>516.49396</ele>
        <time>2023-06-14T18:04:34.000Z</time>
      </trkpt>
      <trkpt lat="45.85781" lon="4.78788">
        <ele>516.06763</ele>
        <time>2023-06-14T18:04:35.000Z</time>
      </trkpt>
      <trkpt lat="45.85779" lon="4.78787">
        <ele>518.26642</ele>
        <time>2023-06-14T18:04:36.000Z</time>
      </trkpt>
      <trkpt lat="45.85776" lon="4.78785">
        <ele>517.99219</ele>
        <time>2023-06-14T18:04:37.000Z</time>
      </trkpt>
      <trkpt lat="45.85774" lon="4.78784">
        <ele>520.16821</ele>
        <time>2023-06-14T18:04:38.000Z</time>
      </trkpt>
      <trkpt lat="45.85772" lon="4.78784">
        <ele>522.29333</ele>
        <time>2023-06-14T18:04:39.000Z</time>
      </trkpt>
      <trkpt lat="45.8577" lon="4.78782">
        <ele>524.38379</ele>
        <time>2023-06-14T18:04:40.000Z</time>
      </trkpt>
      <trkpt lat="45.85767" lon="4.78781">
        <ele>526.42773</ele>
        <time>2023-06-14T18:04:41.000Z</time>
      </trkpt>
      <trkpt lat="45.85764" lon="4.78781">
        <ele>528.62604</ele>
        <time>2023-06-14T18:04:43.000Z</time>
      </trkpt>
      <trkpt lat="45.85761" lon="4.78782">
        <ele>528.55304</ele>
        <time>2023-06-14T18:04:44.000Z</time>
      </trkpt>
      <trkpt lat="45.85758" lon="4.78782">
        <ele>530.56763</ele>
        <time>2023-06-14T18:04:45.000Z</time>
      </trkpt>
      <trkpt lat="45.85756" lon="4.78781">
        <ele>532.56946</ele>
        <time>2023-06-14T18:04:46.000Z</time>
      </trkpt>
      <trkpt lat="45.85754" lon="4.7878">
        <ele>534.51465</ele>
        <time>2023-06-14T18:04:47.000Z</time>
      </trkpt>
      <trkpt lat="45.85752" lon="4.78776">
        <ele>536.4505</ele>
        <time>2023-06-14T18:04:49.000Z</time>
      </trkpt>
      <trkpt lat="45.85751" lon="4.78774">
        <ele>538.41595</ele>
        <time>2023-06-14T18:04:56.000Z</time>
      </trkpt>
      <trkpt lat="45.85752" lon="4.78777">
        <ele>538.52484</ele>
        <time>2023-06-14T18:05:01.000Z</time>
      </trkpt>
      <trkpt lat="45.85753" lon="4.78779">
        <ele>540.1723</ele>
        <time>2023-06-14T18:05:03.000Z</time>
      </trkpt>
      <trkpt lat="45.85755" lon="4.78782">
        <ele>540.26416</ele>
        <time>2023-06-14T18:05:05.000Z</time>
      </trkpt>
      <trkpt lat="45.85757" lon="4.78782">
        <ele>541.81604</ele>
        <time>2023-06-14T18:05:14.000Z</time>
      </trkpt>
      <trkpt lat="45.85755" lon="4.78779">
        <ele>541.84851</ele>
        <time>2023-06-14T18:05:19.000Z</time>
      </trkpt>
      <trkpt lat="45.85753" lon="4.78778">
        <ele>541.89984</ele>
        <time>2023-06-14T18:05:20.000Z</time>
      </trkpt>
      <trkpt lat="45.85752" lon="4.78773">
        <ele>541.90558</ele>
        <time>2023-06-14T18:05:22.000Z</time>
      </trkpt>
      <trkpt lat="45.85749" lon="4.7877">
        <ele>541.82715</ele>
        <time>2023-06-14T18:05:24.000Z</time>
      </trkpt>
      <trkpt lat="45.85747" lon="4.78768">
        <ele>541.8017</ele>
        <time>2023-06-14T18:05:26.000Z</time>
      </trkpt>
      <trkpt lat="45.85745" lon="4.78766">
        <ele>541.88354</ele>
        <time>2023-06-14T18:05:28.000Z</time>
      </trkpt>
      <trkpt lat="45.85741" lon="4.78765">
        <ele>542.02869</ele>
        <time>2023-06-14T18:05:30.000Z</time>
      </trkpt>
      <trkpt lat="45.85739" lon="4.78763">
        <ele>542.15698</ele>
        <time>2023-06-14T18:05:31.000Z</time>
      </trkpt>
      <trkpt lat="45.85737" lon="4.78762">
        <ele>542.31165</ele>
        <time>2023-06-14T18:05:32.000Z</time>
      </trkpt>
      <trkpt lat="45.85735" lon="4.7876">
        <ele>542.44788</ele>
        <time>2023-06-14T18:05:33.000Z</time>
      </trkpt>
      <trkpt lat="45.85734" lon="4.78757">
        <ele>542.53772</ele>
        <time>2023-06-14T18:05:34.000Z</time>
      </trkpt>
      <trkpt lat="45.85732" lon="4.78755">
        <ele>542.62537</ele>
        <time>2023-06-14T18:05:35.000Z</time>
      </trkpt>
      <trkpt lat="45.8573" lon="4.7875">
        <ele>542.73743</ele>
        <time>2023-06-14T18:05:37.000Z</time>
      </trkpt>
      <trkpt lat="45.85728" lon="4.78748">
        <ele>542.87482</ele>
        <time>2023-06-14T18:05:38.000Z</time>
      </trkpt>
      <trkpt lat="45.85726" lon="4.78745">
        <ele>543.01416</ele>
        <time>2023-06-14T18:05:39.000Z</time>
      </trkpt>
      <trkpt lat="45.85724" lon="4.78743">
        <ele>543.0578</ele>
        <time>2023-06-14T18:05:40.000Z</time>
      </trkpt>
      <trkpt lat="45.85722" lon="4.78741">
        <ele>543.18646</ele>
        <time>2023-06-14T18:05:41.000Z</time>
      </trkpt>
      <trkpt lat="45.8572" lon="4.78739">
        <ele>543.39142</ele>
        <time>2023-06-14T18:05:42.000Z</time>
      </trkpt>
      <trkpt lat="45.85718" lon="4.78737">
        <ele>543.51257</ele>
        <time>2023-06-14T18:05:43.000Z</time>
      </trkpt>
      <trkpt lat="45.85717" lon="4.78735">
        <ele>543.71515</ele>
        <time>2023-06-14T18:05:44.000Z</time>
      </trkpt>
      <trkpt lat="45.85716" lon="4.78732">
        <ele>543.97119</ele>
        <time>2023-06-14T18:05:45.000Z</time>
      </trkpt>
      <trkpt lat="45.85714" lon="4.7873">
        <ele>544.26471</ele>
        <time>2023-06-14T18:05:46.000Z</time>
      </trkpt>
      <trkpt lat="45.85713" lon="4.78728">
        <ele>544.58545</ele>
        <time>2023-06-14T18:05:47.000Z</time>
      </trkpt>
      <trkpt lat="45.85711" lon="4.78726">
        <ele>545.00366</ele>
        <time>2023-06-14T18:05:48.000Z</time>
      </trkpt>
      <trkpt lat="45.85709" lon="4.78723">
        <ele>545.32996</ele>
        <time>2023-06-14T18:05:50.000Z</time>
      </trkpt>
      <trkpt lat="45.85707" lon="4.78721">
        <ele>545.50769</ele>
        <time>2023-06-14T18:05:51.000Z</time>
      </trkpt>
      <trkpt lat="45.85705" lon="4.7872">
        <ele>545.64886</ele>
        <time>2023-06-14T18:05:52.000Z</time>
      </trkpt>
      <trkpt lat="45.85703" lon="4.78717">
        <ele>545.71857</ele>
        <time>2023-06-14T18:05:53.000Z</time>
      </trkpt>
      <trkpt lat="45.85702" lon="4.78713">
        <ele>545.76379</ele>
        <time>2023-06-14T18:05:55.000Z</time>
      </trkpt>
      <trkpt lat="45.85701" lon="4.78711">
        <ele>545.77258</ele>
        <time>2023-06-14T18:05:56.000Z</time>
      </trkpt>
      <trkpt lat="45.85699" lon="4.78709">
        <ele>545.78235</ele>
        <time>2023-06-14T18:05:57.000Z</time>
      </trkpt>
      <trkpt lat="45.85698" lon="4.78706">
        <ele>545.81659</ele>
        <time>2023-06-14T18:05:58.000Z</time>
      </trkpt>
      <trkpt lat="45.85696" lon="4.78702">
        <ele>545.83215</ele>
        <time>2023-06-14T18:06:00.000Z</time>
      </trkpt>
      <trkpt lat="45.85694" lon="4.787">
        <ele>545.91071</ele>
        <time>2023-06-14T18:06:01.000Z</time>
      </trkpt>
      <trkpt lat="45.85693" lon="4.78699">
        <ele>546.00476</ele>
        <time>2023-06-14T18:06:02.000Z</time>
      </trkpt>
      <trkpt lat="45.85691" lon="4.78697">
        <ele>546.12994</ele>
        <time>2023-06-14T18:06:03.000Z</time>
      </trkpt>
      <trkpt lat="45.85688" lon="4.78695">
        <ele>546.255</ele>
        <time>2023-06-14T18:06:04.000Z</time>
      </trkpt>
      <trkpt lat="45.85686" lon="4.78692">
        <ele>546.32184</ele>
        <time>2023-06-14T18:06:05.000Z</time>
      </trkpt>
      <trkpt lat="45.85684" lon="4.78689">
        <ele>546.46613</ele>
        <time>2023-06-14T18:06:06.000Z</time>
      </trkpt>
      <trkpt lat="45.85682" lon="4.78687">
        <ele>546.54004</ele>
        <time>2023-06-14T18:06:07.000Z</time>
      </trkpt>
      <trkpt lat="45.8568" lon="4.78684">
        <ele>546.63098</ele>
        <time>2023-06-14T18:06:08.000Z</time>
      </trkpt>
      <trkpt lat="45.85678" lon="4.78682">
        <ele>546.71887</ele>
        <time>2023-06-14T18:06:09.000Z</time>
      </trkpt>
      <trkpt lat="45.85675" lon="4.7868">
        <ele>546.75781</ele>
        <time>2023-06-14T18:06:10.000Z</time>
      </trkpt>
      <trkpt lat="45.85673" lon="4.78677">
        <ele>546.77905</ele>
        <time>2023-06-14T18:06:11.000Z</time>
      </trkpt>
      <trkpt lat="45.85671" lon="4.78675">
        <ele>546.85431</ele>
        <time>2023-06-14T18:06:12.000Z</time>
      </trkpt>
      <trkpt lat="45.85668" lon="4.78673">
        <ele>546.9386</ele>
        <time>2023-06-14T18:06:13.000Z</time>
      </trkpt>
      <trkpt lat="45.85665" lon="4.7867">
        <ele>546.98657</ele>
        <time>2023-06-14T18:06:14.000Z</time>
      </trkpt>
      <trkpt lat="45.85662" lon="4.78668">
        <ele>547.11353</ele>
        <time>2023-06-14T18:06:15.000Z</time>
      </trkpt>
      <trkpt lat="45.85659" lon="4.78666">
        <ele>547.21869</ele>
        <time>2023-06-14T18:06:16.000Z</time>
      </trkpt>
      <trkpt lat="45.85657" lon="4.78665">
        <ele>547.34302</ele>
        <time>2023-06-14T18:06:17.000Z</time>
      </trkpt>
      <trkpt lat="45.85654" lon="4.78663">
        <ele>547.49927</ele>
        <time>2023-06-14T18:06:18.000Z</time>
      </trkpt>
      <trkpt lat="45.85652" lon="4.78662">
        <ele>547.66571</ele>
        <time>2023-06-14T18:06:19.000Z</time>
      </trkpt>
      <trkpt lat="45.85649" lon="4.78661">
        <ele>547.8205</ele>
        <time>2023-06-14T18:06:20.000Z</time>
      </trkpt>
      <trkpt lat="45.85646" lon="4.7866">
        <ele>547.92896</ele>
        <time>2023-06-14T18:06:21.000Z</time>
      </trkpt>
      <trkpt lat="45.85644" lon="4.78659">
        <ele>547.99182</ele>
        <time>2023-06-14T18:06:22.000Z</time>
      </trkpt>
      <trkpt lat="45.8564" lon="4.78657">
        <ele>548.03314</ele>
        <time>2023-06-14T18:06:24.000Z</time>
      </trkpt>
      <trkpt lat="45.85637" lon="4.78655">
        <ele>548.0545</ele>
        <time>2023-06-14T18:06:25.000Z</time>
      </trkpt>
      <trkpt lat="45.85634" lon="4.78653">
        <ele>548.10345</ele>
        <time>2023-06-14T18:06:26.000Z</time>
      </trkpt>
      <trkpt lat="45.85633" lon="4.78651">
        <ele>548.14423</ele>
        <time>2023-06-14T18:06:27.000Z</time>
      </trkpt>
      <trkpt lat="45.85631" lon="4.78649">
        <ele>548.23279</ele>
        <time>2023-06-14T18:06:28.000Z</time>
      </trkpt>
      <trkpt lat="45.85628" lon="4.78646">
        <ele>548.30554</ele>
        <time>2023-06-14T18:06:29.000Z</time>
      </trkpt>
      <trkpt lat="45.85625" lon="4.78644">
        <ele>548.35187</ele>
        <time>2023-06-14T18:06:30.000Z</time>
      </trkpt>
      <trkpt lat="45.85622" lon="4.78642">
        <ele>548.43933</ele>
        <time>2023-06-14T18:06:31.000Z</time>
      </trkpt>
      <trkpt lat="45.85618" lon="4.7864">
        <ele>548.51031</ele>
        <time>2023-06-14T18:06:32.000Z</time>
      </trkpt>
      <trkpt lat="45.85614" lon="4.78638">
        <ele>548.56897</ele>
        <time>2023-06-14T18:06:33.000Z</time>
      </trkpt>
      <trkpt lat="45.85611" lon="4.78637">
        <ele>548.63098</ele>
        <time>2023-06-14T18:06:34.000Z</time>
      </trkpt>
      <trkpt lat="45.85607" lon="4.78635">
        <ele>548.70142</ele>
        <time>2023-06-14T18:06:35.000Z</time>
      </trkpt>
      <trkpt lat="45.85604" lon="4.78633">
        <ele>548.75928</ele>
        <time>2023-06-14T18:06:36.000Z</time>
      </trkpt>
      <trkpt lat="45.85601" lon="4.78632">
        <ele>548.83282</ele>
        <time>2023-06-14T18:06:37.000Z</time>
      </trkpt>
      <trkpt lat="45.85599" lon="4.7863">
        <ele>548.89282</ele>
        <time>2023-06-14T18:06:38.000Z</time>
      </trkpt>
      <trkpt lat="45.85595" lon="4.78628">
        <ele>548.96228</ele>
        <time>2023-06-14T18:06:39.000Z</time>
      </trkpt>
      <trkpt lat="45.85592" lon="4.78625">
        <ele>548.99353</ele>
        <time>2023-06-14T18:06:40.000Z</time>
      </trkpt>
      <trkpt lat="45.85588" lon="4.78623">
        <ele>549.03687</ele>
        <time>2023-06-14T18:06:41.000Z</time>
      </trkpt>
      <trkpt lat="45.85585" lon="4.78621">
        <ele>549.09271</ele>
        <time>2023-06-14T18:06:42.000Z</time>
      </trkpt>
      <trkpt lat="45.85583" lon="4.78619">
        <ele>549.15094</ele>
        <time>2023-06-14T18:06:43.000Z</time>
      </trkpt>
      <trkpt lat="45.8558" lon="4.78618">
        <ele>549.19745</ele>
        <time>2023-06-14T18:06:44.000Z</time>
      </trkpt>
      <trkpt lat="45.85577" lon="4.78616">
        <ele>549.26154</ele>
        <time>2023-06-14T18:06:45.000Z</time>
      </trkpt>
      <trkpt lat="45.85574" lon="4.78614">
        <ele>549.29797</ele>
        <time>2023-06-14T18:06:46.000Z</time>
      </trkpt>
      <trkpt lat="45.85571" lon="4.78612">
        <ele>549.341</ele>
        <time>2023-06-14T18:06:47.000Z</time>
      </trkpt>
      <trkpt lat="45.85568" lon="4.7861">
        <ele>549.37567</ele>
        <time>2023-06-14T18:06:48.000Z</time>
      </trkpt>
      <trkpt lat="45.85565" lon="4.78608">
        <ele>549.40558</ele>
        <time>2023-06-14T18:06:49.000Z</time>
      </trkpt>
      <trkpt lat="45.85563" lon="4.78606">
        <ele>549.40411</ele>
        <time>2023-06-14T18:06:50.000Z</time>
      </trkpt>
      <trkpt lat="45.8556" lon="4.78604">
        <ele>549.40411</ele>
        <time>2023-06-14T18:06:51.000Z</time>
      </trkpt>
      <trkpt lat="45.85557" lon="4.78603">
        <ele>549.38086</ele>
        <time>2023-06-14T18:06:52.000Z</time>
      </trkpt>
      <trkpt lat="45.85554" lon="4.78602">
        <ele>549.35156</ele>
        <time>2023-06-14T18:06:53.000Z</time>
      </trkpt>
      <trkpt lat="45.85551" lon="4.78601">
        <ele>549.34204</ele>
        <time>2023-06-14T18:06:54.000Z</time>
      </trkpt>
      <trkpt lat="45.85548" lon="4.786">
        <ele>549.3078</ele>
        <time>2023-06-14T18:06:55.000Z</time>
      </trkpt>
      <trkpt lat="45.85545" lon="4.78599">
        <ele>549.28796</ele>
        <time>2023-06-14T18:06:56.000Z</time>
      </trkpt>
      <trkpt lat="45.85542" lon="4.78598">
        <ele>549.24768</ele>
        <time>2023-06-14T18:06:57.000Z</time>
      </trkpt>
      <trkpt lat="45.85539" lon="4.78596">
        <ele>549.16809</ele>
        <time>2023-06-14T18:06:58.000Z</time>
      </trkpt>
      <trkpt lat="45.85535" lon="4.78595">
        <ele>549.08398</ele>
        <time>2023-06-14T18:06:59.000Z</time>
      </trkpt>
      <trkpt lat="45.85532" lon="4.78594">
        <ele>549.03235</ele>
        <time>2023-06-14T18:07:00.000Z</time>
      </trkpt>
      <trkpt lat="45.85529" lon="4.78592">
        <ele>548.99982</ele>
        <time>2023-06-14T18:07:01.000Z</time>
      </trkpt>
      <trkpt lat="45.85527" lon="4.7859">
        <ele>548.99121</ele>
        <time>2023-06-14T18:07:02.000Z</time>
      </trkpt>
      <trkpt lat="45.85524" lon="4.78588">
        <ele>549.00305</ele>
        <time>2023-06-14T18:07:03.000Z</time>
      </trkpt>
      <trkpt lat="45.85521" lon="4.78586">
        <ele>549.02405</ele>
        <time>2023-06-14T18:07:04.000Z</time>
      </trkpt>
      <trkpt lat="45.85519" lon="4.78584">
        <ele>549.04578</ele>
        <time>2023-06-14T18:07:05.000Z</time>
      </trkpt>
      <trkpt lat="45.85517" lon="4.78582">
        <ele>549.06897</ele>
        <time>2023-06-14T18:07:06.000Z</time>
      </trkpt>
      <trkpt lat="45.85514" lon="4.78579">
        <ele>549.08862</ele>
        <time>2023-06-14T18:07:07.000Z</time>
      </trkpt>
      <trkpt lat="45.85512" lon="4.78577">
        <ele>549.09467</ele>
        <time>2023-06-14T18:07:08.000Z</time>
      </trkpt>
      <trkpt lat="45.85509" lon="4.78575">
        <ele>549.11121</ele>
        <time>2023-06-14T18:07:09.000Z</time>
      </trkpt>
      <trkpt lat="45.85507" lon="4.78572">
        <ele>549.14514</ele>
        <time>2023-06-14T18:07:10.000Z</time>
      </trkpt>
      <trkpt lat="45.85504" lon="4.78569">
        <ele>549.14813</ele>
        <time>2023-06-14T18:07:11.000Z</time>
      </trkpt>
      <trkpt lat="45.85502" lon="4.78566">
        <ele>548.7345</ele>
        <time>2023-06-14T18:07:12.000Z</time>
      </trkpt>
      <trkpt lat="45.85499" lon="4.78562">
        <ele>548.32715</ele>
        <time>2023-06-14T18:07:13.000Z</time>
      </trkpt>
      <trkpt lat="45.85497" lon="4.78559">
        <ele>547.8927</ele>
        <time>2023-06-14T18:07:14.000Z</time>
      </trkpt>
      <trkpt lat="45.85494" lon="4.78555">
        <ele>547.48865</ele>
        <time>2023-06-14T18:07:15.000Z</time>
      </trkpt>
      <trkpt lat="45.85491" lon="4.78552">
        <ele>547.09631</ele>
        <time>2023-06-14T18:07:16.000Z</time>
      </trkpt>
      <trkpt lat="45.85488" lon="4.78548">
        <ele>546.71423</ele>
        <time>2023-06-14T18:07:17.000Z</time>
      </trkpt>
      <trkpt lat="45.85486" lon="4.78545">
        <ele>546.36804</ele>
        <time>2023-06-14T18:07:18.000Z</time>
      </trkpt>
      <trkpt lat="45.85483" lon="4.78542">
        <ele>545.99585</ele>
        <time>2023-06-14T18:07:19.000Z</time>
      </trkpt>
      <trkpt lat="45.85481" lon="4.78539">
        <ele>544.83606</ele>
        <time>2023-06-14T18:07:20.000Z</time>
      </trkpt>
      <trkpt lat="45.85478" lon="4.78536">
        <ele>543.65961</ele>
        <time>2023-06-14T18:07:21.000Z</time>
      </trkpt>
      <trkpt lat="45.85476" lon="4.78533">
        <ele>543.38959</ele>
        <time>2023-06-14T18:07:22.000Z</time>
      </trkpt>
      <trkpt lat="45.85473" lon="4.7853">
        <ele>542.93372</ele>
        <time>2023-06-14T18:07:23.000Z</time>
      </trkpt>
      <trkpt lat="45.85471" lon="4.78526">
        <ele>541.72955</ele>
        <time>2023-06-14T18:07:24.000Z</time>
      </trkpt>
      <trkpt lat="45.85468" lon="4.78523">
        <ele>540.12726</ele>
        <time>2023-06-14T18:07:25.000Z</time>
      </trkpt>
      <trkpt lat="45.85465" lon="4.78521">
        <ele>538.53607</ele>
        <time>2023-06-14T18:07:26.000Z</time>
      </trkpt>
      <trkpt lat="45.85463" lon="4.78518">
        <ele>536.68591</ele>
        <time>2023-06-14T18:07:27.000Z</time>
      </trkpt>
      <trkpt lat="45.85461" lon="4.78515">
        <ele>536.17444</ele>
        <time>2023-06-14T18:07:28.000Z</time>
      </trkpt>
      <trkpt lat="45.85458" lon="4.78512">
        <ele>535.68518</ele>
        <time>2023-06-14T18:07:29.000Z</time>
      </trkpt>
      <trkpt lat="45.85456" lon="4.7851">
        <ele>535.68317</ele>
        <time>2023-06-14T18:07:30.000Z</time>
      </trkpt>
      <trkpt lat="45.85453" lon="4.78507">
        <ele>535.71832</ele>
        <time>2023-06-14T18:07:31.000Z</time>
      </trkpt>
      <trkpt lat="45.85451" lon="4.78504">
        <ele>536.17877</ele>
        <time>2023-06-14T18:07:32.000Z</time>
      </trkpt>
      <trkpt lat="45.85449" lon="4.78501">
        <ele>536.62335</ele>
        <time>2023-06-14T18:07:33.000Z</time>
      </trkpt>
      <trkpt lat="45.85446" lon="4.78498">
        <ele>537.24597</ele>
        <time>2023-06-14T18:07:34.000Z</time>
      </trkpt>
      <trkpt lat="45.85444" lon="4.78495">
        <ele>537.83429</ele>
        <time>2023-06-14T18:07:35.000Z</time>
      </trkpt>
      <trkpt lat="45.85442" lon="4.78492">
        <ele>538.41492</ele>
        <time>2023-06-14T18:07:36.000Z</time>
      </trkpt>
      <trkpt lat="45.8544" lon="4.78489">
        <ele>539.00098</ele>
        <time>2023-06-14T18:07:37.000Z</time>
      </trkpt>
      <trkpt lat="45.85438" lon="4.78486">
        <ele>539.57886</ele>
        <time>2023-06-14T18:07:38.000Z</time>
      </trkpt>
      <trkpt lat="45.85436" lon="4.78484">
        <ele>540.16205</ele>
        <time>2023-06-14T18:07:39.000Z</time>
      </trkpt>
      <trkpt lat="45.85434" lon="4.78481">
        <ele>541.50458</ele>
        <time>2023-06-14T18:07:40.000Z</time>
      </trkpt>
      <trkpt lat="45.85432" lon="4.78478">
        <ele>542.69537</ele>
        <time>2023-06-14T18:07:41.000Z</time>
      </trkpt>
      <trkpt lat="45.8543" lon="4.78475">
        <ele>542.95331</ele>
        <time>2023-06-14T18:07:42.000Z</time>
      </trkpt>
      <trkpt lat="45.85429" lon="4.78473">
        <ele>543.38318</ele>
        <time>2023-06-14T18:07:43.000Z</time>
      </trkpt>
      <trkpt lat="45.85427" lon="4.7847">
        <ele>544.61157</ele>
        <time>2023-06-14T18:07:44.000Z</time>
      </trkpt>
      <trkpt lat="45.85425" lon="4.78467">
        <ele>546.2027</ele>
        <time>2023-06-14T18:07:45.000Z</time>
      </trkpt>
      <trkpt lat="45.85423" lon="4.78464">
        <ele>547.77844</ele>
        <time>2023-06-14T18:07:46.000Z</time>
      </trkpt>
      <trkpt lat="45.8542" lon="4.78461">
        <ele>549.60645</ele>
        <time>2023-06-14T18:07:47.000Z</time>
      </trkpt>
      <trkpt lat="45.85418" lon="4.78458">
        <ele>550.0863</ele>
        <time>2023-06-14T18:07:48.000Z</time>
      </trkpt>
      <trkpt lat="45.85415" lon="4.78456">
        <ele>550.53778</ele>
        <time>2023-06-14T18:07:49.000Z</time>
      </trkpt>
      <trkpt lat="45.85413" lon="4.78453">
        <ele>550.50934</ele>
        <time>2023-06-14T18:07:50.000Z</time>
      </trkpt>
      <trkpt lat="45.8541" lon="4.7845">
        <ele>550.495</ele>
        <time>2023-06-14T18:07:51.000Z</time>
      </trkpt>
      <trkpt lat="45.85408" lon="4.78447">
        <ele>550.50244</ele>
        <time>2023-06-14T18:07:52.000Z</time>
      </trkpt>
      <trkpt lat="45.85405" lon="4.78444">
        <ele>550.51617</ele>
        <time>2023-06-14T18:07:53.000Z</time>
      </trkpt>
      <trkpt lat="45.85402" lon="4.78441">
        <ele>550.37115</ele>
        <time>2023-06-14T18:07:54.000Z</time>
      </trkpt>
      <trkpt lat="45.85399" lon="4.78438">
        <ele>550.28577</ele>
        <time>2023-06-14T18:07:55.000Z</time>
      </trkpt>
      <trkpt lat="45.85396" lon="4.78435">
        <ele>550.20239</ele>
        <time>2023-06-14T18:07:56.000Z</time>
      </trkpt>
      <trkpt lat="45.85393" lon="4.78431">
        <ele>550.12787</ele>
        <time>2023-06-14T18:07:57.000Z</time>
      </trkpt>
      <trkpt lat="45.85389" lon="4.78428">
        <ele>550.07709</ele>
        <time>2023-06-14T18:07:58.000Z</time>
      </trkpt>
      <trkpt lat="45.85387" lon="4.78425">
        <ele>550.05249</ele>
        <time>2023-06-14T18:07:59.000Z</time>
      </trkpt>
      <trkpt lat="45.85384" lon="4.78422">
        <ele>550.03955</ele>
        <time>2023-06-14T18:08:00.000Z</time>
      </trkpt>
      <trkpt lat="45.85381" lon="4.78418">
        <ele>550.19818</ele>
        <time>2023-06-14T18:08:01.000Z</time>
      </trkpt>
      <trkpt lat="45.85379" lon="4.78415">
        <ele>550.37317</ele>
        <time>2023-06-14T18:08:02.000Z</time>
      </trkpt>
      <trkpt lat="45.85376" lon="4.78412">
        <ele>550.52014</ele>
        <time>2023-06-14T18:08:03.000Z</time>
      </trkpt>
      <trkpt lat="45.85374" lon="4.78409">
        <ele>550.59827</ele>
        <time>2023-06-14T18:08:04.000Z</time>
      </trkpt>
      <trkpt lat="45.85371" lon="4.78405">
        <ele>550.68774</ele>
        <time>2023-06-14T18:08:05.000Z</time>
      </trkpt>
      <trkpt lat="45.85369" lon="4.78401">
        <ele>550.77515</ele>
        <time>2023-06-14T18:08:06.000Z</time>
      </trkpt>
      <trkpt lat="45.85366" lon="4.78397">
        <ele>550.91156</ele>
        <time>2023-06-14T18:08:07.000Z</time>
      </trkpt>
      <trkpt lat="45.85363" lon="4.78393">
        <ele>551.05469</ele>
        <time>2023-06-14T18:08:08.000Z</time>
      </trkpt>
      <trkpt lat="45.8536" lon="4.78389">
        <ele>551.22455</ele>
        <time>2023-06-14T18:08:09.000Z</time>
      </trkpt>
      <trkpt lat="45.85357" lon="4.78386">
        <ele>551.39447</ele>
        <time>2023-06-14T18:08:10.000Z</time>
      </trkpt>
      <trkpt lat="45.85354" lon="4.78383">
        <ele>551.5672</ele>
        <time>2023-06-14T18:08:11.000Z</time>
      </trkpt>
      <trkpt lat="45.85351" lon="4.7838">
        <ele>551.73907</ele>
        <time>2023-06-14T18:08:12.000Z</time>
      </trkpt>
      <trkpt lat="45.85348" lon="4.78377">
        <ele>551.94116</ele>
        <time>2023-06-14T18:08:13.000Z</time>
      </trkpt>
      <trkpt lat="45.85346" lon="4.78373">
        <ele>552.13257</ele>
        <time>2023-06-14T18:08:14.000Z</time>
      </trkpt>
      <trkpt lat="45.85344" lon="4.78369">
        <ele>552.30603</ele>
        <time>2023-06-14T18:08:15.000Z</time>
      </trkpt>
      <trkpt lat="45.85341" lon="4.78364">
        <ele>552.45056</ele>
        <time>2023-06-14T18:08:16.000Z</time>
      </trkpt>
      <trkpt lat="45.85338" lon="4.78361">
        <ele>552.60461</ele>
        <time>2023-06-14T18:08:17.000Z</time>
      </trkpt>
      <trkpt lat="45.85336" lon="4.78357">
        <ele>552.75916</ele>
        <time>2023-06-14T18:08:18.000Z</time>
      </trkpt>
      <trkpt lat="45.85333" lon="4.78354">
        <ele>552.85468</ele>
        <time>2023-06-14T18:08:19.000Z</time>
      </trkpt>
      <trkpt lat="45.85331" lon="4.78353">
        <ele>552.92981</ele>
        <time>2023-06-14T18:08:20.000Z</time>
      </trkpt>
      <trkpt lat="45.85328" lon="4.7835">
        <ele>553.00012</ele>
        <time>2023-06-14T18:08:21.000Z</time>
      </trkpt>
      <trkpt lat="45.85325" lon="4.78346">
        <ele>553.13947</ele>
        <time>2023-06-14T18:08:22.000Z</time>
      </trkpt>
      <trkpt lat="45.85323" lon="4.78342">
        <ele>553.30005</ele>
        <time>2023-06-14T18:08:23.000Z</time>
      </trkpt>
      <trkpt lat="45.85321" lon="4.78339">
        <ele>553.48315</ele>
        <time>2023-06-14T18:08:24.000Z</time>
      </trkpt>
      <trkpt lat="45.85319" lon="4.78336">
        <ele>553.68512</ele>
        <time>2023-06-14T18:08:25.000Z</time>
      </trkpt>
      <trkpt lat="45.85317" lon="4.78333">
        <ele>553.86926</ele>
        <time>2023-06-14T18:08:26.000Z</time>
      </trkpt>
      <trkpt lat="45.85315" lon="4.7833">
        <ele>553.97687</ele>
        <time>2023-06-14T18:08:27.000Z</time>
      </trkpt>
      <trkpt lat="45.85311" lon="4.78326">
        <ele>554.11249</ele>
        <time>2023-06-14T18:08:28.000Z</time>
      </trkpt>
      <trkpt lat="45.85308" lon="4.78322">
        <ele>554.28638</ele>
        <time>2023-06-14T18:08:29.000Z</time>
      </trkpt>
      <trkpt lat="45.85305" lon="4.78317">
        <ele>554.43378</ele>
        <time>2023-06-14T18:08:30.000Z</time>
      </trkpt>
      <trkpt lat="45.85302" lon="4.78312">
        <ele>554.59045</ele>
        <time>2023-06-14T18:08:31.000Z</time>
      </trkpt>
      <trkpt lat="45.85299" lon="4.78307">
        <ele>554.76123</ele>
        <time>2023-06-14T18:08:32.000Z</time>
      </trkpt>
      <trkpt lat="45.85295" lon="4.78302">
        <ele>554.80212</ele>
        <time>2023-06-14T18:08:33.000Z</time>
      </trkpt>
      <trkpt lat="45.85289" lon="4.78295">
        <ele>554.8468</ele>
        <time>2023-06-14T18:08:34.000Z</time>
      </trkpt>
      <trkpt lat="45.85286" lon="4.78291">
        <ele>554.88501</ele>
        <time>2023-06-14T18:08:35.000Z</time>
      </trkpt>
      <trkpt lat="45.85282" lon="4.78285">
        <ele>554.94104</ele>
        <time>2023-06-14T18:08:36.000Z</time>
      </trkpt>
      <trkpt lat="45.85277" lon="4.78281">
        <ele>554.98566</ele>
        <time>2023-06-14T18:08:37.000Z</time>
      </trkpt>
      <trkpt lat="45.85273" lon="4.78275">
        <ele>548.13489</ele>
        <time>2023-06-14T18:08:38.000Z</time>
      </trkpt>
      <trkpt lat="45.85267" lon="4.78268">
        <ele>547.87177</ele>
        <time>2023-06-14T18:08:39.000Z</time>
      </trkpt>
      <trkpt lat="45.85265" lon="4.78264">
        <ele>547.61206</ele>
        <time>2023-06-14T18:08:40.000Z</time>
      </trkpt>
      <trkpt lat="45.85262" lon="4.78258">
        <ele>547.3111</ele>
        <time>2023-06-14T18:08:41.000Z</time>
      </trkpt>
      <trkpt lat="45.85259" lon="4.78254">
        <ele>546.90613</ele>
        <time>2023-06-14T18:08:42.000Z</time>
      </trkpt>
      <trkpt lat="45.85259" lon="4.78249">
        <ele>546.46399</ele>
        <time>2023-06-14T18:08:43.000Z</time>
      </trkpt>
      <trkpt lat="45.85253" lon="4.78243">
        <ele>540.013</ele>
        <time>2023-06-14T18:08:44.000Z</time>
      </trkpt>
      <trkpt lat="45.85249" lon="4.78238">
        <ele>539.2326</ele>
        <time>2023-06-14T18:08:45.000Z</time>
      </trkpt>
      <trkpt lat="45.85244" lon="4.78233">
        <ele>538.43451</ele>
        <time>2023-06-14T18:08:46.000Z</time>
      </trkpt>
      <trkpt lat="45.85242" lon="4.78226">
        <ele>537.63885</ele>
        <time>2023-06-14T18:08:47.000Z</time>
      </trkpt>
      <trkpt lat="45.8524" lon="4.78221">
        <ele>536.78247</ele>
        <time>2023-06-14T18:08:48.000Z</time>
      </trkpt>
      <trkpt lat="45.85237" lon="4.78215">
        <ele>535.823</ele>
        <time>2023-06-14T18:08:49.000Z</time>
      </trkpt>
      <trkpt lat="45.85233" lon="4.7821">
        <ele>530.13416</ele>
        <time>2023-06-14T18:08:50.000Z</time>
      </trkpt>
      <trkpt lat="45.85228" lon="4.78202">
        <ele>528.83331</ele>
        <time>2023-06-14T18:08:51.000Z</time>
      </trkpt>
      <trkpt lat="45.85224" lon="4.78196">
        <ele>528.91809</ele>
        <time>2023-06-14T18:08:52.000Z</time>
      </trkpt>
      <trkpt lat="45.85219" lon="4.78191">
        <ele>529.06891</ele>
        <time>2023-06-14T18:08:53.000Z</time>
      </trkpt>
      <trkpt lat="45.85215" lon="4.78186">
        <ele>529.15784</ele>
        <time>2023-06-14T18:08:55.000Z</time>
      </trkpt>
      <trkpt lat="45.85215" lon="4.7818">
        <ele>529.21808</ele>
        <time>2023-06-14T18:08:57.000Z</time>
      </trkpt>
      <trkpt lat="45.85212" lon="4.78173">
        <ele>529.24524</ele>
        <time>2023-06-14T18:08:58.000Z</time>
      </trkpt>
      <trkpt lat="45.85207" lon="4.78164">
        <ele>529.24359</ele>
        <time>2023-06-14T18:08:59.000Z</time>
      </trkpt>
      <trkpt lat="45.85206" lon="4.78159">
        <ele>536.14471</ele>
        <time>2023-06-14T18:09:00.000Z</time>
      </trkpt>
      <trkpt lat="45.85203" lon="4.78153">
        <ele>536.47333</ele>
        <time>2023-06-14T18:09:01.000Z</time>
      </trkpt>
      <trkpt lat="45.85202" lon="4.7815">
        <ele>536.79309</ele>
        <time>2023-06-14T18:09:02.000Z</time>
      </trkpt>
      <trkpt lat="45.85198" lon="4.78144">
        <ele>537.12006</ele>
        <time>2023-06-14T18:09:03.000Z</time>
      </trkpt>
      <trkpt lat="45.85196" lon="4.7814">
        <ele>537.46918</ele>
        <time>2023-06-14T18:09:04.000Z</time>
      </trkpt>
      <trkpt lat="45.85193" lon="4.78135">
        <ele>537.82758</ele>
        <time>2023-06-14T18:09:05.000Z</time>
      </trkpt>
      <trkpt lat="45.85191" lon="4.78128">
        <ele>544.19586</ele>
        <time>2023-06-14T18:09:06.000Z</time>
      </trkpt>
      <trkpt lat="45.85187" lon="4.78125">
        <ele>544.89899</ele>
        <time>2023-06-14T18:09:07.000Z</time>
      </trkpt>
      <trkpt lat="45.85184" lon="4.7812">
        <ele>545.64929</ele>
        <time>2023-06-14T18:09:08.000Z</time>
      </trkpt>
      <trkpt lat="45.85181" lon="4.78116">
        <ele>546.45392</ele>
        <time>2023-06-14T18:09:09.000Z</time>
      </trkpt>
      <trkpt lat="45.85178" lon="4.7811">
        <ele>547.36157</ele>
        <time>2023-06-14T18:09:10.000Z</time>
      </trkpt>
      <trkpt lat="45.85175" lon="4.78104">
        <ele>547.8905</ele>
        <time>2023-06-14T18:09:11.000Z</time>
      </trkpt>
      <trkpt lat="45.85172" lon="4.78098">
        <ele>551.79352</ele>
        <time>2023-06-14T18:09:12.000Z</time>
      </trkpt>
      <trkpt lat="45.8517" lon="4.78092">
        <ele>552.87653</ele>
        <time>2023-06-14T18:09:13.000Z</time>
      </trkpt>
      <trkpt lat="45.85168" lon="4.78085">
        <ele>552.60309</ele>
        <time>2023-06-14T18:09:14.000Z</time>
      </trkpt>
      <trkpt lat="45.85165" lon="4.78079">
        <ele>552.34442</ele>
        <time>2023-06-14T18:09:15.000Z</time>
      </trkpt>
      <trkpt lat="45.85163" lon="4.78074">
        <ele>552.13269</ele>
        <time>2023-06-14T18:09:16.000Z</time>
      </trkpt>
      <trkpt lat="45.85159" lon="4.78069">
        <ele>552.24084</ele>
        <time>2023-06-14T18:09:17.000Z</time>
      </trkpt>
      <trkpt lat="45.85155" lon="4.78064">
        <ele>552.40125</ele>
        <time>2023-06-14T18:09:18.000Z</time>
      </trkpt>
      <trkpt lat="45.85151" lon="4.78058">
        <ele>552.56934</ele>
        <time>2023-06-14T18:09:19.000Z</time>
      </trkpt>
      <trkpt lat="45.85151" lon="4.78055">
        <ele>552.75635</ele>
        <time>2023-06-14T18:09:20.000Z</time>
      </trkpt>
      <trkpt lat="45.8515" lon="4.78051">
        <ele>552.65881</ele>
        <time>2023-06-14T18:09:21.000Z</time>
      </trkpt>
      <trkpt lat="45.85149" lon="4.78047">
        <ele>552.57843</ele>
        <time>2023-06-14T18:09:22.000Z</time>
      </trkpt>
      <trkpt lat="45.85146" lon="4.78042">
        <ele>552.49969</ele>
        <time>2023-06-14T18:09:23.000Z</time>
      </trkpt>
      <trkpt lat="45.85145" lon="4.78038">
        <ele>552.41003</ele>
        <time>2023-06-14T18:09:24.000Z</time>
      </trkpt>
      <trkpt lat="45.85143" lon="4.78032">
        <ele>552.32678</ele>
        <time>2023-06-14T18:09:25.000Z</time>
      </trkpt>
      <trkpt lat="45.85141" lon="4.78026">
        <ele>549.03711</ele>
        <time>2023-06-14T18:09:26.000Z</time>
      </trkpt>
      <trkpt lat="45.85139" lon="4.78021">
        <ele>548.78522</ele>
        <time>2023-06-14T18:09:27.000Z</time>
      </trkpt>
      <trkpt lat="45.85136" lon="4.78015">
        <ele>548.33209</ele>
        <time>2023-06-14T18:09:28.000Z</time>
      </trkpt>
      <trkpt lat="45.85133" lon="4.7801">
        <ele>548.02234</ele>
        <time>2023-06-14T18:09:29.000Z</time>
      </trkpt>
      <trkpt lat="45.85128" lon="4.78004">
        <ele>547.63391</ele>
        <time>2023-06-14T18:09:30.000Z</time>
      </trkpt>
      <trkpt lat="45.85127" lon="4.77997">
        <ele>547.64752</ele>
        <time>2023-06-14T18:09:31.000Z</time>
      </trkpt>
      <trkpt lat="45.8513" lon="4.77993">
        <ele>549.0387</ele>
        <time>2023-06-14T18:09:32.000Z</time>
      </trkpt>
      <trkpt lat="45.8513" lon="4.77989">
        <ele>548.90094</ele>
        <time>2023-06-14T18:09:33.000Z</time>
      </trkpt>
      <trkpt lat="45.85129" lon="4.77983">
        <ele>535.37402</ele>
        <time>2023-06-14T18:09:34.000Z</time>
      </trkpt>
      <trkpt lat="45.85128" lon="4.7798">
        <ele>534.51257</ele>
        <time>2023-06-14T18:09:35.000Z</time>
      </trkpt>
      <trkpt lat="45.85127" lon="4.77977">
        <ele>533.62097</ele>
        <time>2023-06-14T18:09:36.000Z</time>
      </trkpt>
      <trkpt lat="45.85127" lon="4.77974">
        <ele>532.39124</ele>
        <time>2023-06-14T18:09:37.000Z</time>
      </trkpt>
      <trkpt lat="45.85127" lon="4.7797">
        <ele>531.07898</ele>
        <time>2023-06-14T18:09:38.000Z</time>
      </trkpt>
      <trkpt lat="45.85128" lon="4.77965">
        <ele>529.71942</ele>
        <time>2023-06-14T18:09:39.000Z</time>
      </trkpt>
      <trkpt lat="45.85128" lon="4.77958">
        <ele>516.41467</ele>
        <time>2023-06-14T18:09:40.000Z</time>
      </trkpt>
      <trkpt lat="45.85128" lon="4.77953">
        <ele>514.5976</ele>
        <time>2023-06-14T18:09:41.000Z</time>
      </trkpt>
      <trkpt lat="45.85127" lon="4.77948">
        <ele>512.69452</ele>
        <time>2023-06-14T18:09:42.000Z</time>
      </trkpt>
      <trkpt lat="45.85125" lon="4.77944">
        <ele>510.70035</ele>
        <time>2023-06-14T18:09:43.000Z</time>
      </trkpt>
      <trkpt lat="45.85123" lon="4.7794">
        <ele>508.61035</ele>
        <time>2023-06-14T18:09:44.000Z</time>
      </trkpt>
      <trkpt lat="45.85121" lon="4.77937">
        <ele>506.42035</ele>
        <time>2023-06-14T18:09:45.000Z</time>
      </trkpt>
      <trkpt lat="45.85118" lon="4.77934">
        <ele>499.61273</ele>
        <time>2023-06-14T18:09:46.000Z</time>
      </trkpt>
      <trkpt lat="45.85116" lon="4.77929">
        <ele>497.14151</ele>
        <time>2023-06-14T18:09:47.000Z</time>
      </trkpt>
      <trkpt lat="45.85114" lon="4.77925">
        <ele>494.73975</ele>
        <time>2023-06-14T18:09:48.000Z</time>
      </trkpt>
      <trkpt lat="45.85112" lon="4.77921">
        <ele>492.06015</ele>
        <time>2023-06-14T18:09:49.000Z</time>
      </trkpt>
      <trkpt lat="45.8511" lon="4.77916">
        <ele>489.26205</ele>
        <time>2023-06-14T18:09:50.000Z</time>
      </trkpt>
      <trkpt lat="45.85108" lon="4.77912">
        <ele>486.34344</ele>
        <time>2023-06-14T18:09:51.000Z</time>
      </trkpt>
      <trkpt lat="45.85106" lon="4.77909">
        <ele>486.95135</ele>
        <time>2023-06-14T18:09:52.000Z</time>
      </trkpt>
      <trkpt lat="45.85104" lon="4.77906">
        <ele>483.84698</ele>
        <time>2023-06-14T18:09:53.000Z</time>
      </trkpt>
      <trkpt lat="45.85102" lon="4.77901">
        <ele>493.92236</ele>
        <time>2023-06-14T18:09:54.000Z</time>
      </trkpt>
      <trkpt lat="45.85101" lon="4.77896">
        <ele>491.84979</ele>
        <time>2023-06-14T18:09:55.000Z</time>
      </trkpt>
      <trkpt lat="45.85101" lon="4.77891">
        <ele>489.71664</ele>
        <time>2023-06-14T18:09:56.000Z</time>
      </trkpt>
      <trkpt lat="45.85104" lon="4.77881">
        <ele>487.52142</ele>
        <time>2023-06-14T18:09:57.000Z</time>
      </trkpt>
      <trkpt lat="45.85107" lon="4.77873">
        <ele>488.75067</ele>
        <time>2023-06-14T18:09:58.000Z</time>
      </trkpt>
      <trkpt lat="45.85108" lon="4.77865">
        <ele>486.63428</ele>
        <time>2023-06-14T18:09:59.000Z</time>
      </trkpt>
      <trkpt lat="45.85108" lon="4.77855">
        <ele>496.32404</ele>
        <time>2023-06-14T18:10:00.000Z</time>
      </trkpt>
      <trkpt lat="45.8511" lon="4.77845">
        <ele>495.31949</ele>
        <time>2023-06-14T18:10:01.000Z</time>
      </trkpt>
      <trkpt lat="45.85109" lon="4.77837">
        <ele>494.35556</ele>
        <time>2023-06-14T18:10:02.000Z</time>
      </trkpt>
      <trkpt lat="45.85112" lon="4.77828">
        <ele>493.43863</ele>
        <time>2023-06-14T18:10:03.000Z</time>
      </trkpt>
      <trkpt lat="45.85112" lon="4.77819">
        <ele>495.92181</ele>
        <time>2023-06-14T18:10:04.000Z</time>
      </trkpt>
      <trkpt lat="45.85113" lon="4.77812">
        <ele>495.28741</ele>
        <time>2023-06-14T18:10:05.000Z</time>
      </trkpt>
      <trkpt lat="45.85111" lon="4.77803">
        <ele>502.44223</ele>
        <time>2023-06-14T18:10:06.000Z</time>
      </trkpt>
      <trkpt lat="45.85111" lon="4.77791">
        <ele>502.58374</ele>
        <time>2023-06-14T18:10:07.000Z</time>
      </trkpt>
      <trkpt lat="45.85111" lon="4.77787">
        <ele>502.85587</ele>
        <time>2023-06-14T18:10:08.000Z</time>
      </trkpt>
      <trkpt lat="45.85108" lon="4.77777">
        <ele>503.26163</ele>
        <time>2023-06-14T18:10:09.000Z</time>
      </trkpt>
      <trkpt lat="45.85106" lon="4.77769">
        <ele>496.93344</ele>
        <time>2023-06-14T18:10:10.000Z</time>
      </trkpt>
      <trkpt lat="45.85102" lon="4.7775">
        <ele>497.31705</ele>
        <time>2023-06-14T18:10:11.000Z</time>
      </trkpt>
      <trkpt lat="45.85098" lon="4.77736">
        <ele>494.19263</ele>
        <time>2023-06-14T18:10:12.000Z</time>
      </trkpt>
      <trkpt lat="45.85092" lon="4.77724">
        <ele>494.55469</ele>
        <time>2023-06-14T18:10:13.000Z</time>
      </trkpt>
      <trkpt lat="45.85087" lon="4.77712">
        <ele>495.09009</ele>
        <time>2023-06-14T18:10:14.000Z</time>
      </trkpt>
      <trkpt lat="45.8508" lon="4.77699">
        <ele>495.14844</ele>
        <time>2023-06-14T18:10:15.000Z</time>
      </trkpt>
      <trkpt lat="45.85075" lon="4.77688">
        <ele>489.96704</ele>
        <time>2023-06-14T18:10:16.000Z</time>
      </trkpt>
      <trkpt lat="45.8507" lon="4.77677">
        <ele>489.97955</ele>
        <time>2023-06-14T18:10:17.000Z</time>
      </trkpt>
      <trkpt lat="45.85064" lon="4.77669">
        <ele>486.6297</ele>
        <time>2023-06-14T18:10:18.000Z</time>
      </trkpt>
      <trkpt lat="45.85056" lon="4.77658">
        <ele>486.52362</ele>
        <time>2023-06-14T18:10:19.000Z</time>
      </trkpt>
      <trkpt lat="45.8505" lon="4.77651">
        <ele>486.51807</ele>
        <time>2023-06-14T18:10:20.000Z</time>
      </trkpt>
      <trkpt lat="45.85045" lon="4.77651">
        <ele>486.02774</ele>
        <time>2023-06-14T18:10:21.000Z</time>
      </trkpt>
      <trkpt lat="45.85038" lon="4.77644">
        <ele>489.02002</ele>
        <time>2023-06-14T18:10:22.000Z</time>
      </trkpt>
      <trkpt lat="45.85032" lon="4.77639">
        <ele>488.75323</ele>
        <time>2023-06-14T18:10:23.000Z</time>
      </trkpt>
      <trkpt lat="45.85029" lon="4.77635">
        <ele>485.17267</ele>
        <time>2023-06-14T18:10:24.000Z</time>
      </trkpt>
      <trkpt lat="45.85023" lon="4.77632">
        <ele>484.63519</ele>
        <time>2023-06-14T18:10:25.000Z</time>
      </trkpt>
      <trkpt lat="45.85015" lon="4.77631">
        <ele>484.1026</ele>
        <time>2023-06-14T18:10:26.000Z</time>
      </trkpt>
      <trkpt lat="45.85009" lon="4.77628">
        <ele>483.18561</ele>
        <time>2023-06-14T18:10:27.000Z</time>
      </trkpt>
      <trkpt lat="45.85005" lon="4.77627">
        <ele>485.7403</ele>
        <time>2023-06-14T18:10:28.000Z</time>
      </trkpt>
      <trkpt lat="45.84999" lon="4.77627">
        <ele>484.88452</ele>
        <time>2023-06-14T18:10:29.000Z</time>
      </trkpt>
      <trkpt lat="45.84993" lon="4.77625">
        <ele>490.85391</ele>
        <time>2023-06-14T18:10:30.000Z</time>
      </trkpt>
      <trkpt lat="45.84987" lon="4.77624">
        <ele>490.5499</ele>
        <time>2023-06-14T18:10:31.000Z</time>
      </trkpt>
      <trkpt lat="45.84981" lon="4.77623">
        <ele>490.21152</ele>
        <time>2023-06-14T18:10:32.000Z</time>
      </trkpt>
      <trkpt lat="45.84972" lon="4.77622">
        <ele>490.01251</ele>
        <time>2023-06-14T18:10:33.000Z</time>
      </trkpt>
      <trkpt lat="45.84965" lon="4.77621">
        <ele>493.00601</ele>
        <time>2023-06-14T18:10:34.000Z</time>
      </trkpt>
      <trkpt lat="45.84959" lon="4.7762">
        <ele>492.90179</ele>
        <time>2023-06-14T18:10:35.000Z</time>
      </trkpt>
      <trkpt lat="45.84954" lon="4.77618">
        <ele>498.1358</ele>
        <time>2023-06-14T18:10:36.000Z</time>
      </trkpt>
      <trkpt lat="45.84947" lon="4.77618">
        <ele>498.54425</ele>
        <time>2023-06-14T18:10:37.000Z</time>
      </trkpt>
      <trkpt lat="45.84941" lon="4.77618">
        <ele>498.97247</ele>
        <time>2023-06-14T18:10:38.000Z</time>
      </trkpt>
      <trkpt lat="45.84935" lon="4.77618">
        <ele>499.5896</ele>
        <time>2023-06-14T18:10:39.000Z</time>
      </trkpt>
      <trkpt lat="45.84929" lon="4.77617">
        <ele>503.07684</ele>
        <time>2023-06-14T18:10:40.000Z</time>
      </trkpt>
      <trkpt lat="45.84922" lon="4.77617">
        <ele>503.90485</ele>
        <time>2023-06-14T18:10:41.000Z</time>
      </trkpt>
      <trkpt lat="45.84915" lon="4.77617">
        <ele>501.34186</ele>
        <time>2023-06-14T18:10:42.000Z</time>
      </trkpt>
      <trkpt lat="45.84908" lon="4.77617">
        <ele>501.95792</ele>
        <time>2023-06-14T18:10:43.000Z</time>
      </trkpt>
      <trkpt lat="45.84902" lon="4.77617">
        <ele>502.61816</ele>
        <time>2023-06-14T18:10:44.000Z</time>
      </trkpt>
      <trkpt lat="45.84894" lon="4.77616">
        <ele>503.5954</ele>
        <time>2023-06-14T18:10:45.000Z</time>
      </trkpt>
      <trkpt lat="45.84887" lon="4.77617">
        <ele>504.4855</ele>
        <time>2023-06-14T18:10:46.000Z</time>
      </trkpt>
      <trkpt lat="45.84882" lon="4.77616">
        <ele>504.95181</ele>
        <time>2023-06-14T18:10:47.000Z</time>
      </trkpt>
      <trkpt lat="45.84875" lon="4.77617">
        <ele>502.08881</ele>
        <time>2023-06-14T18:10:48.000Z</time>
      </trkpt>
      <trkpt lat="45.84865" lon="4.77617">
        <ele>502.60181</ele>
        <time>2023-06-14T18:10:49.000Z</time>
      </trkpt>
      <trkpt lat="45.84857" lon="4.77618">
        <ele>503.36395</ele>
        <time>2023-06-14T18:10:50.000Z</time>
      </trkpt>
      <trkpt lat="45.84849" lon="4.77619">
        <ele>504.08453</ele>
        <time>2023-06-14T18:10:51.000Z</time>
      </trkpt>
      <trkpt lat="45.84839" lon="4.7762">
        <ele>504.41626</ele>
        <time>2023-06-14T18:10:52.000Z</time>
      </trkpt>
      <trkpt lat="45.84832" lon="4.77623">
        <ele>504.64194</ele>
        <time>2023-06-14T18:10:53.000Z</time>
      </trkpt>
      <trkpt lat="45.84825" lon="4.77624">
        <ele>501.26605</ele>
        <time>2023-06-14T18:10:54.000Z</time>
      </trkpt>
      <trkpt lat="45.84816" lon="4.77624">
        <ele>500.62445</ele>
        <time>2023-06-14T18:10:55.000Z</time>
      </trkpt>
      <trkpt lat="45.84808" lon="4.77624">
        <ele>501.01059</ele>
        <time>2023-06-14T18:10:56.000Z</time>
      </trkpt>
      <trkpt lat="45.84799" lon="4.77625">
        <ele>501.15436</ele>
        <time>2023-06-14T18:10:57.000Z</time>
      </trkpt>
      <trkpt lat="45.84792" lon="4.77624">
        <ele>501.28485</ele>
        <time>2023-06-14T18:10:58.000Z</time>
      </trkpt>
      <trkpt lat="45.84784" lon="4.77624">
        <ele>501.40048</ele>
        <time>2023-06-14T18:10:59.000Z</time>
      </trkpt>
      <trkpt lat="45.84777" lon="4.77623">
        <ele>498.65707</ele>
        <time>2023-06-14T18:11:00.000Z</time>
      </trkpt>
      <trkpt lat="45.84769" lon="4.77622">
        <ele>501.19403</ele>
        <time>2023-06-14T18:11:01.000Z</time>
      </trkpt>
      <trkpt lat="45.84762" lon="4.7762">
        <ele>501.0585</ele>
        <time>2023-06-14T18:11:02.000Z</time>
      </trkpt>
      <trkpt lat="45.84755" lon="4.77617">
        <ele>501.04434</ele>
        <time>2023-06-14T18:11:03.000Z</time>
      </trkpt>
      <trkpt lat="45.84749" lon="4.77614">
        <ele>500.99863</ele>
        <time>2023-06-14T18:11:04.000Z</time>
      </trkpt>
      <trkpt lat="45.84743" lon="4.77612">
        <ele>500.81268</ele>
        <time>2023-06-14T18:11:05.000Z</time>
      </trkpt>
      <trkpt lat="45.84736" lon="4.77608">
        <ele>500.73151</ele>
        <time>2023-06-14T18:11:06.000Z</time>
      </trkpt>
      <trkpt lat="45.8473" lon="4.77606">
        <ele>503.64081</ele>
        <time>2023-06-14T18:11:07.000Z</time>
      </trkpt>
      <trkpt lat="45.84724" lon="4.77602">
        <ele>504.00195</ele>
        <time>2023-06-14T18:11:08.000Z</time>
      </trkpt>
      <trkpt lat="45.84719" lon="4.77595">
        <ele>504.40204</ele>
        <time>2023-06-14T18:11:09.000Z</time>
      </trkpt>
      <trkpt lat="45.84715" lon="4.77589">
        <ele>504.61578</ele>
        <time>2023-06-14T18:11:10.000Z</time>
      </trkpt>
      <trkpt lat="45.84711" lon="4.77583">
        <ele>504.58334</ele>
        <time>2023-06-14T18:11:11.000Z</time>
      </trkpt>
      <trkpt lat="45.84706" lon="4.77579">
        <ele>504.95328</ele>
        <time>2023-06-14T18:11:12.000Z</time>
      </trkpt>
      <trkpt lat="45.84702" lon="4.77575">
        <ele>507.49545</ele>
        <time>2023-06-14T18:11:13.000Z</time>
      </trkpt>
      <trkpt lat="45.84698" lon="4.77573">
        <ele>508.52484</ele>
        <time>2023-06-14T18:11:14.000Z</time>
      </trkpt>
      <trkpt lat="45.84696" lon="4.7757">
        <ele>509.94238</ele>
        <time>2023-06-14T18:11:15.000Z</time>
      </trkpt>
      <trkpt lat="45.84694" lon="4.77567">
        <ele>510.40829</ele>
        <time>2023-06-14T18:11:16.000Z</time>
      </trkpt>
      <trkpt lat="45.84691" lon="4.77566">
        <ele>510.87817</ele>
        <time>2023-06-14T18:11:17.000Z</time>
      </trkpt>
      <trkpt lat="45.84687" lon="4.77565">
        <ele>511.36435</ele>
        <time>2023-06-14T18:11:18.000Z</time>
      </trkpt>
      <trkpt lat="45.84683" lon="4.77562">
        <ele>513.5611</ele>
        <time>2023-06-14T18:11:19.000Z</time>
      </trkpt>
      <trkpt lat="45.84678" lon="4.7756">
        <ele>514.16913</ele>
        <time>2023-06-14T18:11:20.000Z</time>
      </trkpt>
      <trkpt lat="45.84674" lon="4.77559">
        <ele>512.18677</ele>
        <time>2023-06-14T18:11:21.000Z</time>
      </trkpt>
      <trkpt lat="45.84669" lon="4.7756">
        <ele>512.73639</ele>
        <time>2023-06-14T18:11:22.000Z</time>
      </trkpt>
      <trkpt lat="45.84664" lon="4.77559">
        <ele>513.32025</ele>
        <time>2023-06-14T18:11:23.000Z</time>
      </trkpt>
      <trkpt lat="45.84658" lon="4.77559">
        <ele>513.93408</ele>
        <time>2023-06-14T18:11:24.000Z</time>
      </trkpt>
      <trkpt lat="45.84652" lon="4.7756">
        <ele>516.29706</ele>
        <time>2023-06-14T18:11:25.000Z</time>
      </trkpt>
      <trkpt lat="45.84646" lon="4.77559">
        <ele>517.07129</ele>
        <time>2023-06-14T18:11:26.000Z</time>
      </trkpt>
      <trkpt lat="45.8464" lon="4.77561">
        <ele>515.34412</ele>
        <time>2023-06-14T18:11:27.000Z</time>
      </trkpt>
      <trkpt lat="45.84633" lon="4.77563">
        <ele>515.92926</ele>
        <time>2023-06-14T18:11:28.000Z</time>
      </trkpt>
      <trkpt lat="45.84626" lon="4.77564">
        <ele>518.01947</ele>
        <time>2023-06-14T18:11:29.000Z</time>
      </trkpt>
      <trkpt lat="45.84619" lon="4.77567">
        <ele>520.08252</ele>
        <time>2023-06-14T18:11:30.000Z</time>
      </trkpt>
      <trkpt lat="45.84612" lon="4.7757">
        <ele>522.12085</ele>
        <time>2023-06-14T18:11:31.000Z</time>
      </trkpt>
      <trkpt lat="45.84604" lon="4.77573">
        <ele>524.13519</ele>
        <time>2023-06-14T18:11:32.000Z</time>
      </trkpt>
      <trkpt lat="45.84596" lon="4.77574">
        <ele>524.08118</ele>
        <time>2023-06-14T18:11:33.000Z</time>
      </trkpt>
      <trkpt lat="45.84589" lon="4.77577">
        <ele>525.89075</ele>
        <time>2023-06-14T18:11:34.000Z</time>
      </trkpt>
      <trkpt lat="45.84581" lon="4.77579">
        <ele>527.60626</ele>
        <time>2023-06-14T18:11:35.000Z</time>
      </trkpt>
      <trkpt lat="45.84573" lon="4.77583">
        <ele>529.09283</ele>
        <time>2023-06-14T18:11:36.000Z</time>
      </trkpt>
      <trkpt lat="45.84564" lon="4.77587">
        <ele>530.54071</ele>
        <time>2023-06-14T18:11:37.000Z</time>
      </trkpt>
      <trkpt lat="45.84556" lon="4.77591">
        <ele>531.93982</ele>
        <time>2023-06-14T18:11:38.000Z</time>
      </trkpt>
      <trkpt lat="45.84548" lon="4.77597">
        <ele>531.62073</ele>
        <time>2023-06-14T18:11:39.000Z</time>
      </trkpt>
      <trkpt lat="45.84542" lon="4.77606">
        <ele>532.86462</ele>
        <time>2023-06-14T18:11:40.000Z</time>
      </trkpt>
      <trkpt lat="45.84534" lon="4.7761">
        <ele>534.06628</ele>
        <time>2023-06-14T18:11:41.000Z</time>
      </trkpt>
      <trkpt lat="45.84525" lon="4.77613">
        <ele>535.33472</ele>
        <time>2023-06-14T18:11:42.000Z</time>
      </trkpt>
      <trkpt lat="45.84518" lon="4.77615">
        <ele>536.5249</ele>
        <time>2023-06-14T18:11:43.000Z</time>
      </trkpt>
      <trkpt lat="45.84509" lon="4.7762">
        <ele>537.63757</ele>
        <time>2023-06-14T18:11:44.000Z</time>
      </trkpt>
      <trkpt lat="45.84502" lon="4.77625">
        <ele>536.99561</ele>
        <time>2023-06-14T18:11:45.000Z</time>
      </trkpt>
      <trkpt lat="45.84492" lon="4.77631">
        <ele>537.94775</ele>
        <time>2023-06-14T18:11:46.000Z</time>
      </trkpt>
      <trkpt lat="45.84483" lon="4.77637">
        <ele>538.85687</ele>
        <time>2023-06-14T18:11:47.000Z</time>
      </trkpt>
      <trkpt lat="45.84474" lon="4.77644">
        <ele>539.84875</ele>
        <time>2023-06-14T18:11:48.000Z</time>
      </trkpt>
      <trkpt lat="45.84467" lon="4.77649">
        <ele>539.29865</ele>
        <time>2023-06-14T18:11:49.000Z</time>
      </trkpt>
      <trkpt lat="45.84461" lon="4.7765">
        <ele>538.81067</ele>
        <time>2023-06-14T18:11:50.000Z</time>
      </trkpt>
      <trkpt lat="45.84454" lon="4.77654">
        <ele>538.24988</ele>
        <time>2023-06-14T18:11:51.000Z</time>
      </trkpt>
      <trkpt lat="45.84449" lon="4.77654">
        <ele>537.63116</ele>
        <time>2023-06-14T18:11:52.000Z</time>
      </trkpt>
      <trkpt lat="45.84441" lon="4.77656">
        <ele>537.28821</ele>
        <time>2023-06-14T18:11:53.000Z</time>
      </trkpt>
      <trkpt lat="45.84436" lon="4.77661">
        <ele>535.55267</ele>
        <time>2023-06-14T18:11:54.000Z</time>
      </trkpt>
      <trkpt lat="45.84433" lon="4.77665">
        <ele>533.73895</ele>
        <time>2023-06-14T18:11:55.000Z</time>
      </trkpt>
      <trkpt lat="45.84428" lon="4.77668">
        <ele>532.11243</ele>
        <time>2023-06-14T18:11:56.000Z</time>
      </trkpt>
      <trkpt lat="45.84423" lon="4.77672">
        <ele>530.60956</ele>
        <time>2023-06-14T18:11:57.000Z</time>
      </trkpt>
      <trkpt lat="45.84417" lon="4.77675">
        <ele>529.07526</ele>
        <time>2023-06-14T18:11:58.000Z</time>
      </trkpt>
      <trkpt lat="45.8441" lon="4.77679">
        <ele>527.48615</ele>
        <time>2023-06-14T18:11:59.000Z</time>
      </trkpt>
      <trkpt lat="45.84401" lon="4.77681">
        <ele>526.03265</ele>
        <time>2023-06-14T18:12:00.000Z</time>
      </trkpt>
      <trkpt lat="45.84391" lon="4.77686">
        <ele>524.50586</ele>
        <time>2023-06-14T18:12:01.000Z</time>
      </trkpt>
      <trkpt lat="45.84384" lon="4.77691">
        <ele>522.97217</ele>
        <time>2023-06-14T18:12:02.000Z</time>
      </trkpt>
      <trkpt lat="45.84377" lon="4.77695">
        <ele>521.74719</ele>
        <time>2023-06-14T18:12:03.000Z</time>
      </trkpt>
      <trkpt lat="45.84372" lon="4.777">
        <ele>520.62354</ele>
        <time>2023-06-14T18:12:04.000Z</time>
      </trkpt>
      <trkpt lat="45.84368" lon="4.77701">
        <ele>519.46863</ele>
        <time>2023-06-14T18:12:05.000Z</time>
      </trkpt>
      <trkpt lat="45.84365" lon="4.77703">
        <ele>518.29431</ele>
        <time>2023-06-14T18:12:06.000Z</time>
      </trkpt>
      <trkpt lat="45.84361" lon="4.77703">
        <ele>518.41492</ele>
        <time>2023-06-14T18:12:07.000Z</time>
      </trkpt>
      <trkpt lat="45.84357" lon="4.77704">
        <ele>518.53693</ele>
        <time>2023-06-14T18:12:08.000Z</time>
      </trkpt>
      <trkpt lat="45.84355" lon="4.77705">
        <ele>518.69141</ele>
        <time>2023-06-14T18:12:09.000Z</time>
      </trkpt>
      <trkpt lat="45.84352" lon="4.77708">
        <ele>518.80969</ele>
        <time>2023-06-14T18:12:10.000Z</time>
      </trkpt>
      <trkpt lat="45.84348" lon="4.77711">
        <ele>519.01086</ele>
        <time>2023-06-14T18:12:11.000Z</time>
      </trkpt>
      <trkpt lat="45.84343" lon="4.77714">
        <ele>519.15753</ele>
        <time>2023-06-14T18:12:12.000Z</time>
      </trkpt>
      <trkpt lat="45.84337" lon="4.77715">
        <ele>518.90759</ele>
        <time>2023-06-14T18:12:13.000Z</time>
      </trkpt>
      <trkpt lat="45.84331" lon="4.77717">
        <ele>520.0213</ele>
        <time>2023-06-14T18:12:14.000Z</time>
      </trkpt>
      <trkpt lat="45.84324" lon="4.77718">
        <ele>521.16345</ele>
        <time>2023-06-14T18:12:15.000Z</time>
      </trkpt>
      <trkpt lat="45.84317" lon="4.77723">
        <ele>522.27484</ele>
        <time>2023-06-14T18:12:16.000Z</time>
      </trkpt>
      <trkpt lat="45.84309" lon="4.77727">
        <ele>522.72784</ele>
        <time>2023-06-14T18:12:17.000Z</time>
      </trkpt>
      <trkpt lat="45.84299" lon="4.77729">
        <ele>523.22095</ele>
        <time>2023-06-14T18:12:18.000Z</time>
      </trkpt>
      <trkpt lat="45.84291" lon="4.7773">
        <ele>523.75519</ele>
        <time>2023-06-14T18:12:19.000Z</time>
      </trkpt>
      <trkpt lat="45.84283" lon="4.7773">
        <ele>524.27527</ele>
        <time>2023-06-14T18:12:20.000Z</time>
      </trkpt>
      <trkpt lat="45.84275" lon="4.77731">
        <ele>525.10571</ele>
        <time>2023-06-14T18:12:21.000Z</time>
      </trkpt>
      <trkpt lat="45.84268" lon="4.77733">
        <ele>526.01697</ele>
        <time>2023-06-14T18:12:22.000Z</time>
      </trkpt>
      <trkpt lat="45.84262" lon="4.77735">
        <ele>526.7157</ele>
        <time>2023-06-14T18:12:23.000Z</time>
      </trkpt>
      <trkpt lat="45.84258" lon="4.77737">
        <ele>527.39655</ele>
        <time>2023-06-14T18:12:24.000Z</time>
      </trkpt>
      <trkpt lat="45.84254" lon="4.77741">
        <ele>528.15027</ele>
        <time>2023-06-14T18:12:25.000Z</time>
      </trkpt>
      <trkpt lat="45.84249" lon="4.77744">
        <ele>527.23932</ele>
        <time>2023-06-14T18:12:26.000Z</time>
      </trkpt>
      <trkpt lat="45.84247" lon="4.77747">
        <ele>526.71802</ele>
        <time>2023-06-14T18:12:27.000Z</time>
      </trkpt>
      <trkpt lat="45.84244" lon="4.7775">
        <ele>526.17279</ele>
        <time>2023-06-14T18:12:28.000Z</time>
      </trkpt>
      <trkpt lat="45.84241" lon="4.77753">
        <ele>525.58679</ele>
        <time>2023-06-14T18:12:29.000Z</time>
      </trkpt>
      <trkpt lat="45.84236" lon="4.77755">
        <ele>524.95264</ele>
        <time>2023-06-14T18:12:30.000Z</time>
      </trkpt>
      <trkpt lat="45.84231" lon="4.77757">
        <ele>524.29071</ele>
        <time>2023-06-14T18:12:31.000Z</time>
      </trkpt>
      <trkpt lat="45.84226" lon="4.77757">
        <ele>521.28528</ele>
        <time>2023-06-14T18:12:32.000Z</time>
      </trkpt>
      <trkpt lat="45.84218" lon="4.77755">
        <ele>520.7179</ele>
        <time>2023-06-14T18:12:33.000Z</time>
      </trkpt>
      <trkpt lat="45.84211" lon="4.77754">
        <ele>520.19128</ele>
        <time>2023-06-14T18:12:34.000Z</time>
      </trkpt>
      <trkpt lat="45.84203" lon="4.77754">
        <ele>519.73071</ele>
        <time>2023-06-14T18:12:35.000Z</time>
      </trkpt>
      <trkpt lat="45.84195" lon="4.77753">
        <ele>519.24866</ele>
        <time>2023-06-14T18:12:36.000Z</time>
      </trkpt>
      <trkpt lat="45.84188" lon="4.77754">
        <ele>519.29272</ele>
        <time>2023-06-14T18:12:37.000Z</time>
      </trkpt>
      <trkpt lat="45.84182" lon="4.77757">
        <ele>516.84509</ele>
        <time>2023-06-14T18:12:38.000Z</time>
      </trkpt>
      <trkpt lat="45.84175" lon="4.77759">
        <ele>516.80023</ele>
        <time>2023-06-14T18:12:39.000Z</time>
      </trkpt>
      <trkpt lat="45.84168" lon="4.7776">
        <ele>516.65167</ele>
        <time>2023-06-14T18:12:40.000Z</time>
      </trkpt>
      <trkpt lat="45.84162" lon="4.77764">
        <ele>516.27045</ele>
        <time>2023-06-14T18:12:41.000Z</time>
      </trkpt>
      <trkpt lat="45.84156" lon="4.7777">
        <ele>515.82874</ele>
        <time>2023-06-14T18:12:42.000Z</time>
      </trkpt>
      <trkpt lat="45.84148" lon="4.77776">
        <ele>515.31934</ele>
        <time>2023-06-14T18:12:43.000Z</time>
      </trkpt>
      <trkpt lat="45.84143" lon="4.77775">
        <ele>512.40576</ele>
        <time>2023-06-14T18:12:44.000Z</time>
      </trkpt>
      <trkpt lat="45.84138" lon="4.77777">
        <ele>511.65625</ele>
        <time>2023-06-14T18:12:45.000Z</time>
      </trkpt>
      <trkpt lat="45.84133" lon="4.77778">
        <ele>512.55731</ele>
        <time>2023-06-14T18:12:46.000Z</time>
      </trkpt>
      <trkpt lat="45.8413" lon="4.77781">
        <ele>511.82324</ele>
        <time>2023-06-14T18:12:47.000Z</time>
      </trkpt>
      <trkpt lat="45.84128" lon="4.77782">
        <ele>511.07852</ele>
        <time>2023-06-14T18:12:48.000Z</time>
      </trkpt>
      <trkpt lat="45.84126" lon="4.77782">
        <ele>510.32379</ele>
        <time>2023-06-14T18:12:49.000Z</time>
      </trkpt>
      <trkpt lat="45.84123" lon="4.77782">
        <ele>507.31342</ele>
        <time>2023-06-14T18:12:50.000Z</time>
      </trkpt>
      <trkpt lat="45.84121" lon="4.77781">
        <ele>506.43149</ele>
        <time>2023-06-14T18:12:51.000Z</time>
      </trkpt>
      <trkpt lat="45.84116" lon="4.77782">
        <ele>507.98712</ele>
        <time>2023-06-14T18:12:52.000Z</time>
      </trkpt>
      <trkpt lat="45.8411" lon="4.77783">
        <ele>507.3222</ele>
        <time>2023-06-14T18:12:53.000Z</time>
      </trkpt>
      <trkpt lat="45.84104" lon="4.77783">
        <ele>506.65244</ele>
        <time>2023-06-14T18:12:54.000Z</time>
      </trkpt>
      <trkpt lat="45.841" lon="4.77782">
        <ele>505.97549</ele>
        <time>2023-06-14T18:12:55.000Z</time>
      </trkpt>
      <trkpt lat="45.84096" lon="4.77781">
        <ele>503.23633</ele>
        <time>2023-06-14T18:12:56.000Z</time>
      </trkpt>
      <trkpt lat="45.84092" lon="4.77781">
        <ele>502.4357</ele>
        <time>2023-06-14T18:12:57.000Z</time>
      </trkpt>
      <trkpt lat="45.84088" lon="4.77783">
        <ele>504.10336</ele>
        <time>2023-06-14T18:12:58.000Z</time>
      </trkpt>
      <trkpt lat="45.84085" lon="4.77782">
        <ele>503.46631</ele>
        <time>2023-06-14T18:12:59.000Z</time>
      </trkpt>
      <trkpt lat="45.84083" lon="4.7778">
        <ele>502.79962</ele>
        <time>2023-06-14T18:13:00.000Z</time>
      </trkpt>
      <trkpt lat="45.84079" lon="4.77779">
        <ele>500.16669</ele>
        <time>2023-06-14T18:13:02.000Z</time>
      </trkpt>
      <trkpt lat="45.84077" lon="4.77778">
        <ele>499.36151</ele>
        <time>2023-06-14T18:13:03.000Z</time>
      </trkpt>
      <trkpt lat="45.84075" lon="4.77776">
        <ele>498.53815</ele>
        <time>2023-06-14T18:13:05.000Z</time>
      </trkpt>
      <trkpt lat="45.84073" lon="4.77775">
        <ele>500.04282</ele>
        <time>2023-06-14T18:13:06.000Z</time>
      </trkpt>
      <trkpt lat="45.84072" lon="4.77777">
        <ele>499.42471</ele>
        <time>2023-06-14T18:13:07.000Z</time>
      </trkpt>
      <trkpt lat="45.84069" lon="4.77782">
        <ele>497.00308</ele>
        <time>2023-06-14T18:13:08.000Z</time>
      </trkpt>
      <trkpt lat="45.84066" lon="4.77785">
        <ele>496.22534</ele>
        <time>2023-06-14T18:13:09.000Z</time>
      </trkpt>
      <trkpt lat="45.84063" lon="4.77788">
        <ele>495.44547</ele>
        <time>2023-06-14T18:13:10.000Z</time>
      </trkpt>
      <trkpt lat="45.84059" lon="4.7779">
        <ele>494.66382</ele>
        <time>2023-06-14T18:13:11.000Z</time>
      </trkpt>
      <trkpt lat="45.84052" lon="4.77792">
        <ele>496.12802</ele>
        <time>2023-06-14T18:13:12.000Z</time>
      </trkpt>
      <trkpt lat="45.84046" lon="4.77794">
        <ele>495.56876</ele>
        <time>2023-06-14T18:13:13.000Z</time>
      </trkpt>
      <trkpt lat="45.84042" lon="4.77796">
        <ele>493.33618</ele>
        <time>2023-06-14T18:13:14.000Z</time>
      </trkpt>
      <trkpt lat="45.84037" lon="4.77798">
        <ele>492.60361</ele>
        <time>2023-06-14T18:13:15.000Z</time>
      </trkpt>
      <trkpt lat="45.84032" lon="4.77798">
        <ele>491.86768</ele>
        <time>2023-06-14T18:13:16.000Z</time>
      </trkpt>
      <trkpt lat="45.84026" lon="4.77798">
        <ele>491.12842</ele>
        <time>2023-06-14T18:13:17.000Z</time>
      </trkpt>
      <trkpt lat="45.8402" lon="4.77797">
        <ele>492.4375</ele>
        <time>2023-06-14T18:13:18.000Z</time>
      </trkpt>
      <trkpt lat="45.84013" lon="4.77796">
        <ele>491.89755</ele>
        <time>2023-06-14T18:13:19.000Z</time>
      </trkpt>
      <trkpt lat="45.84007" lon="4.77795">
        <ele>489.68964</ele>
        <time>2023-06-14T18:13:20.000Z</time>
      </trkpt>
      <trkpt lat="45.84" lon="4.77795">
        <ele>488.96893</ele>
        <time>2023-06-14T18:13:21.000Z</time>
      </trkpt>
      <trkpt lat="45.83991" lon="4.77796">
        <ele>488.24405</ele>
        <time>2023-06-14T18:13:22.000Z</time>
      </trkpt>
      <trkpt lat="45.83984" lon="4.77795">
        <ele>489.4566</ele>
        <time>2023-06-14T18:13:23.000Z</time>
      </trkpt>
      <trkpt lat="45.83977" lon="4.77794">
        <ele>488.92108</ele>
        <time>2023-06-14T18:13:24.000Z</time>
      </trkpt>
      <trkpt lat="45.83968" lon="4.77795">
        <ele>488.39908</ele>
        <time>2023-06-14T18:13:25.000Z</time>
      </trkpt>
      <trkpt lat="45.83959" lon="4.77796">
        <ele>486.30542</ele>
        <time>2023-06-14T18:13:26.000Z</time>
      </trkpt>
      <trkpt lat="45.83949" lon="4.77797">
        <ele>484.14996</ele>
        <time>2023-06-14T18:13:27.000Z</time>
      </trkpt>
      <trkpt lat="45.8394" lon="4.77797">
        <ele>483.81219</ele>
        <time>2023-06-14T18:13:28.000Z</time>
      </trkpt>
      <trkpt lat="45.83931" lon="4.77798">
        <ele>481.70352</ele>
        <time>2023-06-14T18:13:29.000Z</time>
      </trkpt>
      <trkpt lat="45.8392" lon="4.77799">
        <ele>479.68359</ele>
        <time>2023-06-14T18:13:30.000Z</time>
      </trkpt>
      <trkpt lat="45.8391" lon="4.77799">
        <ele>477.68921</ele>
        <time>2023-06-14T18:13:31.000Z</time>
      </trkpt>
      <trkpt lat="45.83899" lon="4.77798">
        <ele>475.77872</ele>
        <time>2023-06-14T18:13:32.000Z</time>
      </trkpt>
      <trkpt lat="45.83888" lon="4.778">
        <ele>473.38177</ele>
        <time>2023-06-14T18:13:33.000Z</time>
      </trkpt>
      <trkpt lat="45.83877" lon="4.77798">
        <ele>472.66412</ele>
        <time>2023-06-14T18:13:34.000Z</time>
      </trkpt>
      <trkpt lat="45.83866" lon="4.77796">
        <ele>470.36368</ele>
        <time>2023-06-14T18:13:35.000Z</time>
      </trkpt>
      <trkpt lat="45.83855" lon="4.77792">
        <ele>468.08652</ele>
        <time>2023-06-14T18:13:36.000Z</time>
      </trkpt>
      <trkpt lat="45.83846" lon="4.77784">
        <ele>465.82324</ele>
        <time>2023-06-14T18:13:37.000Z</time>
      </trkpt>
      <trkpt lat="45.83837" lon="4.77774">
        <ele>463.58551</ele>
        <time>2023-06-14T18:13:38.000Z</time>
      </trkpt>
      <trkpt lat="45.83831" lon="4.77759">
        <ele>461.19809</ele>
        <time>2023-06-14T18:13:39.000Z</time>
      </trkpt>
      <trkpt lat="45.83825" lon="4.77745">
        <ele>460.52411</ele>
        <time>2023-06-14T18:13:40.000Z</time>
      </trkpt>
      <trkpt lat="45.83819" lon="4.77731">
        <ele>458.25952</ele>
        <time>2023-06-14T18:13:41.000Z</time>
      </trkpt>
      <trkpt lat="45.83816" lon="4.77715">
        <ele>455.70377</ele>
        <time>2023-06-14T18:13:42.000Z</time>
      </trkpt>
      <trkpt lat="45.83812" lon="4.77699">
        <ele>453.14044</ele>
        <time>2023-06-14T18:13:43.000Z</time>
      </trkpt>
      <trkpt lat="45.83808" lon="4.77684">
        <ele>450.46548</ele>
        <time>2023-06-14T18:13:44.000Z</time>
      </trkpt>
      <trkpt lat="45.83803" lon="4.77668">
        <ele>447.806</ele>
        <time>2023-06-14T18:13:45.000Z</time>
      </trkpt>
      <trkpt lat="45.83799" lon="4.77651">
        <ele>446.73993</ele>
        <time>2023-06-14T18:13:46.000Z</time>
      </trkpt>
      <trkpt lat="45.83794" lon="4.77634">
        <ele>445.66302</ele>
        <time>2023-06-14T18:13:47.000Z</time>
      </trkpt>
      <trkpt lat="45.83788" lon="4.77619">
        <ele>444.57455</ele>
        <time>2023-06-14T18:13:48.000Z</time>
      </trkpt>
      <trkpt lat="45.83784" lon="4.77601">
        <ele>443.5451</ele>
        <time>2023-06-14T18:13:49.000Z</time>
      </trkpt>
      <trkpt lat="45.83781" lon="4.77584">
        <ele>442.43457</ele>
        <time>2023-06-14T18:13:50.000Z</time>
      </trkpt>
      <trkpt lat="45.83779" lon="4.77566">
        <ele>441.27985</ele>
        <time>2023-06-14T18:13:51.000Z</time>
      </trkpt>
      <trkpt lat="45.83777" lon="4.77549">
        <ele>440.0563</ele>
        <time>2023-06-14T18:13:52.000Z</time>
      </trkpt>
      <trkpt lat="45.83775" lon="4.77531">
        <ele>439.20377</ele>
        <time>2023-06-14T18:13:53.000Z</time>
      </trkpt>
      <trkpt lat="45.83771" lon="4.77514">
        <ele>438.36801</ele>
        <time>2023-06-14T18:13:54.000Z</time>
      </trkpt>
      <trkpt lat="45.83766" lon="4.775">
        <ele>437.51474</ele>
        <time>2023-06-14T18:13:55.000Z</time>
      </trkpt>
      <trkpt lat="45.83759" lon="4.77486">
        <ele>436.53897</ele>
        <time>2023-06-14T18:13:56.000Z</time>
      </trkpt>
      <trkpt lat="45.83755" lon="4.77471">
        <ele>435.56866</ele>
        <time>2023-06-14T18:13:57.000Z</time>
      </trkpt>
      <trkpt lat="45.83755" lon="4.77455">
        <ele>434.56659</ele>
        <time>2023-06-14T18:13:58.000Z</time>
      </trkpt>
      <trkpt lat="45.83758" lon="4.77439">
        <ele>433.62494</ele>
        <time>2023-06-14T18:13:59.000Z</time>
      </trkpt>
      <trkpt lat="45.83764" lon="4.77425">
        <ele>432.6413</ele>
        <time>2023-06-14T18:14:00.000Z</time>
      </trkpt>
      <trkpt lat="45.83771" lon="4.77412">
        <ele>432.05353</ele>
        <time>2023-06-14T18:14:01.000Z</time>
      </trkpt>
      <trkpt lat="45.83778" lon="4.774">
        <ele>430.41025</ele>
        <time>2023-06-14T18:14:02.000Z</time>
      </trkpt>
      <trkpt lat="45.83785" lon="4.77389">
        <ele>428.83676</ele>
        <time>2023-06-14T18:14:03.000Z</time>
      </trkpt>
      <trkpt lat="45.83792" lon="4.77378">
        <ele>427.31464</ele>
        <time>2023-06-14T18:14:04.000Z</time>
      </trkpt>
      <trkpt lat="45.83799" lon="4.77368">
        <ele>425.79922</ele>
        <time>2023-06-14T18:14:05.000Z</time>
      </trkpt>
      <trkpt lat="45.83806" lon="4.77362">
        <ele>425.02582</ele>
        <time>2023-06-14T18:14:06.000Z</time>
      </trkpt>
      <trkpt lat="45.83812" lon="4.77354">
        <ele>424.25333</ele>
        <time>2023-06-14T18:14:07.000Z</time>
      </trkpt>
      <trkpt lat="45.83816" lon="4.77346">
        <ele>423.50903</ele>
        <time>2023-06-14T18:14:08.000Z</time>
      </trkpt>
      <trkpt lat="45.83818" lon="4.77338">
        <ele>422.62885</ele>
        <time>2023-06-14T18:14:09.000Z</time>
      </trkpt>
      <trkpt lat="45.83817" lon="4.7733">
        <ele>422.0498</ele>
        <time>2023-06-14T18:14:10.000Z</time>
      </trkpt>
      <trkpt lat="45.83812" lon="4.77324">
        <ele>421.5127</ele>
        <time>2023-06-14T18:14:11.000Z</time>
      </trkpt>
      <trkpt lat="45.83807" lon="4.77316">
        <ele>420.98309</ele>
        <time>2023-06-14T18:14:12.000Z</time>
      </trkpt>
      <trkpt lat="45.83803" lon="4.77309">
        <ele>420.49121</ele>
        <time>2023-06-14T18:14:13.000Z</time>
      </trkpt>
      <trkpt lat="45.83799" lon="4.773">
        <ele>420.03018</ele>
        <time>2023-06-14T18:14:14.000Z</time>
      </trkpt>
      <trkpt lat="45.83794" lon="4.77292">
        <ele>418.61353</ele>
        <time>2023-06-14T18:14:15.000Z</time>
      </trkpt>
      <trkpt lat="45.8379" lon="4.77281">
        <ele>417.10846</ele>
        <time>2023-06-14T18:14:16.000Z</time>
      </trkpt>
      <trkpt lat="45.83786" lon="4.77271">
        <ele>415.62003</ele>
        <time>2023-06-14T18:14:17.000Z</time>
      </trkpt>
      <trkpt lat="45.83782" lon="4.77259">
        <ele>413.88959</ele>
        <time>2023-06-14T18:14:18.000Z</time>
      </trkpt>
      <trkpt lat="45.83778" lon="4.77246">
        <ele>412.23834</ele>
        <time>2023-06-14T18:14:19.000Z</time>
      </trkpt>
      <trkpt lat="45.83775" lon="4.77233">
        <ele>410.57169</ele>
        <time>2023-06-14T18:14:20.000Z</time>
      </trkpt>
      <trkpt lat="45.83773" lon="4.77221">
        <ele>408.36557</ele>
        <time>2023-06-14T18:14:21.000Z</time>
      </trkpt>
      <trkpt lat="45.83771" lon="4.77211">
        <ele>409.0564</ele>
        <time>2023-06-14T18:14:22.000Z</time>
      </trkpt>
      <trkpt lat="45.83769" lon="4.77202">
        <ele>409.6463</ele>
        <time>2023-06-14T18:14:23.000Z</time>
      </trkpt>
      <trkpt lat="45.83769" lon="4.77195">
        <ele>410.23862</ele>
        <time>2023-06-14T18:14:24.000Z</time>
      </trkpt>
      <trkpt lat="45.8377" lon="4.7719">
        <ele>410.83868</ele>
        <time>2023-06-14T18:14:25.000Z</time>
      </trkpt>
      <trkpt lat="45.83773" lon="4.77186">
        <ele>410.71289</ele>
        <time>2023-06-14T18:14:26.000Z</time>
      </trkpt>
      <trkpt lat="45.83774" lon="4.77182">
        <ele>410.57242</ele>
        <time>2023-06-14T18:14:27.000Z</time>
      </trkpt>
      <trkpt lat="45.83775" lon="4.77178">
        <ele>409.37054</ele>
        <time>2023-06-14T18:14:28.000Z</time>
      </trkpt>
      <trkpt lat="45.83775" lon="4.77173">
        <ele>408.23096</ele>
        <time>2023-06-14T18:14:29.000Z</time>
      </trkpt>
      <trkpt lat="45.83773" lon="4.7717">
        <ele>407.4516</ele>
        <time>2023-06-14T18:14:30.000Z</time>
      </trkpt>
      <trkpt lat="45.83767" lon="4.77168">
        <ele>406.8428</ele>
        <time>2023-06-14T18:14:32.000Z</time>
      </trkpt>
      <trkpt lat="45.83764" lon="4.77166">
        <ele>406.26437</ele>
        <time>2023-06-14T18:14:33.000Z</time>
      </trkpt>
      <trkpt lat="45.83762" lon="4.77161">
        <ele>406.07251</ele>
        <time>2023-06-14T18:14:34.000Z</time>
      </trkpt>
      <trkpt lat="45.8376" lon="4.77155">
        <ele>405.84097</ele>
        <time>2023-06-14T18:14:35.000Z</time>
      </trkpt>
      <trkpt lat="45.8376" lon="4.77148">
        <ele>406.54681</ele>
        <time>2023-06-14T18:14:36.000Z</time>
      </trkpt>
      <trkpt lat="45.83759" lon="4.77138">
        <ele>407.50317</ele>
        <time>2023-06-14T18:14:37.000Z</time>
      </trkpt>
      <trkpt lat="45.8376" lon="4.77127">
        <ele>408.43121</ele>
        <time>2023-06-14T18:14:38.000Z</time>
      </trkpt>
      <trkpt lat="45.8376" lon="4.77115">
        <ele>409.52179</ele>
        <time>2023-06-14T18:14:39.000Z</time>
      </trkpt>
      <trkpt lat="45.83759" lon="4.77102">
        <ele>410.56744</ele>
        <time>2023-06-14T18:14:40.000Z</time>
      </trkpt>
      <trkpt lat="45.83757" lon="4.77089">
        <ele>411.48578</ele>
        <time>2023-06-14T18:14:41.000Z</time>
      </trkpt>
      <trkpt lat="45.83756" lon="4.77076">
        <ele>412.62396</ele>
        <time>2023-06-14T18:14:42.000Z</time>
      </trkpt>
      <trkpt lat="45.83755" lon="4.77062">
        <ele>412.21655</ele>
        <time>2023-06-14T18:14:43.000Z</time>
      </trkpt>
      <trkpt lat="45.83753" lon="4.77047">
        <ele>412.20392</ele>
        <time>2023-06-14T18:14:44.000Z</time>
      </trkpt>
      <trkpt lat="45.83749" lon="4.7704">
        <ele>412.15616</ele>
        <time>2023-06-14T18:14:45.000Z</time>
      </trkpt>
      <trkpt lat="45.83748" lon="4.77033">
        <ele>412.09366</ele>
        <time>2023-06-14T18:14:46.000Z</time>
      </trkpt>
      <trkpt lat="45.83746" lon="4.77033">
        <ele>411.95596</ele>
        <time>2023-06-14T18:14:47.000Z</time>
      </trkpt>
      <trkpt lat="45.83745" lon="4.77028">
        <ele>411.76178</ele>
        <time>2023-06-14T18:14:48.000Z</time>
      </trkpt>
      <trkpt lat="45.83744" lon="4.77024">
        <ele>412.58795</ele>
        <time>2023-06-14T18:14:49.000Z</time>
      </trkpt>
      <trkpt lat="45.83743" lon="4.77019">
        <ele>413.54779</ele>
        <time>2023-06-14T18:14:50.000Z</time>
      </trkpt>
      <trkpt lat="45.83739" lon="4.77013">
        <ele>413.85846</ele>
        <time>2023-06-14T18:14:51.000Z</time>
      </trkpt>
      <trkpt lat="45.83735" lon="4.77008">
        <ele>413.98184</ele>
        <time>2023-06-14T18:14:52.000Z</time>
      </trkpt>
      <trkpt lat="45.83732" lon="4.77">
        <ele>414.06494</ele>
        <time>2023-06-14T18:14:53.000Z</time>
      </trkpt>
      <trkpt lat="45.83728" lon="4.76992">
        <ele>413.75397</ele>
        <time>2023-06-14T18:14:54.000Z</time>
      </trkpt>
      <trkpt lat="45.83726" lon="4.76983">
        <ele>413.39615</ele>
        <time>2023-06-14T18:14:55.000Z</time>
      </trkpt>
      <trkpt lat="45.83722" lon="4.76974">
        <ele>413.08365</ele>
        <time>2023-06-14T18:14:56.000Z</time>
      </trkpt>
      <trkpt lat="45.83719" lon="4.76965">
        <ele>412.36871</ele>
        <time>2023-06-14T18:14:57.000Z</time>
      </trkpt>
      <trkpt lat="45.83716" lon="4.76955">
        <ele>411.53482</ele>
        <time>2023-06-14T18:14:58.000Z</time>
      </trkpt>
      <trkpt lat="45.83713" lon="4.76945">
        <ele>410.77838</ele>
        <time>2023-06-14T18:14:59.000Z</time>
      </trkpt>
      <trkpt lat="45.83709" lon="4.76935">
        <ele>409.99942</ele>
        <time>2023-06-14T18:15:00.000Z</time>
      </trkpt>
      <trkpt lat="45.83705" lon="4.76925">
        <ele>409.30829</ele>
        <time>2023-06-14T18:15:01.000Z</time>
      </trkpt>
      <trkpt lat="45.83701" lon="4.76915">
        <ele>407.72278</ele>
        <time>2023-06-14T18:15:02.000Z</time>
      </trkpt>
      <trkpt lat="45.83697" lon="4.76905">
        <ele>406.15607</ele>
        <time>2023-06-14T18:15:03.000Z</time>
      </trkpt>
      <trkpt lat="45.83694" lon="4.76895">
        <ele>404.19339</ele>
        <time>2023-06-14T18:15:04.000Z</time>
      </trkpt>
      <trkpt lat="45.8369" lon="4.76885">
        <ele>402.33923</ele>
        <time>2023-06-14T18:15:05.000Z</time>
      </trkpt>
      <trkpt lat="45.83685" lon="4.76875">
        <ele>400.45621</ele>
        <time>2023-06-14T18:15:06.000Z</time>
      </trkpt>
      <trkpt lat="45.8368" lon="4.76865">
        <ele>398.52032</ele>
        <time>2023-06-14T18:15:07.000Z</time>
      </trkpt>
      <trkpt lat="45.83676" lon="4.76855">
        <ele>396.58487</ele>
        <time>2023-06-14T18:15:08.000Z</time>
      </trkpt>
      <trkpt lat="45.83671" lon="4.76844">
        <ele>394.72498</ele>
        <time>2023-06-14T18:15:09.000Z</time>
      </trkpt>
      <trkpt lat="45.83667" lon="4.76833">
        <ele>392.81934</ele>
        <time>2023-06-14T18:15:10.000Z</time>
      </trkpt>
      <trkpt lat="45.83662" lon="4.76822">
        <ele>390.89743</ele>
        <time>2023-06-14T18:15:11.000Z</time>
      </trkpt>
      <trkpt lat="45.83658" lon="4.76811">
        <ele>388.9765</ele>
        <time>2023-06-14T18:15:12.000Z</time>
      </trkpt>
      <trkpt lat="45.83654" lon="4.76801">
        <ele>386.94165</ele>
        <time>2023-06-14T18:15:13.000Z</time>
      </trkpt>
      <trkpt lat="45.8365" lon="4.7679">
        <ele>385.23801</ele>
        <time>2023-06-14T18:15:14.000Z</time>
      </trkpt>
      <trkpt lat="45.83645" lon="4.76779">
        <ele>383.52435</ele>
        <time>2023-06-14T18:15:15.000Z</time>
      </trkpt>
      <trkpt lat="45.8364" lon="4.76769">
        <ele>381.80939</ele>
        <time>2023-06-14T18:15:16.000Z</time>
      </trkpt>
      <trkpt lat="45.83634" lon="4.7676">
        <ele>380.46829</ele>
        <time>2023-06-14T18:15:17.000Z</time>
      </trkpt>
      <trkpt lat="45.83627" lon="4.76752">
        <ele>379.30371</ele>
        <time>2023-06-14T18:15:18.000Z</time>
      </trkpt>
      <trkpt lat="45.83619" lon="4.76745">
        <ele>378.16278</ele>
        <time>2023-06-14T18:15:19.000Z</time>
      </trkpt>
      <trkpt lat="45.83612" lon="4.76739">
        <ele>377.0065</ele>
        <time>2023-06-14T18:15:20.000Z</time>
      </trkpt>
      <trkpt lat="45.83604" lon="4.76735">
        <ele>375.89258</ele>
        <time>2023-06-14T18:15:21.000Z</time>
      </trkpt>
      <trkpt lat="45.83596" lon="4.76731">
        <ele>375.54813</ele>
        <time>2023-06-14T18:15:22.000Z</time>
      </trkpt>
      <trkpt lat="45.83587" lon="4.76728">
        <ele>375.1301</ele>
        <time>2023-06-14T18:15:23.000Z</time>
      </trkpt>
      <trkpt lat="45.8358" lon="4.76724">
        <ele>374.77985</ele>
        <time>2023-06-14T18:15:24.000Z</time>
      </trkpt>
      <trkpt lat="45.83573" lon="4.76718">
        <ele>374.34512</ele>
        <time>2023-06-14T18:15:25.000Z</time>
      </trkpt>
      <trkpt lat="45.83566" lon="4.76712">
        <ele>373.97943</ele>
        <time>2023-06-14T18:15:26.000Z</time>
      </trkpt>
      <trkpt lat="45.83558" lon="4.76706">
        <ele>373.7171</ele>
        <time>2023-06-14T18:15:27.000Z</time>
      </trkpt>
      <trkpt lat="45.8355" lon="4.76697">
        <ele>373.44049</ele>
        <time>2023-06-14T18:15:28.000Z</time>
      </trkpt>
      <trkpt lat="45.83543" lon="4.76688">
        <ele>373.21265</ele>
        <time>2023-06-14T18:15:29.000Z</time>
      </trkpt>
      <trkpt lat="45.83536" lon="4.76679">
        <ele>373.01486</ele>
        <time>2023-06-14T18:15:30.000Z</time>
      </trkpt>
      <trkpt lat="45.8353" lon="4.76669">
        <ele>372.89935</ele>
        <time>2023-06-14T18:15:31.000Z</time>
      </trkpt>
      <trkpt lat="45.83525" lon="4.76659">
        <ele>372.76495</ele>
        <time>2023-06-14T18:15:32.000Z</time>
      </trkpt>
      <trkpt lat="45.83521" lon="4.76647">
        <ele>372.39005</ele>
        <time>2023-06-14T18:15:33.000Z</time>
      </trkpt>
      <trkpt lat="45.83517" lon="4.76634">
        <ele>371.81879</ele>
        <time>2023-06-14T18:15:34.000Z</time>
      </trkpt>
      <trkpt lat="45.83513" lon="4.7662">
        <ele>371.19464</ele>
        <time>2023-06-14T18:15:35.000Z</time>
      </trkpt>
      <trkpt lat="45.83508" lon="4.76607">
        <ele>370.53064</ele>
        <time>2023-06-14T18:15:36.000Z</time>
      </trkpt>
      <trkpt lat="45.83503" lon="4.76595">
        <ele>369.79736</ele>
        <time>2023-06-14T18:15:37.000Z</time>
      </trkpt>
      <trkpt lat="45.83496" lon="4.76583">
        <ele>368.98969</ele>
        <time>2023-06-14T18:15:38.000Z</time>
      </trkpt>
      <trkpt lat="45.83489" lon="4.76573">
        <ele>368.20432</ele>
        <time>2023-06-14T18:15:39.000Z</time>
      </trkpt>
      <trkpt lat="45.8348" lon="4.76563">
        <ele>367.4931</ele>
        <time>2023-06-14T18:15:40.000Z</time>
      </trkpt>
      <trkpt lat="45.83472" lon="4.76553">
        <ele>366.81439</ele>
        <time>2023-06-14T18:15:41.000Z</time>
      </trkpt>
      <trkpt lat="45.83464" lon="4.76542">
        <ele>366.18878</ele>
        <time>2023-06-14T18:15:42.000Z</time>
      </trkpt>
      <trkpt lat="45.83458" lon="4.7653">
        <ele>365.6651</ele>
        <time>2023-06-14T18:15:43.000Z</time>
      </trkpt>
      <trkpt lat="45.83451" lon="4.76517">
        <ele>365.17624</ele>
        <time>2023-06-14T18:15:44.000Z</time>
      </trkpt>
      <trkpt lat="45.83446" lon="4.76504">
        <ele>364.68375</ele>
        <time>2023-06-14T18:15:45.000Z</time>
      </trkpt>
      <trkpt lat="45.83442" lon="4.76491">
        <ele>364.11746</ele>
        <time>2023-06-14T18:15:46.000Z</time>
      </trkpt>
      <trkpt lat="45.83439" lon="4.76477">
        <ele>363.60309</ele>
        <time>2023-06-14T18:15:47.000Z</time>
      </trkpt>
      <trkpt lat="45.83438" lon="4.76463">
        <ele>363.18973</ele>
        <time>2023-06-14T18:15:48.000Z</time>
      </trkpt>
      <trkpt lat="45.83437" lon="4.76451">
        <ele>362.68347</ele>
        <time>2023-06-14T18:15:49.000Z</time>
      </trkpt>
      <trkpt lat="45.83437" lon="4.7644">
        <ele>362.09601</ele>
        <time>2023-06-14T18:15:50.000Z</time>
      </trkpt>
      <trkpt lat="45.83437" lon="4.7643">
        <ele>361.49106</ele>
        <time>2023-06-14T18:15:51.000Z</time>
      </trkpt>
      <trkpt lat="45.83436" lon="4.76422">
        <ele>360.96411</ele>
        <time>2023-06-14T18:15:52.000Z</time>
      </trkpt>
      <trkpt lat="45.83436" lon="4.76413">
        <ele>360.7695</ele>
        <time>2023-06-14T18:15:53.000Z</time>
      </trkpt>
      <trkpt lat="45.83435" lon="4.76405">
        <ele>360.45062</ele>
        <time>2023-06-14T18:15:54.000Z</time>
      </trkpt>
      <trkpt lat="45.83436" lon="4.76397">
        <ele>360.27133</ele>
        <time>2023-06-14T18:15:55.000Z</time>
      </trkpt>
      <trkpt lat="45.83436" lon="4.7639">
        <ele>359.97455</ele>
        <time>2023-06-14T18:15:56.000Z</time>
      </trkpt>
      <trkpt lat="45.83434" lon="4.76383">
        <ele>359.83826</ele>
        <time>2023-06-14T18:15:57.000Z</time>
      </trkpt>
      <trkpt lat="45.83434" lon="4.76375">
        <ele>359.7645</ele>
        <time>2023-06-14T18:15:58.000Z</time>
      </trkpt>
      <trkpt lat="45.83433" lon="4.76369">
        <ele>359.70053</ele>
        <time>2023-06-14T18:15:59.000Z</time>
      </trkpt>
      <trkpt lat="45.83432" lon="4.76362">
        <ele>359.60318</ele>
        <time>2023-06-14T18:16:00.000Z</time>
      </trkpt>
      <trkpt lat="45.83431" lon="4.76358">
        <ele>359.40833</ele>
        <time>2023-06-14T18:16:01.000Z</time>
      </trkpt>
      <trkpt lat="45.83429" lon="4.76352">
        <ele>359.42316</ele>
        <time>2023-06-14T18:16:02.000Z</time>
      </trkpt>
      <trkpt lat="45.83427" lon="4.76348">
        <ele>359.39215</ele>
        <time>2023-06-14T18:16:03.000Z</time>
      </trkpt>
      <trkpt lat="45.83425" lon="4.76343">
        <ele>359.33942</ele>
        <time>2023-06-14T18:16:04.000Z</time>
      </trkpt>
      <trkpt lat="45.83423" lon="4.76341">
        <ele>359.23065</ele>
        <time>2023-06-14T18:16:05.000Z</time>
      </trkpt>
      <trkpt lat="45.83417" lon="4.76339">
        <ele>359.08588</ele>
        <time>2023-06-14T18:16:07.000Z</time>
      </trkpt>
      <trkpt lat="45.83414" lon="4.76338">
        <ele>358.87161</ele>
        <time>2023-06-14T18:16:08.000Z</time>
      </trkpt>
      <trkpt lat="45.83411" lon="4.76337">
        <ele>358.60077</ele>
        <time>2023-06-14T18:16:09.000Z</time>
      </trkpt>
      <trkpt lat="45.83409" lon="4.76336">
        <ele>358.4082</ele>
        <time>2023-06-14T18:16:10.000Z</time>
      </trkpt>
      <trkpt lat="45.83406" lon="4.76335">
        <ele>358.27582</ele>
        <time>2023-06-14T18:16:11.000Z</time>
      </trkpt>
      <trkpt lat="45.83403" lon="4.76335">
        <ele>358.03821</ele>
        <time>2023-06-14T18:16:12.000Z</time>
      </trkpt>
      <trkpt lat="45.83401" lon="4.76334">
        <ele>357.7139</ele>
        <time>2023-06-14T18:16:13.000Z</time>
      </trkpt>
      <trkpt lat="45.83397" lon="4.76333">
        <ele>357.39557</ele>
        <time>2023-06-14T18:16:14.000Z</time>
      </trkpt>
      <trkpt lat="45.83394" lon="4.76333">
        <ele>357.18781</ele>
        <time>2023-06-14T18:16:15.000Z</time>
      </trkpt>
      <trkpt lat="45.8339" lon="4.76332">
        <ele>357.01563</ele>
        <time>2023-06-14T18:16:16.000Z</time>
      </trkpt>
      <trkpt lat="45.83386" lon="4.76332">
        <ele>356.94257</ele>
        <time>2023-06-14T18:16:17.000Z</time>
      </trkpt>
      <trkpt lat="45.83382" lon="4.76332">
        <ele>356.77496</ele>
        <time>2023-06-14T18:16:18.000Z</time>
      </trkpt>
      <trkpt lat="45.83379" lon="4.76332">
        <ele>356.61273</ele>
        <time>2023-06-14T18:16:19.000Z</time>
      </trkpt>
      <trkpt lat="45.83374" lon="4.76333">
        <ele>356.42371</ele>
        <time>2023-06-14T18:16:20.000Z</time>
      </trkpt>
      <trkpt lat="45.8337" lon="4.76334">
        <ele>356.35559</ele>
        <time>2023-06-14T18:16:21.000Z</time>
      </trkpt>
      <trkpt lat="45.83366" lon="4.76336">
        <ele>356.25909</ele>
        <time>2023-06-14T18:16:22.000Z</time>
      </trkpt>
      <trkpt lat="45.83362" lon="4.76338">
        <ele>355.90314</ele>
        <time>2023-06-14T18:16:23.000Z</time>
      </trkpt>
      <trkpt lat="45.83358" lon="4.76341">
        <ele>355.83624</ele>
        <time>2023-06-14T18:16:24.000Z</time>
      </trkpt>
      <trkpt lat="45.83354" lon="4.76343">
        <ele>355.69708</ele>
        <time>2023-06-14T18:16:25.000Z</time>
      </trkpt>
      <trkpt lat="45.8335" lon="4.76346">
        <ele>355.5896</ele>
        <time>2023-06-14T18:16:26.000Z</time>
      </trkpt>
      <trkpt lat="45.83347" lon="4.7635">
        <ele>355.54169</ele>
        <time>2023-06-14T18:16:27.000Z</time>
      </trkpt>
      <trkpt lat="45.83342" lon="4.76354">
        <ele>355.21552</ele>
        <time>2023-06-14T18:16:28.000Z</time>
      </trkpt>
      <trkpt lat="45.83338" lon="4.76358">
        <ele>355.28137</ele>
        <time>2023-06-14T18:16:29.000Z</time>
      </trkpt>
      <trkpt lat="45.83332" lon="4.76359">
        <ele>355.27118</ele>
        <time>2023-06-14T18:16:30.000Z</time>
      </trkpt>
      <trkpt lat="45.83328" lon="4.76361">
        <ele>355.31818</ele>
        <time>2023-06-14T18:16:31.000Z</time>
      </trkpt>
      <trkpt lat="45.83324" lon="4.76364">
        <ele>355.39706</ele>
        <time>2023-06-14T18:16:32.000Z</time>
      </trkpt>
      <trkpt lat="45.8332" lon="4.76369">
        <ele>355.50079</ele>
        <time>2023-06-14T18:16:33.000Z</time>
      </trkpt>
      <trkpt lat="45.83315" lon="4.76373">
        <ele>355.67996</ele>
        <time>2023-06-14T18:16:34.000Z</time>
      </trkpt>
      <trkpt lat="45.83309" lon="4.76374">
        <ele>355.75949</ele>
        <time>2023-06-14T18:16:35.000Z</time>
      </trkpt>
      <trkpt lat="45.83303" lon="4.76373">
        <ele>355.81097</ele>
        <time>2023-06-14T18:16:36.000Z</time>
      </trkpt>
      <trkpt lat="45.83297" lon="4.76371">
        <ele>355.78375</ele>
        <time>2023-06-14T18:16:37.000Z</time>
      </trkpt>
      <trkpt lat="45.83292" lon="4.76368">
        <ele>355.71725</ele>
        <time>2023-06-14T18:16:38.000Z</time>
      </trkpt>
      <trkpt lat="45.83287" lon="4.76363">
        <ele>355.59378</ele>
        <time>2023-06-14T18:16:39.000Z</time>
      </trkpt>
      <trkpt lat="45.83284" lon="4.76358">
        <ele>354.55463</ele>
        <time>2023-06-14T18:16:40.000Z</time>
      </trkpt>
      <trkpt lat="45.83284" lon="4.76351">
        <ele>353.34286</ele>
        <time>2023-06-14T18:16:41.000Z</time>
      </trkpt>
      <trkpt lat="45.83282" lon="4.76343">
        <ele>352.2298</ele>
        <time>2023-06-14T18:16:42.000Z</time>
      </trkpt>
      <trkpt lat="45.83281" lon="4.76333">
        <ele>350.92743</ele>
        <time>2023-06-14T18:16:43.000Z</time>
      </trkpt>
      <trkpt lat="45.83281" lon="4.76322">
        <ele>349.98322</ele>
        <time>2023-06-14T18:16:44.000Z</time>
      </trkpt>
      <trkpt lat="45.8328" lon="4.76311">
        <ele>349.49686</ele>
        <time>2023-06-14T18:16:45.000Z</time>
      </trkpt>
      <trkpt lat="45.8328" lon="4.76299">
        <ele>349.18503</ele>
        <time>2023-06-14T18:16:46.000Z</time>
      </trkpt>
      <trkpt lat="45.83279" lon="4.76285">
        <ele>348.87564</ele>
        <time>2023-06-14T18:16:47.000Z</time>
      </trkpt>
      <trkpt lat="45.83278" lon="4.76272">
        <ele>348.85089</ele>
        <time>2023-06-14T18:16:48.000Z</time>
      </trkpt>
      <trkpt lat="45.83277" lon="4.76259">
        <ele>348.43234</ele>
        <time>2023-06-14T18:16:49.000Z</time>
      </trkpt>
      <trkpt lat="45.83276" lon="4.76245">
        <ele>347.98828</ele>
        <time>2023-06-14T18:16:50.000Z</time>
      </trkpt>
      <trkpt lat="45.83275" lon="4.76231">
        <ele>347.48627</ele>
        <time>2023-06-14T18:16:51.000Z</time>
      </trkpt>
      <trkpt lat="45.83274" lon="4.76218">
        <ele>347.02563</ele>
        <time>2023-06-14T18:16:52.000Z</time>
      </trkpt>
      <trkpt lat="45.83272" lon="4.76205">
        <ele>346.61188</ele>
        <time>2023-06-14T18:16:53.000Z</time>
      </trkpt>
      <trkpt lat="45.83271" lon="4.76192">
        <ele>346.11627</ele>
        <time>2023-06-14T18:16:54.000Z</time>
      </trkpt>
      <trkpt lat="45.83269" lon="4.76179">
        <ele>345.60959</ele>
        <time>2023-06-14T18:16:55.000Z</time>
      </trkpt>
      <trkpt lat="45.83268" lon="4.76167">
        <ele>345.05225</ele>
        <time>2023-06-14T18:16:56.000Z</time>
      </trkpt>
      <trkpt lat="45.83266" lon="4.76155">
        <ele>344.6185</ele>
        <time>2023-06-14T18:16:57.000Z</time>
      </trkpt>
      <trkpt lat="45.83264" lon="4.76144">
        <ele>344.1908</ele>
        <time>2023-06-14T18:16:58.000Z</time>
      </trkpt>
      <trkpt lat="45.83265" lon="4.76133">
        <ele>343.78955</ele>
        <time>2023-06-14T18:16:59.000Z</time>
      </trkpt>
      <trkpt lat="45.83266" lon="4.76122">
        <ele>344.31818</ele>
        <time>2023-06-14T18:17:00.000Z</time>
      </trkpt>
      <trkpt lat="45.83268" lon="4.76112">
        <ele>344.8981</ele>
        <time>2023-06-14T18:17:01.000Z</time>
      </trkpt>
      <trkpt lat="45.83272" lon="4.76101">
        <ele>345.49637</ele>
        <time>2023-06-14T18:17:02.000Z</time>
      </trkpt>
      <trkpt lat="45.83275" lon="4.76091">
        <ele>346.31534</ele>
        <time>2023-06-14T18:17:03.000Z</time>
      </trkpt>
      <trkpt lat="45.8328" lon="4.76082">
        <ele>346.52075</ele>
        <time>2023-06-14T18:17:04.000Z</time>
      </trkpt>
      <trkpt lat="45.83283" lon="4.76072">
        <ele>346.44608</ele>
        <time>2023-06-14T18:17:05.000Z</time>
      </trkpt>
      <trkpt lat="45.83284" lon="4.76061">
        <ele>346.24463</ele>
        <time>2023-06-14T18:17:06.000Z</time>
      </trkpt>
      <trkpt lat="45.83284" lon="4.76051">
        <ele>345.3284</ele>
        <time>2023-06-14T18:17:07.000Z</time>
      </trkpt>
      <trkpt lat="45.83283" lon="4.7604">
        <ele>344.11389</ele>
        <time>2023-06-14T18:17:08.000Z</time>
      </trkpt>
      <trkpt lat="45.8328" lon="4.7603">
        <ele>342.89423</ele>
        <time>2023-06-14T18:17:09.000Z</time>
      </trkpt>
      <trkpt lat="45.83277" lon="4.76021">
        <ele>341.67987</ele>
        <time>2023-06-14T18:17:10.000Z</time>
      </trkpt>
      <trkpt lat="45.83276" lon="4.76011">
        <ele>340.91357</ele>
        <time>2023-06-14T18:17:11.000Z</time>
      </trkpt>
      <trkpt lat="45.83273" lon="4.76002">
        <ele>340.03583</ele>
        <time>2023-06-14T18:17:12.000Z</time>
      </trkpt>
      <trkpt lat="45.8327" lon="4.75993">
        <ele>339.62576</ele>
        <time>2023-06-14T18:17:13.000Z</time>
      </trkpt>
      <trkpt lat="45.83267" lon="4.75983">
        <ele>339.27023</ele>
        <time>2023-06-14T18:17:14.000Z</time>
      </trkpt>
      <trkpt lat="45.83264" lon="4.75974">
        <ele>338.88364</ele>
        <time>2023-06-14T18:17:15.000Z</time>
      </trkpt>
      <trkpt lat="45.83261" lon="4.75965">
        <ele>338.53378</ele>
        <time>2023-06-14T18:17:16.000Z</time>
      </trkpt>
      <trkpt lat="45.83258" lon="4.75956">
        <ele>338.17267</ele>
        <time>2023-06-14T18:17:17.000Z</time>
      </trkpt>
      <trkpt lat="45.83255" lon="4.75947">
        <ele>337.81976</ele>
        <time>2023-06-14T18:17:18.000Z</time>
      </trkpt>
      <trkpt lat="45.83253" lon="4.75938">
        <ele>337.47968</ele>
        <time>2023-06-14T18:17:19.000Z</time>
      </trkpt>
      <trkpt lat="45.83251" lon="4.75929">
        <ele>337.15228</ele>
        <time>2023-06-14T18:17:20.000Z</time>
      </trkpt>
      <trkpt lat="45.83249" lon="4.75919">
        <ele>336.8486</ele>
        <time>2023-06-14T18:17:21.000Z</time>
      </trkpt>
      <trkpt lat="45.83247" lon="4.75912">
        <ele>336.56982</ele>
        <time>2023-06-14T18:17:22.000Z</time>
      </trkpt>
      <trkpt lat="45.83246" lon="4.75904">
        <ele>336.3403</ele>
        <time>2023-06-14T18:17:23.000Z</time>
      </trkpt>
      <trkpt lat="45.83246" lon="4.75896">
        <ele>336.08835</ele>
        <time>2023-06-14T18:17:24.000Z</time>
      </trkpt>
      <trkpt lat="45.83246" lon="4.75888">
        <ele>335.71222</ele>
        <time>2023-06-14T18:17:25.000Z</time>
      </trkpt>
      <trkpt lat="45.83245" lon="4.75881">
        <ele>335.32431</ele>
        <time>2023-06-14T18:17:26.000Z</time>
      </trkpt>
      <trkpt lat="45.83245" lon="4.75873">
        <ele>335.65308</ele>
        <time>2023-06-14T18:17:27.000Z</time>
      </trkpt>
      <trkpt lat="45.83244" lon="4.75864">
        <ele>336.30234</ele>
        <time>2023-06-14T18:17:28.000Z</time>
      </trkpt>
      <trkpt lat="45.83244" lon="4.75857">
        <ele>336.97095</ele>
        <time>2023-06-14T18:17:29.000Z</time>
      </trkpt>
      <trkpt lat="45.83243" lon="4.75849">
        <ele>337.67859</ele>
        <time>2023-06-14T18:17:30.000Z</time>
      </trkpt>
      <trkpt lat="45.83243" lon="4.75842">
        <ele>337.94003</ele>
        <time>2023-06-14T18:17:31.000Z</time>
      </trkpt>
      <trkpt lat="45.83242" lon="4.75834">
        <ele>338.31628</ele>
        <time>2023-06-14T18:17:32.000Z</time>
      </trkpt>
      <trkpt lat="45.8324" lon="4.75827">
        <ele>338.19598</ele>
        <time>2023-06-14T18:17:33.000Z</time>
      </trkpt>
      <trkpt lat="45.83239" lon="4.75819">
        <ele>338.052</ele>
        <time>2023-06-14T18:17:34.000Z</time>
      </trkpt>
      <trkpt lat="45.83236" lon="4.75811">
        <ele>337.93726</ele>
        <time>2023-06-14T18:17:35.000Z</time>
      </trkpt>
      <trkpt lat="45.83234" lon="4.75805">
        <ele>337.78479</ele>
        <time>2023-06-14T18:17:36.000Z</time>
      </trkpt>
      <trkpt lat="45.83232" lon="4.75798">
        <ele>337.64117</ele>
        <time>2023-06-14T18:17:37.000Z</time>
      </trkpt>
      <trkpt lat="45.83229" lon="4.75791">
        <ele>337.50949</ele>
        <time>2023-06-14T18:17:38.000Z</time>
      </trkpt>
      <trkpt lat="45.83226" lon="4.75785">
        <ele>337.37573</ele>
        <time>2023-06-14T18:17:39.000Z</time>
      </trkpt>
      <trkpt lat="45.83224" lon="4.75779">
        <ele>337.21405</ele>
        <time>2023-06-14T18:17:40.000Z</time>
      </trkpt>
      <trkpt lat="45.83221" lon="4.75773">
        <ele>336.98947</ele>
        <time>2023-06-14T18:17:41.000Z</time>
      </trkpt>
      <trkpt lat="45.83219" lon="4.75766">
        <ele>336.74384</ele>
        <time>2023-06-14T18:17:42.000Z</time>
      </trkpt>
      <trkpt lat="45.83216" lon="4.7576">
        <ele>336.47186</ele>
        <time>2023-06-14T18:17:43.000Z</time>
      </trkpt>
      <trkpt lat="45.83212" lon="4.75753">
        <ele>336.19034</ele>
        <time>2023-06-14T18:17:44.000Z</time>
      </trkpt>
      <trkpt lat="45.8321" lon="4.75745">
        <ele>335.9321</ele>
        <time>2023-06-14T18:17:45.000Z</time>
      </trkpt>
      <trkpt lat="45.83206" lon="4.75737">
        <ele>335.61496</ele>
        <time>2023-06-14T18:17:46.000Z</time>
      </trkpt>
      <trkpt lat="45.83204" lon="4.75729">
        <ele>335.28217</ele>
        <time>2023-06-14T18:17:47.000Z</time>
      </trkpt>
      <trkpt lat="45.832" lon="4.75721">
        <ele>334.93774</ele>
        <time>2023-06-14T18:17:48.000Z</time>
      </trkpt>
      <trkpt lat="45.83197" lon="4.75713">
        <ele>334.53836</ele>
        <time>2023-06-14T18:17:49.000Z</time>
      </trkpt>
      <trkpt lat="45.83194" lon="4.75705">
        <ele>334.20395</ele>
        <time>2023-06-14T18:17:50.000Z</time>
      </trkpt>
      <trkpt lat="45.8319" lon="4.75697">
        <ele>333.82532</ele>
        <time>2023-06-14T18:17:51.000Z</time>
      </trkpt>
      <trkpt lat="45.83185" lon="4.75689">
        <ele>333.44156</ele>
        <time>2023-06-14T18:17:52.000Z</time>
      </trkpt>
      <trkpt lat="45.8318" lon="4.75681">
        <ele>333.14948</ele>
        <time>2023-06-14T18:17:53.000Z</time>
      </trkpt>
      <trkpt lat="45.83175" lon="4.75673">
        <ele>332.74695</ele>
        <time>2023-06-14T18:17:54.000Z</time>
      </trkpt>
      <trkpt lat="45.83171" lon="4.75665">
        <ele>332.33752</ele>
        <time>2023-06-14T18:17:55.000Z</time>
      </trkpt>
      <trkpt lat="45.83167" lon="4.75656">
        <ele>331.96826</ele>
        <time>2023-06-14T18:17:56.000Z</time>
      </trkpt>
      <trkpt lat="45.83164" lon="4.75649">
        <ele>331.59515</ele>
        <time>2023-06-14T18:17:57.000Z</time>
      </trkpt>
      <trkpt lat="45.83163" lon="4.7564">
        <ele>331.22327</ele>
        <time>2023-06-14T18:17:58.000Z</time>
      </trkpt>
      <trkpt lat="45.83162" lon="4.75631">
        <ele>330.84683</ele>
        <time>2023-06-14T18:17:59.000Z</time>
      </trkpt>
      <trkpt lat="45.83163" lon="4.75621">
        <ele>330.52408</ele>
        <time>2023-06-14T18:18:00.000Z</time>
      </trkpt>
      <trkpt lat="45.83163" lon="4.75612">
        <ele>330.18713</ele>
        <time>2023-06-14T18:18:01.000Z</time>
      </trkpt>
      <trkpt lat="45.83163" lon="4.75604">
        <ele>329.80984</ele>
        <time>2023-06-14T18:18:02.000Z</time>
      </trkpt>
      <trkpt lat="45.83161" lon="4.75594">
        <ele>329.44284</ele>
        <time>2023-06-14T18:18:03.000Z</time>
      </trkpt>
      <trkpt lat="45.83159" lon="4.75585">
        <ele>329.08679</ele>
        <time>2023-06-14T18:18:04.000Z</time>
      </trkpt>
      <trkpt lat="45.83156" lon="4.75576">
        <ele>328.71848</ele>
        <time>2023-06-14T18:18:05.000Z</time>
      </trkpt>
      <trkpt lat="45.83155" lon="4.75567">
        <ele>328.37848</ele>
        <time>2023-06-14T18:18:06.000Z</time>
      </trkpt>
      <trkpt lat="45.83155" lon="4.75558">
        <ele>328.03525</ele>
        <time>2023-06-14T18:18:07.000Z</time>
      </trkpt>
      <trkpt lat="45.83152" lon="4.75551">
        <ele>327.7262</ele>
        <time>2023-06-14T18:18:08.000Z</time>
      </trkpt>
      <trkpt lat="45.83148" lon="4.75545">
        <ele>327.48688</ele>
        <time>2023-06-14T18:18:09.000Z</time>
      </trkpt>
      <trkpt lat="45.83143" lon="4.75537">
        <ele>327.12946</ele>
        <time>2023-06-14T18:18:10.000Z</time>
      </trkpt>
      <trkpt lat="45.83141" lon="4.75533">
        <ele>326.76056</ele>
        <time>2023-06-14T18:18:11.000Z</time>
      </trkpt>
      <trkpt lat="45.83137" lon="4.75525">
        <ele>326.34601</ele>
        <time>2023-06-14T18:18:12.000Z</time>
      </trkpt>
      <trkpt lat="45.83133" lon="4.75519">
        <ele>325.84589</ele>
        <time>2023-06-14T18:18:13.000Z</time>
      </trkpt>
      <trkpt lat="45.83129" lon="4.75511">
        <ele>325.43024</ele>
        <time>2023-06-14T18:18:14.000Z</time>
      </trkpt>
      <trkpt lat="45.83125" lon="4.75503">
        <ele>325.03735</ele>
        <time>2023-06-14T18:18:15.000Z</time>
      </trkpt>
      <trkpt lat="45.83122" lon="4.75494">
        <ele>324.55835</ele>
        <time>2023-06-14T18:18:16.000Z</time>
      </trkpt>
      <trkpt lat="45.83119" lon="4.75486">
        <ele>323.42596</ele>
        <time>2023-06-14T18:18:17.000Z</time>
      </trkpt>
      <trkpt lat="45.83118" lon="4.75477">
        <ele>322.31305</ele>
        <time>2023-06-14T18:18:18.000Z</time>
      </trkpt>
      <trkpt lat="45.83119" lon="4.7547">
        <ele>321.13126</ele>
        <time>2023-06-14T18:18:19.000Z</time>
      </trkpt>
      <trkpt lat="45.8312" lon="4.75462">
        <ele>319.70581</ele>
        <time>2023-06-14T18:18:20.000Z</time>
      </trkpt>
      <trkpt lat="45.83122" lon="4.75455">
        <ele>318.28317</ele>
        <time>2023-06-14T18:18:21.000Z</time>
      </trkpt>
      <trkpt lat="45.83126" lon="4.75446">
        <ele>316.82645</ele>
        <time>2023-06-14T18:18:22.000Z</time>
      </trkpt>
      <trkpt lat="45.83131" lon="4.75439">
        <ele>315.35724</ele>
        <time>2023-06-14T18:18:23.000Z</time>
      </trkpt>
      <trkpt lat="45.83138" lon="4.75434">
        <ele>314.19968</ele>
        <time>2023-06-14T18:18:24.000Z</time>
      </trkpt>
      <trkpt lat="45.83142" lon="4.7543">
        <ele>312.9671</ele>
        <time>2023-06-14T18:18:25.000Z</time>
      </trkpt>
      <trkpt lat="45.8315" lon="4.75425">
        <ele>311.71103</ele>
        <time>2023-06-14T18:18:26.000Z</time>
      </trkpt>
      <trkpt lat="45.83157" lon="4.75421">
        <ele>310.45822</ele>
        <time>2023-06-14T18:18:27.000Z</time>
      </trkpt>
      <trkpt lat="45.83161" lon="4.75421">
        <ele>309.21762</ele>
        <time>2023-06-14T18:18:28.000Z</time>
      </trkpt>
      <trkpt lat="45.83167" lon="4.75415">
        <ele>308.0235</ele>
        <time>2023-06-14T18:18:29.000Z</time>
      </trkpt>
      <trkpt lat="45.83172" lon="4.75411">
        <ele>306.82745</ele>
        <time>2023-06-14T18:18:30.000Z</time>
      </trkpt>
      <trkpt lat="45.83178" lon="4.75405">
        <ele>305.61426</ele>
        <time>2023-06-14T18:18:31.000Z</time>
      </trkpt>
      <trkpt lat="45.83184" lon="4.75401">
        <ele>304.48029</ele>
        <time>2023-06-14T18:18:32.000Z</time>
      </trkpt>
      <trkpt lat="45.83188" lon="4.75399">
        <ele>303.31808</ele>
        <time>2023-06-14T18:18:33.000Z</time>
      </trkpt>
      <trkpt lat="45.83194" lon="4.75394">
        <ele>302.21158</ele>
        <time>2023-06-14T18:18:34.000Z</time>
      </trkpt>
      <trkpt lat="45.83198" lon="4.75385">
        <ele>300.93195</ele>
        <time>2023-06-14T18:18:35.000Z</time>
      </trkpt>
      <trkpt lat="45.83204" lon="4.75377">
        <ele>299.65027</ele>
        <time>2023-06-14T18:18:36.000Z</time>
      </trkpt>
      <trkpt lat="45.83209" lon="4.75372">
        <ele>299.26501</ele>
        <time>2023-06-14T18:18:37.000Z</time>
      </trkpt>
      <trkpt lat="45.83216" lon="4.75369">
        <ele>298.83191</ele>
        <time>2023-06-14T18:18:38.000Z</time>
      </trkpt>
      <trkpt lat="45.83222" lon="4.75365">
        <ele>298.38782</ele>
        <time>2023-06-14T18:18:39.000Z</time>
      </trkpt>
      <trkpt lat="45.83232" lon="4.75363">
        <ele>298.13849</ele>
        <time>2023-06-14T18:18:40.000Z</time>
      </trkpt>
      <trkpt lat="45.8324" lon="4.75357">
        <ele>297.92542</ele>
        <time>2023-06-14T18:18:41.000Z</time>
      </trkpt>
      <trkpt lat="45.83249" lon="4.75355">
        <ele>297.81314</ele>
        <time>2023-06-14T18:18:42.000Z</time>
      </trkpt>
      <trkpt lat="45.83257" lon="4.75353">
        <ele>297.68121</ele>
        <time>2023-06-14T18:18:43.000Z</time>
      </trkpt>
      <trkpt lat="45.83267" lon="4.75348">
        <ele>297.19098</ele>
        <time>2023-06-14T18:18:44.000Z</time>
      </trkpt>
      <trkpt lat="45.83274" lon="4.75346">
        <ele>296.75812</ele>
        <time>2023-06-14T18:18:45.000Z</time>
      </trkpt>
      <trkpt lat="45.83284" lon="4.7534">
        <ele>296.32794</ele>
        <time>2023-06-14T18:18:46.000Z</time>
      </trkpt>
      <trkpt lat="45.8329" lon="4.75334">
        <ele>295.95206</ele>
        <time>2023-06-14T18:18:47.000Z</time>
      </trkpt>
      <trkpt lat="45.83297" lon="4.75328">
        <ele>295.56464</ele>
        <time>2023-06-14T18:18:48.000Z</time>
      </trkpt>
      <trkpt lat="45.83304" lon="4.75323">
        <ele>295.08551</ele>
        <time>2023-06-14T18:18:49.000Z</time>
      </trkpt>
      <trkpt lat="45.83308" lon="4.75321">
        <ele>294.6087</ele>
        <time>2023-06-14T18:18:50.000Z</time>
      </trkpt>
      <trkpt lat="45.83313" lon="4.75318">
        <ele>294.20944</ele>
        <time>2023-06-14T18:18:51.000Z</time>
      </trkpt>
      <trkpt lat="45.83317" lon="4.75314">
        <ele>293.8194</ele>
        <time>2023-06-14T18:18:52.000Z</time>
      </trkpt>
      <trkpt lat="45.83323" lon="4.75309">
        <ele>293.50214</ele>
        <time>2023-06-14T18:18:53.000Z</time>
      </trkpt>
      <trkpt lat="45.83327" lon="4.75305">
        <ele>293.09879</ele>
        <time>2023-06-14T18:18:54.000Z</time>
      </trkpt>
      <trkpt lat="45.83334" lon="4.75302">
        <ele>292.83322</ele>
        <time>2023-06-14T18:18:55.000Z</time>
      </trkpt>
      <trkpt lat="45.83341" lon="4.75312">
        <ele>292.57169</ele>
        <time>2023-06-14T18:18:56.000Z</time>
      </trkpt>
      <trkpt lat="45.83346" lon="4.75313">
        <ele>292.09232</ele>
        <time>2023-06-14T18:18:57.000Z</time>
      </trkpt>
      <trkpt lat="45.83352" lon="4.75312">
        <ele>291.67102</ele>
        <time>2023-06-14T18:18:58.000Z</time>
      </trkpt>
      <trkpt lat="45.8336" lon="4.75311">
        <ele>291.30951</ele>
        <time>2023-06-14T18:18:59.000Z</time>
      </trkpt>
      <trkpt lat="45.83367" lon="4.7531">
        <ele>290.96613</ele>
        <time>2023-06-14T18:19:00.000Z</time>
      </trkpt>
      <trkpt lat="45.83373" lon="4.75309">
        <ele>290.59796</ele>
        <time>2023-06-14T18:19:01.000Z</time>
      </trkpt>
      <trkpt lat="45.83378" lon="4.75307">
        <ele>290.22803</ele>
        <time>2023-06-14T18:19:02.000Z</time>
      </trkpt>
      <trkpt lat="45.83382" lon="4.75303">
        <ele>289.94928</ele>
        <time>2023-06-14T18:19:03.000Z</time>
      </trkpt>
      <trkpt lat="45.83389" lon="4.75301">
        <ele>289.76392</ele>
        <time>2023-06-14T18:19:04.000Z</time>
      </trkpt>
      <trkpt lat="45.83394" lon="4.75296">
        <ele>289.56915</ele>
        <time>2023-06-14T18:19:05.000Z</time>
      </trkpt>
      <trkpt lat="45.83396" lon="4.75294">
        <ele>289.37119</ele>
        <time>2023-06-14T18:19:06.000Z</time>
      </trkpt>
      <trkpt lat="45.83399" lon="4.75291">
        <ele>289.22113</ele>
        <time>2023-06-14T18:19:07.000Z</time>
      </trkpt>
      <trkpt lat="45.83401" lon="4.75287">
        <ele>289.03116</ele>
        <time>2023-06-14T18:19:08.000Z</time>
      </trkpt>
      <trkpt lat="45.83403" lon="4.75282">
        <ele>288.87415</ele>
        <time>2023-06-14T18:19:09.000Z</time>
      </trkpt>
      <trkpt lat="45.83405" lon="4.75277">
        <ele>288.74243</ele>
        <time>2023-06-14T18:19:10.000Z</time>
      </trkpt>
      <trkpt lat="45.83406" lon="4.7527">
        <ele>288.63168</ele>
        <time>2023-06-14T18:19:11.000Z</time>
      </trkpt>
      <trkpt lat="45.83407" lon="4.75264">
        <ele>288.47574</ele>
        <time>2023-06-14T18:19:12.000Z</time>
      </trkpt>
      <trkpt lat="45.83408" lon="4.7526">
        <ele>288.29053</ele>
        <time>2023-06-14T18:19:13.000Z</time>
      </trkpt>
      <trkpt lat="45.8341" lon="4.75255">
        <ele>288.23624</ele>
        <time>2023-06-14T18:19:14.000Z</time>
      </trkpt>
      <trkpt lat="45.83413" lon="4.75251">
        <ele>288.22656</ele>
        <time>2023-06-14T18:19:15.000Z</time>
      </trkpt>
      <trkpt lat="45.83416" lon="4.75247">
        <ele>288.25983</ele>
        <time>2023-06-14T18:19:16.000Z</time>
      </trkpt>
      <trkpt lat="45.83419" lon="4.75244">
        <ele>288.24277</ele>
        <time>2023-06-14T18:19:17.000Z</time>
      </trkpt>
      <trkpt lat="45.83422" lon="4.75241">
        <ele>288.2066</ele>
        <time>2023-06-14T18:19:18.000Z</time>
      </trkpt>
      <trkpt lat="45.83425" lon="4.75238">
        <ele>288.18594</ele>
        <time>2023-06-14T18:19:19.000Z</time>
      </trkpt>
      <trkpt lat="45.83428" lon="4.75236">
        <ele>288.1272</ele>
        <time>2023-06-14T18:19:20.000Z</time>
      </trkpt>
      <trkpt lat="45.83431" lon="4.75234">
        <ele>288.13092</ele>
        <time>2023-06-14T18:19:21.000Z</time>
      </trkpt>
      <trkpt lat="45.83437" lon="4.7523">
        <ele>288.13544</ele>
        <time>2023-06-14T18:19:22.000Z</time>
      </trkpt>
      <trkpt lat="45.83442" lon="4.75227">
        <ele>288.12802</ele>
        <time>2023-06-14T18:19:23.000Z</time>
      </trkpt>
      <trkpt lat="45.83446" lon="4.75224">
        <ele>288.0683</ele>
        <time>2023-06-14T18:19:24.000Z</time>
      </trkpt>
      <trkpt lat="45.83451" lon="4.75221">
        <ele>288.04196</ele>
        <time>2023-06-14T18:19:25.000Z</time>
      </trkpt>
      <trkpt lat="45.83455" lon="4.75219">
        <ele>288.04819</ele>
        <time>2023-06-14T18:19:26.000Z</time>
      </trkpt>
      <trkpt lat="45.83459" lon="4.75214">
        <ele>287.9845</ele>
        <time>2023-06-14T18:19:27.000Z</time>
      </trkpt>
      <trkpt lat="45.83467" lon="4.75211">
        <ele>287.94556</ele>
        <time>2023-06-14T18:19:28.000Z</time>
      </trkpt>
      <trkpt lat="45.83473" lon="4.75208">
        <ele>287.91925</ele>
        <time>2023-06-14T18:19:29.000Z</time>
      </trkpt>
      <trkpt lat="45.83481" lon="4.75208">
        <ele>287.91211</ele>
        <time>2023-06-14T18:19:30.000Z</time>
      </trkpt>
      <trkpt lat="45.83487" lon="4.75209">
        <ele>287.8692</ele>
        <time>2023-06-14T18:19:31.000Z</time>
      </trkpt>
      <trkpt lat="45.83494" lon="4.75206">
        <ele>287.7608</ele>
        <time>2023-06-14T18:19:32.000Z</time>
      </trkpt>
      <trkpt lat="45.83499" lon="4.75203">
        <ele>287.61447</ele>
        <time>2023-06-14T18:19:33.000Z</time>
      </trkpt>
      <trkpt lat="45.83504" lon="4.75202">
        <ele>287.47748</ele>
        <time>2023-06-14T18:19:34.000Z</time>
      </trkpt>
      <trkpt lat="45.83509" lon="4.75199">
        <ele>287.27625</ele>
        <time>2023-06-14T18:19:35.000Z</time>
      </trkpt>
      <trkpt lat="45.83514" lon="4.75197">
        <ele>287.08737</ele>
        <time>2023-06-14T18:19:36.000Z</time>
      </trkpt>
      <trkpt lat="45.83519" lon="4.75191">
        <ele>286.96991</ele>
        <time>2023-06-14T18:19:37.000Z</time>
      </trkpt>
      <trkpt lat="45.83525" lon="4.75187">
        <ele>286.83014</ele>
        <time>2023-06-14T18:19:38.000Z</time>
      </trkpt>
      <trkpt lat="45.83528" lon="4.75184">
        <ele>286.72037</ele>
        <time>2023-06-14T18:19:39.000Z</time>
      </trkpt>
      <trkpt lat="45.83531" lon="4.75181">
        <ele>286.66452</ele>
        <time>2023-06-14T18:19:40.000Z</time>
      </trkpt>
      <trkpt lat="45.83534" lon="4.75176">
        <ele>286.55264</ele>
        <time>2023-06-14T18:19:41.000Z</time>
      </trkpt>
      <trkpt lat="45.83535" lon="4.75173">
        <ele>286.46866</ele>
        <time>2023-06-14T18:19:42.000Z</time>
      </trkpt>
      <trkpt lat="45.83538" lon="4.7517">
        <ele>286.3139</ele>
        <time>2023-06-14T18:19:43.000Z</time>
      </trkpt>
      <trkpt lat="45.83541" lon="4.75167">
        <ele>287.10287</ele>
        <time>2023-06-14T18:19:44.000Z</time>
      </trkpt>
      <trkpt lat="45.83545" lon="4.75164">
        <ele>287.88458</ele>
        <time>2023-06-14T18:19:45.000Z</time>
      </trkpt>
      <trkpt lat="45.83548" lon="4.75159">
        <ele>288.6756</ele>
        <time>2023-06-14T18:19:46.000Z</time>
      </trkpt>
      <trkpt lat="45.83551" lon="4.75155">
        <ele>289.44196</ele>
        <time>2023-06-14T18:19:47.000Z</time>
      </trkpt>
      <trkpt lat="45.83554" lon="4.75151">
        <ele>290.21783</ele>
        <time>2023-06-14T18:19:48.000Z</time>
      </trkpt>
      <trkpt lat="45.83557" lon="4.75147">
        <ele>290.81708</ele>
        <time>2023-06-14T18:19:49.000Z</time>
      </trkpt>
      <trkpt lat="45.83562" lon="4.75142">
        <ele>291.43777</ele>
        <time>2023-06-14T18:19:50.000Z</time>
      </trkpt>
      <trkpt lat="45.83564" lon="4.75137">
        <ele>292.03989</ele>
        <time>2023-06-14T18:19:51.000Z</time>
      </trkpt>
      <trkpt lat="45.83568" lon="4.75132">
        <ele>292.6781</ele>
        <time>2023-06-14T18:19:52.000Z</time>
      </trkpt>
      <trkpt lat="45.83572" lon="4.75127">
        <ele>293.29999</ele>
        <time>2023-06-14T18:19:53.000Z</time>
      </trkpt>
      <trkpt lat="45.83576" lon="4.75121">
        <ele>293.29947</ele>
        <time>2023-06-14T18:19:54.000Z</time>
      </trkpt>
      <trkpt lat="45.83581" lon="4.75115">
        <ele>293.35196</ele>
        <time>2023-06-14T18:19:55.000Z</time>
      </trkpt>
      <trkpt lat="45.83586" lon="4.75107">
        <ele>293.42435</ele>
        <time>2023-06-14T18:19:56.000Z</time>
      </trkpt>
      <trkpt lat="45.8359" lon="4.75099">
        <ele>293.42679</ele>
        <time>2023-06-14T18:19:57.000Z</time>
      </trkpt>
      <trkpt lat="45.83596" lon="4.75092">
        <ele>293.42416</ele>
        <time>2023-06-14T18:19:58.000Z</time>
      </trkpt>
      <trkpt lat="45.83599" lon="4.75082">
        <ele>293.38538</ele>
        <time>2023-06-14T18:19:59.000Z</time>
      </trkpt>
      <trkpt lat="45.83603" lon="4.75072">
        <ele>293.30035</ele>
        <time>2023-06-14T18:20:00.000Z</time>
      </trkpt>
      <trkpt lat="45.83608" lon="4.75063">
        <ele>293.22382</ele>
        <time>2023-06-14T18:20:01.000Z</time>
      </trkpt>
      <trkpt lat="45.83614" lon="4.75055">
        <ele>293.09576</ele>
        <time>2023-06-14T18:20:02.000Z</time>
      </trkpt>
      <trkpt lat="45.83618" lon="4.75046">
        <ele>292.99203</ele>
        <time>2023-06-14T18:20:03.000Z</time>
      </trkpt>
      <trkpt lat="45.83623" lon="4.75041">
        <ele>291.96188</ele>
        <time>2023-06-14T18:20:04.000Z</time>
      </trkpt>
      <trkpt lat="45.83626" lon="4.75035">
        <ele>290.93362</ele>
        <time>2023-06-14T18:20:05.000Z</time>
      </trkpt>
      <trkpt lat="45.83629" lon="4.75027">
        <ele>289.90546</ele>
        <time>2023-06-14T18:20:06.000Z</time>
      </trkpt>
      <trkpt lat="45.83632" lon="4.7502">
        <ele>288.92679</ele>
        <time>2023-06-14T18:20:07.000Z</time>
      </trkpt>
      <trkpt lat="45.83634" lon="4.75013">
        <ele>287.93597</ele>
        <time>2023-06-14T18:20:08.000Z</time>
      </trkpt>
      <trkpt lat="45.83635" lon="4.75006">
        <ele>287.11621</ele>
        <time>2023-06-14T18:20:09.000Z</time>
      </trkpt>
      <trkpt lat="45.83636" lon="4.74999">
        <ele>286.2951</ele>
        <time>2023-06-14T18:20:10.000Z</time>
      </trkpt>
      <trkpt lat="45.83636" lon="4.74992">
        <ele>285.52765</ele>
        <time>2023-06-14T18:20:11.000Z</time>
      </trkpt>
      <trkpt lat="45.83638" lon="4.74987">
        <ele>284.75528</ele>
        <time>2023-06-14T18:20:12.000Z</time>
      </trkpt>
      <trkpt lat="45.83639" lon="4.7498">
        <ele>284.06061</ele>
        <time>2023-06-14T18:20:13.000Z</time>
      </trkpt>
      <trkpt lat="45.8364" lon="4.74974">
        <ele>283.96112</ele>
        <time>2023-06-14T18:20:14.000Z</time>
      </trkpt>
      <trkpt lat="45.83642" lon="4.74967">
        <ele>283.90338</ele>
        <time>2023-06-14T18:20:15.000Z</time>
      </trkpt>
      <trkpt lat="45.83644" lon="4.74961">
        <ele>283.86841</ele>
        <time>2023-06-14T18:20:16.000Z</time>
      </trkpt>
      <trkpt lat="45.83647" lon="4.74953">
        <ele>283.86847</ele>
        <time>2023-06-14T18:20:17.000Z</time>
      </trkpt>
      <trkpt lat="45.83651" lon="4.74946">
        <ele>283.91989</ele>
        <time>2023-06-14T18:20:18.000Z</time>
      </trkpt>
      <trkpt lat="45.83653" lon="4.74939">
        <ele>284.01846</ele>
        <time>2023-06-14T18:20:19.000Z</time>
      </trkpt>
      <trkpt lat="45.83655" lon="4.7493">
        <ele>284.14911</ele>
        <time>2023-06-14T18:20:20.000Z</time>
      </trkpt>
      <trkpt lat="45.83657" lon="4.74922">
        <ele>284.27896</ele>
        <time>2023-06-14T18:20:21.000Z</time>
      </trkpt>
      <trkpt lat="45.83659" lon="4.74915">
        <ele>284.44791</ele>
        <time>2023-06-14T18:20:22.000Z</time>
      </trkpt>
      <trkpt lat="45.83661" lon="4.74907">
        <ele>284.57721</ele>
        <time>2023-06-14T18:20:23.000Z</time>
      </trkpt>
      <trkpt lat="45.83666" lon="4.74899">
        <ele>284.71329</ele>
        <time>2023-06-14T18:20:24.000Z</time>
      </trkpt>
      <trkpt lat="45.8367" lon="4.74891">
        <ele>284.82004</ele>
        <time>2023-06-14T18:20:25.000Z</time>
      </trkpt>
      <trkpt lat="45.83675" lon="4.74884">
        <ele>284.89572</ele>
        <time>2023-06-14T18:20:26.000Z</time>
      </trkpt>
      <trkpt lat="45.8368" lon="4.74879">
        <ele>284.97836</ele>
        <time>2023-06-14T18:20:27.000Z</time>
      </trkpt>
      <trkpt lat="45.83685" lon="4.74874">
        <ele>285.06689</ele>
        <time>2023-06-14T18:20:28.000Z</time>
      </trkpt>
      <trkpt lat="45.83692" lon="4.74868">
        <ele>285.14539</ele>
        <time>2023-06-14T18:20:29.000Z</time>
      </trkpt>
      <trkpt lat="45.83697" lon="4.74864">
        <ele>285.19415</ele>
        <time>2023-06-14T18:20:30.000Z</time>
      </trkpt>
      <trkpt lat="45.83704" lon="4.7486">
        <ele>285.18961</ele>
        <time>2023-06-14T18:20:31.000Z</time>
      </trkpt>
      <trkpt lat="45.8371" lon="4.74855">
        <ele>285.2041</ele>
        <time>2023-06-14T18:20:32.000Z</time>
      </trkpt>
      <trkpt lat="45.83716" lon="4.74851">
        <ele>285.18781</ele>
        <time>2023-06-14T18:20:33.000Z</time>
      </trkpt>
      <trkpt lat="45.83721" lon="4.74848">
        <ele>285.13531</ele>
        <time>2023-06-14T18:20:34.000Z</time>
      </trkpt>
      <trkpt lat="45.83728" lon="4.74843">
        <ele>285.01379</ele>
        <time>2023-06-14T18:20:35.000Z</time>
      </trkpt>
      <trkpt lat="45.83735" lon="4.74839">
        <ele>284.89233</ele>
        <time>2023-06-14T18:20:36.000Z</time>
      </trkpt>
      <trkpt lat="45.83741" lon="4.74833">
        <ele>284.78784</ele>
        <time>2023-06-14T18:20:37.000Z</time>
      </trkpt>
      <trkpt lat="45.83747" lon="4.7483">
        <ele>284.6427</ele>
        <time>2023-06-14T18:20:38.000Z</time>
      </trkpt>
      <trkpt lat="45.83753" lon="4.74826">
        <ele>284.48035</ele>
        <time>2023-06-14T18:20:39.000Z</time>
      </trkpt>
      <trkpt lat="45.83757" lon="4.74823">
        <ele>284.30331</ele>
        <time>2023-06-14T18:20:40.000Z</time>
      </trkpt>
      <trkpt lat="45.83761" lon="4.74813">
        <ele>284.17719</ele>
        <time>2023-06-14T18:20:41.000Z</time>
      </trkpt>
      <trkpt lat="45.83765" lon="4.74804">
        <ele>284.03851</ele>
        <time>2023-06-14T18:20:42.000Z</time>
      </trkpt>
      <trkpt lat="45.83768" lon="4.74796">
        <ele>283.94287</ele>
        <time>2023-06-14T18:20:43.000Z</time>
      </trkpt>
      <trkpt lat="45.83772" lon="4.74788">
        <ele>283.83771</ele>
        <time>2023-06-14T18:20:44.000Z</time>
      </trkpt>
      <trkpt lat="45.83775" lon="4.74782">
        <ele>283.76096</ele>
        <time>2023-06-14T18:20:45.000Z</time>
      </trkpt>
      <trkpt lat="45.83778" lon="4.74774">
        <ele>283.69611</ele>
        <time>2023-06-14T18:20:46.000Z</time>
      </trkpt>
      <trkpt lat="45.83782" lon="4.74766">
        <ele>283.60748</ele>
        <time>2023-06-14T18:20:47.000Z</time>
      </trkpt>
      <trkpt lat="45.83786" lon="4.74759">
        <ele>283.52106</ele>
        <time>2023-06-14T18:20:48.000Z</time>
      </trkpt>
      <trkpt lat="45.83791" lon="4.74752">
        <ele>283.43652</ele>
        <time>2023-06-14T18:20:49.000Z</time>
      </trkpt>
      <trkpt lat="45.83795" lon="4.74746">
        <ele>283.3801</ele>
        <time>2023-06-14T18:20:50.000Z</time>
      </trkpt>
      <trkpt lat="45.83801" lon="4.74741">
        <ele>283.34085</ele>
        <time>2023-06-14T18:20:51.000Z</time>
      </trkpt>
      <trkpt lat="45.83805" lon="4.74736">
        <ele>283.36163</ele>
        <time>2023-06-14T18:20:52.000Z</time>
      </trkpt>
      <trkpt lat="45.83811" lon="4.74731">
        <ele>283.37061</ele>
        <time>2023-06-14T18:20:53.000Z</time>
      </trkpt>
      <trkpt lat="45.83819" lon="4.74726">
        <ele>283.33331</ele>
        <time>2023-06-14T18:20:54.000Z</time>
      </trkpt>
      <trkpt lat="45.83826" lon="4.74723">
        <ele>283.33929</ele>
        <time>2023-06-14T18:20:55.000Z</time>
      </trkpt>
      <trkpt lat="45.83834" lon="4.74718">
        <ele>283.30887</ele>
        <time>2023-06-14T18:20:56.000Z</time>
      </trkpt>
      <trkpt lat="45.83841" lon="4.74712">
        <ele>283.1983</ele>
        <time>2023-06-14T18:20:57.000Z</time>
      </trkpt>
      <trkpt lat="45.83846" lon="4.74704">
        <ele>283.09937</ele>
        <time>2023-06-14T18:20:58.000Z</time>
      </trkpt>
      <trkpt lat="45.83853" lon="4.74697">
        <ele>282.95627</ele>
        <time>2023-06-14T18:20:59.000Z</time>
      </trkpt>
      <trkpt lat="45.83857" lon="4.74685">
        <ele>282.80405</ele>
        <time>2023-06-14T18:21:00.000Z</time>
      </trkpt>
      <trkpt lat="45.83861" lon="4.74676">
        <ele>282.59604</ele>
        <time>2023-06-14T18:21:01.000Z</time>
      </trkpt>
      <trkpt lat="45.83866" lon="4.74665">
        <ele>282.37665</ele>
        <time>2023-06-14T18:21:02.000Z</time>
      </trkpt>
      <trkpt lat="45.83872" lon="4.74657">
        <ele>282.08566</ele>
        <time>2023-06-14T18:21:03.000Z</time>
      </trkpt>
      <trkpt lat="45.83879" lon="4.74648">
        <ele>281.7984</ele>
        <time>2023-06-14T18:21:04.000Z</time>
      </trkpt>
      <trkpt lat="45.83885" lon="4.74641">
        <ele>281.47818</ele>
        <time>2023-06-14T18:21:05.000Z</time>
      </trkpt>
      <trkpt lat="45.83891" lon="4.74632">
        <ele>281.47244</ele>
        <time>2023-06-14T18:21:06.000Z</time>
      </trkpt>
      <trkpt lat="45.83896" lon="4.74622">
        <ele>281.44775</ele>
        <time>2023-06-14T18:21:07.000Z</time>
      </trkpt>
      <trkpt lat="45.83901" lon="4.74612">
        <ele>281.42496</ele>
        <time>2023-06-14T18:21:08.000Z</time>
      </trkpt>
      <trkpt lat="45.83903" lon="4.74601">
        <ele>281.43634</ele>
        <time>2023-06-14T18:21:09.000Z</time>
      </trkpt>
      <trkpt lat="45.83905" lon="4.74591">
        <ele>281.38046</ele>
        <time>2023-06-14T18:21:10.000Z</time>
      </trkpt>
      <trkpt lat="45.83906" lon="4.74581">
        <ele>281.29309</ele>
        <time>2023-06-14T18:21:11.000Z</time>
      </trkpt>
      <trkpt lat="45.83905" lon="4.74573">
        <ele>281.11115</ele>
        <time>2023-06-14T18:21:12.000Z</time>
      </trkpt>
      <trkpt lat="45.83901" lon="4.74566">
        <ele>281.13864</ele>
        <time>2023-06-14T18:21:13.000Z</time>
      </trkpt>
      <trkpt lat="45.839" lon="4.74557">
        <ele>281.27374</ele>
        <time>2023-06-14T18:21:14.000Z</time>
      </trkpt>
      <trkpt lat="45.83899" lon="4.74547">
        <ele>281.29254</ele>
        <time>2023-06-14T18:21:15.000Z</time>
      </trkpt>
      <trkpt lat="45.83899" lon="4.74537">
        <ele>281.32898</ele>
        <time>2023-06-14T18:21:16.000Z</time>
      </trkpt>
      <trkpt lat="45.839" lon="4.74527">
        <ele>281.40964</ele>
        <time>2023-06-14T18:21:17.000Z</time>
      </trkpt>
      <trkpt lat="45.839" lon="4.74517">
        <ele>281.47684</ele>
        <time>2023-06-14T18:21:18.000Z</time>
      </trkpt>
      <trkpt lat="45.83901" lon="4.74508">
        <ele>281.59277</ele>
        <time>2023-06-14T18:21:19.000Z</time>
      </trkpt>
      <trkpt lat="45.83905" lon="4.74497">
        <ele>281.74222</ele>
        <time>2023-06-14T18:21:20.000Z</time>
      </trkpt>
      <trkpt lat="45.83908" lon="4.74487">
        <ele>281.92276</ele>
        <time>2023-06-14T18:21:21.000Z</time>
      </trkpt>
      <trkpt lat="45.83911" lon="4.74478">
        <ele>282.12128</ele>
        <time>2023-06-14T18:21:22.000Z</time>
      </trkpt>
      <trkpt lat="45.83914" lon="4.74471">
        <ele>282.55444</ele>
        <time>2023-06-14T18:21:23.000Z</time>
      </trkpt>
      <trkpt lat="45.83917" lon="4.74462">
        <ele>283.08698</ele>
        <time>2023-06-14T18:21:24.000Z</time>
      </trkpt>
      <trkpt lat="45.83921" lon="4.74454">
        <ele>283.35342</ele>
        <time>2023-06-14T18:21:25.000Z</time>
      </trkpt>
      <trkpt lat="45.83924" lon="4.74445">
        <ele>283.38361</ele>
        <time>2023-06-14T18:21:26.000Z</time>
      </trkpt>
      <trkpt lat="45.83928" lon="4.74437">
        <ele>283.42648</ele>
        <time>2023-06-14T18:21:27.000Z</time>
      </trkpt>
      <trkpt lat="45.83932" lon="4.74429">
        <ele>283.4502</ele>
        <time>2023-06-14T18:21:28.000Z</time>
      </trkpt>
      <trkpt lat="45.83935" lon="4.7442">
        <ele>283.47968</ele>
        <time>2023-06-14T18:21:29.000Z</time>
      </trkpt>
      <trkpt lat="45.83937" lon="4.74411">
        <ele>283.54874</ele>
        <time>2023-06-14T18:21:30.000Z</time>
      </trkpt>
      <trkpt lat="45.83939" lon="4.74402">
        <ele>283.6676</ele>
        <time>2023-06-14T18:21:31.000Z</time>
      </trkpt>
      <trkpt lat="45.83942" lon="4.74395">
        <ele>283.79794</ele>
        <time>2023-06-14T18:21:32.000Z</time>
      </trkpt>
      <trkpt lat="45.83943" lon="4.74386">
        <ele>283.76413</ele>
        <time>2023-06-14T18:21:33.000Z</time>
      </trkpt>
      <trkpt lat="45.83945" lon="4.74381">
        <ele>283.62836</ele>
        <time>2023-06-14T18:21:34.000Z</time>
      </trkpt>
      <trkpt lat="45.83947" lon="4.74375">
        <ele>283.57944</ele>
        <time>2023-06-14T18:21:35.000Z</time>
      </trkpt>
      <trkpt lat="45.83947" lon="4.74369">
        <ele>283.56729</ele>
        <time>2023-06-14T18:21:36.000Z</time>
      </trkpt>
      <trkpt lat="45.83947" lon="4.74363">
        <ele>283.64566</ele>
        <time>2023-06-14T18:21:37.000Z</time>
      </trkpt>
      <trkpt lat="45.83947" lon="4.74354">
        <ele>283.69598</ele>
        <time>2023-06-14T18:21:38.000Z</time>
      </trkpt>
      <trkpt lat="45.83947" lon="4.74345">
        <ele>283.65918</ele>
        <time>2023-06-14T18:21:39.000Z</time>
      </trkpt>
      <trkpt lat="45.83947" lon="4.74336">
        <ele>283.62994</ele>
        <time>2023-06-14T18:21:40.000Z</time>
      </trkpt>
      <trkpt lat="45.83947" lon="4.74327">
        <ele>283.67203</ele>
        <time>2023-06-14T18:21:41.000Z</time>
      </trkpt>
      <trkpt lat="45.83946" lon="4.74318">
        <ele>283.76297</ele>
        <time>2023-06-14T18:21:42.000Z</time>
      </trkpt>
      <trkpt lat="45.83946" lon="4.7431">
        <ele>283.76913</ele>
        <time>2023-06-14T18:21:43.000Z</time>
      </trkpt>
      <trkpt lat="45.83948" lon="4.74305">
        <ele>283.35477</ele>
        <time>2023-06-14T18:21:44.000Z</time>
      </trkpt>
      <trkpt lat="45.83948" lon="4.74298">
        <ele>283.40192</ele>
        <time>2023-06-14T18:21:45.000Z</time>
      </trkpt>
      <trkpt lat="45.8395" lon="4.74296">
        <ele>283.39771</ele>
        <time>2023-06-14T18:21:46.000Z</time>
      </trkpt>
      <trkpt lat="45.83953" lon="4.74294">
        <ele>283.40329</ele>
        <time>2023-06-14T18:21:47.000Z</time>
      </trkpt>
      <trkpt lat="45.83955" lon="4.74293">
        <ele>283.61151</ele>
        <time>2023-06-14T18:21:49.000Z</time>
      </trkpt>
      <trkpt lat="45.83958" lon="4.74292">
        <ele>283.86383</ele>
        <time>2023-06-14T18:21:50.000Z</time>
      </trkpt>
      <trkpt lat="45.83957" lon="4.74287">
        <ele>284.10126</ele>
        <time>2023-06-14T18:21:51.000Z</time>
      </trkpt>
      <trkpt lat="45.83959" lon="4.74282">
        <ele>284.43872</ele>
        <time>2023-06-14T18:21:52.000Z</time>
      </trkpt>
      <trkpt lat="45.83959" lon="4.74277">
        <ele>284.84329</ele>
        <time>2023-06-14T18:21:53.000Z</time>
      </trkpt>
      <trkpt lat="45.83959" lon="4.74272">
        <ele>285.21274</ele>
        <time>2023-06-14T18:21:54.000Z</time>
      </trkpt>
      <trkpt lat="45.8396" lon="4.74268">
        <ele>285.64136</ele>
        <time>2023-06-14T18:21:55.000Z</time>
      </trkpt>
      <trkpt lat="45.8396" lon="4.74262">
        <ele>286.0986</ele>
        <time>2023-06-14T18:21:56.000Z</time>
      </trkpt>
      <trkpt lat="45.83961" lon="4.74257">
        <ele>286.72107</ele>
        <time>2023-06-14T18:21:57.000Z</time>
      </trkpt>
      <trkpt lat="45.83962" lon="4.74252">
        <ele>287.38309</ele>
        <time>2023-06-14T18:21:58.000Z</time>
      </trkpt>
      <trkpt lat="45.83963" lon="4.74247">
        <ele>287.68106</ele>
        <time>2023-06-14T18:21:59.000Z</time>
      </trkpt>
      <trkpt lat="45.83965" lon="4.74242">
        <ele>288.18329</ele>
        <time>2023-06-14T18:22:00.000Z</time>
      </trkpt>
      <trkpt lat="45.83966" lon="4.74236">
        <ele>288.64838</ele>
        <time>2023-06-14T18:22:01.000Z</time>
      </trkpt>
      <trkpt lat="45.83968" lon="4.7423">
        <ele>288.94781</ele>
        <time>2023-06-14T18:22:02.000Z</time>
      </trkpt>
      <trkpt lat="45.83969" lon="4.74221">
        <ele>289.13892</ele>
        <time>2023-06-14T18:22:03.000Z</time>
      </trkpt>
      <trkpt lat="45.8397" lon="4.74215">
        <ele>289.22726</ele>
        <time>2023-06-14T18:22:04.000Z</time>
      </trkpt>
      <trkpt lat="45.8397" lon="4.74211">
        <ele>289.68787</ele>
        <time>2023-06-14T18:22:05.000Z</time>
      </trkpt>
      <trkpt lat="45.83973" lon="4.74205">
        <ele>290.21698</ele>
        <time>2023-06-14T18:22:06.000Z</time>
      </trkpt>
      <trkpt lat="45.83973" lon="4.74201">
        <ele>290.66406</ele>
        <time>2023-06-14T18:22:07.000Z</time>
      </trkpt>
      <trkpt lat="45.83974" lon="4.74194">
        <ele>291.07855</ele>
        <time>2023-06-14T18:22:08.000Z</time>
      </trkpt>
      <trkpt lat="45.83975" lon="4.74188">
        <ele>291.32574</ele>
        <time>2023-06-14T18:22:09.000Z</time>
      </trkpt>
      <trkpt lat="45.83976" lon="4.74181">
        <ele>291.50458</ele>
        <time>2023-06-14T18:22:10.000Z</time>
      </trkpt>
      <trkpt lat="45.83978" lon="4.74174">
        <ele>291.61639</ele>
        <time>2023-06-14T18:22:11.000Z</time>
      </trkpt>
      <trkpt lat="45.83979" lon="4.74167">
        <ele>291.54193</ele>
        <time>2023-06-14T18:22:12.000Z</time>
      </trkpt>
      <trkpt lat="45.83981" lon="4.7416">
        <ele>291.44003</ele>
        <time>2023-06-14T18:22:13.000Z</time>
      </trkpt>
      <trkpt lat="45.83983" lon="4.74153">
        <ele>291.50031</ele>
        <time>2023-06-14T18:22:14.000Z</time>
      </trkpt>
      <trkpt lat="45.83985" lon="4.74146">
        <ele>291.0961</ele>
        <time>2023-06-14T18:22:15.000Z</time>
      </trkpt>
      <trkpt lat="45.83987" lon="4.7414">
        <ele>290.62469</ele>
        <time>2023-06-14T18:22:16.000Z</time>
      </trkpt>
      <trkpt lat="45.8399" lon="4.74134">
        <ele>289.99753</ele>
        <time>2023-06-14T18:22:17.000Z</time>
      </trkpt>
      <trkpt lat="45.83994" lon="4.74128">
        <ele>289.24542</ele>
        <time>2023-06-14T18:22:18.000Z</time>
      </trkpt>
      <trkpt lat="45.83999" lon="4.74123">
        <ele>289.0661</ele>
        <time>2023-06-14T18:22:19.000Z</time>
      </trkpt>
      <trkpt lat="45.84003" lon="4.74119">
        <ele>288.71152</ele>
        <time>2023-06-14T18:22:20.000Z</time>
      </trkpt>
      <trkpt lat="45.84008" lon="4.74115">
        <ele>288.34854</ele>
        <time>2023-06-14T18:22:21.000Z</time>
      </trkpt>
      <trkpt lat="45.84012" lon="4.7411">
        <ele>288.22272</ele>
        <time>2023-06-14T18:22:22.000Z</time>
      </trkpt>
      <trkpt lat="45.84015" lon="4.74104">
        <ele>288.45282</ele>
        <time>2023-06-14T18:22:23.000Z</time>
      </trkpt>
      <trkpt lat="45.84018" lon="4.74098">
        <ele>288.1543</ele>
        <time>2023-06-14T18:22:24.000Z</time>
      </trkpt>
      <trkpt lat="45.84021" lon="4.74093">
        <ele>287.96793</ele>
        <time>2023-06-14T18:22:25.000Z</time>
      </trkpt>
      <trkpt lat="45.84023" lon="4.74087">
        <ele>287.61667</ele>
        <time>2023-06-14T18:22:26.000Z</time>
      </trkpt>
      <trkpt lat="45.84028" lon="4.7408">
        <ele>287.23172</ele>
        <time>2023-06-14T18:22:27.000Z</time>
      </trkpt>
      <trkpt lat="45.84029" lon="4.74072">
        <ele>286.85458</ele>
        <time>2023-06-14T18:22:28.000Z</time>
      </trkpt>
      <trkpt lat="45.8403" lon="4.74066">
        <ele>286.53226</ele>
        <time>2023-06-14T18:22:29.000Z</time>
      </trkpt>
      <trkpt lat="45.84032" lon="4.74059">
        <ele>286.36472</ele>
        <time>2023-06-14T18:22:30.000Z</time>
      </trkpt>
      <trkpt lat="45.84035" lon="4.74053">
        <ele>286.25717</ele>
        <time>2023-06-14T18:22:31.000Z</time>
      </trkpt>
      <trkpt lat="45.84039" lon="4.74046">
        <ele>286.1767</ele>
        <time>2023-06-14T18:22:32.000Z</time>
      </trkpt>
      <trkpt lat="45.84042" lon="4.7404">
        <ele>286.0946</ele>
        <time>2023-06-14T18:22:33.000Z</time>
      </trkpt>
      <trkpt lat="45.84046" lon="4.74034">
        <ele>285.8074</ele>
        <time>2023-06-14T18:22:34.000Z</time>
      </trkpt>
      <trkpt lat="45.8405" lon="4.74027">
        <ele>285.48849</ele>
        <time>2023-06-14T18:22:35.000Z</time>
      </trkpt>
      <trkpt lat="45.84053" lon="4.7402">
        <ele>285.20337</ele>
        <time>2023-06-14T18:22:36.000Z</time>
      </trkpt>
      <trkpt lat="45.84056" lon="4.74013">
        <ele>284.95132</ele>
        <time>2023-06-14T18:22:37.000Z</time>
      </trkpt>
      <trkpt lat="45.84059" lon="4.74006">
        <ele>284.70779</ele>
        <time>2023-06-14T18:22:38.000Z</time>
      </trkpt>
      <trkpt lat="45.84063" lon="4.73999">
        <ele>284.27637</ele>
        <time>2023-06-14T18:22:39.000Z</time>
      </trkpt>
      <trkpt lat="45.84067" lon="4.73992">
        <ele>283.88452</ele>
        <time>2023-06-14T18:22:40.000Z</time>
      </trkpt>
      <trkpt lat="45.8407" lon="4.73986">
        <ele>283.49603</ele>
        <time>2023-06-14T18:22:41.000Z</time>
      </trkpt>
      <trkpt lat="45.84074" lon="4.7398">
        <ele>282.87701</ele>
        <time>2023-06-14T18:22:42.000Z</time>
      </trkpt>
      <trkpt lat="45.84078" lon="4.73974">
        <ele>281.95825</ele>
        <time>2023-06-14T18:22:43.000Z</time>
      </trkpt>
      <trkpt lat="45.84082" lon="4.73969">
        <ele>281.58386</ele>
        <time>2023-06-14T18:22:44.000Z</time>
      </trkpt>
      <trkpt lat="45.84086" lon="4.73965">
        <ele>281.09198</ele>
        <time>2023-06-14T18:22:45.000Z</time>
      </trkpt>
      <trkpt lat="45.8409" lon="4.73961">
        <ele>280.55325</ele>
        <time>2023-06-14T18:22:46.000Z</time>
      </trkpt>
      <trkpt lat="45.84093" lon="4.73956">
        <ele>280.16443</ele>
        <time>2023-06-14T18:22:47.000Z</time>
      </trkpt>
      <trkpt lat="45.84097" lon="4.73956">
        <ele>279.77029</ele>
        <time>2023-06-14T18:22:48.000Z</time>
      </trkpt>
      <trkpt lat="45.84098" lon="4.73952">
        <ele>279.31512</ele>
        <time>2023-06-14T18:22:49.000Z</time>
      </trkpt>
      <trkpt lat="45.84101" lon="4.73947">
        <ele>278.68524</ele>
        <time>2023-06-14T18:22:50.000Z</time>
      </trkpt>
      <trkpt lat="45.84103" lon="4.7394">
        <ele>278.09433</ele>
        <time>2023-06-14T18:22:51.000Z</time>
      </trkpt>
      <trkpt lat="45.84106" lon="4.73935">
        <ele>277.52213</ele>
        <time>2023-06-14T18:22:52.000Z</time>
      </trkpt>
      <trkpt lat="45.84109" lon="4.73928">
        <ele>276.94391</ele>
        <time>2023-06-14T18:22:53.000Z</time>
      </trkpt>
      <trkpt lat="45.84113" lon="4.73922">
        <ele>276.38983</ele>
        <time>2023-06-14T18:22:54.000Z</time>
      </trkpt>
      <trkpt lat="45.84118" lon="4.73916">
        <ele>276.23236</ele>
        <time>2023-06-14T18:22:55.000Z</time>
      </trkpt>
      <trkpt lat="45.84122" lon="4.73909">
        <ele>276.10602</ele>
        <time>2023-06-14T18:22:56.000Z</time>
      </trkpt>
      <trkpt lat="45.84126" lon="4.73902">
        <ele>275.84412</ele>
        <time>2023-06-14T18:22:57.000Z</time>
      </trkpt>
      <trkpt lat="45.8413" lon="4.73895">
        <ele>275.56918</ele>
        <time>2023-06-14T18:22:58.000Z</time>
      </trkpt>
      <trkpt lat="45.84134" lon="4.73889">
        <ele>275.34283</ele>
        <time>2023-06-14T18:22:59.000Z</time>
      </trkpt>
      <trkpt lat="45.84138" lon="4.73884">
        <ele>275.0827</ele>
        <time>2023-06-14T18:23:00.000Z</time>
      </trkpt>
      <trkpt lat="45.84142" lon="4.73877">
        <ele>274.8732</ele>
        <time>2023-06-14T18:23:01.000Z</time>
      </trkpt>
      <trkpt lat="45.84147" lon="4.73871">
        <ele>274.79996</ele>
        <time>2023-06-14T18:23:02.000Z</time>
      </trkpt>
      <trkpt lat="45.84151" lon="4.73865">
        <ele>274.72552</ele>
        <time>2023-06-14T18:23:03.000Z</time>
      </trkpt>
      <trkpt lat="45.84156" lon="4.73862">
        <ele>274.69388</ele>
        <time>2023-06-14T18:23:04.000Z</time>
      </trkpt>
      <trkpt lat="45.84161" lon="4.73857">
        <ele>274.57062</ele>
        <time>2023-06-14T18:23:05.000Z</time>
      </trkpt>
      <trkpt lat="45.84166" lon="4.73852">
        <ele>274.43011</ele>
        <time>2023-06-14T18:23:06.000Z</time>
      </trkpt>
      <trkpt lat="45.8417" lon="4.73847">
        <ele>274.23517</ele>
        <time>2023-06-14T18:23:07.000Z</time>
      </trkpt>
      <trkpt lat="45.84172" lon="4.73843">
        <ele>274.00006</ele>
        <time>2023-06-14T18:23:08.000Z</time>
      </trkpt>
      <trkpt lat="45.84171" lon="4.73838">
        <ele>273.73212</ele>
        <time>2023-06-14T18:23:09.000Z</time>
      </trkpt>
      <trkpt lat="45.84168" lon="4.73833">
        <ele>273.33847</ele>
        <time>2023-06-14T18:23:10.000Z</time>
      </trkpt>
      <trkpt lat="45.84166" lon="4.73831">
        <ele>272.87692</ele>
        <time>2023-06-14T18:23:11.000Z</time>
      </trkpt>
      <trkpt lat="45.84161" lon="4.73828">
        <ele>272.44855</ele>
        <time>2023-06-14T18:23:12.000Z</time>
      </trkpt>
      <trkpt lat="45.84157" lon="4.73825">
        <ele>272.07114</ele>
        <time>2023-06-14T18:23:13.000Z</time>
      </trkpt>
      <trkpt lat="45.84153" lon="4.73824">
        <ele>271.66556</ele>
        <time>2023-06-14T18:23:14.000Z</time>
      </trkpt>
      <trkpt lat="45.84148" lon="4.73822">
        <ele>271.36099</ele>
        <time>2023-06-14T18:23:15.000Z</time>
      </trkpt>
      <trkpt lat="45.84143" lon="4.73819">
        <ele>271.03415</ele>
        <time>2023-06-14T18:23:16.000Z</time>
      </trkpt>
      <trkpt lat="45.84138" lon="4.73817">
        <ele>270.81387</ele>
        <time>2023-06-14T18:23:17.000Z</time>
      </trkpt>
      <trkpt lat="45.84133" lon="4.73817">
        <ele>270.62375</ele>
        <time>2023-06-14T18:23:18.000Z</time>
      </trkpt>
      <trkpt lat="45.84128" lon="4.73815">
        <ele>270.40381</ele>
        <time>2023-06-14T18:23:19.000Z</time>
      </trkpt>
      <trkpt lat="45.84122" lon="4.73815">
        <ele>270.23727</ele>
        <time>2023-06-14T18:23:20.000Z</time>
      </trkpt>
      <trkpt lat="45.84117" lon="4.73813">
        <ele>269.97733</ele>
        <time>2023-06-14T18:23:21.000Z</time>
      </trkpt>
      <trkpt lat="45.84111" lon="4.73814">
        <ele>269.65558</ele>
        <time>2023-06-14T18:23:22.000Z</time>
      </trkpt>
      <trkpt lat="45.84105" lon="4.73815">
        <ele>269.30719</ele>
        <time>2023-06-14T18:23:23.000Z</time>
      </trkpt>
      <trkpt lat="45.841" lon="4.73818">
        <ele>268.94061</ele>
        <time>2023-06-14T18:23:24.000Z</time>
      </trkpt>
      <trkpt lat="45.84095" lon="4.73819">
        <ele>268.60196</ele>
        <time>2023-06-14T18:23:25.000Z</time>
      </trkpt>
      <trkpt lat="45.84089" lon="4.73822">
        <ele>268.25287</ele>
        <time>2023-06-14T18:23:26.000Z</time>
      </trkpt>
      <trkpt lat="45.84083" lon="4.73823">
        <ele>267.9108</ele>
        <time>2023-06-14T18:23:27.000Z</time>
      </trkpt>
      <trkpt lat="45.84077" lon="4.73825">
        <ele>267.63275</ele>
        <time>2023-06-14T18:23:28.000Z</time>
      </trkpt>
      <trkpt lat="45.84072" lon="4.73826">
        <ele>267.38095</ele>
        <time>2023-06-14T18:23:29.000Z</time>
      </trkpt>
      <trkpt lat="45.84067" lon="4.73829">
        <ele>267.31403</ele>
        <time>2023-06-14T18:23:30.000Z</time>
      </trkpt>
      <trkpt lat="45.84061" lon="4.73831">
        <ele>267.30334</ele>
        <time>2023-06-14T18:23:31.000Z</time>
      </trkpt>
      <trkpt lat="45.84055" lon="4.73833">
        <ele>267.27029</ele>
        <time>2023-06-14T18:23:32.000Z</time>
      </trkpt>
      <trkpt lat="45.84049" lon="4.73836">
        <ele>267.2291</ele>
        <time>2023-06-14T18:23:33.000Z</time>
      </trkpt>
      <trkpt lat="45.84043" lon="4.73837">
        <ele>267.28595</ele>
        <time>2023-06-14T18:23:34.000Z</time>
      </trkpt>
      <trkpt lat="45.84037" lon="4.73839">
        <ele>267.34268</ele>
        <time>2023-06-14T18:23:35.000Z</time>
      </trkpt>
      <trkpt lat="45.84031" lon="4.73841">
        <ele>267.39578</ele>
        <time>2023-06-14T18:23:36.000Z</time>
      </trkpt>
      <trkpt lat="45.84026" lon="4.73842">
        <ele>267.39801</ele>
        <time>2023-06-14T18:23:37.000Z</time>
      </trkpt>
      <trkpt lat="45.84021" lon="4.73843">
        <ele>267.41083</ele>
        <time>2023-06-14T18:23:38.000Z</time>
      </trkpt>
      <trkpt lat="45.84016" lon="4.73845">
        <ele>267.45563</ele>
        <time>2023-06-14T18:23:39.000Z</time>
      </trkpt>
      <trkpt lat="45.84013" lon="4.73845">
        <ele>267.47144</ele>
        <time>2023-06-14T18:23:40.000Z</time>
      </trkpt>
      <trkpt lat="45.84009" lon="4.73844">
        <ele>267.52716</ele>
        <time>2023-06-14T18:23:41.000Z</time>
      </trkpt>
      <trkpt lat="45.84003" lon="4.73844">
        <ele>267.57755</ele>
        <time>2023-06-14T18:23:42.000Z</time>
      </trkpt>
      <trkpt lat="45.83998" lon="4.73841">
        <ele>267.65967</ele>
        <time>2023-06-14T18:23:43.000Z</time>
      </trkpt>
      <trkpt lat="45.83994" lon="4.7384">
        <ele>267.73471</ele>
        <time>2023-06-14T18:23:44.000Z</time>
      </trkpt>
      <trkpt lat="45.83988" lon="4.73833">
        <ele>267.87207</ele>
        <time>2023-06-14T18:23:45.000Z</time>
      </trkpt>
      <trkpt lat="45.83983" lon="4.73827">
        <ele>268.12631</ele>
        <time>2023-06-14T18:23:46.000Z</time>
      </trkpt>
      <trkpt lat="45.83977" lon="4.73821">
        <ele>268.46164</ele>
        <time>2023-06-14T18:23:47.000Z</time>
      </trkpt>
      <trkpt lat="45.83969" lon="4.73816">
        <ele>269.19815</ele>
        <time>2023-06-14T18:23:48.000Z</time>
      </trkpt>
      <trkpt lat="45.83964" lon="4.73814">
        <ele>269.90955</ele>
        <time>2023-06-14T18:23:49.000Z</time>
      </trkpt>
      <trkpt lat="45.83961" lon="4.73812">
        <ele>270.53177</ele>
        <time>2023-06-14T18:23:50.000Z</time>
      </trkpt>
      <trkpt lat="45.83957" lon="4.73808">
        <ele>271.09891</ele>
        <time>2023-06-14T18:23:51.000Z</time>
      </trkpt>
      <trkpt lat="45.83953" lon="4.73804">
        <ele>271.62787</ele>
        <time>2023-06-14T18:23:52.000Z</time>
      </trkpt>
      <trkpt lat="45.83949" lon="4.73799">
        <ele>272.10547</ele>
        <time>2023-06-14T18:23:53.000Z</time>
      </trkpt>
      <trkpt lat="45.83945" lon="4.73792">
        <ele>272.45013</ele>
        <time>2023-06-14T18:23:54.000Z</time>
      </trkpt>
      <trkpt lat="45.83942" lon="4.73786">
        <ele>272.74683</ele>
        <time>2023-06-14T18:23:55.000Z</time>
      </trkpt>
      <trkpt lat="45.83942" lon="4.73778">
        <ele>273.06161</ele>
        <time>2023-06-14T18:23:56.000Z</time>
      </trkpt>
      <trkpt lat="45.83939" lon="4.7377">
        <ele>273.38095</ele>
        <time>2023-06-14T18:23:57.000Z</time>
      </trkpt>
      <trkpt lat="45.83939" lon="4.73763">
        <ele>273.64566</ele>
        <time>2023-06-14T18:23:58.000Z</time>
      </trkpt>
      <trkpt lat="45.8394" lon="4.73756">
        <ele>273.82126</ele>
        <time>2023-06-14T18:23:59.000Z</time>
      </trkpt>
      <trkpt lat="45.8394" lon="4.73749">
        <ele>273.99265</ele>
        <time>2023-06-14T18:24:00.000Z</time>
      </trkpt>
      <trkpt lat="45.83942" lon="4.73743">
        <ele>274.20944</ele>
        <time>2023-06-14T18:24:01.000Z</time>
      </trkpt>
      <trkpt lat="45.83944" lon="4.73738">
        <ele>274.30261</ele>
        <time>2023-06-14T18:24:02.000Z</time>
      </trkpt>
      <trkpt lat="45.83947" lon="4.73732">
        <ele>274.43613</ele>
        <time>2023-06-14T18:24:03.000Z</time>
      </trkpt>
      <trkpt lat="45.83948" lon="4.73729">
        <ele>274.51807</ele>
        <time>2023-06-14T18:24:04.000Z</time>
      </trkpt>
      <trkpt lat="45.83951" lon="4.73723">
        <ele>274.57227</ele>
        <time>2023-06-14T18:24:05.000Z</time>
      </trkpt>
      <trkpt lat="45.83953" lon="4.73718">
        <ele>274.53107</ele>
        <time>2023-06-14T18:24:06.000Z</time>
      </trkpt>
      <trkpt lat="45.83955" lon="4.73715">
        <ele>274.53214</ele>
        <time>2023-06-14T18:24:07.000Z</time>
      </trkpt>
      <trkpt lat="45.83957" lon="4.7371">
        <ele>273.96283</ele>
        <time>2023-06-14T18:24:08.000Z</time>
      </trkpt>
      <trkpt lat="45.8396" lon="4.73708">
        <ele>273.39923</ele>
        <time>2023-06-14T18:24:09.000Z</time>
      </trkpt>
      <trkpt lat="45.83964" lon="4.73706">
        <ele>272.85703</ele>
        <time>2023-06-14T18:24:10.000Z</time>
      </trkpt>
      <trkpt lat="45.83968" lon="4.73705">
        <ele>272.35294</ele>
        <time>2023-06-14T18:24:11.000Z</time>
      </trkpt>
      <trkpt lat="45.83969" lon="4.73699">
        <ele>271.95062</ele>
        <time>2023-06-14T18:24:12.000Z</time>
      </trkpt>
      <trkpt lat="45.83968" lon="4.73694">
        <ele>271.57538</ele>
        <time>2023-06-14T18:24:13.000Z</time>
      </trkpt>
      <trkpt lat="45.83966" lon="4.73689">
        <ele>271.41251</ele>
        <time>2023-06-14T18:24:14.000Z</time>
      </trkpt>
      <trkpt lat="45.83964" lon="4.73685">
        <ele>271.29837</ele>
        <time>2023-06-14T18:24:15.000Z</time>
      </trkpt>
      <trkpt lat="45.83961" lon="4.73682">
        <ele>271.21783</ele>
        <time>2023-06-14T18:24:16.000Z</time>
      </trkpt>
      <trkpt lat="45.83958" lon="4.7368">
        <ele>271.15088</ele>
        <time>2023-06-14T18:24:17.000Z</time>
      </trkpt>
      <trkpt lat="45.83955" lon="4.73676">
        <ele>271.14578</ele>
        <time>2023-06-14T18:24:18.000Z</time>
      </trkpt>
      <trkpt lat="45.83953" lon="4.73672">
        <ele>271.21051</ele>
        <time>2023-06-14T18:24:19.000Z</time>
      </trkpt>
      <trkpt lat="45.83953" lon="4.73666">
        <ele>271.2991</ele>
        <time>2023-06-14T18:24:20.000Z</time>
      </trkpt>
      <trkpt lat="45.83954" lon="4.73662">
        <ele>271.34018</ele>
        <time>2023-06-14T18:24:21.000Z</time>
      </trkpt>
      <trkpt lat="45.83956" lon="4.73657">
        <ele>271.50302</ele>
        <time>2023-06-14T18:24:22.000Z</time>
      </trkpt>
      <trkpt lat="45.83958" lon="4.73652">
        <ele>271.62421</ele>
        <time>2023-06-14T18:24:23.000Z</time>
      </trkpt>
      <trkpt lat="45.8396" lon="4.73647">
        <ele>271.81509</ele>
        <time>2023-06-14T18:24:24.000Z</time>
      </trkpt>
      <trkpt lat="45.83964" lon="4.73644">
        <ele>271.99841</ele>
        <time>2023-06-14T18:24:25.000Z</time>
      </trkpt>
      <trkpt lat="45.83967" lon="4.73642">
        <ele>272.18814</ele>
        <time>2023-06-14T18:24:26.000Z</time>
      </trkpt>
      <trkpt lat="45.83971" lon="4.73639">
        <ele>272.28766</ele>
        <time>2023-06-14T18:24:27.000Z</time>
      </trkpt>
      <trkpt lat="45.83974" lon="4.73636">
        <ele>272.54337</ele>
        <time>2023-06-14T18:24:28.000Z</time>
      </trkpt>
      <trkpt lat="45.83977" lon="4.73634">
        <ele>272.83832</ele>
        <time>2023-06-14T18:24:29.000Z</time>
      </trkpt>
      <trkpt lat="45.83981" lon="4.73632">
        <ele>273.1756</ele>
        <time>2023-06-14T18:24:30.000Z</time>
      </trkpt>
      <trkpt lat="45.83984" lon="4.73631">
        <ele>273.56088</ele>
        <time>2023-06-14T18:24:31.000Z</time>
      </trkpt>
      <trkpt lat="45.83988" lon="4.73631">
        <ele>273.90332</ele>
        <time>2023-06-14T18:24:32.000Z</time>
      </trkpt>
      <trkpt lat="45.83991" lon="4.73631">
        <ele>274.26526</ele>
        <time>2023-06-14T18:24:33.000Z</time>
      </trkpt>
      <trkpt lat="45.83995" lon="4.7363">
        <ele>274.52039</ele>
        <time>2023-06-14T18:24:34.000Z</time>
      </trkpt>
      <trkpt lat="45.83998" lon="4.73629">
        <ele>274.75305</ele>
        <time>2023-06-14T18:24:35.000Z</time>
      </trkpt>
      <trkpt lat="45.84002" lon="4.73627">
        <ele>274.95355</ele>
        <time>2023-06-14T18:24:36.000Z</time>
      </trkpt>
      <trkpt lat="45.84005" lon="4.73625">
        <ele>275.16113</ele>
        <time>2023-06-14T18:24:37.000Z</time>
      </trkpt>
      <trkpt lat="45.84007" lon="4.73622">
        <ele>275.34109</ele>
        <time>2023-06-14T18:24:38.000Z</time>
      </trkpt>
      <trkpt lat="45.8401" lon="4.73619">
        <ele>275.53485</ele>
        <time>2023-06-14T18:24:39.000Z</time>
      </trkpt>
      <trkpt lat="45.84013" lon="4.73615">
        <ele>275.72586</ele>
        <time>2023-06-14T18:24:40.000Z</time>
      </trkpt>
      <trkpt lat="45.84015" lon="4.73612">
        <ele>275.95251</ele>
        <time>2023-06-14T18:24:41.000Z</time>
      </trkpt>
      <trkpt lat="45.84017" lon="4.73608">
        <ele>276.19131</ele>
        <time>2023-06-14T18:24:42.000Z</time>
      </trkpt>
      <trkpt lat="45.84018" lon="4.73604">
        <ele>276.44983</ele>
        <time>2023-06-14T18:24:43.000Z</time>
      </trkpt>
      <trkpt lat="45.84019" lon="4.736">
        <ele>276.65668</ele>
        <time>2023-06-14T18:24:44.000Z</time>
      </trkpt>
      <trkpt lat="45.8402" lon="4.73596">
        <ele>276.86151</ele>
        <time>2023-06-14T18:24:45.000Z</time>
      </trkpt>
      <trkpt lat="45.84021" lon="4.73592">
        <ele>277.03815</ele>
        <time>2023-06-14T18:24:46.000Z</time>
      </trkpt>
      <trkpt lat="45.84022" lon="4.73589">
        <ele>277.19989</ele>
        <time>2023-06-14T18:24:47.000Z</time>
      </trkpt>
      <trkpt lat="45.84022" lon="4.73585">
        <ele>277.3736</ele>
        <time>2023-06-14T18:24:48.000Z</time>
      </trkpt>
      <trkpt lat="45.84023" lon="4.73581">
        <ele>277.40802</ele>
        <time>2023-06-14T18:24:49.000Z</time>
      </trkpt>
      <trkpt lat="45.84024" lon="4.73578">
        <ele>277.42786</ele>
        <time>2023-06-14T18:24:50.000Z</time>
      </trkpt>
      <trkpt lat="45.84026" lon="4.73573">
        <ele>277.41565</ele>
        <time>2023-06-14T18:24:51.000Z</time>
      </trkpt>
      <trkpt lat="45.84027" lon="4.73569">
        <ele>277.42584</ele>
        <time>2023-06-14T18:24:52.000Z</time>
      </trkpt>
      <trkpt lat="45.84029" lon="4.73566">
        <ele>277.41437</ele>
        <time>2023-06-14T18:24:53.000Z</time>
      </trkpt>
      <trkpt lat="45.8403" lon="4.73563">
        <ele>277.39835</ele>
        <time>2023-06-14T18:24:54.000Z</time>
      </trkpt>
      <trkpt lat="45.84032" lon="4.7356">
        <ele>277.36139</ele>
        <time>2023-06-14T18:24:55.000Z</time>
      </trkpt>
      <trkpt lat="45.84034" lon="4.73556">
        <ele>277.29446</ele>
        <time>2023-06-14T18:24:56.000Z</time>
      </trkpt>
      <trkpt lat="45.84037" lon="4.73553">
        <ele>277.20911</ele>
        <time>2023-06-14T18:24:57.000Z</time>
      </trkpt>
      <trkpt lat="45.8404" lon="4.73551">
        <ele>277.10016</ele>
        <time>2023-06-14T18:24:58.000Z</time>
      </trkpt>
      <trkpt lat="45.84045" lon="4.7355">
        <ele>277.19684</ele>
        <time>2023-06-14T18:24:59.000Z</time>
      </trkpt>
      <trkpt lat="45.84049" lon="4.73546">
        <ele>277.22989</ele>
        <time>2023-06-14T18:25:00.000Z</time>
      </trkpt>
      <trkpt lat="45.84053" lon="4.73543">
        <ele>277.23346</ele>
        <time>2023-06-14T18:25:01.000Z</time>
      </trkpt>
      <trkpt lat="45.84057" lon="4.73539">
        <ele>277.23868</ele>
        <time>2023-06-14T18:25:02.000Z</time>
      </trkpt>
      <trkpt lat="45.84061" lon="4.73536">
        <ele>277.21082</ele>
        <time>2023-06-14T18:25:03.000Z</time>
      </trkpt>
      <trkpt lat="45.84066" lon="4.73533">
        <ele>277.17426</ele>
        <time>2023-06-14T18:25:04.000Z</time>
      </trkpt>
      <trkpt lat="45.84069" lon="4.73528">
        <ele>277.22293</ele>
        <time>2023-06-14T18:25:05.000Z</time>
      </trkpt>
      <trkpt lat="45.84073" lon="4.73524">
        <ele>277.31546</ele>
        <time>2023-06-14T18:25:06.000Z</time>
      </trkpt>
      <trkpt lat="45.84078" lon="4.73519">
        <ele>277.39835</ele>
        <time>2023-06-14T18:25:07.000Z</time>
      </trkpt>
      <trkpt lat="45.84081" lon="4.73513">
        <ele>277.31436</ele>
        <time>2023-06-14T18:25:08.000Z</time>
      </trkpt>
      <trkpt lat="45.84085" lon="4.73507">
        <ele>277.37982</ele>
        <time>2023-06-14T18:25:09.000Z</time>
      </trkpt>
      <trkpt lat="45.84089" lon="4.73501">
        <ele>277.42804</ele>
        <time>2023-06-14T18:25:10.000Z</time>
      </trkpt>
      <trkpt lat="45.84093" lon="4.73495">
        <ele>277.45261</ele>
        <time>2023-06-14T18:25:11.000Z</time>
      </trkpt>
      <trkpt lat="45.84096" lon="4.73489">
        <ele>277.45215</ele>
        <time>2023-06-14T18:25:12.000Z</time>
      </trkpt>
      <trkpt lat="45.841" lon="4.73483">
        <ele>277.44739</ele>
        <time>2023-06-14T18:25:13.000Z</time>
      </trkpt>
      <trkpt lat="45.84103" lon="4.73479">
        <ele>277.42239</ele>
        <time>2023-06-14T18:25:14.000Z</time>
      </trkpt>
      <trkpt lat="45.84105" lon="4.73475">
        <ele>277.40942</ele>
        <time>2023-06-14T18:25:15.000Z</time>
      </trkpt>
      <trkpt lat="45.84108" lon="4.73469">
        <ele>277.40521</ele>
        <time>2023-06-14T18:25:16.000Z</time>
      </trkpt>
      <trkpt lat="45.84111" lon="4.73465">
        <ele>277.38998</ele>
        <time>2023-06-14T18:25:17.000Z</time>
      </trkpt>
      <trkpt lat="45.84115" lon="4.7346">
        <ele>277.4183</ele>
        <time>2023-06-14T18:25:18.000Z</time>
      </trkpt>
      <trkpt lat="45.84119" lon="4.73455">
        <ele>277.24036</ele>
        <time>2023-06-14T18:25:19.000Z</time>
      </trkpt>
      <trkpt lat="45.84123" lon="4.73452">
        <ele>277.14056</ele>
        <time>2023-06-14T18:25:20.000Z</time>
      </trkpt>
      <trkpt lat="45.84126" lon="4.73448">
        <ele>277.06696</ele>
        <time>2023-06-14T18:25:21.000Z</time>
      </trkpt>
      <trkpt lat="45.8413" lon="4.73445">
        <ele>277.00385</ele>
        <time>2023-06-14T18:25:22.000Z</time>
      </trkpt>
      <trkpt lat="45.84133" lon="4.73441">
        <ele>276.95993</ele>
        <time>2023-06-14T18:25:23.000Z</time>
      </trkpt>
      <trkpt lat="45.84135" lon="4.73438">
        <ele>276.93124</ele>
        <time>2023-06-14T18:25:24.000Z</time>
      </trkpt>
      <trkpt lat="45.84138" lon="4.73434">
        <ele>276.84937</ele>
        <time>2023-06-14T18:25:25.000Z</time>
      </trkpt>
      <trkpt lat="45.84141" lon="4.73431">
        <ele>276.73853</ele>
        <time>2023-06-14T18:25:26.000Z</time>
      </trkpt>
      <trkpt lat="45.84144" lon="4.73427">
        <ele>276.77777</ele>
        <time>2023-06-14T18:25:27.000Z</time>
      </trkpt>
      <trkpt lat="45.84147" lon="4.73424">
        <ele>277.14542</ele>
        <time>2023-06-14T18:25:28.000Z</time>
      </trkpt>
      <trkpt lat="45.84151" lon="4.73422">
        <ele>277.49112</ele>
        <time>2023-06-14T18:25:29.000Z</time>
      </trkpt>
      <trkpt lat="45.84155" lon="4.73419">
        <ele>277.85126</ele>
        <time>2023-06-14T18:25:30.000Z</time>
      </trkpt>
      <trkpt lat="45.84158" lon="4.73417">
        <ele>278.2341</ele>
        <time>2023-06-14T18:25:31.000Z</time>
      </trkpt>
      <trkpt lat="45.84161" lon="4.73414">
        <ele>278.62164</ele>
        <time>2023-06-14T18:25:32.000Z</time>
      </trkpt>
      <trkpt lat="45.84164" lon="4.73412">
        <ele>279.03525</ele>
        <time>2023-06-14T18:25:33.000Z</time>
      </trkpt>
      <trkpt lat="45.84166" lon="4.73408">
        <ele>279.44867</ele>
        <time>2023-06-14T18:25:34.000Z</time>
      </trkpt>
      <trkpt lat="45.84169" lon="4.73404">
        <ele>279.87335</ele>
        <time>2023-06-14T18:25:35.000Z</time>
      </trkpt>
      <trkpt lat="45.84171" lon="4.73401">
        <ele>280.32114</ele>
        <time>2023-06-14T18:25:36.000Z</time>
      </trkpt>
      <trkpt lat="45.84173" lon="4.73398">
        <ele>280.78949</ele>
        <time>2023-06-14T18:25:37.000Z</time>
      </trkpt>
      <trkpt lat="45.84174" lon="4.73394">
        <ele>281.23099</ele>
        <time>2023-06-14T18:25:38.000Z</time>
      </trkpt>
      <trkpt lat="45.84175" lon="4.73391">
        <ele>281.69702</ele>
        <time>2023-06-14T18:25:39.000Z</time>
      </trkpt>
      <trkpt lat="45.84175" lon="4.73387">
        <ele>282.15906</ele>
        <time>2023-06-14T18:25:40.000Z</time>
      </trkpt>
      <trkpt lat="45.84173" lon="4.73384">
        <ele>282.6391</ele>
        <time>2023-06-14T18:25:41.000Z</time>
      </trkpt>
      <trkpt lat="45.8417" lon="4.73381">
        <ele>282.85342</ele>
        <time>2023-06-14T18:25:42.000Z</time>
      </trkpt>
      <trkpt lat="45.84167" lon="4.73378">
        <ele>283.03995</ele>
        <time>2023-06-14T18:25:43.000Z</time>
      </trkpt>
      <trkpt lat="45.84163" lon="4.73376">
        <ele>283.27161</ele>
        <time>2023-06-14T18:25:44.000Z</time>
      </trkpt>
      <trkpt lat="45.8416" lon="4.73374">
        <ele>283.47198</ele>
        <time>2023-06-14T18:25:45.000Z</time>
      </trkpt>
      <trkpt lat="45.84157" lon="4.73371">
        <ele>283.67877</ele>
        <time>2023-06-14T18:25:46.000Z</time>
      </trkpt>
      <trkpt lat="45.84154" lon="4.73369">
        <ele>283.75397</ele>
        <time>2023-06-14T18:25:47.000Z</time>
      </trkpt>
      <trkpt lat="45.84152" lon="4.73367">
        <ele>283.66302</ele>
        <time>2023-06-14T18:25:48.000Z</time>
      </trkpt>
      <trkpt lat="45.84149" lon="4.73364">
        <ele>283.57321</ele>
        <time>2023-06-14T18:25:49.000Z</time>
      </trkpt>
      <trkpt lat="45.84146" lon="4.73362">
        <ele>283.49481</ele>
        <time>2023-06-14T18:25:50.000Z</time>
      </trkpt>
      <trkpt lat="45.84143" lon="4.7336">
        <ele>283.42181</ele>
        <time>2023-06-14T18:25:51.000Z</time>
      </trkpt>
      <trkpt lat="45.8414" lon="4.73358">
        <ele>283.38794</ele>
        <time>2023-06-14T18:25:52.000Z</time>
      </trkpt>
      <trkpt lat="45.84137" lon="4.73356">
        <ele>283.22415</ele>
        <time>2023-06-14T18:25:53.000Z</time>
      </trkpt>
      <trkpt lat="45.84134" lon="4.73354">
        <ele>283.09009</ele>
        <time>2023-06-14T18:25:54.000Z</time>
      </trkpt>
      <trkpt lat="45.8413" lon="4.73352">
        <ele>282.95511</ele>
        <time>2023-06-14T18:25:55.000Z</time>
      </trkpt>
      <trkpt lat="45.84128" lon="4.73351">
        <ele>282.80759</ele>
        <time>2023-06-14T18:25:56.000Z</time>
      </trkpt>
      <trkpt lat="45.84125" lon="4.73349">
        <ele>282.65192</ele>
        <time>2023-06-14T18:25:57.000Z</time>
      </trkpt>
      <trkpt lat="45.84121" lon="4.73347">
        <ele>282.49274</ele>
        <time>2023-06-14T18:25:58.000Z</time>
      </trkpt>
      <trkpt lat="45.84118" lon="4.73344">
        <ele>282.31253</ele>
        <time>2023-06-14T18:25:59.000Z</time>
      </trkpt>
      <trkpt lat="45.84115" lon="4.73342">
        <ele>282.11499</ele>
        <time>2023-06-14T18:26:00.000Z</time>
      </trkpt>
      <trkpt lat="45.84112" lon="4.7334">
        <ele>281.90619</ele>
        <time>2023-06-14T18:26:01.000Z</time>
      </trkpt>
      <trkpt lat="45.84108" lon="4.73339">
        <ele>281.93912</ele>
        <time>2023-06-14T18:26:02.000Z</time>
      </trkpt>
      <trkpt lat="45.84105" lon="4.73337">
        <ele>281.99081</ele>
        <time>2023-06-14T18:26:03.000Z</time>
      </trkpt>
      <trkpt lat="45.84102" lon="4.73335">
        <ele>282.00394</ele>
        <time>2023-06-14T18:26:04.000Z</time>
      </trkpt>
      <trkpt lat="45.84099" lon="4.73332">
        <ele>282.01874</ele>
        <time>2023-06-14T18:26:05.000Z</time>
      </trkpt>
      <trkpt lat="45.84096" lon="4.7333">
        <ele>282.02469</ele>
        <time>2023-06-14T18:26:06.000Z</time>
      </trkpt>
      <trkpt lat="45.84093" lon="4.73328">
        <ele>282.01828</ele>
        <time>2023-06-14T18:26:07.000Z</time>
      </trkpt>
      <trkpt lat="45.84089" lon="4.73326">
        <ele>282.01923</ele>
        <time>2023-06-14T18:26:08.000Z</time>
      </trkpt>
      <trkpt lat="45.84086" lon="4.73324">
        <ele>282.05576</ele>
        <time>2023-06-14T18:26:09.000Z</time>
      </trkpt>
      <trkpt lat="45.84084" lon="4.73322">
        <ele>282.1265</ele>
        <time>2023-06-14T18:26:10.000Z</time>
      </trkpt>
      <trkpt lat="45.84081" lon="4.7332">
        <ele>282.60629</ele>
        <time>2023-06-14T18:26:11.000Z</time>
      </trkpt>
      <trkpt lat="45.84078" lon="4.73318">
        <ele>282.79547</ele>
        <time>2023-06-14T18:26:12.000Z</time>
      </trkpt>
      <trkpt lat="45.84075" lon="4.73316">
        <ele>283.14093</ele>
        <time>2023-06-14T18:26:13.000Z</time>
      </trkpt>
      <trkpt lat="45.84072" lon="4.73314">
        <ele>283.44727</ele>
        <time>2023-06-14T18:26:14.000Z</time>
      </trkpt>
      <trkpt lat="45.84068" lon="4.73313">
        <ele>283.77359</ele>
        <time>2023-06-14T18:26:15.000Z</time>
      </trkpt>
      <trkpt lat="45.84065" lon="4.7331">
        <ele>284.08893</ele>
        <time>2023-06-14T18:26:16.000Z</time>
      </trkpt>
      <trkpt lat="45.84062" lon="4.73307">
        <ele>284.42072</ele>
        <time>2023-06-14T18:26:17.000Z</time>
      </trkpt>
      <trkpt lat="45.84059" lon="4.73304">
        <ele>284.85846</ele>
        <time>2023-06-14T18:26:18.000Z</time>
      </trkpt>
      <trkpt lat="45.84057" lon="4.73301">
        <ele>285.27597</ele>
        <time>2023-06-14T18:26:19.000Z</time>
      </trkpt>
      <trkpt lat="45.84054" lon="4.73299">
        <ele>285.6918</ele>
        <time>2023-06-14T18:26:20.000Z</time>
      </trkpt>
      <trkpt lat="45.84051" lon="4.73297">
        <ele>286.11914</ele>
        <time>2023-06-14T18:26:21.000Z</time>
      </trkpt>
      <trkpt lat="45.84048" lon="4.73294">
        <ele>286.55487</ele>
        <time>2023-06-14T18:26:22.000Z</time>
      </trkpt>
      <trkpt lat="45.84045" lon="4.7329">
        <ele>286.64532</ele>
        <time>2023-06-14T18:26:23.000Z</time>
      </trkpt>
      <trkpt lat="45.84042" lon="4.73287">
        <ele>286.75092</ele>
        <time>2023-06-14T18:26:24.000Z</time>
      </trkpt>
      <trkpt lat="45.84039" lon="4.73284">
        <ele>286.8302</ele>
        <time>2023-06-14T18:26:25.000Z</time>
      </trkpt>
      <trkpt lat="45.84036" lon="4.73281">
        <ele>286.92328</ele>
        <time>2023-06-14T18:26:26.000Z</time>
      </trkpt>
      <trkpt lat="45.84032" lon="4.73277">
        <ele>287.01825</ele>
        <time>2023-06-14T18:26:27.000Z</time>
      </trkpt>
      <trkpt lat="45.84029" lon="4.73274">
        <ele>287.1181</ele>
        <time>2023-06-14T18:26:28.000Z</time>
      </trkpt>
      <trkpt lat="45.84026" lon="4.7327">
        <ele>287.17798</ele>
        <time>2023-06-14T18:26:29.000Z</time>
      </trkpt>
      <trkpt lat="45.84023" lon="4.73267">
        <ele>287.24588</ele>
        <time>2023-06-14T18:26:30.000Z</time>
      </trkpt>
      <trkpt lat="45.8402" lon="4.73264">
        <ele>286.83011</ele>
        <time>2023-06-14T18:26:31.000Z</time>
      </trkpt>
      <trkpt lat="45.84017" lon="4.73261">
        <ele>286.6889</ele>
        <time>2023-06-14T18:26:32.000Z</time>
      </trkpt>
      <trkpt lat="45.84014" lon="4.73257">
        <ele>286.48938</ele>
        <time>2023-06-14T18:26:33.000Z</time>
      </trkpt>
      <trkpt lat="45.84011" lon="4.73254">
        <ele>286.30157</ele>
        <time>2023-06-14T18:26:34.000Z</time>
      </trkpt>
      <trkpt lat="45.84008" lon="4.7325">
        <ele>286.03522</ele>
        <time>2023-06-14T18:26:35.000Z</time>
      </trkpt>
      <trkpt lat="45.84006" lon="4.73246">
        <ele>285.76938</ele>
        <time>2023-06-14T18:26:36.000Z</time>
      </trkpt>
      <trkpt lat="45.84005" lon="4.73241">
        <ele>285.54605</ele>
        <time>2023-06-14T18:26:37.000Z</time>
      </trkpt>
      <trkpt lat="45.84004" lon="4.73236">
        <ele>285.20078</ele>
        <time>2023-06-14T18:26:38.000Z</time>
      </trkpt>
      <trkpt lat="45.84004" lon="4.73231">
        <ele>284.8692</ele>
        <time>2023-06-14T18:26:39.000Z</time>
      </trkpt>
      <trkpt lat="45.84003" lon="4.73226">
        <ele>284.54861</ele>
        <time>2023-06-14T18:26:40.000Z</time>
      </trkpt>
      <trkpt lat="45.84002" lon="4.73221">
        <ele>284.19965</ele>
        <time>2023-06-14T18:26:41.000Z</time>
      </trkpt>
      <trkpt lat="45.84002" lon="4.73215">
        <ele>283.85138</ele>
        <time>2023-06-14T18:26:42.000Z</time>
      </trkpt>
      <trkpt lat="45.84002" lon="4.7321">
        <ele>283.82031</ele>
        <time>2023-06-14T18:26:43.000Z</time>
      </trkpt>
      <trkpt lat="45.84002" lon="4.73206">
        <ele>283.81653</ele>
        <time>2023-06-14T18:26:44.000Z</time>
      </trkpt>
      <trkpt lat="45.84002" lon="4.73201">
        <ele>283.84882</ele>
        <time>2023-06-14T18:26:45.000Z</time>
      </trkpt>
      <trkpt lat="45.84002" lon="4.73196">
        <ele>284.2529</ele>
        <time>2023-06-14T18:26:46.000Z</time>
      </trkpt>
      <trkpt lat="45.84002" lon="4.73192">
        <ele>284.67334</ele>
        <time>2023-06-14T18:26:47.000Z</time>
      </trkpt>
      <trkpt lat="45.84002" lon="4.73187">
        <ele>285.10843</ele>
        <time>2023-06-14T18:26:48.000Z</time>
      </trkpt>
      <trkpt lat="45.84002" lon="4.73183">
        <ele>285.51831</ele>
        <time>2023-06-14T18:26:49.000Z</time>
      </trkpt>
      <trkpt lat="45.84001" lon="4.73178">
        <ele>285.93158</ele>
        <time>2023-06-14T18:26:50.000Z</time>
      </trkpt>
      <trkpt lat="45.84001" lon="4.73173">
        <ele>286.45001</ele>
        <time>2023-06-14T18:26:51.000Z</time>
      </trkpt>
      <trkpt lat="45.84" lon="4.73168">
        <ele>286.9241</ele>
        <time>2023-06-14T18:26:52.000Z</time>
      </trkpt>
      <trkpt lat="45.84" lon="4.73162">
        <ele>287.38309</ele>
        <time>2023-06-14T18:26:53.000Z</time>
      </trkpt>
      <trkpt lat="45.84" lon="4.73156">
        <ele>287.90512</ele>
        <time>2023-06-14T18:26:54.000Z</time>
      </trkpt>
      <trkpt lat="45.83999" lon="4.7315">
        <ele>288.55695</ele>
        <time>2023-06-14T18:26:55.000Z</time>
      </trkpt>
      <trkpt lat="45.83999" lon="4.73144">
        <ele>289.25064</ele>
        <time>2023-06-14T18:26:56.000Z</time>
      </trkpt>
      <trkpt lat="45.83999" lon="4.73139">
        <ele>289.83893</ele>
        <time>2023-06-14T18:26:57.000Z</time>
      </trkpt>
      <trkpt lat="45.83999" lon="4.73134">
        <ele>290.50125</ele>
        <time>2023-06-14T18:26:58.000Z</time>
      </trkpt>
      <trkpt lat="45.83998" lon="4.73129">
        <ele>291.20392</ele>
        <time>2023-06-14T18:26:59.000Z</time>
      </trkpt>
      <trkpt lat="45.83997" lon="4.73124">
        <ele>291.87042</ele>
        <time>2023-06-14T18:27:00.000Z</time>
      </trkpt>
      <trkpt lat="45.83997" lon="4.73119">
        <ele>292.48804</ele>
        <time>2023-06-14T18:27:01.000Z</time>
      </trkpt>
      <trkpt lat="45.83997" lon="4.73115">
        <ele>293.07397</ele>
        <time>2023-06-14T18:27:02.000Z</time>
      </trkpt>
      <trkpt lat="45.83997" lon="4.73111">
        <ele>293.72992</ele>
        <time>2023-06-14T18:27:03.000Z</time>
      </trkpt>
      <trkpt lat="45.83997" lon="4.73107">
        <ele>294.44891</ele>
        <time>2023-06-14T18:27:04.000Z</time>
      </trkpt>
      <trkpt lat="45.83997" lon="4.73102">
        <ele>294.87085</ele>
        <time>2023-06-14T18:27:05.000Z</time>
      </trkpt>
      <trkpt lat="45.83997" lon="4.73098">
        <ele>295.00034</ele>
        <time>2023-06-14T18:27:06.000Z</time>
      </trkpt>
      <trkpt lat="45.83997" lon="4.73095">
        <ele>294.99542</ele>
        <time>2023-06-14T18:27:07.000Z</time>
      </trkpt>
      <trkpt lat="45.83998" lon="4.73092">
        <ele>294.95148</ele>
        <time>2023-06-14T18:27:08.000Z</time>
      </trkpt>
      <trkpt lat="45.84" lon="4.7309">
        <ele>294.97095</ele>
        <time>2023-06-14T18:27:09.000Z</time>
      </trkpt>
      <trkpt lat="45.84003" lon="4.73088">
        <ele>294.97559</ele>
        <time>2023-06-14T18:27:10.000Z</time>
      </trkpt>
      <trkpt lat="45.84007" lon="4.73087">
        <ele>294.92734</ele>
        <time>2023-06-14T18:27:11.000Z</time>
      </trkpt>
      <trkpt lat="45.84011" lon="4.73086">
        <ele>294.88422</ele>
        <time>2023-06-14T18:27:12.000Z</time>
      </trkpt>
      <trkpt lat="45.84015" lon="4.73085">
        <ele>294.90277</ele>
        <time>2023-06-14T18:27:13.000Z</time>
      </trkpt>
      <trkpt lat="45.84019" lon="4.73084">
        <ele>294.95087</ele>
        <time>2023-06-14T18:27:14.000Z</time>
      </trkpt>
      <trkpt lat="45.84023" lon="4.73083">
        <ele>294.89191</ele>
        <time>2023-06-14T18:27:15.000Z</time>
      </trkpt>
      <trkpt lat="45.84027" lon="4.73083">
        <ele>294.74774</ele>
        <time>2023-06-14T18:27:16.000Z</time>
      </trkpt>
      <trkpt lat="45.84031" lon="4.73081">
        <ele>294.5976</ele>
        <time>2023-06-14T18:27:17.000Z</time>
      </trkpt>
      <trkpt lat="45.84036" lon="4.73081">
        <ele>294.44409</ele>
        <time>2023-06-14T18:27:18.000Z</time>
      </trkpt>
      <trkpt lat="45.8404" lon="4.73079">
        <ele>294.25275</ele>
        <time>2023-06-14T18:27:19.000Z</time>
      </trkpt>
      <trkpt lat="45.84045" lon="4.73076">
        <ele>293.87729</ele>
        <time>2023-06-14T18:27:20.000Z</time>
      </trkpt>
      <trkpt lat="45.84048" lon="4.73072">
        <ele>293.57559</ele>
        <time>2023-06-14T18:27:21.000Z</time>
      </trkpt>
      <trkpt lat="45.84051" lon="4.73068">
        <ele>293.27982</ele>
        <time>2023-06-14T18:27:22.000Z</time>
      </trkpt>
      <trkpt lat="45.84053" lon="4.73064">
        <ele>292.95673</ele>
        <time>2023-06-14T18:27:23.000Z</time>
      </trkpt>
      <trkpt lat="45.84055" lon="4.7306">
        <ele>292.52142</ele>
        <time>2023-06-14T18:27:24.000Z</time>
      </trkpt>
      <trkpt lat="45.84057" lon="4.73055">
        <ele>292.35373</ele>
        <time>2023-06-14T18:27:25.000Z</time>
      </trkpt>
      <trkpt lat="45.84058" lon="4.7305">
        <ele>292.0939</ele>
        <time>2023-06-14T18:27:26.000Z</time>
      </trkpt>
      <trkpt lat="45.84059" lon="4.73046">
        <ele>292.08383</ele>
        <time>2023-06-14T18:27:27.000Z</time>
      </trkpt>
      <trkpt lat="45.8406" lon="4.73041">
        <ele>292.16364</ele>
        <time>2023-06-14T18:27:28.000Z</time>
      </trkpt>
      <trkpt lat="45.84061" lon="4.73037">
        <ele>292.18649</ele>
        <time>2023-06-14T18:27:29.000Z</time>
      </trkpt>
      <trkpt lat="45.84062" lon="4.73033">
        <ele>291.92938</ele>
        <time>2023-06-14T18:27:30.000Z</time>
      </trkpt>
      <trkpt lat="45.84063" lon="4.73028">
        <ele>291.73553</ele>
        <time>2023-06-14T18:27:31.000Z</time>
      </trkpt>
      <trkpt lat="45.84064" lon="4.73025">
        <ele>291.565</ele>
        <time>2023-06-14T18:27:32.000Z</time>
      </trkpt>
      <trkpt lat="45.84065" lon="4.73021">
        <ele>291.36938</ele>
        <time>2023-06-14T18:27:33.000Z</time>
      </trkpt>
      <trkpt lat="45.84065" lon="4.73016">
        <ele>291.07755</ele>
        <time>2023-06-14T18:27:34.000Z</time>
      </trkpt>
      <trkpt lat="45.84065" lon="4.73012">
        <ele>290.82056</ele>
        <time>2023-06-14T18:27:35.000Z</time>
      </trkpt>
      <trkpt lat="45.84065" lon="4.73009">
        <ele>290.59665</ele>
        <time>2023-06-14T18:27:36.000Z</time>
      </trkpt>
      <trkpt lat="45.84064" lon="4.73005">
        <ele>290.42606</ele>
        <time>2023-06-14T18:27:37.000Z</time>
      </trkpt>
      <trkpt lat="45.84064" lon="4.73002">
        <ele>290.19193</ele>
        <time>2023-06-14T18:27:38.000Z</time>
      </trkpt>
      <trkpt lat="45.84064" lon="4.72999">
        <ele>289.95157</ele>
        <time>2023-06-14T18:27:39.000Z</time>
      </trkpt>
      <trkpt lat="45.84066" lon="4.72995">
        <ele>289.91599</ele>
        <time>2023-06-14T18:27:40.000Z</time>
      </trkpt>
      <trkpt lat="45.84068" lon="4.72993">
        <ele>289.85358</ele>
        <time>2023-06-14T18:27:41.000Z</time>
      </trkpt>
      <trkpt lat="45.84072" lon="4.72992">
        <ele>289.8013</ele>
        <time>2023-06-14T18:27:42.000Z</time>
      </trkpt>
      <trkpt lat="45.84075" lon="4.72991">
        <ele>289.68753</ele>
        <time>2023-06-14T18:27:43.000Z</time>
      </trkpt>
      <trkpt lat="45.84079" lon="4.72988">
        <ele>289.57343</ele>
        <time>2023-06-14T18:27:44.000Z</time>
      </trkpt>
      <trkpt lat="45.84082" lon="4.72984">
        <ele>289.44769</ele>
        <time>2023-06-14T18:27:45.000Z</time>
      </trkpt>
      <trkpt lat="45.84084" lon="4.72979">
        <ele>289.04086</ele>
        <time>2023-06-14T18:27:46.000Z</time>
      </trkpt>
      <trkpt lat="45.84087" lon="4.72973">
        <ele>288.76355</ele>
        <time>2023-06-14T18:27:47.000Z</time>
      </trkpt>
      <trkpt lat="45.84088" lon="4.72967">
        <ele>288.52179</ele>
        <time>2023-06-14T18:27:48.000Z</time>
      </trkpt>
      <trkpt lat="45.8409" lon="4.72962">
        <ele>288.38199</ele>
        <time>2023-06-14T18:27:49.000Z</time>
      </trkpt>
      <trkpt lat="45.84093" lon="4.72958">
        <ele>288.20853</ele>
        <time>2023-06-14T18:27:50.000Z</time>
      </trkpt>
      <trkpt lat="45.84094" lon="4.72954">
        <ele>288.03387</ele>
        <time>2023-06-14T18:27:51.000Z</time>
      </trkpt>
      <trkpt lat="45.84096" lon="4.72951">
        <ele>287.84412</ele>
        <time>2023-06-14T18:27:52.000Z</time>
      </trkpt>
      <trkpt lat="45.84097" lon="4.72946">
        <ele>287.63751</ele>
        <time>2023-06-14T18:27:53.000Z</time>
      </trkpt>
      <trkpt lat="45.84099" lon="4.72943">
        <ele>287.42105</ele>
        <time>2023-06-14T18:27:54.000Z</time>
      </trkpt>
      <trkpt lat="45.84101" lon="4.72939">
        <ele>287.19153</ele>
        <time>2023-06-14T18:27:55.000Z</time>
      </trkpt>
      <trkpt lat="45.84101" lon="4.72936">
        <ele>286.98419</ele>
        <time>2023-06-14T18:27:56.000Z</time>
      </trkpt>
      <trkpt lat="45.84102" lon="4.72932">
        <ele>286.7717</ele>
        <time>2023-06-14T18:27:57.000Z</time>
      </trkpt>
      <trkpt lat="45.84102" lon="4.72927">
        <ele>286.58499</ele>
        <time>2023-06-14T18:27:58.000Z</time>
      </trkpt>
      <trkpt lat="45.84101" lon="4.72923">
        <ele>286.39447</ele>
        <time>2023-06-14T18:27:59.000Z</time>
      </trkpt>
      <trkpt lat="45.841" lon="4.72919">
        <ele>286.21564</ele>
        <time>2023-06-14T18:28:00.000Z</time>
      </trkpt>
      <trkpt lat="45.841" lon="4.72914">
        <ele>286.04785</ele>
        <time>2023-06-14T18:28:01.000Z</time>
      </trkpt>
      <trkpt lat="45.84099" lon="4.7291">
        <ele>285.91782</ele>
        <time>2023-06-14T18:28:02.000Z</time>
      </trkpt>
      <trkpt lat="45.84099" lon="4.72905">
        <ele>285.82281</ele>
        <time>2023-06-14T18:28:03.000Z</time>
      </trkpt>
      <trkpt lat="45.84099" lon="4.729">
        <ele>285.75302</ele>
        <time>2023-06-14T18:28:04.000Z</time>
      </trkpt>
      <trkpt lat="45.84098" lon="4.72895">
        <ele>285.70505</ele>
        <time>2023-06-14T18:28:05.000Z</time>
      </trkpt>
      <trkpt lat="45.84097" lon="4.7289">
        <ele>285.93027</ele>
        <time>2023-06-14T18:28:06.000Z</time>
      </trkpt>
      <trkpt lat="45.84095" lon="4.72885">
        <ele>285.89566</ele>
        <time>2023-06-14T18:28:07.000Z</time>
      </trkpt>
      <trkpt lat="45.84094" lon="4.72879">
        <ele>285.44943</ele>
        <time>2023-06-14T18:28:08.000Z</time>
      </trkpt>
      <trkpt lat="45.84094" lon="4.72873">
        <ele>284.90063</ele>
        <time>2023-06-14T18:28:09.000Z</time>
      </trkpt>
      <trkpt lat="45.84093" lon="4.72868">
        <ele>284.52649</ele>
        <time>2023-06-14T18:28:10.000Z</time>
      </trkpt>
      <trkpt lat="45.84092" lon="4.72862">
        <ele>284.10791</ele>
        <time>2023-06-14T18:28:11.000Z</time>
      </trkpt>
      <trkpt lat="45.8409" lon="4.72856">
        <ele>283.6868</ele>
        <time>2023-06-14T18:28:12.000Z</time>
      </trkpt>
      <trkpt lat="45.84089" lon="4.7285">
        <ele>283.20883</ele>
        <time>2023-06-14T18:28:13.000Z</time>
      </trkpt>
      <trkpt lat="45.84088" lon="4.72844">
        <ele>282.73727</ele>
        <time>2023-06-14T18:28:14.000Z</time>
      </trkpt>
      <trkpt lat="45.84086" lon="4.72838">
        <ele>282.26346</ele>
        <time>2023-06-14T18:28:15.000Z</time>
      </trkpt>
      <trkpt lat="45.84085" lon="4.72831">
        <ele>281.76724</ele>
        <time>2023-06-14T18:28:16.000Z</time>
      </trkpt>
      <trkpt lat="45.84084" lon="4.72824">
        <ele>281.28122</ele>
        <time>2023-06-14T18:28:17.000Z</time>
      </trkpt>
      <trkpt lat="45.84083" lon="4.72816">
        <ele>280.70563</ele>
        <time>2023-06-14T18:28:18.000Z</time>
      </trkpt>
      <trkpt lat="45.84081" lon="4.72807">
        <ele>280.11362</ele>
        <time>2023-06-14T18:28:19.000Z</time>
      </trkpt>
      <trkpt lat="45.84079" lon="4.72799">
        <ele>279.46988</ele>
        <time>2023-06-14T18:28:20.000Z</time>
      </trkpt>
      <trkpt lat="45.84077" lon="4.72791">
        <ele>278.79926</ele>
        <time>2023-06-14T18:28:21.000Z</time>
      </trkpt>
      <trkpt lat="45.84076" lon="4.72783">
        <ele>278.07919</ele>
        <time>2023-06-14T18:28:22.000Z</time>
      </trkpt>
      <trkpt lat="45.84074" lon="4.72776">
        <ele>277.3475</ele>
        <time>2023-06-14T18:28:23.000Z</time>
      </trkpt>
      <trkpt lat="45.84072" lon="4.72769">
        <ele>276.57404</ele>
        <time>2023-06-14T18:28:24.000Z</time>
      </trkpt>
      <trkpt lat="45.8407" lon="4.72761">
        <ele>275.9978</ele>
        <time>2023-06-14T18:28:25.000Z</time>
      </trkpt>
      <trkpt lat="45.84069" lon="4.72753">
        <ele>275.39282</ele>
        <time>2023-06-14T18:28:26.000Z</time>
      </trkpt>
      <trkpt lat="45.84067" lon="4.72747">
        <ele>274.77579</ele>
        <time>2023-06-14T18:28:27.000Z</time>
      </trkpt>
      <trkpt lat="45.84065" lon="4.72741">
        <ele>274.45676</ele>
        <time>2023-06-14T18:28:28.000Z</time>
      </trkpt>
      <trkpt lat="45.84064" lon="4.72735">
        <ele>274.14255</ele>
        <time>2023-06-14T18:28:29.000Z</time>
      </trkpt>
      <trkpt lat="45.84063" lon="4.72726">
        <ele>273.81628</ele>
        <time>2023-06-14T18:28:30.000Z</time>
      </trkpt>
      <trkpt lat="45.8406" lon="4.72718">
        <ele>273.3779</ele>
        <time>2023-06-14T18:28:31.000Z</time>
      </trkpt>
      <trkpt lat="45.84058" lon="4.72709">
        <ele>272.96231</ele>
        <time>2023-06-14T18:28:32.000Z</time>
      </trkpt>
      <trkpt lat="45.84057" lon="4.727">
        <ele>272.53876</ele>
        <time>2023-06-14T18:28:33.000Z</time>
      </trkpt>
      <trkpt lat="45.84055" lon="4.72691">
        <ele>272.23682</ele>
        <time>2023-06-14T18:28:34.000Z</time>
      </trkpt>
      <trkpt lat="45.84053" lon="4.72683">
        <ele>271.87988</ele>
        <time>2023-06-14T18:28:35.000Z</time>
      </trkpt>
      <trkpt lat="45.84052" lon="4.72674">
        <ele>271.54489</ele>
        <time>2023-06-14T18:28:36.000Z</time>
      </trkpt>
      <trkpt lat="45.84052" lon="4.72665">
        <ele>271.13358</ele>
        <time>2023-06-14T18:28:37.000Z</time>
      </trkpt>
      <trkpt lat="45.84051" lon="4.72658">
        <ele>270.64313</ele>
        <time>2023-06-14T18:28:38.000Z</time>
      </trkpt>
      <trkpt lat="45.8405" lon="4.72652">
        <ele>270.15533</ele>
        <time>2023-06-14T18:28:39.000Z</time>
      </trkpt>
      <trkpt lat="45.8405" lon="4.72645">
        <ele>269.68594</ele>
        <time>2023-06-14T18:28:40.000Z</time>
      </trkpt>
      <trkpt lat="45.84049" lon="4.72638">
        <ele>269.19678</ele>
        <time>2023-06-14T18:28:41.000Z</time>
      </trkpt>
      <trkpt lat="45.8405" lon="4.72629">
        <ele>268.71912</ele>
        <time>2023-06-14T18:28:42.000Z</time>
      </trkpt>
      <trkpt lat="45.84051" lon="4.7262">
        <ele>268.2377</ele>
        <time>2023-06-14T18:28:43.000Z</time>
      </trkpt>
      <trkpt lat="45.84053" lon="4.7261">
        <ele>267.7674</ele>
        <time>2023-06-14T18:28:44.000Z</time>
      </trkpt>
      <trkpt lat="45.84055" lon="4.72601">
        <ele>267.11578</ele>
        <time>2023-06-14T18:28:45.000Z</time>
      </trkpt>
      <trkpt lat="45.84057" lon="4.72592">
        <ele>266.48553</ele>
        <time>2023-06-14T18:28:46.000Z</time>
      </trkpt>
      <trkpt lat="45.84058" lon="4.72582">
        <ele>265.8515</ele>
        <time>2023-06-14T18:28:47.000Z</time>
      </trkpt>
      <trkpt lat="45.8406" lon="4.72573">
        <ele>265.21957</ele>
        <time>2023-06-14T18:28:48.000Z</time>
      </trkpt>
      <trkpt lat="45.84062" lon="4.72563">
        <ele>264.58374</ele>
        <time>2023-06-14T18:28:49.000Z</time>
      </trkpt>
      <trkpt lat="45.84062" lon="4.72553">
        <ele>264.04413</ele>
        <time>2023-06-14T18:28:50.000Z</time>
      </trkpt>
      <trkpt lat="45.84061" lon="4.72544">
        <ele>263.63733</ele>
        <time>2023-06-14T18:28:51.000Z</time>
      </trkpt>
      <trkpt lat="45.84059" lon="4.72537">
        <ele>263.22549</ele>
        <time>2023-06-14T18:28:52.000Z</time>
      </trkpt>
      <trkpt lat="45.84058" lon="4.7253">
        <ele>262.89008</ele>
        <time>2023-06-14T18:28:53.000Z</time>
      </trkpt>
      <trkpt lat="45.84057" lon="4.72524">
        <ele>262.45035</ele>
        <time>2023-06-14T18:28:54.000Z</time>
      </trkpt>
      <trkpt lat="45.84057" lon="4.72518">
        <ele>262.34061</ele>
        <time>2023-06-14T18:28:55.000Z</time>
      </trkpt>
      <trkpt lat="45.84056" lon="4.72513">
        <ele>262.22067</ele>
        <time>2023-06-14T18:28:56.000Z</time>
      </trkpt>
      <trkpt lat="45.84055" lon="4.72508">
        <ele>262.18903</ele>
        <time>2023-06-14T18:28:57.000Z</time>
      </trkpt>
      <trkpt lat="45.84055" lon="4.72502">
        <ele>262.32739</ele>
        <time>2023-06-14T18:28:58.000Z</time>
      </trkpt>
      <trkpt lat="45.84055" lon="4.72496">
        <ele>262.46051</ele>
        <time>2023-06-14T18:28:59.000Z</time>
      </trkpt>
      <trkpt lat="45.84055" lon="4.72491">
        <ele>262.62796</ele>
        <time>2023-06-14T18:29:00.000Z</time>
      </trkpt>
      <trkpt lat="45.84054" lon="4.72486">
        <ele>262.81732</ele>
        <time>2023-06-14T18:29:01.000Z</time>
      </trkpt>
      <trkpt lat="45.84054" lon="4.72481">
        <ele>263.07117</ele>
        <time>2023-06-14T18:29:02.000Z</time>
      </trkpt>
      <trkpt lat="45.84053" lon="4.72476">
        <ele>263.38342</ele>
        <time>2023-06-14T18:29:03.000Z</time>
      </trkpt>
      <trkpt lat="45.84052" lon="4.72471">
        <ele>263.75467</ele>
        <time>2023-06-14T18:29:04.000Z</time>
      </trkpt>
      <trkpt lat="45.84052" lon="4.72465">
        <ele>264.31882</ele>
        <time>2023-06-14T18:29:05.000Z</time>
      </trkpt>
      <trkpt lat="45.84051" lon="4.7246">
        <ele>265.01132</ele>
        <time>2023-06-14T18:29:06.000Z</time>
      </trkpt>
      <trkpt lat="45.84051" lon="4.72455">
        <ele>265.73071</ele>
        <time>2023-06-14T18:29:07.000Z</time>
      </trkpt>
      <trkpt lat="45.84051" lon="4.72451">
        <ele>266.1503</ele>
        <time>2023-06-14T18:29:08.000Z</time>
      </trkpt>
      <trkpt lat="45.8405" lon="4.72446">
        <ele>266.65994</ele>
        <time>2023-06-14T18:29:09.000Z</time>
      </trkpt>
      <trkpt lat="45.84049" lon="4.72441">
        <ele>267.20862</ele>
        <time>2023-06-14T18:29:10.000Z</time>
      </trkpt>
      <trkpt lat="45.84049" lon="4.72436">
        <ele>267.76172</ele>
        <time>2023-06-14T18:29:11.000Z</time>
      </trkpt>
      <trkpt lat="45.84048" lon="4.72432">
        <ele>268.34003</ele>
        <time>2023-06-14T18:29:12.000Z</time>
      </trkpt>
      <trkpt lat="45.84048" lon="4.72428">
        <ele>268.90289</ele>
        <time>2023-06-14T18:29:13.000Z</time>
      </trkpt>
      <trkpt lat="45.84048" lon="4.72426">
        <ele>269.47952</ele>
        <time>2023-06-14T18:29:14.000Z</time>
      </trkpt>
      <trkpt lat="45.84047" lon="4.72421">
        <ele>269.82019</ele>
        <time>2023-06-14T18:29:15.000Z</time>
      </trkpt>
      <trkpt lat="45.84046" lon="4.72417">
        <ele>270.18005</ele>
        <time>2023-06-14T18:29:16.000Z</time>
      </trkpt>
      <trkpt lat="45.84046" lon="4.72412">
        <ele>270.5654</ele>
        <time>2023-06-14T18:29:17.000Z</time>
      </trkpt>
      <trkpt lat="45.84045" lon="4.72408">
        <ele>270.93878</ele>
        <time>2023-06-14T18:29:18.000Z</time>
      </trkpt>
      <trkpt lat="45.84045" lon="4.72404">
        <ele>271.31635</ele>
        <time>2023-06-14T18:29:19.000Z</time>
      </trkpt>
      <trkpt lat="45.84044" lon="4.724">
        <ele>271.70251</ele>
        <time>2023-06-14T18:29:20.000Z</time>
      </trkpt>
      <trkpt lat="45.84043" lon="4.72395">
        <ele>272.12659</ele>
        <time>2023-06-14T18:29:21.000Z</time>
      </trkpt>
      <trkpt lat="45.84043" lon="4.72391">
        <ele>272.51752</ele>
        <time>2023-06-14T18:29:22.000Z</time>
      </trkpt>
      <trkpt lat="45.84042" lon="4.72387">
        <ele>272.99493</ele>
        <time>2023-06-14T18:29:23.000Z</time>
      </trkpt>
      <trkpt lat="45.84042" lon="4.72382">
        <ele>273.44705</ele>
        <time>2023-06-14T18:29:24.000Z</time>
      </trkpt>
      <trkpt lat="45.84041" lon="4.72378">
        <ele>273.71985</ele>
        <time>2023-06-14T18:29:25.000Z</time>
      </trkpt>
      <trkpt lat="45.84041" lon="4.72373">
        <ele>273.89371</ele>
        <time>2023-06-14T18:29:26.000Z</time>
      </trkpt>
      <trkpt lat="45.8404" lon="4.72369">
        <ele>274.09625</ele>
        <time>2023-06-14T18:29:27.000Z</time>
      </trkpt>
      <trkpt lat="45.84039" lon="4.72364">
        <ele>274.67972</ele>
        <time>2023-06-14T18:29:28.000Z</time>
      </trkpt>
      <trkpt lat="45.84039" lon="4.7236">
        <ele>275.20193</ele>
        <time>2023-06-14T18:29:29.000Z</time>
      </trkpt>
      <trkpt lat="45.84038" lon="4.72356">
        <ele>275.6795</ele>
        <time>2023-06-14T18:29:30.000Z</time>
      </trkpt>
      <trkpt lat="45.84038" lon="4.72351">
        <ele>276.15512</ele>
        <time>2023-06-14T18:29:31.000Z</time>
      </trkpt>
      <trkpt lat="45.84037" lon="4.72346">
        <ele>276.55298</ele>
        <time>2023-06-14T18:29:32.000Z</time>
      </trkpt>
      <trkpt lat="45.84036" lon="4.72342">
        <ele>276.9686</ele>
        <time>2023-06-14T18:29:33.000Z</time>
      </trkpt>
      <trkpt lat="45.84035" lon="4.72337">
        <ele>277.36487</ele>
        <time>2023-06-14T18:29:34.000Z</time>
      </trkpt>
      <trkpt lat="45.84034" lon="4.72333">
        <ele>277.76523</ele>
        <time>2023-06-14T18:29:35.000Z</time>
      </trkpt>
      <trkpt lat="45.84032" lon="4.7233">
        <ele>278.14667</ele>
        <time>2023-06-14T18:29:36.000Z</time>
      </trkpt>
      <trkpt lat="45.84031" lon="4.72327">
        <ele>278.4888</ele>
        <time>2023-06-14T18:29:37.000Z</time>
      </trkpt>
      <trkpt lat="45.84029" lon="4.72324">
        <ele>278.84467</ele>
        <time>2023-06-14T18:29:38.000Z</time>
      </trkpt>
      <trkpt lat="45.84027" lon="4.72321">
        <ele>279.21167</ele>
        <time>2023-06-14T18:29:39.000Z</time>
      </trkpt>
      <trkpt lat="45.84025" lon="4.72318">
        <ele>279.56519</ele>
        <time>2023-06-14T18:29:40.000Z</time>
      </trkpt>
      <trkpt lat="45.84023" lon="4.72316">
        <ele>279.90973</ele>
        <time>2023-06-14T18:29:41.000Z</time>
      </trkpt>
      <trkpt lat="45.84021" lon="4.72314">
        <ele>280.22794</ele>
        <time>2023-06-14T18:29:42.000Z</time>
      </trkpt>
      <trkpt lat="45.84018" lon="4.72311">
        <ele>280.43948</ele>
        <time>2023-06-14T18:29:43.000Z</time>
      </trkpt>
      <trkpt lat="45.84016" lon="4.72308">
        <ele>280.6037</ele>
        <time>2023-06-14T18:29:44.000Z</time>
      </trkpt>
      <trkpt lat="45.84014" lon="4.72304">
        <ele>280.82376</ele>
        <time>2023-06-14T18:29:45.000Z</time>
      </trkpt>
      <trkpt lat="45.84012" lon="4.723">
        <ele>281.03314</ele>
        <time>2023-06-14T18:29:46.000Z</time>
      </trkpt>
      <trkpt lat="45.8401" lon="4.72297">
        <ele>281.20157</ele>
        <time>2023-06-14T18:29:47.000Z</time>
      </trkpt>
      <trkpt lat="45.84009" lon="4.72293">
        <ele>281.25497</ele>
        <time>2023-06-14T18:29:48.000Z</time>
      </trkpt>
      <trkpt lat="45.84007" lon="4.72289">
        <ele>281.33716</ele>
        <time>2023-06-14T18:29:49.000Z</time>
      </trkpt>
      <trkpt lat="45.84005" lon="4.72286">
        <ele>281.41904</ele>
        <time>2023-06-14T18:29:50.000Z</time>
      </trkpt>
      <trkpt lat="45.84003" lon="4.72283">
        <ele>281.53741</ele>
        <time>2023-06-14T18:29:51.000Z</time>
      </trkpt>
      <trkpt lat="45.84001" lon="4.7228">
        <ele>281.68149</ele>
        <time>2023-06-14T18:29:52.000Z</time>
      </trkpt>
      <trkpt lat="45.83999" lon="4.72276">
        <ele>281.83115</ele>
        <time>2023-06-14T18:29:53.000Z</time>
      </trkpt>
      <trkpt lat="45.83997" lon="4.72273">
        <ele>281.9772</ele>
        <time>2023-06-14T18:29:54.000Z</time>
      </trkpt>
      <trkpt lat="45.83996" lon="4.7227">
        <ele>282.24814</ele>
        <time>2023-06-14T18:29:55.000Z</time>
      </trkpt>
      <trkpt lat="45.83994" lon="4.72266">
        <ele>282.53033</ele>
        <time>2023-06-14T18:29:56.000Z</time>
      </trkpt>
      <trkpt lat="45.83993" lon="4.72263">
        <ele>282.80743</ele>
        <time>2023-06-14T18:29:57.000Z</time>
      </trkpt>
      <trkpt lat="45.83992" lon="4.72259">
        <ele>283.06564</ele>
        <time>2023-06-14T18:29:58.000Z</time>
      </trkpt>
      <trkpt lat="45.8399" lon="4.72256">
        <ele>283.32803</ele>
        <time>2023-06-14T18:29:59.000Z</time>
      </trkpt>
      <trkpt lat="45.83988" lon="4.72253">
        <ele>283.59161</ele>
        <time>2023-06-14T18:30:00.000Z</time>
      </trkpt>
      <trkpt lat="45.83986" lon="4.72249">
        <ele>283.83826</ele>
        <time>2023-06-14T18:30:01.000Z</time>
      </trkpt>
      <trkpt lat="45.83984" lon="4.72246">
        <ele>284.09528</ele>
        <time>2023-06-14T18:30:02.000Z</time>
      </trkpt>
      <trkpt lat="45.83983" lon="4.72242">
        <ele>284.32526</ele>
        <time>2023-06-14T18:30:03.000Z</time>
      </trkpt>
      <trkpt lat="45.83981" lon="4.72238">
        <ele>284.5965</ele>
        <time>2023-06-14T18:30:04.000Z</time>
      </trkpt>
      <trkpt lat="45.83979" lon="4.72235">
        <ele>284.79153</ele>
        <time>2023-06-14T18:30:05.000Z</time>
      </trkpt>
      <trkpt lat="45.83977" lon="4.72231">
        <ele>285.08588</ele>
        <time>2023-06-14T18:30:06.000Z</time>
      </trkpt>
      <trkpt lat="45.83975" lon="4.72227">
        <ele>285.07666</ele>
        <time>2023-06-14T18:30:07.000Z</time>
      </trkpt>
      <trkpt lat="45.83973" lon="4.72224">
        <ele>285.14178</ele>
        <time>2023-06-14T18:30:08.000Z</time>
      </trkpt>
      <trkpt lat="45.83971" lon="4.7222">
        <ele>285.16031</ele>
        <time>2023-06-14T18:30:09.000Z</time>
      </trkpt>
      <trkpt lat="45.83969" lon="4.72216">
        <ele>285.19614</ele>
        <time>2023-06-14T18:30:10.000Z</time>
      </trkpt>
      <trkpt lat="45.83968" lon="4.72212">
        <ele>285.17297</ele>
        <time>2023-06-14T18:30:11.000Z</time>
      </trkpt>
      <trkpt lat="45.83966" lon="4.72208">
        <ele>285.16238</ele>
        <time>2023-06-14T18:30:12.000Z</time>
      </trkpt>
      <trkpt lat="45.83964" lon="4.72204">
        <ele>285.15094</ele>
        <time>2023-06-14T18:30:13.000Z</time>
      </trkpt>
      <trkpt lat="45.83962" lon="4.722">
        <ele>285.1402</ele>
        <time>2023-06-14T18:30:14.000Z</time>
      </trkpt>
      <trkpt lat="45.8396" lon="4.72197">
        <ele>285.00439</ele>
        <time>2023-06-14T18:30:15.000Z</time>
      </trkpt>
      <trkpt lat="45.83958" lon="4.72193">
        <ele>284.85428</ele>
        <time>2023-06-14T18:30:16.000Z</time>
      </trkpt>
      <trkpt lat="45.83957" lon="4.72189">
        <ele>284.70377</ele>
        <time>2023-06-14T18:30:17.000Z</time>
      </trkpt>
      <trkpt lat="45.83955" lon="4.72186">
        <ele>284.55548</ele>
        <time>2023-06-14T18:30:18.000Z</time>
      </trkpt>
      <trkpt lat="45.83952" lon="4.72182">
        <ele>284.39133</ele>
        <time>2023-06-14T18:30:19.000Z</time>
      </trkpt>
      <trkpt lat="45.8395" lon="4.72179">
        <ele>284.23529</ele>
        <time>2023-06-14T18:30:20.000Z</time>
      </trkpt>
      <trkpt lat="45.83948" lon="4.72175">
        <ele>284.08615</ele>
        <time>2023-06-14T18:30:21.000Z</time>
      </trkpt>
      <trkpt lat="45.83946" lon="4.72172">
        <ele>283.95163</ele>
        <time>2023-06-14T18:30:22.000Z</time>
      </trkpt>
      <trkpt lat="45.83943" lon="4.72169">
        <ele>283.82672</ele>
        <time>2023-06-14T18:30:23.000Z</time>
      </trkpt>
      <trkpt lat="45.83942" lon="4.72165">
        <ele>283.73761</ele>
        <time>2023-06-14T18:30:24.000Z</time>
      </trkpt>
      <trkpt lat="45.83943" lon="4.72161">
        <ele>283.5993</ele>
        <time>2023-06-14T18:30:25.000Z</time>
      </trkpt>
      <trkpt lat="45.83946" lon="4.72159">
        <ele>283.34125</ele>
        <time>2023-06-14T18:30:26.000Z</time>
      </trkpt>
      <trkpt lat="45.83949" lon="4.72158">
        <ele>283.37128</ele>
        <time>2023-06-14T18:30:27.000Z</time>
      </trkpt>
      <trkpt lat="45.83953" lon="4.72159">
        <ele>283.35583</ele>
        <time>2023-06-14T18:30:28.000Z</time>
      </trkpt>
      <trkpt lat="45.83957" lon="4.72161">
        <ele>283.33755</ele>
        <time>2023-06-14T18:30:29.000Z</time>
      </trkpt>
      <trkpt lat="45.8396" lon="4.72161">
        <ele>283.32721</ele>
        <time>2023-06-14T18:30:30.000Z</time>
      </trkpt>
      <trkpt lat="45.83963" lon="4.72162">
        <ele>283.31735</ele>
        <time>2023-06-14T18:30:31.000Z</time>
      </trkpt>
      <trkpt lat="45.83966" lon="4.72162">
        <ele>283.32236</ele>
        <time>2023-06-14T18:30:32.000Z</time>
      </trkpt>
      <trkpt lat="45.8397" lon="4.72163">
        <ele>283.29865</ele>
        <time>2023-06-14T18:30:33.000Z</time>
      </trkpt>
      <trkpt lat="45.83973" lon="4.72164">
        <ele>283.26868</ele>
        <time>2023-06-14T18:30:34.000Z</time>
      </trkpt>
      <trkpt lat="45.83976" lon="4.72165">
        <ele>283.21851</ele>
        <time>2023-06-14T18:30:35.000Z</time>
      </trkpt>
      <trkpt lat="45.83979" lon="4.72166">
        <ele>283.18521</ele>
        <time>2023-06-14T18:30:36.000Z</time>
      </trkpt>
      <trkpt lat="45.83983" lon="4.72167">
        <ele>283.13092</ele>
        <time>2023-06-14T18:30:37.000Z</time>
      </trkpt>
      <trkpt lat="45.83986" lon="4.72168">
        <ele>283.25595</ele>
        <time>2023-06-14T18:30:38.000Z</time>
      </trkpt>
      <trkpt lat="45.83988" lon="4.72169">
        <ele>283.50629</ele>
        <time>2023-06-14T18:30:39.000Z</time>
      </trkpt>
      <trkpt lat="45.83991" lon="4.72169">
        <ele>283.40457</ele>
        <time>2023-06-14T18:30:40.000Z</time>
      </trkpt>
      <trkpt lat="45.83994" lon="4.7217">
        <ele>283.37244</ele>
        <time>2023-06-14T18:30:41.000Z</time>
      </trkpt>
      <trkpt lat="45.83997" lon="4.7217">
        <ele>283.32895</ele>
        <time>2023-06-14T18:30:42.000Z</time>
      </trkpt>
      <trkpt lat="45.84" lon="4.72171">
        <ele>283.25293</ele>
        <time>2023-06-14T18:30:43.000Z</time>
      </trkpt>
      <trkpt lat="45.84003" lon="4.72171">
        <ele>283.41995</ele>
        <time>2023-06-14T18:30:44.000Z</time>
      </trkpt>
      <trkpt lat="45.84006" lon="4.72171">
        <ele>283.06866</ele>
        <time>2023-06-14T18:30:45.000Z</time>
      </trkpt>
      <trkpt lat="45.84009" lon="4.72171">
        <ele>282.73343</ele>
        <time>2023-06-14T18:30:46.000Z</time>
      </trkpt>
      <trkpt lat="45.84012" lon="4.7217">
        <ele>282.43222</ele>
        <time>2023-06-14T18:30:47.000Z</time>
      </trkpt>
      <trkpt lat="45.84015" lon="4.72169">
        <ele>282.14343</ele>
        <time>2023-06-14T18:30:48.000Z</time>
      </trkpt>
      <trkpt lat="45.84018" lon="4.72167">
        <ele>281.85846</ele>
        <time>2023-06-14T18:30:49.000Z</time>
      </trkpt>
      <trkpt lat="45.8402" lon="4.72163">
        <ele>281.57068</ele>
        <time>2023-06-14T18:30:50.000Z</time>
      </trkpt>
      <trkpt lat="45.84022" lon="4.72158">
        <ele>281.33282</ele>
        <time>2023-06-14T18:30:51.000Z</time>
      </trkpt>
      <trkpt lat="45.84023" lon="4.72153">
        <ele>281.0943</ele>
        <time>2023-06-14T18:30:52.000Z</time>
      </trkpt>
      <trkpt lat="45.84024" lon="4.72147">
        <ele>280.85394</ele>
        <time>2023-06-14T18:30:53.000Z</time>
      </trkpt>
      <trkpt lat="45.84023" lon="4.72141">
        <ele>280.60663</ele>
        <time>2023-06-14T18:30:54.000Z</time>
      </trkpt>
      <trkpt lat="45.84021" lon="4.72133">
        <ele>280.35629</ele>
        <time>2023-06-14T18:30:55.000Z</time>
      </trkpt>
      <trkpt lat="45.84022" lon="4.72126">
        <ele>280.09048</ele>
        <time>2023-06-14T18:30:56.000Z</time>
      </trkpt>
      <trkpt lat="45.84022" lon="4.72118">
        <ele>279.85931</ele>
        <time>2023-06-14T18:30:57.000Z</time>
      </trkpt>
      <trkpt lat="45.84021" lon="4.7211">
        <ele>279.45062</ele>
        <time>2023-06-14T18:30:58.000Z</time>
      </trkpt>
      <trkpt lat="45.8402" lon="4.72103">
        <ele>278.93866</ele>
        <time>2023-06-14T18:30:59.000Z</time>
      </trkpt>
      <trkpt lat="45.8402" lon="4.72095">
        <ele>278.76752</ele>
        <time>2023-06-14T18:31:00.000Z</time>
      </trkpt>
      <trkpt lat="45.84019" lon="4.72088">
        <ele>278.5296</ele>
        <time>2023-06-14T18:31:01.000Z</time>
      </trkpt>
      <trkpt lat="45.84018" lon="4.7208">
        <ele>278.26019</ele>
        <time>2023-06-14T18:31:02.000Z</time>
      </trkpt>
      <trkpt lat="45.84017" lon="4.72074">
        <ele>278.01242</ele>
        <time>2023-06-14T18:31:03.000Z</time>
      </trkpt>
      <trkpt lat="45.84017" lon="4.72067">
        <ele>277.4754</ele>
        <time>2023-06-14T18:31:04.000Z</time>
      </trkpt>
      <trkpt lat="45.84015" lon="4.7206">
        <ele>277.61282</ele>
        <time>2023-06-14T18:31:05.000Z</time>
      </trkpt>
      <trkpt lat="45.84015" lon="4.72053">
        <ele>277.63242</ele>
        <time>2023-06-14T18:31:06.000Z</time>
      </trkpt>
      <trkpt lat="45.84014" lon="4.72046">
        <ele>277.84558</ele>
        <time>2023-06-14T18:31:07.000Z</time>
      </trkpt>
      <trkpt lat="45.84014" lon="4.72039">
        <ele>278.06195</ele>
        <time>2023-06-14T18:31:08.000Z</time>
      </trkpt>
      <trkpt lat="45.84014" lon="4.72033">
        <ele>278.31201</ele>
        <time>2023-06-14T18:31:09.000Z</time>
      </trkpt>
      <trkpt lat="45.84013" lon="4.72027">
        <ele>278.57639</ele>
        <time>2023-06-14T18:31:10.000Z</time>
      </trkpt>
      <trkpt lat="45.84013" lon="4.72021">
        <ele>278.81293</ele>
        <time>2023-06-14T18:31:11.000Z</time>
      </trkpt>
      <trkpt lat="45.84013" lon="4.72015">
        <ele>279.05359</ele>
        <time>2023-06-14T18:31:12.000Z</time>
      </trkpt>
      <trkpt lat="45.84013" lon="4.72009">
        <ele>279.31903</ele>
        <time>2023-06-14T18:31:13.000Z</time>
      </trkpt>
      <trkpt lat="45.84013" lon="4.72004">
        <ele>279.6055</ele>
        <time>2023-06-14T18:31:14.000Z</time>
      </trkpt>
      <trkpt lat="45.84013" lon="4.71998">
        <ele>279.89111</ele>
        <time>2023-06-14T18:31:15.000Z</time>
      </trkpt>
      <trkpt lat="45.84012" lon="4.71993">
        <ele>280.19626</ele>
        <time>2023-06-14T18:31:16.000Z</time>
      </trkpt>
      <trkpt lat="45.84012" lon="4.71987">
        <ele>280.5943</ele>
        <time>2023-06-14T18:31:17.000Z</time>
      </trkpt>
      <trkpt lat="45.84011" lon="4.71982">
        <ele>281.07175</ele>
        <time>2023-06-14T18:31:18.000Z</time>
      </trkpt>
      <trkpt lat="45.84011" lon="4.71977">
        <ele>281.55121</ele>
        <time>2023-06-14T18:31:19.000Z</time>
      </trkpt>
      <trkpt lat="45.8401" lon="4.71972">
        <ele>281.81445</ele>
        <time>2023-06-14T18:31:20.000Z</time>
      </trkpt>
      <trkpt lat="45.8401" lon="4.71967">
        <ele>282.12958</ele>
        <time>2023-06-14T18:31:21.000Z</time>
      </trkpt>
      <trkpt lat="45.8401" lon="4.71962">
        <ele>282.465</ele>
        <time>2023-06-14T18:31:22.000Z</time>
      </trkpt>
      <trkpt lat="45.8401" lon="4.71957">
        <ele>282.81912</ele>
        <time>2023-06-14T18:31:23.000Z</time>
      </trkpt>
      <trkpt lat="45.84009" lon="4.71952">
        <ele>283.19873</ele>
        <time>2023-06-14T18:31:24.000Z</time>
      </trkpt>
      <trkpt lat="45.84009" lon="4.71948">
        <ele>283.47153</ele>
        <time>2023-06-14T18:31:25.000Z</time>
      </trkpt>
      <trkpt lat="45.84009" lon="4.71943">
        <ele>283.88983</ele>
        <time>2023-06-14T18:31:26.000Z</time>
      </trkpt>
      <trkpt lat="45.84009" lon="4.71939">
        <ele>284.11807</ele>
        <time>2023-06-14T18:31:27.000Z</time>
      </trkpt>
      <trkpt lat="45.84008" lon="4.71934">
        <ele>284.33926</ele>
        <time>2023-06-14T18:31:28.000Z</time>
      </trkpt>
      <trkpt lat="45.84008" lon="4.7193">
        <ele>284.52744</ele>
        <time>2023-06-14T18:31:29.000Z</time>
      </trkpt>
      <trkpt lat="45.84007" lon="4.71925">
        <ele>284.72064</ele>
        <time>2023-06-14T18:31:30.000Z</time>
      </trkpt>
      <trkpt lat="45.84007" lon="4.71921">
        <ele>285.10889</ele>
        <time>2023-06-14T18:31:31.000Z</time>
      </trkpt>
      <trkpt lat="45.84007" lon="4.71916">
        <ele>285.39319</ele>
        <time>2023-06-14T18:31:32.000Z</time>
      </trkpt>
      <trkpt lat="45.84007" lon="4.71912">
        <ele>285.65094</ele>
        <time>2023-06-14T18:31:33.000Z</time>
      </trkpt>
      <trkpt lat="45.84007" lon="4.71907">
        <ele>285.91046</ele>
        <time>2023-06-14T18:31:34.000Z</time>
      </trkpt>
      <trkpt lat="45.84007" lon="4.71903">
        <ele>286.17471</ele>
        <time>2023-06-14T18:31:35.000Z</time>
      </trkpt>
      <trkpt lat="45.84007" lon="4.71898">
        <ele>286.41046</ele>
        <time>2023-06-14T18:31:36.000Z</time>
      </trkpt>
      <trkpt lat="45.84006" lon="4.71894">
        <ele>286.54709</ele>
        <time>2023-06-14T18:31:37.000Z</time>
      </trkpt>
      <trkpt lat="45.84005" lon="4.7189">
        <ele>286.61713</ele>
        <time>2023-06-14T18:31:38.000Z</time>
      </trkpt>
      <trkpt lat="45.84003" lon="4.71886">
        <ele>286.69489</ele>
        <time>2023-06-14T18:31:39.000Z</time>
      </trkpt>
      <trkpt lat="45.84002" lon="4.71882">
        <ele>286.98615</ele>
        <time>2023-06-14T18:31:40.000Z</time>
      </trkpt>
      <trkpt lat="45.84" lon="4.71879">
        <ele>287.22266</ele>
        <time>2023-06-14T18:31:41.000Z</time>
      </trkpt>
      <trkpt lat="45.83997" lon="4.71875">
        <ele>287.47003</ele>
        <time>2023-06-14T18:31:42.000Z</time>
      </trkpt>
      <trkpt lat="45.83994" lon="4.71872">
        <ele>287.6944</ele>
        <time>2023-06-14T18:31:43.000Z</time>
      </trkpt>
      <trkpt lat="45.83992" lon="4.71868">
        <ele>287.91254</ele>
        <time>2023-06-14T18:31:44.000Z</time>
      </trkpt>
      <trkpt lat="45.83989" lon="4.71865">
        <ele>288.24139</ele>
        <time>2023-06-14T18:31:45.000Z</time>
      </trkpt>
      <trkpt lat="45.83986" lon="4.71861">
        <ele>288.62814</ele>
        <time>2023-06-14T18:31:46.000Z</time>
      </trkpt>
      <trkpt lat="45.83983" lon="4.71857">
        <ele>288.7355</ele>
        <time>2023-06-14T18:31:47.000Z</time>
      </trkpt>
      <trkpt lat="45.8398" lon="4.71853">
        <ele>288.87033</ele>
        <time>2023-06-14T18:31:48.000Z</time>
      </trkpt>
      <trkpt lat="45.83977" lon="4.71848">
        <ele>288.99652</ele>
        <time>2023-06-14T18:31:49.000Z</time>
      </trkpt>
      <trkpt lat="45.83974" lon="4.71843">
        <ele>289.09985</ele>
        <time>2023-06-14T18:31:50.000Z</time>
      </trkpt>
      <trkpt lat="45.83971" lon="4.71838">
        <ele>289.00714</ele>
        <time>2023-06-14T18:31:51.000Z</time>
      </trkpt>
      <trkpt lat="45.83968" lon="4.71833">
        <ele>288.97577</ele>
        <time>2023-06-14T18:31:52.000Z</time>
      </trkpt>
      <trkpt lat="45.83965" lon="4.71827">
        <ele>288.94424</ele>
        <time>2023-06-14T18:31:53.000Z</time>
      </trkpt>
      <trkpt lat="45.83962" lon="4.71822">
        <ele>289.03595</ele>
        <time>2023-06-14T18:31:54.000Z</time>
      </trkpt>
      <trkpt lat="45.83958" lon="4.71816">
        <ele>289.11652</ele>
        <time>2023-06-14T18:31:55.000Z</time>
      </trkpt>
      <trkpt lat="45.83954" lon="4.71811">
        <ele>289.2038</ele>
        <time>2023-06-14T18:31:56.000Z</time>
      </trkpt>
      <trkpt lat="45.83952" lon="4.71805">
        <ele>289.25861</ele>
        <time>2023-06-14T18:31:57.000Z</time>
      </trkpt>
      <trkpt lat="45.8395" lon="4.71799">
        <ele>289.40945</ele>
        <time>2023-06-14T18:31:58.000Z</time>
      </trkpt>
      <trkpt lat="45.83949" lon="4.71793">
        <ele>289.54681</ele>
        <time>2023-06-14T18:31:59.000Z</time>
      </trkpt>
      <trkpt lat="45.83948" lon="4.71787">
        <ele>289.38895</ele>
        <time>2023-06-14T18:32:00.000Z</time>
      </trkpt>
      <trkpt lat="45.83947" lon="4.7178">
        <ele>289.27228</ele>
        <time>2023-06-14T18:32:01.000Z</time>
      </trkpt>
      <trkpt lat="45.83945" lon="4.71774">
        <ele>289.15118</ele>
        <time>2023-06-14T18:32:02.000Z</time>
      </trkpt>
      <trkpt lat="45.83942" lon="4.71768">
        <ele>289.02487</ele>
        <time>2023-06-14T18:32:03.000Z</time>
      </trkpt>
      <trkpt lat="45.83938" lon="4.71763">
        <ele>288.88599</ele>
        <time>2023-06-14T18:32:04.000Z</time>
      </trkpt>
      <trkpt lat="45.83935" lon="4.71759">
        <ele>288.61615</ele>
        <time>2023-06-14T18:32:05.000Z</time>
      </trkpt>
      <trkpt lat="45.83931" lon="4.71755">
        <ele>288.21762</ele>
        <time>2023-06-14T18:32:06.000Z</time>
      </trkpt>
      <trkpt lat="45.83928" lon="4.71752">
        <ele>288.06378</ele>
        <time>2023-06-14T18:32:07.000Z</time>
      </trkpt>
      <trkpt lat="45.83924" lon="4.71751">
        <ele>287.87253</ele>
        <time>2023-06-14T18:32:08.000Z</time>
      </trkpt>
      <trkpt lat="45.8392" lon="4.71749">
        <ele>287.70712</ele>
        <time>2023-06-14T18:32:09.000Z</time>
      </trkpt>
      <trkpt lat="45.83916" lon="4.71748">
        <ele>287.67484</ele>
        <time>2023-06-14T18:32:10.000Z</time>
      </trkpt>
      <trkpt lat="45.83911" lon="4.71747">
        <ele>287.73303</ele>
        <time>2023-06-14T18:32:11.000Z</time>
      </trkpt>
      <trkpt lat="45.83907" lon="4.71745">
        <ele>287.52975</ele>
        <time>2023-06-14T18:32:12.000Z</time>
      </trkpt>
      <trkpt lat="45.83902" lon="4.71742">
        <ele>287.38718</ele>
        <time>2023-06-14T18:32:13.000Z</time>
      </trkpt>
      <trkpt lat="45.83896" lon="4.71739">
        <ele>287.11591</ele>
        <time>2023-06-14T18:32:14.000Z</time>
      </trkpt>
      <trkpt lat="45.83891" lon="4.71737">
        <ele>286.84955</ele>
        <time>2023-06-14T18:32:15.000Z</time>
      </trkpt>
      <trkpt lat="45.83884" lon="4.71734">
        <ele>286.57785</ele>
        <time>2023-06-14T18:32:16.000Z</time>
      </trkpt>
      <trkpt lat="45.83878" lon="4.71731">
        <ele>286.33542</ele>
        <time>2023-06-14T18:32:17.000Z</time>
      </trkpt>
      <trkpt lat="45.83872" lon="4.71729">
        <ele>286.1048</ele>
        <time>2023-06-14T18:32:18.000Z</time>
      </trkpt>
      <trkpt lat="45.83866" lon="4.71727">
        <ele>285.97516</ele>
        <time>2023-06-14T18:32:19.000Z</time>
      </trkpt>
      <trkpt lat="45.8386" lon="4.71725">
        <ele>285.82617</ele>
        <time>2023-06-14T18:32:20.000Z</time>
      </trkpt>
      <trkpt lat="45.83855" lon="4.71723">
        <ele>285.65973</ele>
        <time>2023-06-14T18:32:21.000Z</time>
      </trkpt>
      <trkpt lat="45.83849" lon="4.71722">
        <ele>285.50995</ele>
        <time>2023-06-14T18:32:22.000Z</time>
      </trkpt>
      <trkpt lat="45.83842" lon="4.7172">
        <ele>285.41046</ele>
        <time>2023-06-14T18:32:23.000Z</time>
      </trkpt>
      <trkpt lat="45.83836" lon="4.7172">
        <ele>285.29718</ele>
        <time>2023-06-14T18:32:24.000Z</time>
      </trkpt>
      <trkpt lat="45.83829" lon="4.71717">
        <ele>285.21152</ele>
        <time>2023-06-14T18:32:25.000Z</time>
      </trkpt>
      <trkpt lat="45.83825" lon="4.71715">
        <ele>285.21381</ele>
        <time>2023-06-14T18:32:26.000Z</time>
      </trkpt>
      <trkpt lat="45.83819" lon="4.71715">
        <ele>285.25323</ele>
        <time>2023-06-14T18:32:27.000Z</time>
      </trkpt>
      <trkpt lat="45.83815" lon="4.71713">
        <ele>285.41913</ele>
        <time>2023-06-14T18:32:28.000Z</time>
      </trkpt>
      <trkpt lat="45.83808" lon="4.71711">
        <ele>285.62619</ele>
        <time>2023-06-14T18:32:29.000Z</time>
      </trkpt>
      <trkpt lat="45.83803" lon="4.7171">
        <ele>285.75604</ele>
        <time>2023-06-14T18:32:30.000Z</time>
      </trkpt>
      <trkpt lat="45.83797" lon="4.71708">
        <ele>286.00446</ele>
        <time>2023-06-14T18:32:31.000Z</time>
      </trkpt>
      <trkpt lat="45.83792" lon="4.71706">
        <ele>286.14859</ele>
        <time>2023-06-14T18:32:32.000Z</time>
      </trkpt>
      <trkpt lat="45.83785" lon="4.71706">
        <ele>286.27979</ele>
        <time>2023-06-14T18:32:33.000Z</time>
      </trkpt>
      <trkpt lat="45.83778" lon="4.71707">
        <ele>286.45004</ele>
        <time>2023-06-14T18:32:34.000Z</time>
      </trkpt>
      <trkpt lat="45.83771" lon="4.71705">
        <ele>286.02969</ele>
        <time>2023-06-14T18:32:35.000Z</time>
      </trkpt>
      <trkpt lat="45.83765" lon="4.71704">
        <ele>285.547</ele>
        <time>2023-06-14T18:32:36.000Z</time>
      </trkpt>
      <trkpt lat="45.83759" lon="4.71704">
        <ele>285.06094</ele>
        <time>2023-06-14T18:32:37.000Z</time>
      </trkpt>
      <trkpt lat="45.83752" lon="4.71704">
        <ele>284.4949</ele>
        <time>2023-06-14T18:32:38.000Z</time>
      </trkpt>
      <trkpt lat="45.83744" lon="4.71704">
        <ele>283.80515</ele>
        <time>2023-06-14T18:32:39.000Z</time>
      </trkpt>
      <trkpt lat="45.83737" lon="4.71705">
        <ele>283.42145</ele>
        <time>2023-06-14T18:32:40.000Z</time>
      </trkpt>
      <trkpt lat="45.8373" lon="4.71703">
        <ele>283.01895</ele>
        <time>2023-06-14T18:32:41.000Z</time>
      </trkpt>
      <trkpt lat="45.83724" lon="4.71701">
        <ele>282.64017</ele>
        <time>2023-06-14T18:32:42.000Z</time>
      </trkpt>
      <trkpt lat="45.83722" lon="4.71691">
        <ele>282.19788</ele>
        <time>2023-06-14T18:32:43.000Z</time>
      </trkpt>
      <trkpt lat="45.83718" lon="4.71683">
        <ele>281.71039</ele>
        <time>2023-06-14T18:32:44.000Z</time>
      </trkpt>
      <trkpt lat="45.83716" lon="4.71678">
        <ele>281.2359</ele>
        <time>2023-06-14T18:32:45.000Z</time>
      </trkpt>
      <trkpt lat="45.83713" lon="4.71672">
        <ele>280.71814</ele>
        <time>2023-06-14T18:32:46.000Z</time>
      </trkpt>
      <trkpt lat="45.8371" lon="4.71665">
        <ele>280.15991</ele>
        <time>2023-06-14T18:32:47.000Z</time>
      </trkpt>
      <trkpt lat="45.83706" lon="4.71658">
        <ele>279.56696</ele>
        <time>2023-06-14T18:32:48.000Z</time>
      </trkpt>
      <trkpt lat="45.83704" lon="4.71654">
        <ele>278.89581</ele>
        <time>2023-06-14T18:32:49.000Z</time>
      </trkpt>
      <trkpt lat="45.83701" lon="4.7165">
        <ele>278.07074</ele>
        <time>2023-06-14T18:32:50.000Z</time>
      </trkpt>
      <trkpt lat="45.83695" lon="4.7165">
        <ele>277.16266</ele>
        <time>2023-06-14T18:32:51.000Z</time>
      </trkpt>
      <trkpt lat="45.8369" lon="4.71648">
        <ele>276.62308</ele>
        <time>2023-06-14T18:32:52.000Z</time>
      </trkpt>
      <trkpt lat="45.83691" lon="4.71652">
        <ele>276.0426</ele>
        <time>2023-06-14T18:32:53.000Z</time>
      </trkpt>
      <trkpt lat="45.83687" lon="4.71651">
        <ele>275.45526</ele>
        <time>2023-06-14T18:32:54.000Z</time>
      </trkpt>
      <trkpt lat="45.83684" lon="4.71653">
        <ele>275.48993</ele>
        <time>2023-06-14T18:32:55.000Z</time>
      </trkpt>
      <trkpt lat="45.83681" lon="4.71655">
        <ele>275.54694</ele>
        <time>2023-06-14T18:32:56.000Z</time>
      </trkpt>
      <trkpt lat="45.83678" lon="4.71656">
        <ele>275.60892</ele>
        <time>2023-06-14T18:32:57.000Z</time>
      </trkpt>
      <trkpt lat="45.83675" lon="4.71657">
        <ele>275.66809</ele>
        <time>2023-06-14T18:32:58.000Z</time>
      </trkpt>
      <trkpt lat="45.8367" lon="4.71657">
        <ele>275.77588</ele>
        <time>2023-06-14T18:32:59.000Z</time>
      </trkpt>
      <trkpt lat="45.83669" lon="4.71658">
        <ele>275.84399</ele>
        <time>2023-06-14T18:33:00.000Z</time>
      </trkpt>
      <trkpt lat="45.83668" lon="4.71655">
        <ele>276.02945</ele>
        <time>2023-06-14T18:33:01.000Z</time>
      </trkpt>
      <trkpt lat="45.83665" lon="4.71655">
        <ele>276.12106</ele>
        <time>2023-06-14T18:33:02.000Z</time>
      </trkpt>
      <trkpt lat="45.83662" lon="4.71654">
        <ele>276.30527</ele>
        <time>2023-06-14T18:33:03.000Z</time>
      </trkpt>
      <trkpt lat="45.83659" lon="4.71653">
        <ele>276.58307</ele>
        <time>2023-06-14T18:33:04.000Z</time>
      </trkpt>
      <trkpt lat="45.83656" lon="4.71652">
        <ele>276.84747</ele>
        <time>2023-06-14T18:33:05.000Z</time>
      </trkpt>
      <trkpt lat="45.83653" lon="4.71651">
        <ele>277.02716</ele>
        <time>2023-06-14T18:33:06.000Z</time>
      </trkpt>
      <trkpt lat="45.8365" lon="4.71649">
        <ele>277.23154</ele>
        <time>2023-06-14T18:33:07.000Z</time>
      </trkpt>
      <trkpt lat="45.83648" lon="4.71648">
        <ele>277.49088</ele>
        <time>2023-06-14T18:33:08.000Z</time>
      </trkpt>
      <trkpt lat="45.83645" lon="4.71647">
        <ele>277.75928</ele>
        <time>2023-06-14T18:33:09.000Z</time>
      </trkpt>
      <trkpt lat="45.83643" lon="4.71645">
        <ele>277.94241</ele>
        <time>2023-06-14T18:33:10.000Z</time>
      </trkpt>
      <trkpt lat="45.83641" lon="4.71643">
        <ele>277.97055</ele>
        <time>2023-06-14T18:33:11.000Z</time>
      </trkpt>
      <trkpt lat="45.83639" lon="4.71641">
        <ele>278.02338</ele>
        <time>2023-06-14T18:33:12.000Z</time>
      </trkpt>
      <trkpt lat="45.83637" lon="4.71638">
        <ele>278.11517</ele>
        <time>2023-06-14T18:33:13.000Z</time>
      </trkpt>
      <trkpt lat="45.83635" lon="4.71636">
        <ele>278.21796</ele>
        <time>2023-06-14T18:33:14.000Z</time>
      </trkpt>
      <trkpt lat="45.83633" lon="4.71634">
        <ele>278.29343</ele>
        <time>2023-06-14T18:33:15.000Z</time>
      </trkpt>
      <trkpt lat="45.83631" lon="4.71631">
        <ele>278.43661</ele>
        <time>2023-06-14T18:33:16.000Z</time>
      </trkpt>
      <trkpt lat="45.8363" lon="4.71628">
        <ele>278.57172</ele>
        <time>2023-06-14T18:33:17.000Z</time>
      </trkpt>
      <trkpt lat="45.83629" lon="4.71625">
        <ele>278.6781</ele>
        <time>2023-06-14T18:33:18.000Z</time>
      </trkpt>
      <trkpt lat="45.83628" lon="4.71621">
        <ele>278.75854</ele>
        <time>2023-06-14T18:33:19.000Z</time>
      </trkpt>
      <trkpt lat="45.83627" lon="4.71617">
        <ele>278.92169</ele>
        <time>2023-06-14T18:33:20.000Z</time>
      </trkpt>
      <trkpt lat="45.83627" lon="4.71614">
        <ele>278.93167</ele>
        <time>2023-06-14T18:33:21.000Z</time>
      </trkpt>
      <trkpt lat="45.83627" lon="4.7161">
        <ele>279.03595</ele>
        <time>2023-06-14T18:33:22.000Z</time>
      </trkpt>
      <trkpt lat="45.83627" lon="4.71608">
        <ele>279.11389</ele>
        <time>2023-06-14T18:33:23.000Z</time>
      </trkpt>
      <trkpt lat="45.83627" lon="4.71604">
        <ele>279.25043</ele>
        <time>2023-06-14T18:33:24.000Z</time>
      </trkpt>
      <trkpt lat="45.83626" lon="4.716">
        <ele>279.44855</ele>
        <time>2023-06-14T18:33:25.000Z</time>
      </trkpt>
      <trkpt lat="45.83626" lon="4.71596">
        <ele>279.77789</ele>
        <time>2023-06-14T18:33:26.000Z</time>
      </trkpt>
      <trkpt lat="45.83625" lon="4.71592">
        <ele>280.07098</ele>
        <time>2023-06-14T18:33:27.000Z</time>
      </trkpt>
      <trkpt lat="45.83624" lon="4.71589">
        <ele>280.25323</ele>
        <time>2023-06-14T18:33:29.000Z</time>
      </trkpt>
      <trkpt lat="45.83624" lon="4.71586">
        <ele>280.46808</ele>
        <time>2023-06-14T18:33:30.000Z</time>
      </trkpt>
      <trkpt lat="45.83624" lon="4.71581">
        <ele>280.85312</ele>
        <time>2023-06-14T18:33:31.000Z</time>
      </trkpt>
      <trkpt lat="45.83624" lon="4.71577">
        <ele>281.28552</ele>
        <time>2023-06-14T18:33:32.000Z</time>
      </trkpt>
      <trkpt lat="45.83624" lon="4.71573">
        <ele>281.71191</ele>
        <time>2023-06-14T18:33:33.000Z</time>
      </trkpt>
      <trkpt lat="45.83624" lon="4.71569">
        <ele>282.14178</ele>
        <time>2023-06-14T18:33:34.000Z</time>
      </trkpt>
      <trkpt lat="45.83623" lon="4.71566">
        <ele>282.55222</ele>
        <time>2023-06-14T18:33:35.000Z</time>
      </trkpt>
      <trkpt lat="45.83623" lon="4.71563">
        <ele>283.1864</ele>
        <time>2023-06-14T18:33:36.000Z</time>
      </trkpt>
      <trkpt lat="45.83624" lon="4.71559">
        <ele>283.81787</ele>
        <time>2023-06-14T18:33:37.000Z</time>
      </trkpt>
      <trkpt lat="45.83623" lon="4.71555">
        <ele>284.47388</ele>
        <time>2023-06-14T18:33:38.000Z</time>
      </trkpt>
      <trkpt lat="45.83623" lon="4.71552">
        <ele>285.1106</ele>
        <time>2023-06-14T18:33:39.000Z</time>
      </trkpt>
      <trkpt lat="45.83623" lon="4.71549">
        <ele>285.77664</ele>
        <time>2023-06-14T18:33:40.000Z</time>
      </trkpt>
      <trkpt lat="45.83622" lon="4.71544">
        <ele>286.27524</ele>
        <time>2023-06-14T18:33:41.000Z</time>
      </trkpt>
      <trkpt lat="45.83621" lon="4.7154">
        <ele>286.82916</ele>
        <time>2023-06-14T18:33:42.000Z</time>
      </trkpt>
      <trkpt lat="45.8362" lon="4.71536">
        <ele>287.37634</ele>
        <time>2023-06-14T18:33:43.000Z</time>
      </trkpt>
      <trkpt lat="45.83618" lon="4.71532">
        <ele>287.90317</ele>
        <time>2023-06-14T18:33:44.000Z</time>
      </trkpt>
      <trkpt lat="45.83616" lon="4.71528">
        <ele>288.33127</ele>
        <time>2023-06-14T18:33:45.000Z</time>
      </trkpt>
      <trkpt lat="45.83615" lon="4.71524">
        <ele>288.70715</ele>
        <time>2023-06-14T18:33:46.000Z</time>
      </trkpt>
      <trkpt lat="45.83613" lon="4.71519">
        <ele>289.03973</ele>
        <time>2023-06-14T18:33:47.000Z</time>
      </trkpt>
      <trkpt lat="45.83611" lon="4.71515">
        <ele>289.4137</ele>
        <time>2023-06-14T18:33:48.000Z</time>
      </trkpt>
      <trkpt lat="45.83609" lon="4.71512">
        <ele>289.78241</ele>
        <time>2023-06-14T18:33:49.000Z</time>
      </trkpt>
      <trkpt lat="45.83607" lon="4.71509">
        <ele>290.13165</ele>
        <time>2023-06-14T18:33:50.000Z</time>
      </trkpt>
      <trkpt lat="45.83606" lon="4.71506">
        <ele>290.53326</ele>
        <time>2023-06-14T18:33:51.000Z</time>
      </trkpt>
      <trkpt lat="45.83605" lon="4.71503">
        <ele>290.85217</ele>
        <time>2023-06-14T18:33:52.000Z</time>
      </trkpt>
      <trkpt lat="45.83605" lon="4.715">
        <ele>291.19611</ele>
        <time>2023-06-14T18:33:53.000Z</time>
      </trkpt>
      <trkpt lat="45.83607" lon="4.71496">
        <ele>291.51755</ele>
        <time>2023-06-14T18:33:54.000Z</time>
      </trkpt>
      <trkpt lat="45.83609" lon="4.71492">
        <ele>291.77451</ele>
        <time>2023-06-14T18:33:55.000Z</time>
      </trkpt>
      <trkpt lat="45.83612" lon="4.71489">
        <ele>291.79401</ele>
        <time>2023-06-14T18:33:56.000Z</time>
      </trkpt>
      <trkpt lat="45.83615" lon="4.71487">
        <ele>291.7753</ele>
        <time>2023-06-14T18:33:57.000Z</time>
      </trkpt>
      <trkpt lat="45.83617" lon="4.71485">
        <ele>291.75439</ele>
        <time>2023-06-14T18:33:58.000Z</time>
      </trkpt>
      <trkpt lat="45.8362" lon="4.71483">
        <ele>291.82159</ele>
        <time>2023-06-14T18:33:59.000Z</time>
      </trkpt>
      <trkpt lat="45.83622" lon="4.7148">
        <ele>291.88126</ele>
        <time>2023-06-14T18:34:00.000Z</time>
      </trkpt>
      <trkpt lat="45.83625" lon="4.71476">
        <ele>292.05493</ele>
        <time>2023-06-14T18:34:01.000Z</time>
      </trkpt>
      <trkpt lat="45.83627" lon="4.71471">
        <ele>292.18802</ele>
        <time>2023-06-14T18:34:02.000Z</time>
      </trkpt>
      <trkpt lat="45.83628" lon="4.71466">
        <ele>292.27274</ele>
        <time>2023-06-14T18:34:03.000Z</time>
      </trkpt>
      <trkpt lat="45.8363" lon="4.71461">
        <ele>292.35342</ele>
        <time>2023-06-14T18:34:04.000Z</time>
      </trkpt>
      <trkpt lat="45.83631" lon="4.71457">
        <ele>292.44073</ele>
        <time>2023-06-14T18:34:05.000Z</time>
      </trkpt>
      <trkpt lat="45.83633" lon="4.71452">
        <ele>292.51178</ele>
        <time>2023-06-14T18:34:06.000Z</time>
      </trkpt>
      <trkpt lat="45.83634" lon="4.71447">
        <ele>292.56223</ele>
        <time>2023-06-14T18:34:07.000Z</time>
      </trkpt>
      <trkpt lat="45.83635" lon="4.71442">
        <ele>292.60504</ele>
        <time>2023-06-14T18:34:08.000Z</time>
      </trkpt>
      <trkpt lat="45.83637" lon="4.71437">
        <ele>292.59424</ele>
        <time>2023-06-14T18:34:09.000Z</time>
      </trkpt>
      <trkpt lat="45.83638" lon="4.71432">
        <ele>292.63422</ele>
        <time>2023-06-14T18:34:10.000Z</time>
      </trkpt>
      <trkpt lat="45.8364" lon="4.71427">
        <ele>292.64166</ele>
        <time>2023-06-14T18:34:11.000Z</time>
      </trkpt>
      <trkpt lat="45.83641" lon="4.71421">
        <ele>292.7178</ele>
        <time>2023-06-14T18:34:12.000Z</time>
      </trkpt>
      <trkpt lat="45.83642" lon="4.71416">
        <ele>292.77762</ele>
        <time>2023-06-14T18:34:13.000Z</time>
      </trkpt>
      <trkpt lat="45.83643" lon="4.71411">
        <ele>292.83453</ele>
        <time>2023-06-14T18:34:14.000Z</time>
      </trkpt>
      <trkpt lat="45.83645" lon="4.71405">
        <ele>292.90347</ele>
        <time>2023-06-14T18:34:15.000Z</time>
      </trkpt>
      <trkpt lat="45.83646" lon="4.714">
        <ele>292.94104</ele>
        <time>2023-06-14T18:34:16.000Z</time>
      </trkpt>
      <trkpt lat="45.83648" lon="4.71395">
        <ele>293.02478</ele>
        <time>2023-06-14T18:34:17.000Z</time>
      </trkpt>
      <trkpt lat="45.83649" lon="4.71389">
        <ele>293.09814</ele>
        <time>2023-06-14T18:34:18.000Z</time>
      </trkpt>
      <trkpt lat="45.8365" lon="4.71384">
        <ele>293.1185</ele>
        <time>2023-06-14T18:34:19.000Z</time>
      </trkpt>
      <trkpt lat="45.83651" lon="4.71378">
        <ele>293.1264</ele>
        <time>2023-06-14T18:34:20.000Z</time>
      </trkpt>
      <trkpt lat="45.83652" lon="4.71373">
        <ele>293.18216</ele>
        <time>2023-06-14T18:34:21.000Z</time>
      </trkpt>
      <trkpt lat="45.83653" lon="4.71367">
        <ele>293.24973</ele>
        <time>2023-06-14T18:34:22.000Z</time>
      </trkpt>
      <trkpt lat="45.83654" lon="4.71361">
        <ele>293.29156</ele>
        <time>2023-06-14T18:34:23.000Z</time>
      </trkpt>
      <trkpt lat="45.83655" lon="4.71356">
        <ele>293.31366</ele>
        <time>2023-06-14T18:34:24.000Z</time>
      </trkpt>
      <trkpt lat="45.83656" lon="4.7135">
        <ele>293.32623</ele>
        <time>2023-06-14T18:34:25.000Z</time>
      </trkpt>
      <trkpt lat="45.83657" lon="4.71345">
        <ele>293.3537</ele>
        <time>2023-06-14T18:34:26.000Z</time>
      </trkpt>
      <trkpt lat="45.83658" lon="4.71339">
        <ele>293.38974</ele>
        <time>2023-06-14T18:34:27.000Z</time>
      </trkpt>
      <trkpt lat="45.83659" lon="4.71333">
        <ele>293.41263</ele>
        <time>2023-06-14T18:34:28.000Z</time>
      </trkpt>
      <trkpt lat="45.8366" lon="4.71328">
        <ele>293.46204</ele>
        <time>2023-06-14T18:34:29.000Z</time>
      </trkpt>
      <trkpt lat="45.83661" lon="4.71322">
        <ele>293.47092</ele>
        <time>2023-06-14T18:34:30.000Z</time>
      </trkpt>
      <trkpt lat="45.83662" lon="4.71317">
        <ele>293.4794</ele>
        <time>2023-06-14T18:34:31.000Z</time>
      </trkpt>
      <trkpt lat="45.83663" lon="4.71311">
        <ele>293.4808</ele>
        <time>2023-06-14T18:34:32.000Z</time>
      </trkpt>
      <trkpt lat="45.83664" lon="4.71306">
        <ele>293.45648</ele>
        <time>2023-06-14T18:34:33.000Z</time>
      </trkpt>
      <trkpt lat="45.83665" lon="4.713">
        <ele>293.42813</ele>
        <time>2023-06-14T18:34:34.000Z</time>
      </trkpt>
      <trkpt lat="45.83665" lon="4.71294">
        <ele>293.41455</ele>
        <time>2023-06-14T18:34:35.000Z</time>
      </trkpt>
      <trkpt lat="45.83666" lon="4.71289">
        <ele>293.4277</ele>
        <time>2023-06-14T18:34:36.000Z</time>
      </trkpt>
      <trkpt lat="45.83667" lon="4.71283">
        <ele>293.41254</ele>
        <time>2023-06-14T18:34:37.000Z</time>
      </trkpt>
      <trkpt lat="45.83668" lon="4.71279">
        <ele>293.38651</ele>
        <time>2023-06-14T18:34:38.000Z</time>
      </trkpt>
      <trkpt lat="45.8367" lon="4.71274">
        <ele>293.30746</ele>
        <time>2023-06-14T18:34:39.000Z</time>
      </trkpt>
      <trkpt lat="45.83671" lon="4.7127">
        <ele>293.23041</ele>
        <time>2023-06-14T18:34:40.000Z</time>
      </trkpt>
      <trkpt lat="45.83673" lon="4.71265">
        <ele>293.13336</ele>
        <time>2023-06-14T18:34:41.000Z</time>
      </trkpt>
      <trkpt lat="45.83675" lon="4.71259">
        <ele>293.02295</ele>
        <time>2023-06-14T18:34:42.000Z</time>
      </trkpt>
      <trkpt lat="45.83675" lon="4.71251">
        <ele>292.96878</ele>
        <time>2023-06-14T18:34:43.000Z</time>
      </trkpt>
      <trkpt lat="45.83675" lon="4.71246">
        <ele>292.91876</ele>
        <time>2023-06-14T18:34:44.000Z</time>
      </trkpt>
      <trkpt lat="45.83677" lon="4.71241">
        <ele>292.87799</ele>
        <time>2023-06-14T18:34:45.000Z</time>
      </trkpt>
      <trkpt lat="45.83678" lon="4.71237">
        <ele>292.74408</ele>
        <time>2023-06-14T18:34:46.000Z</time>
      </trkpt>
      <trkpt lat="45.83679" lon="4.71232">
        <ele>292.62064</ele>
        <time>2023-06-14T18:34:47.000Z</time>
      </trkpt>
      <trkpt lat="45.83679" lon="4.71226">
        <ele>292.50375</ele>
        <time>2023-06-14T18:34:48.000Z</time>
      </trkpt>
      <trkpt lat="45.83678" lon="4.71223">
        <ele>292.39633</ele>
        <time>2023-06-14T18:34:49.000Z</time>
      </trkpt>
      <trkpt lat="45.83676" lon="4.71222">
        <ele>292.28729</ele>
        <time>2023-06-14T18:34:50.000Z</time>
      </trkpt>
      <trkpt lat="45.83673" lon="4.71219">
        <ele>292.20322</ele>
        <time>2023-06-14T18:34:52.000Z</time>
      </trkpt>
      <trkpt lat="45.8367" lon="4.71217">
        <ele>292.06854</ele>
        <time>2023-06-14T18:34:54.000Z</time>
      </trkpt>
      <trkpt lat="45.83669" lon="4.71215">
        <ele>291.97797</ele>
        <time>2023-06-14T18:34:56.000Z</time>
      </trkpt>
      <trkpt lat="45.83667" lon="4.71212">
        <ele>291.95361</ele>
        <time>2023-06-14T18:34:58.000Z</time>
      </trkpt>
      <trkpt lat="45.83666" lon="4.71209">
        <ele>291.97314</ele>
        <time>2023-06-14T18:35:02.000Z</time>
      </trkpt>
      <trkpt lat="45.83662" lon="4.71207">
        <ele>292.04129</ele>
        <time>2023-06-14T18:35:04.000Z</time>
      </trkpt>
      <trkpt lat="45.83659" lon="4.71205">
        <ele>292.13913</ele>
        <time>2023-06-14T18:35:05.000Z</time>
      </trkpt>
      <trkpt lat="45.83657" lon="4.71203">
        <ele>292.21826</ele>
        <time>2023-06-14T18:35:06.000Z</time>
      </trkpt>
      <trkpt lat="45.83654" lon="4.71202">
        <ele>292.33157</ele>
        <time>2023-06-14T18:35:07.000Z</time>
      </trkpt>
      <trkpt lat="45.83652" lon="4.71201">
        <ele>292.43649</ele>
        <time>2023-06-14T18:35:08.000Z</time>
      </trkpt>
      <trkpt lat="45.83649" lon="4.712">
        <ele>292.5217</ele>
        <time>2023-06-14T18:35:09.000Z</time>
      </trkpt>
      <trkpt lat="45.83647" lon="4.71198">
        <ele>292.64673</ele>
        <time>2023-06-14T18:35:10.000Z</time>
      </trkpt>
      <trkpt lat="45.83644" lon="4.71196">
        <ele>292.75424</ele>
        <time>2023-06-14T18:35:11.000Z</time>
      </trkpt>
      <trkpt lat="45.83641" lon="4.71194">
        <ele>292.87372</ele>
        <time>2023-06-14T18:35:12.000Z</time>
      </trkpt>
      <trkpt lat="45.83639" lon="4.71191">
        <ele>292.95428</ele>
        <time>2023-06-14T18:35:13.000Z</time>
      </trkpt>
      <trkpt lat="45.83636" lon="4.71189">
        <ele>293.12701</ele>
        <time>2023-06-14T18:35:14.000Z</time>
      </trkpt>
      <trkpt lat="45.83634" lon="4.71187">
        <ele>293.23907</ele>
        <time>2023-06-14T18:35:15.000Z</time>
      </trkpt>
      <trkpt lat="45.83631" lon="4.71184">
        <ele>293.35745</ele>
        <time>2023-06-14T18:35:16.000Z</time>
      </trkpt>
      <trkpt lat="45.83629" lon="4.71182">
        <ele>293.46411</ele>
        <time>2023-06-14T18:35:17.000Z</time>
      </trkpt>
      <trkpt lat="45.83626" lon="4.7118">
        <ele>293.56082</ele>
        <time>2023-06-14T18:35:18.000Z</time>
      </trkpt>
      <trkpt lat="45.83623" lon="4.71178">
        <ele>293.65338</ele>
        <time>2023-06-14T18:35:19.000Z</time>
      </trkpt>
      <trkpt lat="45.8362" lon="4.71176">
        <ele>293.81659</ele>
        <time>2023-06-14T18:35:20.000Z</time>
      </trkpt>
      <trkpt lat="45.83617" lon="4.71174">
        <ele>293.96899</ele>
        <time>2023-06-14T18:35:21.000Z</time>
      </trkpt>
      <trkpt lat="45.83614" lon="4.71173">
        <ele>294.06058</ele>
        <time>2023-06-14T18:35:22.000Z</time>
      </trkpt>
      <trkpt lat="45.83611" lon="4.71171">
        <ele>294.14413</ele>
        <time>2023-06-14T18:35:23.000Z</time>
      </trkpt>
      <trkpt lat="45.83609" lon="4.7117">
        <ele>294.17737</ele>
        <time>2023-06-14T18:35:24.000Z</time>
      </trkpt>
      <trkpt lat="45.83606" lon="4.71169">
        <ele>294.18781</ele>
        <time>2023-06-14T18:35:25.000Z</time>
      </trkpt>
      <trkpt lat="45.83603" lon="4.71167">
        <ele>294.23575</ele>
        <time>2023-06-14T18:35:26.000Z</time>
      </trkpt>
      <trkpt lat="45.836" lon="4.71166">
        <ele>294.30832</ele>
        <time>2023-06-14T18:35:27.000Z</time>
      </trkpt>
      <trkpt lat="45.83597" lon="4.71164">
        <ele>294.38443</ele>
        <time>2023-06-14T18:35:28.000Z</time>
      </trkpt>
      <trkpt lat="45.83594" lon="4.71163">
        <ele>294.47815</ele>
        <time>2023-06-14T18:35:29.000Z</time>
      </trkpt>
      <trkpt lat="45.83592" lon="4.71162">
        <ele>294.55203</ele>
        <time>2023-06-14T18:35:30.000Z</time>
      </trkpt>
      <trkpt lat="45.83589" lon="4.7116">
        <ele>294.63483</ele>
        <time>2023-06-14T18:35:31.000Z</time>
      </trkpt>
      <trkpt lat="45.83586" lon="4.71158">
        <ele>294.73029</ele>
        <time>2023-06-14T18:35:32.000Z</time>
      </trkpt>
      <trkpt lat="45.83583" lon="4.71156">
        <ele>294.86261</ele>
        <time>2023-06-14T18:35:33.000Z</time>
      </trkpt>
      <trkpt lat="45.8358" lon="4.71154">
        <ele>294.992</ele>
        <time>2023-06-14T18:35:34.000Z</time>
      </trkpt>
      <trkpt lat="45.83577" lon="4.71152">
        <ele>295.19708</ele>
        <time>2023-06-14T18:35:35.000Z</time>
      </trkpt>
      <trkpt lat="45.83574" lon="4.7115">
        <ele>295.38989</ele>
        <time>2023-06-14T18:35:36.000Z</time>
      </trkpt>
      <trkpt lat="45.83572" lon="4.71146">
        <ele>295.57745</ele>
        <time>2023-06-14T18:35:37.000Z</time>
      </trkpt>
      <trkpt lat="45.8357" lon="4.71142">
        <ele>295.74704</ele>
        <time>2023-06-14T18:35:38.000Z</time>
      </trkpt>
      <trkpt lat="45.8357" lon="4.71137">
        <ele>295.90695</ele>
        <time>2023-06-14T18:35:39.000Z</time>
      </trkpt>
      <trkpt lat="45.83571" lon="4.71131">
        <ele>296.02563</ele>
        <time>2023-06-14T18:35:40.000Z</time>
      </trkpt>
      <trkpt lat="45.83573" lon="4.71126">
        <ele>296.14386</ele>
        <time>2023-06-14T18:35:41.000Z</time>
      </trkpt>
      <trkpt lat="45.83574" lon="4.71121">
        <ele>296.23019</ele>
        <time>2023-06-14T18:35:42.000Z</time>
      </trkpt>
      <trkpt lat="45.83576" lon="4.71116">
        <ele>296.29913</ele>
        <time>2023-06-14T18:35:43.000Z</time>
      </trkpt>
      <trkpt lat="45.83578" lon="4.71111">
        <ele>296.39423</ele>
        <time>2023-06-14T18:35:44.000Z</time>
      </trkpt>
      <trkpt lat="45.83579" lon="4.71106">
        <ele>296.49628</ele>
        <time>2023-06-14T18:35:45.000Z</time>
      </trkpt>
      <trkpt lat="45.83581" lon="4.71101">
        <ele>296.59421</ele>
        <time>2023-06-14T18:35:46.000Z</time>
      </trkpt>
      <trkpt lat="45.83582" lon="4.71096">
        <ele>296.67206</ele>
        <time>2023-06-14T18:35:47.000Z</time>
      </trkpt>
      <trkpt lat="45.83584" lon="4.71091">
        <ele>296.75009</ele>
        <time>2023-06-14T18:35:48.000Z</time>
      </trkpt>
      <trkpt lat="45.83585" lon="4.71086">
        <ele>296.82523</ele>
        <time>2023-06-14T18:35:49.000Z</time>
      </trkpt>
      <trkpt lat="45.83587" lon="4.71081">
        <ele>296.90607</ele>
        <time>2023-06-14T18:35:50.000Z</time>
      </trkpt>
      <trkpt lat="45.83588" lon="4.71077">
        <ele>296.99768</ele>
        <time>2023-06-14T18:35:51.000Z</time>
      </trkpt>
      <trkpt lat="45.8359" lon="4.71072">
        <ele>297.08832</ele>
        <time>2023-06-14T18:35:52.000Z</time>
      </trkpt>
      <trkpt lat="45.83591" lon="4.71068">
        <ele>297.18262</ele>
        <time>2023-06-14T18:35:53.000Z</time>
      </trkpt>
      <trkpt lat="45.83592" lon="4.71063">
        <ele>297.25424</ele>
        <time>2023-06-14T18:35:54.000Z</time>
      </trkpt>
      <trkpt lat="45.83592" lon="4.71058">
        <ele>297.32611</ele>
        <time>2023-06-14T18:35:55.000Z</time>
      </trkpt>
      <trkpt lat="45.8359" lon="4.71053">
        <ele>297.42014</ele>
        <time>2023-06-14T18:35:56.000Z</time>
      </trkpt>
      <trkpt lat="45.83588" lon="4.71049">
        <ele>297.52911</ele>
        <time>2023-06-14T18:35:57.000Z</time>
      </trkpt>
      <trkpt lat="45.83585" lon="4.71046">
        <ele>297.6416</ele>
        <time>2023-06-14T18:35:58.000Z</time>
      </trkpt>
      <trkpt lat="45.83581" lon="4.71043">
        <ele>297.75009</ele>
        <time>2023-06-14T18:35:59.000Z</time>
      </trkpt>
      <trkpt lat="45.83578" lon="4.71041">
        <ele>297.86896</ele>
        <time>2023-06-14T18:36:00.000Z</time>
      </trkpt>
      <trkpt lat="45.83574" lon="4.71039">
        <ele>297.96393</ele>
        <time>2023-06-14T18:36:01.000Z</time>
      </trkpt>
      <trkpt lat="45.83571" lon="4.71037">
        <ele>298.08405</ele>
        <time>2023-06-14T18:36:02.000Z</time>
      </trkpt>
      <trkpt lat="45.83567" lon="4.71035">
        <ele>298.19992</ele>
        <time>2023-06-14T18:36:03.000Z</time>
      </trkpt>
      <trkpt lat="45.83564" lon="4.71033">
        <ele>298.30777</ele>
        <time>2023-06-14T18:36:04.000Z</time>
      </trkpt>
      <trkpt lat="45.8356" lon="4.71031">
        <ele>298.41208</ele>
        <time>2023-06-14T18:36:05.000Z</time>
      </trkpt>
      <trkpt lat="45.83556" lon="4.71029">
        <ele>298.52365</ele>
        <time>2023-06-14T18:36:06.000Z</time>
      </trkpt>
      <trkpt lat="45.83553" lon="4.71027">
        <ele>298.64963</ele>
        <time>2023-06-14T18:36:07.000Z</time>
      </trkpt>
      <trkpt lat="45.83549" lon="4.71024">
        <ele>298.759</ele>
        <time>2023-06-14T18:36:08.000Z</time>
      </trkpt>
      <trkpt lat="45.83546" lon="4.71021">
        <ele>298.89749</ele>
        <time>2023-06-14T18:36:09.000Z</time>
      </trkpt>
      <trkpt lat="45.83542" lon="4.71019">
        <ele>299.03772</ele>
        <time>2023-06-14T18:36:10.000Z</time>
      </trkpt>
      <trkpt lat="45.83539" lon="4.71016">
        <ele>299.17102</ele>
        <time>2023-06-14T18:36:11.000Z</time>
      </trkpt>
      <trkpt lat="45.83535" lon="4.71013">
        <ele>299.30209</ele>
        <time>2023-06-14T18:36:12.000Z</time>
      </trkpt>
      <trkpt lat="45.83531" lon="4.7101">
        <ele>299.42435</ele>
        <time>2023-06-14T18:36:13.000Z</time>
      </trkpt>
      <trkpt lat="45.83528" lon="4.71007">
        <ele>299.52469</ele>
        <time>2023-06-14T18:36:14.000Z</time>
      </trkpt>
      <trkpt lat="45.83524" lon="4.71004">
        <ele>299.60413</ele>
        <time>2023-06-14T18:36:15.000Z</time>
      </trkpt>
      <trkpt lat="45.83521" lon="4.71001">
        <ele>299.72849</ele>
        <time>2023-06-14T18:36:16.000Z</time>
      </trkpt>
      <trkpt lat="45.83518" lon="4.70997">
        <ele>299.82657</ele>
        <time>2023-06-14T18:36:17.000Z</time>
      </trkpt>
      <trkpt lat="45.83515" lon="4.70995">
        <ele>299.85645</ele>
        <time>2023-06-14T18:36:18.000Z</time>
      </trkpt>
      <trkpt lat="45.8351" lon="4.70994">
        <ele>299.9173</ele>
        <time>2023-06-14T18:36:19.000Z</time>
      </trkpt>
      <trkpt lat="45.83506" lon="4.70993">
        <ele>300.00439</ele>
        <time>2023-06-14T18:36:20.000Z</time>
      </trkpt>
      <trkpt lat="45.83502" lon="4.70992">
        <ele>300.09546</ele>
        <time>2023-06-14T18:36:21.000Z</time>
      </trkpt>
      <trkpt lat="45.83498" lon="4.7099">
        <ele>300.1994</ele>
        <time>2023-06-14T18:36:22.000Z</time>
      </trkpt>
      <trkpt lat="45.83494" lon="4.7099">
        <ele>300.2991</ele>
        <time>2023-06-14T18:36:23.000Z</time>
      </trkpt>
      <trkpt lat="45.8349" lon="4.7099">
        <ele>300.38629</ele>
        <time>2023-06-14T18:36:24.000Z</time>
      </trkpt>
      <trkpt lat="45.83487" lon="4.7099">
        <ele>300.44949</ele>
        <time>2023-06-14T18:36:25.000Z</time>
      </trkpt>
      <trkpt lat="45.83484" lon="4.70991">
        <ele>300.46619</ele>
        <time>2023-06-14T18:36:26.000Z</time>
      </trkpt>
      <trkpt lat="45.83481" lon="4.7099">
        <ele>300.49704</ele>
        <time>2023-06-14T18:36:27.000Z</time>
      </trkpt>
      <trkpt lat="45.83476" lon="4.70991">
        <ele>300.54102</ele>
        <time>2023-06-14T18:36:28.000Z</time>
      </trkpt>
      <trkpt lat="45.83472" lon="4.70991">
        <ele>300.58752</ele>
        <time>2023-06-14T18:36:29.000Z</time>
      </trkpt>
      <trkpt lat="45.83467" lon="4.70991">
        <ele>300.59494</ele>
        <time>2023-06-14T18:36:30.000Z</time>
      </trkpt>
      <trkpt lat="45.83463" lon="4.70991">
        <ele>300.62372</ele>
        <time>2023-06-14T18:36:31.000Z</time>
      </trkpt>
      <trkpt lat="45.83459" lon="4.70991">
        <ele>300.6192</ele>
        <time>2023-06-14T18:36:32.000Z</time>
      </trkpt>
      <trkpt lat="45.83455" lon="4.70991">
        <ele>300.5899</ele>
        <time>2023-06-14T18:36:33.000Z</time>
      </trkpt>
      <trkpt lat="45.83452" lon="4.70991">
        <ele>300.60303</ele>
        <time>2023-06-14T18:36:34.000Z</time>
      </trkpt>
      <trkpt lat="45.83448" lon="4.70991">
        <ele>300.61005</ele>
        <time>2023-06-14T18:36:35.000Z</time>
      </trkpt>
      <trkpt lat="45.83445" lon="4.7099">
        <ele>300.55939</ele>
        <time>2023-06-14T18:36:36.000Z</time>
      </trkpt>
      <trkpt lat="45.83441" lon="4.7099">
        <ele>300.52945</ele>
        <time>2023-06-14T18:36:37.000Z</time>
      </trkpt>
      <trkpt lat="45.83437" lon="4.70989">
        <ele>300.5524</ele>
        <time>2023-06-14T18:36:38.000Z</time>
      </trkpt>
      <trkpt lat="45.83434" lon="4.70989">
        <ele>300.48969</ele>
        <time>2023-06-14T18:36:39.000Z</time>
      </trkpt>
      <trkpt lat="45.8343" lon="4.70989">
        <ele>300.42578</ele>
        <time>2023-06-14T18:36:40.000Z</time>
      </trkpt>
      <trkpt lat="45.83426" lon="4.70989">
        <ele>300.41367</ele>
        <time>2023-06-14T18:36:41.000Z</time>
      </trkpt>
      <trkpt lat="45.83422" lon="4.70989">
        <ele>300.40323</ele>
        <time>2023-06-14T18:36:42.000Z</time>
      </trkpt>
      <trkpt lat="45.83419" lon="4.70988">
        <ele>300.47031</ele>
        <time>2023-06-14T18:36:43.000Z</time>
      </trkpt>
      <trkpt lat="45.83414" lon="4.70988">
        <ele>300.56903</ele>
        <time>2023-06-14T18:36:44.000Z</time>
      </trkpt>
      <trkpt lat="45.8341" lon="4.70988">
        <ele>300.74747</ele>
        <time>2023-06-14T18:36:45.000Z</time>
      </trkpt>
      <trkpt lat="45.83406" lon="4.70989">
        <ele>300.97083</ele>
        <time>2023-06-14T18:36:46.000Z</time>
      </trkpt>
      <trkpt lat="45.83402" lon="4.7099">
        <ele>301.17123</ele>
        <time>2023-06-14T18:36:47.000Z</time>
      </trkpt>
      <trkpt lat="45.83398" lon="4.7099">
        <ele>301.37769</ele>
        <time>2023-06-14T18:36:48.000Z</time>
      </trkpt>
      <trkpt lat="45.83393" lon="4.70991">
        <ele>301.56042</ele>
        <time>2023-06-14T18:36:49.000Z</time>
      </trkpt>
      <trkpt lat="45.8339" lon="4.70992">
        <ele>301.78851</ele>
        <time>2023-06-14T18:36:50.000Z</time>
      </trkpt>
      <trkpt lat="45.83384" lon="4.70995">
        <ele>301.98206</ele>
        <time>2023-06-14T18:36:51.000Z</time>
      </trkpt>
      <trkpt lat="45.8338" lon="4.70995">
        <ele>302.21161</ele>
        <time>2023-06-14T18:36:52.000Z</time>
      </trkpt>
      <trkpt lat="45.83376" lon="4.70995">
        <ele>302.47638</ele>
        <time>2023-06-14T18:36:53.000Z</time>
      </trkpt>
      <trkpt lat="45.83371" lon="4.70996">
        <ele>302.7439</ele>
        <time>2023-06-14T18:36:54.000Z</time>
      </trkpt>
      <trkpt lat="45.83367" lon="4.70997">
        <ele>302.99988</ele>
        <time>2023-06-14T18:36:55.000Z</time>
      </trkpt>
      <trkpt lat="45.83363" lon="4.70996">
        <ele>303.25266</ele>
        <time>2023-06-14T18:36:56.000Z</time>
      </trkpt>
      <trkpt lat="45.83359" lon="4.70996">
        <ele>303.50479</ele>
        <time>2023-06-14T18:36:57.000Z</time>
      </trkpt>
      <trkpt lat="45.83354" lon="4.70996">
        <ele>303.79965</ele>
        <time>2023-06-14T18:36:58.000Z</time>
      </trkpt>
      <trkpt lat="45.83351" lon="4.70997">
        <ele>304.15707</ele>
        <time>2023-06-14T18:36:59.000Z</time>
      </trkpt>
      <trkpt lat="45.83348" lon="4.70996">
        <ele>304.49457</ele>
        <time>2023-06-14T18:37:00.000Z</time>
      </trkpt>
      <trkpt lat="45.83344" lon="4.70996">
        <ele>304.80087</ele>
        <time>2023-06-14T18:37:01.000Z</time>
      </trkpt>
      <trkpt lat="45.83341" lon="4.70996">
        <ele>305.07159</ele>
        <time>2023-06-14T18:37:02.000Z</time>
      </trkpt>
      <trkpt lat="45.83337" lon="4.70997">
        <ele>305.28204</ele>
        <time>2023-06-14T18:37:03.000Z</time>
      </trkpt>
      <trkpt lat="45.83333" lon="4.70998">
        <ele>305.47052</ele>
        <time>2023-06-14T18:37:04.000Z</time>
      </trkpt>
      <trkpt lat="45.8333" lon="4.70998">
        <ele>305.62018</ele>
        <time>2023-06-14T18:37:05.000Z</time>
      </trkpt>
      <trkpt lat="45.83327" lon="4.70998">
        <ele>305.74506</ele>
        <time>2023-06-14T18:37:06.000Z</time>
      </trkpt>
      <trkpt lat="45.83323" lon="4.70997">
        <ele>305.83182</ele>
        <time>2023-06-14T18:37:07.000Z</time>
      </trkpt>
      <trkpt lat="45.83319" lon="4.70996">
        <ele>305.89941</ele>
        <time>2023-06-14T18:37:08.000Z</time>
      </trkpt>
      <trkpt lat="45.83316" lon="4.70994">
        <ele>305.94876</ele>
        <time>2023-06-14T18:37:09.000Z</time>
      </trkpt>
      <trkpt lat="45.83312" lon="4.7099">
        <ele>305.99759</ele>
        <time>2023-06-14T18:37:10.000Z</time>
      </trkpt>
      <trkpt lat="45.8331" lon="4.70986">
        <ele>306.02399</ele>
        <time>2023-06-14T18:37:11.000Z</time>
      </trkpt>
      <trkpt lat="45.8331" lon="4.70981">
        <ele>306.07104</ele>
        <time>2023-06-14T18:37:12.000Z</time>
      </trkpt>
      <trkpt lat="45.83311" lon="4.70977">
        <ele>306.08347</ele>
        <time>2023-06-14T18:37:13.000Z</time>
      </trkpt>
      <trkpt lat="45.83312" lon="4.70974">
        <ele>306.1022</ele>
        <time>2023-06-14T18:37:14.000Z</time>
      </trkpt>
      <trkpt lat="45.83314" lon="4.70971">
        <ele>306.1265</ele>
        <time>2023-06-14T18:37:15.000Z</time>
      </trkpt>
      <trkpt lat="45.83315" lon="4.70968">
        <ele>306.15567</ele>
        <time>2023-06-14T18:37:16.000Z</time>
      </trkpt>
      <trkpt lat="45.83316" lon="4.70965">
        <ele>306.17755</ele>
        <time>2023-06-14T18:37:17.000Z</time>
      </trkpt>
      <trkpt lat="45.83318" lon="4.70963">
        <ele>306.19305</ele>
        <time>2023-06-14T18:37:18.000Z</time>
      </trkpt>
      <trkpt lat="45.83319" lon="4.7096">
        <ele>306.2066</ele>
        <time>2023-06-14T18:37:19.000Z</time>
      </trkpt>
      <trkpt lat="45.8332" lon="4.70957">
        <ele>306.23688</ele>
        <time>2023-06-14T18:37:21.000Z</time>
      </trkpt>
    </trkseg>
  </trk>
</gpx>